Wetterdaten: Montag, 02.10.2017
Datum Zeit Temp. A. Temp. A. max Feuchte A. Luftdruck Regen Wind Richtung Richtung Sonnenschein ET UV Solar Taupunkt Windchill Windböen
02.10.2017 00:00 7,7 °C 7,7 °C 96 % 1021,1 hPa 0,0 mm 0,0 km/h (0 Bft) O-SO 115 ° 0 min 0,000 mm 0,0 UV-I 0 W/m² 7,1 °C 7,7 °C 0,0 km/h (0 Bft)
02.10.2017 00:01 7,7 °C 7,7 °C 95 % 1021,1 hPa 0,0 mm 0,0 km/h (0 Bft) O-SO 115 ° 0 min 0,000 mm 0,0 UV-I 0 W/m² 7,0 °C 7,7 °C 0,0 km/h (0 Bft)
02.10.2017 00:02 7,7 °C 7,7 °C 95 % 1021,1 hPa 0,0 mm 0,0 km/h (0 Bft) O-SO 115 ° 0 min 0,000 mm 0,0 UV-I 0 W/m² 7,0 °C 7,7 °C 0,0 km/h (0 Bft)
02.10.2017 00:03 7,7 °C 7,7 °C 95 % 1021,1 hPa 0,0 mm 0,0 km/h (0 Bft) O-SO 115 ° 0 min 0,000 mm 0,0 UV-I 0 W/m² 7,0 °C 7,7 °C 0,0 km/h (0 Bft)
02.10.2017 00:04 7,7 °C 7,7 °C 96 % 1021,1 hPa 0,0 mm 0,0 km/h (0 Bft) O-SO 115 ° 0 min 0,000 mm 0,0 UV-I 0 W/m² 7,1 °C 7,7 °C 0,0 km/h (0 Bft)
02.10.2017 00:05 7,7 °C 7,7 °C 96 % 1021,1 hPa 0,0 mm 0,0 km/h (0 Bft) O-SO 115 ° 0 min 0,000 mm 0,0 UV-I 0 W/m² 7,1 °C 7,7 °C 0,0 km/h (0 Bft)
02.10.2017 00:06 7,8 °C 7,8 °C 96 % 1021,1 hPa 0,0 mm 0,0 km/h (0 Bft) O-SO 115 ° 0 min 0,000 mm 0,0 UV-I 0 W/m² 7,2 °C 7,8 °C 0,0 km/h (0 Bft)
02.10.2017 00:07 7,8 °C 7,8 °C 96 % 1021,1 hPa 0,0 mm 0,0 km/h (0 Bft) O-SO 115 ° 0 min 0,000 mm 0,0 UV-I 0 W/m² 7,2 °C 7,8 °C 0,0 km/h (0 Bft)
02.10.2017 00:08 7,9 °C 7,9 °C 96 % 1021,1 hPa 0,0 mm 0,0 km/h (0 Bft) O-SO 115 ° 0 min 0,000 mm 0,0 UV-I 0 W/m² 7,3 °C 7,9 °C 0,0 km/h (0 Bft)
02.10.2017 00:09 7,9 °C 7,9 °C 96 % 1021,1 hPa 0,0 mm 0,0 km/h (0 Bft) O-SO 115 ° 0 min 0,000 mm 0,0 UV-I 0 W/m² 7,3 °C 7,9 °C 0,0 km/h (0 Bft)
02.10.2017 00:10 8,0 °C 8,0 °C 96 % 1021,1 hPa 0,0 mm 0,0 km/h (0 Bft) O-SO 115 ° 0 min 0,000 mm 0,0 UV-I 0 W/m² 7,4 °C 8,0 °C 0,0 km/h (0 Bft)
02.10.2017 00:11 8,1 °C 8,1 °C 96 % 1021,1 hPa 0,0 mm 0,0 km/h (0 Bft) O-SO 115 ° 0 min 0,000 mm 0,0 UV-I 0 W/m² 7,5 °C 8,1 °C 0,0 km/h (0 Bft)
02.10.2017 00:12 8,1 °C 8,1 °C 96 % 1021,1 hPa 0,0 mm 0,0 km/h (0 Bft) O-SO 115 ° 0 min 0,000 mm 0,0 UV-I 0 W/m² 7,5 °C 8,1 °C 0,0 km/h (0 Bft)
02.10.2017 00:13 8,1 °C 8,1 °C 96 % 1021,1 hPa 0,0 mm 0,0 km/h (0 Bft) O-SO 115 ° 0 min 0,000 mm 0,0 UV-I 0 W/m² 7,5 °C 8,1 °C 0,0 km/h (0 Bft)
02.10.2017 00:14 8,1 °C 8,1 °C 96 % 1021,1 hPa 0,0 mm 0,0 km/h (0 Bft) O-SO 115 ° 0 min 0,000 mm 0,0 UV-I 0 W/m² 7,5 °C 8,1 °C 0,0 km/h (0 Bft)
02.10.2017 00:15 8,0 °C 8,1 °C 96 % 1021,1 hPa 0,0 mm 0,0 km/h (0 Bft) O-SO 115 ° 0 min 0,000 mm 0,0 UV-I 0 W/m² 7,4 °C 8,0 °C 0,0 km/h (0 Bft)
02.10.2017 00:16 7,9 °C 8,0 °C 96 % 1021,1 hPa 0,0 mm 0,0 km/h (0 Bft) O-SO 115 ° 0 min 0,000 mm 0,0 UV-I 0 W/m² 7,3 °C 7,9 °C 0,0 km/h (0 Bft)
02.10.2017 00:17 7,7 °C 7,9 °C 96 % 1021,1 hPa 0,0 mm 0,0 km/h (0 Bft) O-SO 115 ° 0 min 0,000 mm 0,0 UV-I 0 W/m² 7,1 °C 7,7 °C 0,0 km/h (0 Bft)
02.10.2017 00:18 7,6 °C 7,7 °C 96 % 1021,1 hPa 0,0 mm 0,0 km/h (0 Bft) O-SO 115 ° 0 min 0,000 mm 0,0 UV-I 0 W/m² 7,0 °C 7,6 °C 0,0 km/h (0 Bft)
02.10.2017 00:19 7,5 °C 7,6 °C 95 % 1021,1 hPa 0,0 mm 0,0 km/h (0 Bft) O-SO 115 ° 0 min 0,000 mm 0,0 UV-I 0 W/m² 6,8 °C 7,5 °C 0,0 km/h (0 Bft)
02.10.2017 00:20 7,4 °C 7,5 °C 95 % 1021,2 hPa 0,0 mm 0,0 km/h (0 Bft) O-SO 115 ° 0 min 0,000 mm 0,0 UV-I 0 W/m² 6,7 °C 7,4 °C 0,0 km/h (0 Bft)
02.10.2017 00:21 7,5 °C 7,5 °C 96 % 1021,1 hPa 0,0 mm 0,0 km/h (0 Bft) O-SO 115 ° 0 min 0,000 mm 0,0 UV-I 0 W/m² 6,9 °C 7,5 °C 0,0 km/h (0 Bft)
02.10.2017 00:22 7,6 °C 7,6 °C 96 % 1021,1 hPa 0,0 mm 0,0 km/h (0 Bft) O-SO 115 ° 0 min 0,000 mm 0,0 UV-I 0 W/m² 7,0 °C 7,6 °C 0,0 km/h (0 Bft)
02.10.2017 00:23 7,6 °C 7,6 °C 96 % 1021,1 hPa 0,0 mm 0,0 km/h (0 Bft) O-SO 115 ° 0 min 0,000 mm 0,0 UV-I 0 W/m² 7,0 °C 7,6 °C 0,0 km/h (0 Bft)
02.10.2017 00:24 7,4 °C 7,6 °C 96 % 1021,1 hPa 0,0 mm 0,0 km/h (0 Bft) O-SO 115 ° 0 min 0,000 mm 0,0 UV-I 0 W/m² 6,8 °C 7,4 °C 0,0 km/h (0 Bft)
02.10.2017 00:25 7,4 °C 7,4 °C 95 % 1021,0 hPa 0,0 mm 0,0 km/h (0 Bft) O-SO 115 ° 0 min 0,000 mm 0,0 UV-I 0 W/m² 6,7 °C 7,4 °C 0,0 km/h (0 Bft)
02.10.2017 00:26 7,3 °C 7,4 °C 96 % 1021,1 hPa 0,0 mm 0,0 km/h (0 Bft) O-SO 115 ° 0 min 0,000 mm 0,0 UV-I 0 W/m² 6,7 °C 7,3 °C 0,0 km/h (0 Bft)
02.10.2017 00:27 7,3 °C 7,3 °C 96 % 1021,1 hPa 0,0 mm 0,0 km/h (0 Bft) O-SO 115 ° 0 min 0,000 mm 0,0 UV-I 0 W/m² 6,7 °C 7,3 °C 0,0 km/h (0 Bft)
02.10.2017 00:28 7,4 °C 7,4 °C 96 % 1021,1 hPa 0,0 mm 0,0 km/h (0 Bft) O-SO 115 ° 0 min 0,000 mm 0,0 UV-I 0 W/m² 6,8 °C 7,4 °C 0,0 km/h (0 Bft)
02.10.2017 00:29 7,4 °C 7,4 °C 96 % 1021,1 hPa 0,0 mm 0,0 km/h (0 Bft) O-SO 115 ° 0 min 0,000 mm 0,0 UV-I 0 W/m² 6,8 °C 7,4 °C 0,0 km/h (0 Bft)
02.10.2017 00:30 7,4 °C 7,4 °C 96 % 1021,1 hPa 0,0 mm 0,0 km/h (0 Bft) O-SO 115 ° 0 min 0,000 mm 0,0 UV-I 0 W/m² 6,8 °C 7,4 °C 0,0 km/h (0 Bft)
02.10.2017 00:31 7,4 °C 7,4 °C 96 % 1021,0 hPa 0,0 mm 0,0 km/h (0 Bft) O-SO 115 ° 0 min 0,000 mm 0,0 UV-I 0 W/m² 6,8 °C 7,4 °C 0,0 km/h (0 Bft)
02.10.2017 00:32 7,4 °C 7,4 °C 96 % 1021,1 hPa 0,0 mm 0,0 km/h (0 Bft) O-SO 115 ° 0 min 0,000 mm 0,0 UV-I 0 W/m² 6,8 °C 7,4 °C 0,0 km/h (0 Bft)
02.10.2017 00:33 7,5 °C 7,5 °C 96 % 1021,0 hPa 0,0 mm 0,0 km/h (0 Bft) O-SO 115 ° 0 min 0,000 mm 0,0 UV-I 0 W/m² 6,9 °C 7,5 °C 0,0 km/h (0 Bft)
02.10.2017 00:34 7,6 °C 7,6 °C 96 % 1021,0 hPa 0,0 mm 0,0 km/h (0 Bft) O-SO 115 ° 0 min 0,000 mm 0,0 UV-I 0 W/m² 7,0 °C 7,6 °C 0,0 km/h (0 Bft)
02.10.2017 00:35 7,3 °C 7,6 °C 96 % 1021,0 hPa 0,0 mm 0,0 km/h (0 Bft) O-SO 115 ° 0 min 0,000 mm 0,0 UV-I 0 W/m² 6,7 °C 7,3 °C 0,0 km/h (0 Bft)
02.10.2017 00:36 7,2 °C 7,3 °C 96 % 1021,0 hPa 0,0 mm 0,0 km/h (0 Bft) O-SO 115 ° 0 min 0,000 mm 0,0 UV-I 0 W/m² 6,6 °C 7,2 °C 0,0 km/h (0 Bft)
02.10.2017 00:37 7,1 °C 7,2 °C 95 % 1021,0 hPa 0,0 mm 0,0 km/h (0 Bft) O-SO 115 ° 0 min 0,000 mm 0,0 UV-I 0 W/m² 6,4 °C 7,1 °C 0,0 km/h (0 Bft)
02.10.2017 00:38 6,9 °C 7,1 °C 95 % 1021,0 hPa 0,0 mm 0,0 km/h (0 Bft) O-SO 115 ° 0 min 0,000 mm 0,0 UV-I 0 W/m² 6,2 °C 6,9 °C 0,0 km/h (0 Bft)
02.10.2017 00:39 6,8 °C 6,9 °C 95 % 1021,0 hPa 0,0 mm 0,0 km/h (0 Bft) O-SO 115 ° 0 min 0,000 mm 0,0 UV-I 0 W/m² 6,1 °C 6,8 °C 0,0 km/h (0 Bft)
02.10.2017 00:40 6,8 °C 6,8 °C 95 % 1021,0 hPa 0,0 mm 0,0 km/h (0 Bft) O-SO 115 ° 0 min 0,000 mm 0,0 UV-I 0 W/m² 6,1 °C 6,8 °C 0,0 km/h (0 Bft)
02.10.2017 00:41 6,7 °C 6,8 °C 95 % 1021,0 hPa 0,0 mm 0,0 km/h (0 Bft) O-SO 115 ° 0 min 0,000 mm 0,0 UV-I 0 W/m² 6,0 °C 6,7 °C 0,0 km/h (0 Bft)
02.10.2017 00:42 6,7 °C 6,7 °C 95 % 1021,0 hPa 0,0 mm 0,0 km/h (0 Bft) O-SO 115 ° 0 min 0,000 mm 0,0 UV-I 0 W/m² 6,0 °C 6,7 °C 0,0 km/h (0 Bft)
02.10.2017 00:43 6,7 °C 6,7 °C 95 % 1021,0 hPa 0,0 mm 0,0 km/h (0 Bft) O-SO 115 ° 0 min 0,000 mm 0,0 UV-I 0 W/m² 6,0 °C 6,7 °C 0,0 km/h (0 Bft)
02.10.2017 00:44 6,6 °C 6,7 °C 95 % 1021,0 hPa 0,0 mm 0,0 km/h (0 Bft) O-SO 115 ° 0 min 0,000 mm 0,0 UV-I 0 W/m² 5,9 °C 6,6 °C 0,0 km/h (0 Bft)
02.10.2017 00:45 6,5 °C 6,6 °C 95 % 1021,0 hPa 0,0 mm 0,0 km/h (0 Bft) O-SO 115 ° 0 min 0,000 mm 0,0 UV-I 0 W/m² 5,8 °C 6,5 °C 0,0 km/h (0 Bft)
02.10.2017 00:46 6,5 °C 6,5 °C 95 % 1021,0 hPa 0,0 mm 0,0 km/h (0 Bft) O-SO 115 ° 0 min 0,000 mm 0,0 UV-I 0 W/m² 5,8 °C 6,5 °C 0,0 km/h (0 Bft)
02.10.2017 00:47 6,4 °C 6,5 °C 96 % 1021,0 hPa 0,0 mm 0,0 km/h (0 Bft) O-SO 115 ° 0 min 0,000 mm 0,0 UV-I 0 W/m² 5,8 °C 6,4 °C 0,0 km/h (0 Bft)
02.10.2017 00:48 6,4 °C 6,5 °C 96 % 1021,0 hPa 0,0 mm 0,0 km/h (0 Bft) O-SO 115 ° 0 min 0,000 mm 0,0 UV-I 0 W/m² 5,8 °C 6,4 °C 0,0 km/h (0 Bft)
02.10.2017 00:49 6,5 °C 6,5 °C 96 % 1021,0 hPa 0,0 mm 0,0 km/h (0 Bft) O-SO 115 ° 0 min 0,000 mm 0,0 UV-I 0 W/m² 5,9 °C 6,5 °C 0,0 km/h (0 Bft)
02.10.2017 00:50 6,6 °C 6,6 °C 96 % 1020,9 hPa 0,0 mm 0,0 km/h (0 Bft) O-SO 115 ° 0 min 0,000 mm 0,0 UV-I 0 W/m² 6,0 °C 6,6 °C 0,0 km/h (0 Bft)
02.10.2017 00:51 6,6 °C 6,6 °C 96 % 1020,9 hPa 0,0 mm 0,0 km/h (0 Bft) O-SO 115 ° 0 min 0,000 mm 0,0 UV-I 0 W/m² 6,0 °C 6,6 °C 0,0 km/h (0 Bft)
02.10.2017 00:52 6,7 °C 6,7 °C 96 % 1021,0 hPa 0,0 mm 0,0 km/h (0 Bft) O-SO 115 ° 0 min 0,000 mm 0,0 UV-I 0 W/m² 6,1 °C 6,7 °C 0,0 km/h (0 Bft)
02.10.2017 00:53 6,6 °C 6,7 °C 96 % 1021,0 hPa 0,0 mm 0,0 km/h (0 Bft) O-SO 115 ° 0 min 0,000 mm 0,0 UV-I 0 W/m² 6,0 °C 6,6 °C 0,0 km/h (0 Bft)
02.10.2017 00:54 6,6 °C 6,6 °C 96 % 1021,0 hPa 0,0 mm 0,0 km/h (0 Bft) O-SO 115 ° 0 min 0,000 mm 0,0 UV-I 0 W/m² 6,0 °C 6,6 °C 0,0 km/h (0 Bft)
02.10.2017 00:55 6,6 °C 6,6 °C 96 % 1020,9 hPa 0,0 mm 0,0 km/h (0 Bft) O-SO 115 ° 0 min 0,000 mm 0,0 UV-I 0 W/m² 6,0 °C 6,6 °C 0,0 km/h (0 Bft)
02.10.2017 00:56 6,5 °C 6,6 °C 96 % 1021,0 hPa 0,0 mm 0,0 km/h (0 Bft) O-SO 115 ° 0 min 0,000 mm 0,0 UV-I 0 W/m² 5,9 °C 6,5 °C 0,0 km/h (0 Bft)
02.10.2017 00:57 6,5 °C 6,5 °C 96 % 1021,0 hPa 0,0 mm 0,0 km/h (0 Bft) O-SO 115 ° 0 min 0,000 mm 0,0 UV-I 0 W/m² 5,9 °C 6,5 °C 0,0 km/h (0 Bft)
02.10.2017 00:58 6,6 °C 6,6 °C 96 % 1021,0 hPa 0,0 mm 0,0 km/h (0 Bft) O-SO 115 ° 0 min 0,000 mm 0,0 UV-I 0 W/m² 6,0 °C 6,6 °C 0,0 km/h (0 Bft)
02.10.2017 00:59 6,6 °C 6,6 °C 96 % 1020,9 hPa 0,0 mm 0,0 km/h (0 Bft) O-SO 115 ° 0 min 0,000 mm 0,0 UV-I 0 W/m² 6,0 °C 6,6 °C 0,0 km/h (0 Bft)
02.10.2017 01:00 6,6 °C 6,6 °C 96 % 1020,9 hPa 0,0 mm 0,0 km/h (0 Bft) O-SO 115 ° 0 min 0,000 mm 0,0 UV-I 0 W/m² 6,0 °C 6,6 °C 0,0 km/h (0 Bft)
02.10.2017 01:01 6,7 °C 6,7 °C 96 % 1021,0 hPa 0,0 mm 0,0 km/h (0 Bft) O-SO 115 ° 0 min 0,000 mm 0,0 UV-I 0 W/m² 6,1 °C 6,7 °C 0,0 km/h (0 Bft)
02.10.2017 01:02 6,6 °C 6,7 °C 96 % 1020,9 hPa 0,0 mm 0,0 km/h (0 Bft) O-SO 115 ° 0 min 0,000 mm 0,0 UV-I 0 W/m² 6,0 °C 6,6 °C 0,0 km/h (0 Bft)
02.10.2017 01:03 6,5 °C 6,6 °C 96 % 1020,9 hPa 0,0 mm 0,0 km/h (0 Bft) O-SO 115 ° 0 min 0,000 mm 0,0 UV-I 0 W/m² 5,9 °C 6,5 °C 0,0 km/h (0 Bft)
02.10.2017 01:04 6,3 °C 6,5 °C 96 % 1021,0 hPa 0,0 mm 0,0 km/h (0 Bft) O-SO 115 ° 0 min 0,000 mm 0,0 UV-I 0 W/m² 5,7 °C 6,3 °C 0,0 km/h (0 Bft)
02.10.2017 01:05 6,2 °C 6,3 °C 95 % 1020,9 hPa 0,0 mm 0,0 km/h (0 Bft) O-SO 115 ° 0 min 0,000 mm 0,0 UV-I 0 W/m² 5,5 °C 6,2 °C 0,0 km/h (0 Bft)
02.10.2017 01:06 6,2 °C 6,2 °C 96 % 1020,9 hPa 0,0 mm 0,0 km/h (0 Bft) O-SO 115 ° 0 min 0,000 mm 0,0 UV-I 0 W/m² 5,6 °C 6,2 °C 0,0 km/h (0 Bft)
02.10.2017 01:07 6,2 °C 6,2 °C 96 % 1021,0 hPa 0,0 mm 0,0 km/h (0 Bft) O-SO 115 ° 0 min 0,000 mm 0,0 UV-I 0 W/m² 5,6 °C 6,2 °C 0,0 km/h (0 Bft)
02.10.2017 01:08 6,3 °C 6,3 °C 96 % 1021,0 hPa 0,0 mm 0,0 km/h (0 Bft) O-SO 115 ° 0 min 0,000 mm 0,0 UV-I 0 W/m² 5,7 °C 6,3 °C 0,0 km/h (0 Bft)
02.10.2017 01:09 6,2 °C 6,3 °C 96 % 1021,0 hPa 0,0 mm 0,0 km/h (0 Bft) O-SO 115 ° 0 min 0,000 mm 0,0 UV-I 0 W/m² 5,6 °C 6,2 °C 0,0 km/h (0 Bft)
02.10.2017 01:10 6,3 °C 6,3 °C 96 % 1021,0 hPa 0,0 mm 0,0 km/h (0 Bft) O-SO 115 ° 0 min 0,000 mm 0,0 UV-I 0 W/m² 5,7 °C 6,3 °C 0,0 km/h (0 Bft)
02.10.2017 01:11 6,3 °C 6,3 °C 96 % 1021,0 hPa 0,0 mm 0,0 km/h (0 Bft) O-SO 115 ° 0 min 0,000 mm 0,0 UV-I 0 W/m² 5,7 °C 6,3 °C 0,0 km/h (0 Bft)
02.10.2017 01:12 6,3 °C 6,3 °C 96 % 1021,0 hPa 0,0 mm 0,0 km/h (0 Bft) O-SO 115 ° 0 min 0,000 mm 0,0 UV-I 0 W/m² 5,7 °C 6,3 °C 0,0 km/h (0 Bft)
02.10.2017 01:13 6,3 °C 6,3 °C 96 % 1020,9 hPa 0,0 mm 0,0 km/h (0 Bft) O-SO 115 ° 0 min 0,000 mm 0,0 UV-I 0 W/m² 5,7 °C 6,3 °C 0,0 km/h (0 Bft)
02.10.2017 01:14 6,3 °C 6,3 °C 96 % 1020,9 hPa 0,0 mm 0,0 km/h (0 Bft) O-SO 115 ° 0 min 0,000 mm 0,0 UV-I 0 W/m² 5,7 °C 6,3 °C 0,0 km/h (0 Bft)
02.10.2017 01:15 6,3 °C 6,3 °C 96 % 1020,9 hPa 0,0 mm 0,0 km/h (0 Bft) O-SO 115 ° 0 min 0,000 mm 0,0 UV-I 0 W/m² 5,7 °C 6,3 °C 0,0 km/h (0 Bft)
02.10.2017 01:16 6,3 °C 6,3 °C 96 % 1020,8 hPa 0,0 mm 0,0 km/h (0 Bft) O-SO 115 ° 0 min 0,000 mm 0,0 UV-I 0 W/m² 5,7 °C 6,3 °C 0,0 km/h (0 Bft)
02.10.2017 01:17 6,3 °C 6,3 °C 96 % 1020,9 hPa 0,0 mm 0,0 km/h (0 Bft) O-SO 115 ° 0 min 0,000 mm 0,0 UV-I 0 W/m² 5,7 °C 6,3 °C 0,0 km/h (0 Bft)
02.10.2017 01:18 6,3 °C 6,3 °C 96 % 1020,9 hPa 0,0 mm 0,0 km/h (0 Bft) O-SO 115 ° 0 min 0,000 mm 0,0 UV-I 0 W/m² 5,7 °C 6,3 °C 0,0 km/h (0 Bft)
02.10.2017 01:19 6,3 °C 6,4 °C 96 % 1020,9 hPa 0,0 mm 0,0 km/h (0 Bft) O-SO 115 ° 0 min 0,000 mm 0,0 UV-I 0 W/m² 5,7 °C 6,3 °C 0,0 km/h (0 Bft)
02.10.2017 01:20 6,3 °C 6,3 °C 96 % 1020,8 hPa 0,0 mm 0,0 km/h (0 Bft) O-SO 115 ° 0 min 0,000 mm 0,0 UV-I 0 W/m² 5,7 °C 6,3 °C 0,0 km/h (0 Bft)
02.10.2017 01:21 6,2 °C 6,3 °C 96 % 1020,9 hPa 0,0 mm 0,0 km/h (0 Bft) O-SO 115 ° 0 min 0,000 mm 0,0 UV-I 0 W/m² 5,6 °C 6,2 °C 0,0 km/h (0 Bft)
02.10.2017 01:22 6,2 °C 6,3 °C 96 % 1020,8 hPa 0,0 mm 0,0 km/h (0 Bft) O-SO 115 ° 0 min 0,000 mm 0,0 UV-I 0 W/m² 5,6 °C 6,2 °C 0,0 km/h (0 Bft)
02.10.2017 01:23 6,2 °C 6,2 °C 96 % 1020,8 hPa 0,0 mm 0,0 km/h (0 Bft) O-SO 115 ° 0 min 0,000 mm 0,0 UV-I 0 W/m² 5,6 °C 6,2 °C 0,0 km/h (0 Bft)
02.10.2017 01:24 6,2 °C 6,2 °C 96 % 1020,8 hPa 0,0 mm 0,0 km/h (0 Bft) O-SO 115 ° 0 min 0,000 mm 0,0 UV-I 0 W/m² 5,6 °C 6,2 °C 0,0 km/h (0 Bft)
02.10.2017 01:25 6,2 °C 6,2 °C 96 % 1020,8 hPa 0,0 mm 0,0 km/h (0 Bft) O-SO 115 ° 0 min 0,000 mm 0,0 UV-I 0 W/m² 5,6 °C 6,2 °C 0,0 km/h (0 Bft)
02.10.2017 01:26 6,2 °C 6,2 °C 96 % 1020,8 hPa 0,0 mm 0,0 km/h (0 Bft) O-SO 115 ° 0 min 0,000 mm 0,0 UV-I 0 W/m² 5,6 °C 6,2 °C 0,0 km/h (0 Bft)
02.10.2017 01:27 6,2 °C 6,2 °C 96 % 1020,9 hPa 0,0 mm 0,0 km/h (0 Bft) O-SO 115 ° 0 min 0,000 mm 0,0 UV-I 0 W/m² 5,6 °C 6,2 °C 0,0 km/h (0 Bft)
02.10.2017 01:28 6,2 °C 6,3 °C 96 % 1020,8 hPa 0,0 mm 0,0 km/h (0 Bft) O-SO 115 ° 0 min 0,000 mm 0,0 UV-I 0 W/m² 5,6 °C 6,2 °C 0,0 km/h (0 Bft)
02.10.2017 01:29 6,3 °C 6,3 °C 96 % 1020,8 hPa 0,0 mm 0,0 km/h (0 Bft) O-SO 115 ° 0 min 0,000 mm 0,0 UV-I 0 W/m² 5,7 °C 6,3 °C 0,0 km/h (0 Bft)
02.10.2017 01:30 6,2 °C 6,3 °C 96 % 1020,8 hPa 0,0 mm 0,0 km/h (0 Bft) O-SO 115 ° 0 min 0,000 mm 0,0 UV-I 0 W/m² 5,6 °C 6,2 °C 0,0 km/h (0 Bft)
02.10.2017 01:31 6,3 °C 6,3 °C 96 % 1020,8 hPa 0,0 mm 0,0 km/h (0 Bft) O-SO 115 ° 0 min 0,000 mm 0,0 UV-I 0 W/m² 5,7 °C 6,3 °C 0,0 km/h (0 Bft)
02.10.2017 01:32 6,3 °C 6,3 °C 96 % 1020,9 hPa 0,0 mm 0,0 km/h (0 Bft) O-SO 115 ° 0 min 0,000 mm 0,0 UV-I 0 W/m² 5,7 °C 6,3 °C 0,0 km/h (0 Bft)
02.10.2017 01:33 6,2 °C 6,3 °C 96 % 1020,9 hPa 0,0 mm 0,0 km/h (0 Bft) O-SO 115 ° 0 min 0,000 mm 0,0 UV-I 0 W/m² 5,6 °C 6,2 °C 0,0 km/h (0 Bft)
02.10.2017 01:34 6,2 °C 6,3 °C 96 % 1020,9 hPa 0,0 mm 0,0 km/h (0 Bft) O-SO 115 ° 0 min 0,000 mm 0,0 UV-I 0 W/m² 5,6 °C 6,2 °C 0,0 km/h (0 Bft)
02.10.2017 01:35 6,1 °C 6,2 °C 96 % 1020,8 hPa 0,0 mm 0,0 km/h (0 Bft) O-SO 115 ° 0 min 0,000 mm 0,0 UV-I 0 W/m² 5,5 °C 6,1 °C 0,0 km/h (0 Bft)
02.10.2017 01:36 6,1 °C 6,1 °C 96 % 1020,9 hPa 0,0 mm 0,0 km/h (0 Bft) O-SO 115 ° 0 min 0,000 mm 0,0 UV-I 0 W/m² 5,5 °C 6,1 °C 0,0 km/h (0 Bft)
02.10.2017 01:37 5,9 °C 6,1 °C 96 % 1020,9 hPa 0,0 mm 0,0 km/h (0 Bft) O-SO 115 ° 0 min 0,000 mm 0,0 UV-I 0 W/m² 5,3 °C 5,9 °C 0,0 km/h (0 Bft)
02.10.2017 01:38 5,8 °C 5,9 °C 96 % 1020,9 hPa 0,0 mm 0,0 km/h (0 Bft) O-SO 115 ° 0 min 0,000 mm 0,0 UV-I 0 W/m² 5,2 °C 5,8 °C 0,0 km/h (0 Bft)
02.10.2017 01:39 5,8 °C 5,8 °C 96 % 1020,9 hPa 0,0 mm 0,0 km/h (0 Bft) O-SO 115 ° 0 min 0,000 mm 0,0 UV-I 0 W/m² 5,2 °C 5,8 °C 0,0 km/h (0 Bft)
02.10.2017 01:40 5,8 °C 5,8 °C 96 % 1020,9 hPa 0,0 mm 0,0 km/h (0 Bft) O-SO 115 ° 0 min 0,000 mm 0,0 UV-I 0 W/m² 5,2 °C 5,8 °C 0,0 km/h (0 Bft)
02.10.2017 01:41 5,7 °C 5,8 °C 96 % 1020,9 hPa 0,0 mm 0,0 km/h (0 Bft) O-SO 115 ° 0 min 0,000 mm 0,0 UV-I 0 W/m² 5,1 °C 5,7 °C 0,0 km/h (0 Bft)
02.10.2017 01:42 5,7 °C 5,7 °C 96 % 1020,9 hPa 0,0 mm 0,0 km/h (0 Bft) O-SO 115 ° 0 min 0,000 mm 0,0 UV-I 0 W/m² 5,1 °C 5,7 °C 0,0 km/h (0 Bft)
02.10.2017 01:43 5,7 °C 5,7 °C 96 % 1020,9 hPa 0,0 mm 0,0 km/h (0 Bft) O-SO 115 ° 0 min 0,000 mm 0,0 UV-I 0 W/m² 5,1 °C 5,7 °C 0,0 km/h (0 Bft)
02.10.2017 01:44 5,8 °C 5,8 °C 96 % 1020,9 hPa 0,0 mm 0,0 km/h (0 Bft) O-SO 115 ° 0 min 0,000 mm 0,0 UV-I 0 W/m² 5,2 °C 5,8 °C 0,0 km/h (0 Bft)
02.10.2017 01:45 5,8 °C 5,8 °C 96 % 1020,9 hPa 0,0 mm 0,0 km/h (0 Bft) O-SO 115 ° 0 min 0,000 mm 0,0 UV-I 0 W/m² 5,2 °C 5,8 °C 0,0 km/h (0 Bft)
02.10.2017 01:46 5,9 °C 5,9 °C 96 % 1020,9 hPa 0,0 mm 0,0 km/h (0 Bft) O-SO 115 ° 0 min 0,000 mm 0,0 UV-I 0 W/m² 5,3 °C 5,9 °C 0,0 km/h (0 Bft)
02.10.2017 01:47 5,9 °C 6,0 °C 96 % 1020,9 hPa 0,0 mm 0,0 km/h (0 Bft) O-SO 115 ° 0 min 0,000 mm 0,0 UV-I 0 W/m² 5,3 °C 5,9 °C 0,0 km/h (0 Bft)
02.10.2017 01:48 6,1 °C 6,1 °C 96 % 1020,9 hPa 0,0 mm 0,0 km/h (0 Bft) O-SO 115 ° 0 min 0,000 mm 0,0 UV-I 0 W/m² 5,5 °C 6,1 °C 0,0 km/h (0 Bft)
02.10.2017 01:49 6,2 °C 6,2 °C 96 % 1020,9 hPa 0,0 mm 0,0 km/h (0 Bft) O-SO 115 ° 0 min 0,000 mm 0,0 UV-I 0 W/m² 5,6 °C 6,2 °C 0,0 km/h (0 Bft)
02.10.2017 01:50 6,1 °C 6,2 °C 96 % 1020,9 hPa 0,0 mm 0,0 km/h (0 Bft) O-SO 115 ° 0 min 0,000 mm 0,0 UV-I 0 W/m² 5,5 °C 6,1 °C 0,0 km/h (0 Bft)
02.10.2017 01:51 6,1 °C 6,1 °C 96 % 1020,9 hPa 0,0 mm 0,0 km/h (0 Bft) O-SO 115 ° 0 min 0,000 mm 0,0 UV-I 0 W/m² 5,5 °C 6,1 °C 0,0 km/h (0 Bft)
02.10.2017 01:52 6,1 °C 6,1 °C 96 % 1020,9 hPa 0,0 mm 0,0 km/h (0 Bft) O-SO 115 ° 0 min 0,000 mm 0,0 UV-I 0 W/m² 5,5 °C 6,1 °C 0,0 km/h (0 Bft)
02.10.2017 01:53 6,1 °C 6,1 °C 96 % 1020,9 hPa 0,0 mm 0,0 km/h (0 Bft) O-SO 115 ° 0 min 0,000 mm 0,0 UV-I 0 W/m² 5,5 °C 6,1 °C 0,0 km/h (0 Bft)
02.10.2017 01:54 6,1 °C 6,2 °C 96 % 1020,9 hPa 0,0 mm 0,0 km/h (0 Bft) O-SO 115 ° 0 min 0,000 mm 0,0 UV-I 0 W/m² 5,5 °C 6,1 °C 0,0 km/h (0 Bft)
02.10.2017 01:55 6,2 °C 6,2 °C 96 % 1020,9 hPa 0,0 mm 0,0 km/h (0 Bft) O-SO 115 ° 0 min 0,000 mm 0,0 UV-I 0 W/m² 5,6 °C 6,2 °C 0,0 km/h (0 Bft)
02.10.2017 01:56 6,2 °C 6,2 °C 96 % 1020,9 hPa 0,0 mm 0,0 km/h (0 Bft) O-SO 115 ° 0 min 0,000 mm 0,0 UV-I 0 W/m² 5,6 °C 6,2 °C 0,0 km/h (0 Bft)
02.10.2017 01:57 6,2 °C 6,3 °C 96 % 1020,9 hPa 0,0 mm 0,0 km/h (0 Bft) O-SO 115 ° 0 min 0,000 mm 0,0 UV-I 0 W/m² 5,6 °C 6,2 °C 0,0 km/h (0 Bft)
02.10.2017 01:58 6,3 °C 6,3 °C 96 % 1020,9 hPa 0,0 mm 0,0 km/h (0 Bft) O-SO 115 ° 0 min 0,000 mm 0,0 UV-I 0 W/m² 5,7 °C 6,3 °C 0,0 km/h (0 Bft)
02.10.2017 01:59 6,2 °C 6,3 °C 96 % 1020,9 hPa 0,0 mm 0,0 km/h (0 Bft) O-SO 115 ° 0 min 0,000 mm 0,0 UV-I 0 W/m² 5,6 °C 6,2 °C 0,0 km/h (0 Bft)
02.10.2017 02:00 6,2 °C 6,2 °C 96 % 1020,9 hPa 0,0 mm 0,0 km/h (0 Bft) O-SO 115 ° 0 min 0,000 mm 0,0 UV-I 0 W/m² 5,6 °C 6,2 °C 0,0 km/h (0 Bft)
02.10.2017 02:01 6,2 °C 6,2 °C 96 % 1020,9 hPa 0,0 mm 0,0 km/h (0 Bft) O-SO 115 ° 0 min 0,000 mm 0,0 UV-I 0 W/m² 5,6 °C 6,2 °C 0,0 km/h (0 Bft)
02.10.2017 02:02 6,2 °C 6,2 °C 96 % 1021,0 hPa 0,0 mm 0,0 km/h (0 Bft) O-SO 115 ° 0 min 0,000 mm 0,0 UV-I 0 W/m² 5,6 °C 6,2 °C 0,0 km/h (0 Bft)
02.10.2017 02:03 6,2 °C 6,2 °C 96 % 1020,9 hPa 0,0 mm 0,0 km/h (0 Bft) O-SO 115 ° 0 min 0,000 mm 0,0 UV-I 0 W/m² 5,6 °C 6,2 °C 0,0 km/h (0 Bft)
02.10.2017 02:04 6,2 °C 6,2 °C 96 % 1020,9 hPa 0,0 mm 0,0 km/h (0 Bft) O-SO 115 ° 0 min 0,000 mm 0,0 UV-I 0 W/m² 5,6 °C 6,2 °C 0,0 km/h (0 Bft)
02.10.2017 02:05 6,1 °C 6,2 °C 96 % 1020,9 hPa 0,0 mm 0,0 km/h (0 Bft) O-SO 115 ° 0 min 0,000 mm 0,0 UV-I 0 W/m² 5,5 °C 6,1 °C 0,0 km/h (0 Bft)
02.10.2017 02:06 6,1 °C 6,1 °C 96 % 1020,8 hPa 0,0 mm 0,0 km/h (0 Bft) O-SO 115 ° 0 min 0,000 mm 0,0 UV-I 0 W/m² 5,5 °C 6,1 °C 0,0 km/h (0 Bft)
02.10.2017 02:07 6,1 °C 6,1 °C 96 % 1020,8 hPa 0,0 mm 0,0 km/h (0 Bft) O-SO 115 ° 0 min 0,000 mm 0,0 UV-I 0 W/m² 5,5 °C 6,1 °C 0,0 km/h (0 Bft)
02.10.2017 02:08 6,1 °C 6,1 °C 96 % 1020,8 hPa 0,0 mm 0,0 km/h (0 Bft) O-SO 115 ° 0 min 0,000 mm 0,0 UV-I 0 W/m² 5,5 °C 6,1 °C 0,0 km/h (0 Bft)
02.10.2017 02:09 5,9 °C 6,1 °C 96 % 1020,8 hPa 0,0 mm 0,0 km/h (0 Bft) O-SO 115 ° 0 min 0,000 mm 0,0 UV-I 0 W/m² 5,3 °C 5,9 °C 0,0 km/h (0 Bft)
02.10.2017 02:10 5,9 °C 5,9 °C 96 % 1020,8 hPa 0,0 mm 0,0 km/h (0 Bft) O-SO 115 ° 0 min 0,000 mm 0,0 UV-I 0 W/m² 5,3 °C 5,9 °C 0,0 km/h (0 Bft)
02.10.2017 02:11 5,9 °C 5,9 °C 96 % 1020,8 hPa 0,0 mm 0,0 km/h (0 Bft) O-SO 115 ° 0 min 0,000 mm 0,0 UV-I 0 W/m² 5,3 °C 5,9 °C 0,0 km/h (0 Bft)
02.10.2017 02:12 5,8 °C 5,9 °C 96 % 1020,8 hPa 0,0 mm 0,0 km/h (0 Bft) O-SO 115 ° 0 min 0,000 mm 0,0 UV-I 0 W/m² 5,2 °C 5,8 °C 0,0 km/h (0 Bft)
02.10.2017 02:13 5,8 °C 5,8 °C 96 % 1020,8 hPa 0,0 mm 0,0 km/h (0 Bft) O-SO 115 ° 0 min 0,000 mm 0,0 UV-I 0 W/m² 5,2 °C 5,8 °C 0,0 km/h (0 Bft)
02.10.2017 02:14 5,7 °C 5,8 °C 96 % 1020,8 hPa 0,0 mm 0,0 km/h (0 Bft) O-SO 115 ° 0 min 0,000 mm 0,0 UV-I 0 W/m² 5,1 °C 5,7 °C 0,0 km/h (0 Bft)
02.10.2017 02:15 5,6 °C 5,7 °C 96 % 1020,8 hPa 0,0 mm 0,0 km/h (0 Bft) O-SO 115 ° 0 min 0,000 mm 0,0 UV-I 0 W/m² 5,0 °C 5,6 °C 0,0 km/h (0 Bft)
02.10.2017 02:16 5,6 °C 5,6 °C 96 % 1020,8 hPa 0,0 mm 0,0 km/h (0 Bft) O-SO 115 ° 0 min 0,000 mm 0,0 UV-I 0 W/m² 5,0 °C 5,6 °C 0,0 km/h (0 Bft)
02.10.2017 02:17 5,5 °C 5,6 °C 96 % 1020,8 hPa 0,0 mm 0,0 km/h (0 Bft) O-SO 115 ° 0 min 0,000 mm 0,0 UV-I 0 W/m² 4,9 °C 5,5 °C 0,0 km/h (0 Bft)
02.10.2017 02:18 5,4 °C 5,5 °C 96 % 1020,8 hPa 0,0 mm 0,0 km/h (0 Bft) O-SO 115 ° 0 min 0,000 mm 0,0 UV-I 0 W/m² 4,8 °C 5,4 °C 0,0 km/h (0 Bft)
02.10.2017 02:19 5,4 °C 5,4 °C 96 % 1020,8 hPa 0,0 mm 0,0 km/h (0 Bft) O-SO 115 ° 0 min 0,000 mm 0,0 UV-I 0 W/m² 4,8 °C 5,4 °C 0,0 km/h (0 Bft)
02.10.2017 02:20 5,3 °C 5,4 °C 96 % 1020,8 hPa 0,0 mm 0,0 km/h (0 Bft) O-SO 115 ° 0 min 0,000 mm 0,0 UV-I 0 W/m² 4,7 °C 5,3 °C 0,0 km/h (0 Bft)
02.10.2017 02:21 5,3 °C 5,3 °C 96 % 1020,8 hPa 0,0 mm 0,0 km/h (0 Bft) O-SO 115 ° 0 min 0,000 mm 0,0 UV-I 0 W/m² 4,7 °C 5,3 °C 0,0 km/h (0 Bft)
02.10.2017 02:22 5,2 °C 5,3 °C 96 % 1020,8 hPa 0,0 mm 0,0 km/h (0 Bft) O-SO 115 ° 0 min 0,000 mm 0,0 UV-I 0 W/m² 4,6 °C 5,2 °C 0,0 km/h (0 Bft)
02.10.2017 02:23 5,2 °C 5,2 °C 96 % 1020,8 hPa 0,0 mm 0,0 km/h (0 Bft) O-SO 115 ° 0 min 0,000 mm 0,0 UV-I 0 W/m² 4,6 °C 5,2 °C 0,0 km/h (0 Bft)
02.10.2017 02:24 5,2 °C 5,2 °C 96 % 1020,9 hPa 0,0 mm 0,0 km/h (0 Bft) O-SO 115 ° 0 min 0,000 mm 0,0 UV-I 0 W/m² 4,6 °C 5,2 °C 0,0 km/h (0 Bft)
02.10.2017 02:25 5,2 °C 5,2 °C 96 % 1020,9 hPa 0,0 mm 0,0 km/h (0 Bft) O-SO 115 ° 0 min 0,000 mm 0,0 UV-I 0 W/m² 4,6 °C 5,2 °C 0,0 km/h (0 Bft)
02.10.2017 02:26 5,2 °C 5,2 °C 96 % 1020,9 hPa 0,0 mm 0,0 km/h (0 Bft) O-SO 115 ° 0 min 0,000 mm 0,0 UV-I 0 W/m² 4,6 °C 5,2 °C 0,0 km/h (0 Bft)
02.10.2017 02:27 5,2 °C 5,2 °C 96 % 1020,9 hPa 0,0 mm 0,0 km/h (0 Bft) O-SO 115 ° 0 min 0,000 mm 0,0 UV-I 0 W/m² 4,6 °C 5,2 °C 0,0 km/h (0 Bft)
02.10.2017 02:28 5,2 °C 5,2 °C 96 % 1020,9 hPa 0,0 mm 0,0 km/h (0 Bft) O-SO 115 ° 0 min 0,000 mm 0,0 UV-I 0 W/m² 4,6 °C 5,2 °C 0,0 km/h (0 Bft)
02.10.2017 02:29 5,2 °C 5,2 °C 96 % 1020,9 hPa 0,0 mm 0,0 km/h (0 Bft) O-SO 115 ° 0 min 0,000 mm 0,0 UV-I 0 W/m² 4,6 °C 5,2 °C 0,0 km/h (0 Bft)
02.10.2017 02:30 5,2 °C 5,2 °C 96 % 1020,9 hPa 0,0 mm 0,0 km/h (0 Bft) O-SO 115 ° 0 min 0,000 mm 0,0 UV-I 0 W/m² 4,6 °C 5,2 °C 0,0 km/h (0 Bft)
02.10.2017 02:31 5,1 °C 5,2 °C 96 % 1020,9 hPa 0,0 mm 0,0 km/h (0 Bft) O-SO 115 ° 0 min 0,000 mm 0,0 UV-I 0 W/m² 4,5 °C 5,1 °C 0,0 km/h (0 Bft)
02.10.2017 02:32 5,1 °C 5,1 °C 96 % 1020,9 hPa 0,0 mm 0,0 km/h (0 Bft) O-SO 115 ° 0 min 0,000 mm 0,0 UV-I 0 W/m² 4,5 °C 5,1 °C 0,0 km/h (0 Bft)
02.10.2017 02:33 5,1 °C 5,1 °C 96 % 1020,8 hPa 0,0 mm 0,0 km/h (0 Bft) O-SO 115 ° 0 min 0,000 mm 0,0 UV-I 0 W/m² 4,5 °C 5,1 °C 0,0 km/h (0 Bft)
02.10.2017 02:34 5,1 °C 5,1 °C 96 % 1020,8 hPa 0,0 mm 0,0 km/h (0 Bft) O-SO 115 ° 0 min 0,000 mm 0,0 UV-I 0 W/m² 4,5 °C 5,1 °C 0,0 km/h (0 Bft)
02.10.2017 02:35 5,1 °C 5,1 °C 96 % 1020,9 hPa 0,0 mm 0,0 km/h (0 Bft) O-SO 115 ° 0 min 0,000 mm 0,0 UV-I 0 W/m² 4,5 °C 5,1 °C 0,0 km/h (0 Bft)
02.10.2017 02:36 5,1 °C 5,1 °C 96 % 1020,8 hPa 0,0 mm 0,0 km/h (0 Bft) O-SO 115 ° 0 min 0,000 mm 0,0 UV-I 0 W/m² 4,5 °C 5,1 °C 0,0 km/h (0 Bft)
02.10.2017 02:37 5,1 °C 5,1 °C 96 % 1020,8 hPa 0,0 mm 0,0 km/h (0 Bft) O-SO 115 ° 0 min 0,000 mm 0,0 UV-I 0 W/m² 4,5 °C 5,1 °C 0,0 km/h (0 Bft)
02.10.2017 02:38 5,1 °C 5,1 °C 96 % 1020,8 hPa 0,0 mm 0,0 km/h (0 Bft) O-SO 115 ° 0 min 0,000 mm 0,0 UV-I 0 W/m² 4,5 °C 5,1 °C 0,0 km/h (0 Bft)
02.10.2017 02:39 5,1 °C 5,1 °C 96 % 1020,8 hPa 0,0 mm 0,0 km/h (0 Bft) O-SO 115 ° 0 min 0,000 mm 0,0 UV-I 0 W/m² 4,5 °C 5,1 °C 0,0 km/h (0 Bft)
02.10.2017 02:40 5,2 °C 5,2 °C 96 % 1020,8 hPa 0,0 mm 0,0 km/h (0 Bft) O-SO 115 ° 0 min 0,000 mm 0,0 UV-I 0 W/m² 4,6 °C 5,2 °C 0,0 km/h (0 Bft)
02.10.2017 02:41 5,2 °C 5,2 °C 96 % 1020,8 hPa 0,0 mm 0,0 km/h (0 Bft) O-SO 115 ° 0 min 0,000 mm 0,0 UV-I 0 W/m² 4,6 °C 5,2 °C 0,0 km/h (0 Bft)
02.10.2017 02:42 5,3 °C 5,3 °C 96 % 1020,8 hPa 0,0 mm 0,0 km/h (0 Bft) O-SO 115 ° 0 min 0,000 mm 0,0 UV-I 0 W/m² 4,7 °C 5,3 °C 0,0 km/h (0 Bft)
02.10.2017 02:43 5,3 °C 5,3 °C 96 % 1020,8 hPa 0,0 mm 0,0 km/h (0 Bft) O-SO 115 ° 0 min 0,000 mm 0,0 UV-I 0 W/m² 4,7 °C 5,3 °C 0,0 km/h (0 Bft)
02.10.2017 02:44 5,4 °C 5,4 °C 96 % 1020,8 hPa 0,0 mm 0,0 km/h (0 Bft) O-SO 115 ° 0 min 0,000 mm 0,0 UV-I 0 W/m² 4,8 °C 5,4 °C 0,0 km/h (0 Bft)
02.10.2017 02:45 5,4 °C 5,4 °C 96 % 1020,8 hPa 0,0 mm 0,0 km/h (0 Bft) O-SO 115 ° 0 min 0,000 mm 0,0 UV-I 0 W/m² 4,8 °C 5,4 °C 0,0 km/h (0 Bft)
02.10.2017 02:46 5,4 °C 5,4 °C 96 % 1020,7 hPa 0,0 mm 0,0 km/h (0 Bft) O-SO 115 ° 0 min 0,000 mm 0,0 UV-I 0 W/m² 4,8 °C 5,4 °C 0,0 km/h (0 Bft)
02.10.2017 02:47 5,4 °C 5,4 °C 96 % 1020,8 hPa 0,0 mm 0,0 km/h (0 Bft) O-SO 115 ° 0 min 0,000 mm 0,0 UV-I 0 W/m² 4,8 °C 5,4 °C 0,0 km/h (0 Bft)
02.10.2017 02:48 5,4 °C 5,4 °C 96 % 1020,8 hPa 0,0 mm 0,0 km/h (0 Bft) O-SO 115 ° 0 min 0,000 mm 0,0 UV-I 0 W/m² 4,8 °C 5,4 °C 0,0 km/h (0 Bft)
02.10.2017 02:49 5,4 °C 5,4 °C 96 % 1020,8 hPa 0,0 mm 0,0 km/h (0 Bft) O-SO 115 ° 0 min 0,000 mm 0,0 UV-I 0 W/m² 4,8 °C 5,4 °C 0,0 km/h (0 Bft)
02.10.2017 02:50 5,4 °C 5,4 °C 96 % 1020,8 hPa 0,0 mm 0,0 km/h (0 Bft) O-SO 115 ° 0 min 0,000 mm 0,0 UV-I 0 W/m² 4,8 °C 5,4 °C 0,0 km/h (0 Bft)
02.10.2017 02:51 5,4 °C 5,4 °C 96 % 1020,7 hPa 0,0 mm 0,0 km/h (0 Bft) O-SO 115 ° 0 min 0,000 mm 0,0 UV-I 0 W/m² 4,8 °C 5,4 °C 0,0 km/h (0 Bft)
02.10.2017 02:52 5,5 °C 5,5 °C 96 % 1020,7 hPa 0,0 mm 0,0 km/h (0 Bft) O-SO 115 ° 0 min 0,000 mm 0,0 UV-I 0 W/m² 4,9 °C 5,5 °C 0,0 km/h (0 Bft)
02.10.2017 02:53 5,6 °C 5,6 °C 96 % 1020,7 hPa 0,0 mm 0,0 km/h (0 Bft) O-SO 115 ° 0 min 0,000 mm 0,0 UV-I 0 W/m² 5,0 °C 5,6 °C 0,0 km/h (0 Bft)
02.10.2017 02:54 5,5 °C 5,6 °C 96 % 1020,7 hPa 0,0 mm 0,0 km/h (0 Bft) O-SO 115 ° 0 min 0,000 mm 0,0 UV-I 0 W/m² 4,9 °C 5,5 °C 0,0 km/h (0 Bft)
02.10.2017 02:55 5,5 °C 5,5 °C 96 % 1020,7 hPa 0,0 mm 0,0 km/h (0 Bft) O-SO 115 ° 0 min 0,000 mm 0,0 UV-I 0 W/m² 4,9 °C 5,5 °C 0,0 km/h (0 Bft)
02.10.2017 02:56 5,4 °C 5,5 °C 96 % 1020,7 hPa 0,0 mm 0,0 km/h (0 Bft) O-SO 115 ° 0 min 0,000 mm 0,0 UV-I 0 W/m² 4,8 °C 5,4 °C 0,0 km/h (0 Bft)
02.10.2017 02:57 5,3 °C 5,4 °C 96 % 1020,7 hPa 0,0 mm 0,0 km/h (0 Bft) O-SO 115 ° 0 min 0,000 mm 0,0 UV-I 0 W/m² 4,7 °C 5,3 °C 0,0 km/h (0 Bft)
02.10.2017 02:58 5,2 °C 5,3 °C 96 % 1020,7 hPa 0,0 mm 0,0 km/h (0 Bft) O-SO 115 ° 0 min 0,000 mm 0,0 UV-I 0 W/m² 4,6 °C 5,2 °C 0,0 km/h (0 Bft)
02.10.2017 02:59 5,1 °C 5,2 °C 96 % 1020,7 hPa 0,0 mm 0,0 km/h (0 Bft) O-SO 115 ° 0 min 0,000 mm 0,0 UV-I 0 W/m² 4,5 °C 5,1 °C 0,0 km/h (0 Bft)
02.10.2017 03:00 5,1 °C 5,1 °C 96 % 1020,6 hPa 0,0 mm 0,0 km/h (0 Bft) O-SO 115 ° 0 min 0,000 mm 0,0 UV-I 0 W/m² 4,5 °C 5,1 °C 0,0 km/h (0 Bft)
02.10.2017 03:01 4,9 °C 5,1 °C 96 % 1020,7 hPa 0,0 mm 0,0 km/h (0 Bft) O-SO 115 ° 0 min 0,000 mm 0,0 UV-I 0 W/m² 4,3 °C 4,9 °C 0,0 km/h (0 Bft)
02.10.2017 03:02 4,9 °C 4,9 °C 96 % 1020,6 hPa 0,0 mm 0,0 km/h (0 Bft) O-SO 115 ° 0 min 0,000 mm 0,0 UV-I 0 W/m² 4,3 °C 4,9 °C 0,0 km/h (0 Bft)
02.10.2017 03:03 4,8 °C 4,9 °C 96 % 1020,6 hPa 0,0 mm 0,0 km/h (0 Bft) O-SO 115 ° 0 min 0,000 mm 0,0 UV-I 0 W/m² 4,2 °C 4,8 °C 0,0 km/h (0 Bft)
02.10.2017 03:04 4,7 °C 4,8 °C 96 % 1020,6 hPa 0,0 mm 0,0 km/h (0 Bft) O-SO 115 ° 0 min 0,000 mm 0,0 UV-I 0 W/m² 4,1 °C 4,7 °C 0,0 km/h (0 Bft)
02.10.2017 03:05 4,8 °C 4,8 °C 96 % 1020,6 hPa 0,0 mm 0,0 km/h (0 Bft) O-SO 115 ° 0 min 0,000 mm 0,0 UV-I 0 W/m² 4,2 °C 4,8 °C 0,0 km/h (0 Bft)
02.10.2017 03:06 4,8 °C 4,8 °C 96 % 1020,7 hPa 0,0 mm 0,0 km/h (0 Bft) O-SO 115 ° 0 min 0,000 mm 0,0 UV-I 0 W/m² 4,2 °C 4,8 °C 0,0 km/h (0 Bft)
02.10.2017 03:07 4,8 °C 4,8 °C 96 % 1020,7 hPa 0,0 mm 0,0 km/h (0 Bft) O-SO 115 ° 0 min 0,000 mm 0,0 UV-I 0 W/m² 4,2 °C 4,8 °C 0,0 km/h (0 Bft)
02.10.2017 03:08 4,8 °C 4,8 °C 96 % 1020,6 hPa 0,0 mm 0,0 km/h (0 Bft) O-SO 115 ° 0 min 0,000 mm 0,0 UV-I 0 W/m² 4,2 °C 4,8 °C 0,0 km/h (0 Bft)
02.10.2017 03:09 4,8 °C 4,8 °C 96 % 1020,6 hPa 0,0 mm 0,0 km/h (0 Bft) O-SO 115 ° 0 min 0,000 mm 0,0 UV-I 0 W/m² 4,2 °C 4,8 °C 0,0 km/h (0 Bft)
02.10.2017 03:10 4,8 °C 4,8 °C 96 % 1020,6 hPa 0,0 mm 0,0 km/h (0 Bft) O-SO 115 ° 0 min 0,000 mm 0,0 UV-I 0 W/m² 4,2 °C 4,8 °C 0,0 km/h (0 Bft)
02.10.2017 03:11 4,7 °C 4,8 °C 96 % 1020,6 hPa 0,0 mm 0,0 km/h (0 Bft) O-SO 115 ° 0 min 0,000 mm 0,0 UV-I 0 W/m² 4,1 °C 4,7 °C 0,0 km/h (0 Bft)
02.10.2017 03:12 4,7 °C 4,7 °C 96 % 1020,6 hPa 0,0 mm 0,0 km/h (0 Bft) O-SO 115 ° 0 min 0,000 mm 0,0 UV-I 0 W/m² 4,1 °C 4,7 °C 0,0 km/h (0 Bft)
02.10.2017 03:13 4,7 °C 4,7 °C 96 % 1020,6 hPa 0,0 mm 0,0 km/h (0 Bft) O-SO 115 ° 0 min 0,000 mm 0,0 UV-I 0 W/m² 4,1 °C 4,7 °C 0,0 km/h (0 Bft)
02.10.2017 03:14 4,7 °C 4,7 °C 96 % 1020,6 hPa 0,0 mm 0,0 km/h (0 Bft) O-SO 115 ° 0 min 0,000 mm 0,0 UV-I 0 W/m² 4,1 °C 4,7 °C 0,0 km/h (0 Bft)
02.10.2017 03:15 4,7 °C 4,7 °C 96 % 1020,6 hPa 0,0 mm 0,0 km/h (0 Bft) O-SO 115 ° 0 min 0,000 mm 0,0 UV-I 0 W/m² 4,1 °C 4,7 °C 0,0 km/h (0 Bft)
02.10.2017 03:16 4,7 °C 4,7 °C 96 % 1020,6 hPa 0,0 mm 0,0 km/h (0 Bft) O-SO 115 ° 0 min 0,000 mm 0,0 UV-I 0 W/m² 4,1 °C 4,7 °C 0,0 km/h (0 Bft)
02.10.2017 03:17 4,8 °C 4,8 °C 96 % 1020,6 hPa 0,0 mm 0,0 km/h (0 Bft) O-SO 115 ° 0 min 0,000 mm 0,0 UV-I 0 W/m² 4,2 °C 4,8 °C 0,0 km/h (0 Bft)
02.10.2017 03:18 4,8 °C 4,8 °C 96 % 1020,6 hPa 0,0 mm 0,0 km/h (0 Bft) O-SO 115 ° 0 min 0,000 mm 0,0 UV-I 0 W/m² 4,2 °C 4,8 °C 0,0 km/h (0 Bft)
02.10.2017 03:19 4,7 °C 4,8 °C 96 % 1020,6 hPa 0,0 mm 0,0 km/h (0 Bft) O-SO 115 ° 0 min 0,000 mm 0,0 UV-I 0 W/m² 4,1 °C 4,7 °C 0,0 km/h (0 Bft)
02.10.2017 03:20 4,8 °C 4,8 °C 96 % 1020,6 hPa 0,0 mm 0,0 km/h (0 Bft) O-SO 115 ° 0 min 0,000 mm 0,0 UV-I 0 W/m² 4,2 °C 4,8 °C 0,0 km/h (0 Bft)
02.10.2017 03:21 4,8 °C 4,8 °C 96 % 1020,6 hPa 0,0 mm 0,0 km/h (0 Bft) O-SO 115 ° 0 min 0,000 mm 0,0 UV-I 0 W/m² 4,2 °C 4,8 °C 0,0 km/h (0 Bft)
02.10.2017 03:22 4,9 °C 4,9 °C 96 % 1020,6 hPa 0,0 mm 0,0 km/h (0 Bft) O-SO 115 ° 0 min 0,000 mm 0,0 UV-I 0 W/m² 4,3 °C 4,9 °C 0,0 km/h (0 Bft)
02.10.2017 03:23 5,0 °C 5,0 °C 96 % 1020,6 hPa 0,0 mm 0,0 km/h (0 Bft) O-SO 115 ° 0 min 0,000 mm 0,0 UV-I 0 W/m² 4,4 °C 5,0 °C 0,0 km/h (0 Bft)
02.10.2017 03:24 5,0 °C 5,1 °C 96 % 1020,7 hPa 0,0 mm 0,0 km/h (0 Bft) O-SO 115 ° 0 min 0,000 mm 0,0 UV-I 0 W/m² 4,4 °C 5,0 °C 0,0 km/h (0 Bft)
02.10.2017 03:25 4,9 °C 5,0 °C 96 % 1020,6 hPa 0,0 mm 0,0 km/h (0 Bft) O-SO 115 ° 0 min 0,000 mm 0,0 UV-I 0 W/m² 4,3 °C 4,9 °C 0,0 km/h (0 Bft)
02.10.2017 03:26 4,8 °C 4,9 °C 96 % 1020,6 hPa 0,0 mm 0,0 km/h (0 Bft) O-SO 115 ° 0 min 0,000 mm 0,0 UV-I 0 W/m² 4,2 °C 4,8 °C 0,0 km/h (0 Bft)
02.10.2017 03:27 4,7 °C 4,8 °C 96 % 1020,6 hPa 0,0 mm 0,0 km/h (0 Bft) O-SO 115 ° 0 min 0,000 mm 0,0 UV-I 0 W/m² 4,1 °C 4,7 °C 0,0 km/h (0 Bft)
02.10.2017 03:28 4,6 °C 4,7 °C 96 % 1020,6 hPa 0,0 mm 0,0 km/h (0 Bft) O-SO 115 ° 0 min 0,000 mm 0,0 UV-I 0 W/m² 4,0 °C 4,6 °C 0,0 km/h (0 Bft)
02.10.2017 03:29 4,6 °C 4,6 °C 96 % 1020,6 hPa 0,0 mm 0,0 km/h (0 Bft) O-SO 115 ° 0 min 0,000 mm 0,0 UV-I 0 W/m² 4,0 °C 4,6 °C 0,0 km/h (0 Bft)
02.10.2017 03:30 4,6 °C 4,6 °C 96 % 1020,6 hPa 0,0 mm 0,0 km/h (0 Bft) O-SO 115 ° 0 min 0,000 mm 0,0 UV-I 0 W/m² 4,0 °C 4,6 °C 0,0 km/h (0 Bft)
02.10.2017 03:31 4,6 °C 4,6 °C 96 % 1020,7 hPa 0,0 mm 0,0 km/h (0 Bft) O-SO 115 ° 0 min 0,000 mm 0,0 UV-I 0 W/m² 4,0 °C 4,6 °C 0,0 km/h (0 Bft)
02.10.2017 03:32 4,5 °C 4,6 °C 96 % 1020,7 hPa 0,0 mm 0,0 km/h (0 Bft) O-SO 115 ° 0 min 0,000 mm 0,0 UV-I 0 W/m² 3,9 °C 4,5 °C 0,0 km/h (0 Bft)
02.10.2017 03:33 4,6 °C 4,6 °C 96 % 1020,7 hPa 0,0 mm 0,0 km/h (0 Bft) O-SO 115 ° 0 min 0,000 mm 0,0 UV-I 0 W/m² 4,0 °C 4,6 °C 0,0 km/h (0 Bft)
02.10.2017 03:34 4,6 °C 4,6 °C 96 % 1020,6 hPa 0,0 mm 0,0 km/h (0 Bft) O-SO 115 ° 0 min 0,000 mm 0,0 UV-I 0 W/m² 4,0 °C 4,6 °C 0,0 km/h (0 Bft)
02.10.2017 03:35 4,7 °C 4,7 °C 96 % 1020,7 hPa 0,0 mm 0,0 km/h (0 Bft) O-SO 115 ° 0 min 0,000 mm 0,0 UV-I 0 W/m² 4,1 °C 4,7 °C 0,0 km/h (0 Bft)
02.10.2017 03:36 4,7 °C 4,7 °C 96 % 1020,7 hPa 0,0 mm 0,0 km/h (0 Bft) O-SO 115 ° 0 min 0,000 mm 0,0 UV-I 0 W/m² 4,1 °C 4,7 °C 0,0 km/h (0 Bft)
02.10.2017 03:37 4,7 °C 4,7 °C 96 % 1020,7 hPa 0,0 mm 0,0 km/h (0 Bft) O-SO 115 ° 0 min 0,000 mm 0,0 UV-I 0 W/m² 4,1 °C 4,7 °C 0,0 km/h (0 Bft)
02.10.2017 03:38 4,7 °C 4,7 °C 96 % 1020,6 hPa 0,0 mm 0,0 km/h (0 Bft) O-SO 115 ° 0 min 0,000 mm 0,0 UV-I 0 W/m² 4,1 °C 4,7 °C 0,0 km/h (0 Bft)
02.10.2017 03:39 4,7 °C 4,8 °C 96 % 1020,7 hPa 0,0 mm 0,0 km/h (0 Bft) O-SO 115 ° 0 min 0,000 mm 0,0 UV-I 0 W/m² 4,1 °C 4,7 °C 0,0 km/h (0 Bft)
02.10.2017 03:40 4,7 °C 4,7 °C 96 % 1020,6 hPa 0,0 mm 0,0 km/h (0 Bft) O-SO 115 ° 0 min 0,000 mm 0,0 UV-I 0 W/m² 4,1 °C 4,7 °C 0,0 km/h (0 Bft)
02.10.2017 03:41 4,7 °C 4,8 °C 96 % 1020,6 hPa 0,0 mm 0,0 km/h (0 Bft) O-SO 115 ° 0 min 0,000 mm 0,0 UV-I 0 W/m² 4,1 °C 4,7 °C 0,0 km/h (0 Bft)
02.10.2017 03:42 4,8 °C 4,8 °C 96 % 1020,6 hPa 0,0 mm 0,0 km/h (0 Bft) O-SO 115 ° 0 min 0,000 mm 0,0 UV-I 0 W/m² 4,2 °C 4,8 °C 0,0 km/h (0 Bft)
02.10.2017 03:43 4,7 °C 4,8 °C 96 % 1020,7 hPa 0,0 mm 0,0 km/h (0 Bft) O-SO 115 ° 0 min 0,000 mm 0,0 UV-I 0 W/m² 4,1 °C 4,7 °C 0,0 km/h (0 Bft)
02.10.2017 03:44 4,7 °C 4,7 °C 96 % 1020,7 hPa 0,0 mm 0,0 km/h (0 Bft) O-SO 115 ° 0 min 0,000 mm 0,0 UV-I 0 W/m² 4,1 °C 4,7 °C 0,0 km/h (0 Bft)
02.10.2017 03:45 4,7 °C 4,7 °C 96 % 1020,7 hPa 0,0 mm 0,0 km/h (0 Bft) O-SO 115 ° 0 min 0,000 mm 0,0 UV-I 0 W/m² 4,1 °C 4,7 °C 0,0 km/h (0 Bft)
02.10.2017 03:46 4,7 °C 4,7 °C 96 % 1020,6 hPa 0,0 mm 0,0 km/h (0 Bft) O-SO 115 ° 0 min 0,000 mm 0,0 UV-I 0 W/m² 4,1 °C 4,7 °C 0,0 km/h (0 Bft)
02.10.2017 03:47 4,7 °C 4,7 °C 96 % 1020,6 hPa 0,0 mm 0,0 km/h (0 Bft) O-SO 115 ° 0 min 0,000 mm 0,0 UV-I 0 W/m² 4,1 °C 4,7 °C 0,0 km/h (0 Bft)
02.10.2017 03:48 4,8 °C 4,8 °C 96 % 1020,7 hPa 0,0 mm 0,0 km/h (0 Bft) O-SO 115 ° 0 min 0,000 mm 0,0 UV-I 0 W/m² 4,2 °C 4,8 °C 0,0 km/h (0 Bft)
02.10.2017 03:49 4,9 °C 4,9 °C 96 % 1020,6 hPa 0,0 mm 0,0 km/h (0 Bft) O-SO 115 ° 0 min 0,000 mm 0,0 UV-I 0 W/m² 4,3 °C 4,9 °C 0,0 km/h (0 Bft)
02.10.2017 03:50 4,9 °C 4,9 °C 96 % 1020,6 hPa 0,0 mm 0,0 km/h (0 Bft) O-SO 115 ° 0 min 0,000 mm 0,0 UV-I 0 W/m² 4,3 °C 4,9 °C 0,0 km/h (0 Bft)
02.10.2017 03:51 4,9 °C 4,9 °C 96 % 1020,7 hPa 0,0 mm 0,0 km/h (0 Bft) O-SO 115 ° 0 min 0,000 mm 0,0 UV-I 0 W/m² 4,3 °C 4,9 °C 0,0 km/h (0 Bft)
02.10.2017 03:52 4,8 °C 4,9 °C 96 % 1020,6 hPa 0,0 mm 0,0 km/h (0 Bft) O-SO 115 ° 0 min 0,000 mm 0,0 UV-I 0 W/m² 4,2 °C 4,8 °C 0,0 km/h (0 Bft)
02.10.2017 03:53 4,7 °C 4,8 °C 96 % 1020,7 hPa 0,0 mm 0,0 km/h (0 Bft) O-SO 115 ° 0 min 0,000 mm 0,0 UV-I 0 W/m² 4,1 °C 4,7 °C 0,0 km/h (0 Bft)
02.10.2017 03:54 4,6 °C 4,7 °C 96 % 1020,6 hPa 0,0 mm 0,0 km/h (0 Bft) O-SO 115 ° 0 min 0,000 mm 0,0 UV-I 0 W/m² 4,0 °C 4,6 °C 0,0 km/h (0 Bft)
02.10.2017 03:55 4,6 °C 4,6 °C 96 % 1020,6 hPa 0,0 mm 0,5 km/h (0 Bft) O-SO 115 ° 0 min 0,000 mm 0,0 UV-I 0 W/m² 4,0 °C 4,6 °C 1,6 km/h (1 Bft)
02.10.2017 03:56 4,6 °C 4,6 °C 96 % 1020,6 hPa 0,0 mm 0,0 km/h (0 Bft) O-SO 115 ° 0 min 0,000 mm 0,0 UV-I 0 W/m² 4,0 °C 4,6 °C 0,0 km/h (0 Bft)
02.10.2017 03:57 4,5 °C 4,6 °C 96 % 1020,7 hPa 0,0 mm 0,0 km/h (0 Bft) O-SO 115 ° 0 min 0,000 mm 0,0 UV-I 0 W/m² 3,9 °C 4,5 °C 0,0 km/h (0 Bft)
02.10.2017 03:58 4,5 °C 4,5 °C 96 % 1020,7 hPa 0,0 mm 0,0 km/h (0 Bft) O-SO 115 ° 0 min 0,000 mm 0,0 UV-I 0 W/m² 3,9 °C 4,5 °C 0,0 km/h (0 Bft)
02.10.2017 03:59 4,5 °C 4,5 °C 96 % 1020,7 hPa 0,0 mm 0,0 km/h (0 Bft) O-SO 115 ° 0 min 0,000 mm 0,0 UV-I 0 W/m² 3,9 °C 4,5 °C 0,0 km/h (0 Bft)
02.10.2017 04:00 4,6 °C 4,6 °C 96 % 1020,7 hPa 0,0 mm 0,0 km/h (0 Bft) O-SO 115 ° 0 min 0,000 mm 0,0 UV-I 0 W/m² 4,0 °C 4,6 °C 0,0 km/h (0 Bft)
02.10.2017 04:02 4,7 °C 4,7 °C 96 % 1020,6 hPa 0,0 mm 0,0 km/h (0 Bft) O-SO 115 ° 0 min 0,000 mm 0,0 UV-I 0 W/m² 4,1 °C 4,7 °C 0,0 km/h (0 Bft)
02.10.2017 04:03 4,7 °C 4,7 °C 96 % 1020,6 hPa 0,0 mm 0,0 km/h (0 Bft) O-SO 115 ° 0 min 0,000 mm 0,0 UV-I 0 W/m² 4,1 °C 4,7 °C 0,0 km/h (0 Bft)
02.10.2017 04:04 4,8 °C 4,8 °C 96 % 1020,6 hPa 0,0 mm 0,0 km/h (0 Bft) O-SO 115 ° 0 min 0,000 mm 0,0 UV-I 0 W/m² 4,2 °C 4,8 °C 0,0 km/h (0 Bft)
02.10.2017 04:05 4,8 °C 4,8 °C 96 % 1020,6 hPa 0,0 mm 0,0 km/h (0 Bft) O-SO 115 ° 0 min 0,000 mm 0,0 UV-I 0 W/m² 4,2 °C 4,8 °C 0,0 km/h (0 Bft)
02.10.2017 04:06 4,8 °C 4,8 °C 96 % 1020,6 hPa 0,0 mm 0,0 km/h (0 Bft) O-SO 115 ° 0 min 0,000 mm 0,0 UV-I 0 W/m² 4,2 °C 4,8 °C 0,0 km/h (0 Bft)
02.10.2017 04:07 4,8 °C 4,8 °C 96 % 1020,6 hPa 0,0 mm 0,0 km/h (0 Bft) O-SO 115 ° 0 min 0,000 mm 0,0 UV-I 0 W/m² 4,2 °C 4,8 °C 0,0 km/h (0 Bft)
02.10.2017 04:08 4,8 °C 4,8 °C 96 % 1020,6 hPa 0,0 mm 0,0 km/h (0 Bft) O-SO 115 ° 0 min 0,000 mm 0,0 UV-I 0 W/m² 4,2 °C 4,8 °C 0,0 km/h (0 Bft)
02.10.2017 04:09 4,7 °C 4,8 °C 96 % 1020,6 hPa 0,0 mm 0,0 km/h (0 Bft) O-SO 115 ° 0 min 0,000 mm 0,0 UV-I 0 W/m² 4,1 °C 4,7 °C 0,0 km/h (0 Bft)
02.10.2017 04:10 4,6 °C 4,7 °C 96 % 1020,6 hPa 0,0 mm 0,0 km/h (0 Bft) O-SO 115 ° 0 min 0,000 mm 0,0 UV-I 0 W/m² 4,0 °C 4,6 °C 0,0 km/h (0 Bft)
02.10.2017 04:11 4,6 °C 4,6 °C 96 % 1020,6 hPa 0,0 mm 0,0 km/h (0 Bft) O-SO 115 ° 0 min 0,000 mm 0,0 UV-I 0 W/m² 4,0 °C 4,6 °C 0,0 km/h (0 Bft)
02.10.2017 04:12 4,7 °C 4,7 °C 96 % 1020,6 hPa 0,0 mm 0,0 km/h (0 Bft) O-SO 115 ° 0 min 0,000 mm 0,0 UV-I 0 W/m² 4,1 °C 4,7 °C 0,0 km/h (0 Bft)
02.10.2017 04:13 4,7 °C 4,7 °C 96 % 1020,6 hPa 0,0 mm 0,0 km/h (0 Bft) O-SO 115 ° 0 min 0,000 mm 0,0 UV-I 0 W/m² 4,1 °C 4,7 °C 0,0 km/h (0 Bft)
02.10.2017 04:14 4,8 °C 4,8 °C 96 % 1020,6 hPa 0,0 mm 0,0 km/h (0 Bft) O-SO 115 ° 0 min 0,000 mm 0,0 UV-I 0 W/m² 4,2 °C 4,8 °C 0,0 km/h (0 Bft)
02.10.2017 04:15 4,9 °C 4,9 °C 96 % 1020,6 hPa 0,0 mm 0,0 km/h (0 Bft) O-SO 115 ° 0 min 0,000 mm 0,0 UV-I 0 W/m² 4,3 °C 4,9 °C 0,0 km/h (0 Bft)
02.10.2017 04:16 5,1 °C 5,1 °C 96 % 1020,6 hPa 0,0 mm 0,0 km/h (0 Bft) O-SO 115 ° 0 min 0,000 mm 0,0 UV-I 0 W/m² 4,5 °C 5,1 °C 0,0 km/h (0 Bft)
02.10.2017 04:17 5,2 °C 5,2 °C 97 % 1020,6 hPa 0,0 mm 0,0 km/h (0 Bft) O-SO 115 ° 0 min 0,000 mm 0,0 UV-I 0 W/m² 4,8 °C 5,2 °C 0,0 km/h (0 Bft)
02.10.2017 04:18 5,3 °C 5,3 °C 96 % 1020,6 hPa 0,0 mm 0,0 km/h (0 Bft) O-SO 115 ° 0 min 0,000 mm 0,0 UV-I 0 W/m² 4,7 °C 5,3 °C 0,0 km/h (0 Bft)
02.10.2017 04:19 5,3 °C 5,3 °C 96 % 1020,5 hPa 0,0 mm 0,0 km/h (0 Bft) O-SO 115 ° 0 min 0,000 mm 0,0 UV-I 0 W/m² 4,7 °C 5,3 °C 0,0 km/h (0 Bft)
02.10.2017 04:20 5,2 °C 5,3 °C 96 % 1020,5 hPa 0,0 mm 0,0 km/h (0 Bft) O-SO 115 ° 0 min 0,000 mm 0,0 UV-I 0 W/m² 4,6 °C 5,2 °C 0,0 km/h (0 Bft)
02.10.2017 04:21 5,2 °C 5,2 °C 96 % 1020,5 hPa 0,0 mm 0,0 km/h (0 Bft) O-SO 115 ° 0 min 0,000 mm 0,0 UV-I 0 W/m² 4,6 °C 5,2 °C 0,0 km/h (0 Bft)
02.10.2017 04:22 5,1 °C 5,2 °C 97 % 1020,5 hPa 0,0 mm 0,0 km/h (0 Bft) O-SO 115 ° 0 min 0,000 mm 0,0 UV-I 0 W/m² 4,7 °C 5,1 °C 0,0 km/h (0 Bft)
02.10.2017 04:23 5,1 °C 5,1 °C 97 % 1020,5 hPa 0,0 mm 0,0 km/h (0 Bft) O-SO 115 ° 0 min 0,000 mm 0,0 UV-I 0 W/m² 4,7 °C 5,1 °C 0,0 km/h (0 Bft)
02.10.2017 04:24 5,1 °C 5,1 °C 97 % 1020,6 hPa 0,0 mm 0,0 km/h (0 Bft) O-SO 115 ° 0 min 0,000 mm 0,0 UV-I 0 W/m² 4,7 °C 5,1 °C 0,0 km/h (0 Bft)
02.10.2017 04:25 4,9 °C 5,1 °C 96 % 1020,6 hPa 0,0 mm 0,0 km/h (0 Bft) O-SO 115 ° 0 min 0,000 mm 0,0 UV-I 0 W/m² 4,3 °C 4,9 °C 0,0 km/h (0 Bft)
02.10.2017 04:26 4,9 °C 4,9 °C 96 % 1020,6 hPa 0,0 mm 0,0 km/h (0 Bft) O-SO 115 ° 0 min 0,000 mm 0,0 UV-I 0 W/m² 4,3 °C 4,9 °C 0,0 km/h (0 Bft)
02.10.2017 04:27 4,9 °C 4,9 °C 96 % 1020,6 hPa 0,0 mm 0,0 km/h (0 Bft) O-SO 115 ° 0 min 0,000 mm 0,0 UV-I 0 W/m² 4,3 °C 4,9 °C 0,0 km/h (0 Bft)
02.10.2017 04:28 5,0 °C 5,0 °C 96 % 1020,5 hPa 0,0 mm 0,0 km/h (0 Bft) O-SO 115 ° 0 min 0,000 mm 0,0 UV-I 0 W/m² 4,4 °C 5,0 °C 0,0 km/h (0 Bft)
02.10.2017 04:29 5,0 °C 5,0 °C 96 % 1020,5 hPa 0,0 mm 0,0 km/h (0 Bft) O-SO 115 ° 0 min 0,000 mm 0,0 UV-I 0 W/m² 4,4 °C 5,0 °C 0,0 km/h (0 Bft)
02.10.2017 04:30 5,0 °C 5,0 °C 96 % 1020,5 hPa 0,0 mm 0,0 km/h (0 Bft) O-SO 115 ° 0 min 0,000 mm 0,0 UV-I 0 W/m² 4,4 °C 5,0 °C 0,0 km/h (0 Bft)
02.10.2017 04:31 5,1 °C 5,1 °C 96 % 1020,5 hPa 0,0 mm 0,0 km/h (0 Bft) O-SO 115 ° 0 min 0,000 mm 0,0 UV-I 0 W/m² 4,5 °C 5,1 °C 0,0 km/h (0 Bft)
02.10.2017 04:32 5,1 °C 5,1 °C 96 % 1020,6 hPa 0,0 mm 0,0 km/h (0 Bft) O-SO 115 ° 0 min 0,000 mm 0,0 UV-I 0 W/m² 4,5 °C 5,1 °C 0,0 km/h (0 Bft)
02.10.2017 04:33 5,1 °C 5,1 °C 96 % 1020,6 hPa 0,0 mm 0,0 km/h (0 Bft) O-SO 115 ° 0 min 0,000 mm 0,0 UV-I 0 W/m² 4,5 °C 5,1 °C 0,0 km/h (0 Bft)
02.10.2017 04:34 5,1 °C 5,1 °C 97 % 1020,6 hPa 0,0 mm 0,1 km/h (0 Bft) O-SO 115 ° 0 min 0,000 mm 0,0 UV-I 0 W/m² 4,7 °C 5,1 °C 1,6 km/h (1 Bft)
02.10.2017 04:35 4,9 °C 5,1 °C 96 % 1020,6 hPa 0,0 mm 0,0 km/h (0 Bft) O-SO 115 ° 0 min 0,000 mm 0,0 UV-I 0 W/m² 4,3 °C 4,9 °C 0,0 km/h (0 Bft)
02.10.2017 04:36 4,8 °C 4,9 °C 96 % 1020,5 hPa 0,0 mm 0,0 km/h (0 Bft) O-SO 115 ° 0 min 0,000 mm 0,0 UV-I 0 W/m² 4,2 °C 4,8 °C 0,0 km/h (0 Bft)
02.10.2017 04:37 4,7 °C 4,8 °C 96 % 1020,6 hPa 0,0 mm 0,0 km/h (0 Bft) O-SO 115 ° 0 min 0,000 mm 0,0 UV-I 0 W/m² 4,1 °C 4,7 °C 0,0 km/h (0 Bft)
02.10.2017 04:38 4,7 °C 4,7 °C 96 % 1020,6 hPa 0,0 mm 0,0 km/h (0 Bft) O-SO 115 ° 0 min 0,000 mm 0,0 UV-I 0 W/m² 4,1 °C 4,7 °C 0,0 km/h (0 Bft)
02.10.2017 04:39 4,7 °C 4,7 °C 96 % 1020,6 hPa 0,0 mm 0,0 km/h (0 Bft) O-SO 115 ° 0 min 0,000 mm 0,0 UV-I 0 W/m² 4,1 °C 4,7 °C 0,0 km/h (0 Bft)
02.10.2017 04:40 4,7 °C 4,7 °C 96 % 1020,6 hPa 0,0 mm 0,0 km/h (0 Bft) O-SO 115 ° 0 min 0,000 mm 0,0 UV-I 0 W/m² 4,1 °C 4,7 °C 0,0 km/h (0 Bft)
02.10.2017 04:41 4,7 °C 4,7 °C 96 % 1020,5 hPa 0,0 mm 0,0 km/h (0 Bft) O-SO 115 ° 0 min 0,000 mm 0,0 UV-I 0 W/m² 4,1 °C 4,7 °C 0,0 km/h (0 Bft)
02.10.2017 04:42 4,7 °C 4,7 °C 96 % 1020,6 hPa 0,0 mm 0,0 km/h (0 Bft) O-SO 115 ° 0 min 0,000 mm 0,0 UV-I 0 W/m² 4,1 °C 4,7 °C 0,0 km/h (0 Bft)
02.10.2017 04:43 4,7 °C 4,7 °C 96 % 1020,5 hPa 0,0 mm 0,0 km/h (0 Bft) O-SO 115 ° 0 min 0,000 mm 0,0 UV-I 0 W/m² 4,1 °C 4,7 °C 0,0 km/h (0 Bft)
02.10.2017 04:44 4,7 °C 4,7 °C 96 % 1020,6 hPa 0,0 mm 0,0 km/h (0 Bft) O-SO 115 ° 0 min 0,000 mm 0,0 UV-I 0 W/m² 4,1 °C 4,7 °C 0,0 km/h (0 Bft)
02.10.2017 04:45 4,6 °C 4,7 °C 96 % 1020,5 hPa 0,0 mm 0,0 km/h (0 Bft) O-SO 115 ° 0 min 0,000 mm 0,0 UV-I 0 W/m² 4,0 °C 4,6 °C 0,0 km/h (0 Bft)
02.10.2017 04:46 4,5 °C 4,6 °C 96 % 1020,5 hPa 0,0 mm 0,0 km/h (0 Bft) O-SO 115 ° 0 min 0,000 mm 0,0 UV-I 0 W/m² 3,9 °C 4,5 °C 0,0 km/h (0 Bft)
02.10.2017 04:47 4,4 °C 4,5 °C 96 % 1020,5 hPa 0,0 mm 0,0 km/h (0 Bft) O-SO 115 ° 0 min 0,000 mm 0,0 UV-I 0 W/m² 3,8 °C 4,4 °C 0,0 km/h (0 Bft)
02.10.2017 04:48 4,4 °C 4,4 °C 96 % 1020,5 hPa 0,0 mm 0,0 km/h (0 Bft) O-SO 115 ° 0 min 0,000 mm 0,0 UV-I 0 W/m² 3,8 °C 4,4 °C 0,0 km/h (0 Bft)
02.10.2017 04:49 4,4 °C 4,4 °C 96 % 1020,5 hPa 0,0 mm 0,0 km/h (0 Bft) O-SO 115 ° 0 min 0,000 mm 0,0 UV-I 0 W/m² 3,8 °C 4,4 °C 0,0 km/h (0 Bft)
02.10.2017 04:50 4,5 °C 4,5 °C 96 % 1020,6 hPa 0,0 mm 0,0 km/h (0 Bft) O-SO 115 ° 0 min 0,000 mm 0,0 UV-I 0 W/m² 3,9 °C 4,5 °C 0,0 km/h (0 Bft)
02.10.2017 04:51 4,6 °C 4,6 °C 96 % 1020,5 hPa 0,0 mm 0,0 km/h (0 Bft) O-SO 115 ° 0 min 0,000 mm 0,0 UV-I 0 W/m² 4,0 °C 4,6 °C 0,0 km/h (0 Bft)
02.10.2017 04:52 4,7 °C 4,7 °C 96 % 1020,6 hPa 0,0 mm 0,0 km/h (0 Bft) O-SO 115 ° 0 min 0,000 mm 0,0 UV-I 0 W/m² 4,1 °C 4,7 °C 0,0 km/h (0 Bft)
02.10.2017 04:53 4,7 °C 4,7 °C 96 % 1020,6 hPa 0,0 mm 0,0 km/h (0 Bft) O-SO 115 ° 0 min 0,000 mm 0,0 UV-I 0 W/m² 4,1 °C 4,7 °C 0,0 km/h (0 Bft)
02.10.2017 04:54 4,7 °C 4,7 °C 96 % 1020,6 hPa 0,0 mm 0,0 km/h (0 Bft) O-SO 115 ° 0 min 0,000 mm 0,0 UV-I 0 W/m² 4,1 °C 4,7 °C 0,0 km/h (0 Bft)
02.10.2017 04:55 4,8 °C 4,8 °C 96 % 1020,5 hPa 0,0 mm 0,0 km/h (0 Bft) O-SO 115 ° 0 min 0,000 mm 0,0 UV-I 0 W/m² 4,2 °C 4,8 °C 0,0 km/h (0 Bft)
02.10.2017 04:56 4,8 °C 4,8 °C 96 % 1020,5 hPa 0,0 mm 0,0 km/h (0 Bft) O-SO 115 ° 0 min 0,000 mm 0,0 UV-I 0 W/m² 4,2 °C 4,8 °C 0,0 km/h (0 Bft)
02.10.2017 04:57 4,9 °C 4,9 °C 96 % 1020,5 hPa 0,0 mm 0,0 km/h (0 Bft) O-SO 115 ° 0 min 0,000 mm 0,0 UV-I 0 W/m² 4,3 °C 4,9 °C 0,0 km/h (0 Bft)
02.10.2017 04:58 4,9 °C 4,9 °C 96 % 1020,5 hPa 0,0 mm 0,0 km/h (0 Bft) O-SO 115 ° 0 min 0,000 mm 0,0 UV-I 0 W/m² 4,3 °C 4,9 °C 0,0 km/h (0 Bft)
02.10.2017 04:59 4,9 °C 4,9 °C 96 % 1020,4 hPa 0,0 mm 0,0 km/h (0 Bft) O-SO 115 ° 0 min 0,000 mm 0,0 UV-I 0 W/m² 4,3 °C 4,9 °C 0,0 km/h (0 Bft)
02.10.2017 05:00 4,9 °C 4,9 °C 96 % 1020,4 hPa 0,0 mm 0,0 km/h (0 Bft) O-SO 115 ° 0 min 0,000 mm 0,0 UV-I 0 W/m² 4,3 °C 4,9 °C 0,0 km/h (0 Bft)
02.10.2017 05:01 4,9 °C 4,9 °C 96 % 1020,4 hPa 0,0 mm 0,0 km/h (0 Bft) O-SO 115 ° 0 min 0,000 mm 0,0 UV-I 0 W/m² 4,3 °C 4,9 °C 0,0 km/h (0 Bft)
02.10.2017 05:02 4,8 °C 4,9 °C 96 % 1020,4 hPa 0,0 mm 0,0 km/h (0 Bft) O-SO 115 ° 0 min 0,000 mm 0,0 UV-I 0 W/m² 4,2 °C 4,8 °C 0,0 km/h (0 Bft)
02.10.2017 05:03 4,8 °C 4,8 °C 96 % 1020,4 hPa 0,0 mm 0,0 km/h (0 Bft) O-SO 115 ° 0 min 0,000 mm 0,0 UV-I 0 W/m² 4,2 °C 4,8 °C 0,0 km/h (0 Bft)
02.10.2017 05:04 4,8 °C 4,8 °C 97 % 1020,4 hPa 0,0 mm 0,0 km/h (0 Bft) O-SO 115 ° 0 min 0,000 mm 0,0 UV-I 0 W/m² 4,4 °C 4,8 °C 0,0 km/h (0 Bft)
02.10.2017 05:05 4,9 °C 4,9 °C 96 % 1020,4 hPa 0,0 mm 0,0 km/h (0 Bft) O-SO 115 ° 0 min 0,000 mm 0,0 UV-I 0 W/m² 4,3 °C 4,9 °C 0,0 km/h (0 Bft)
02.10.2017 05:06 5,1 °C 5,1 °C 97 % 1020,4 hPa 0,0 mm 0,3 km/h (0 Bft) O-SO 115 ° 0 min 0,000 mm 0,0 UV-I 0 W/m² 4,7 °C 5,1 °C 1,6 km/h (1 Bft)
02.10.2017 05:07 5,1 °C 5,1 °C 97 % 1020,4 hPa 0,0 mm 0,0 km/h (0 Bft) O-SO 115 ° 0 min 0,000 mm 0,0 UV-I 0 W/m² 4,7 °C 5,1 °C 0,0 km/h (0 Bft)
02.10.2017 05:08 5,1 °C 5,1 °C 97 % 1020,4 hPa 0,0 mm 0,0 km/h (0 Bft) O-SO 115 ° 0 min 0,000 mm 0,0 UV-I 0 W/m² 4,7 °C 5,1 °C 0,0 km/h (0 Bft)
02.10.2017 05:09 4,9 °C 5,1 °C 97 % 1020,4 hPa 0,0 mm 0,0 km/h (0 Bft) O-SO 115 ° 0 min 0,000 mm 0,0 UV-I 0 W/m² 4,5 °C 4,9 °C 0,0 km/h (0 Bft)
02.10.2017 05:10 4,9 °C 5,0 °C 96 % 1020,3 hPa 0,0 mm 0,0 km/h (0 Bft) O-SO 115 ° 0 min 0,000 mm 0,0 UV-I 0 W/m² 4,3 °C 4,9 °C 0,0 km/h (0 Bft)
02.10.2017 05:11 5,0 °C 5,0 °C 96 % 1020,4 hPa 0,0 mm 0,0 km/h (0 Bft) O-SO 115 ° 0 min 0,000 mm 0,0 UV-I 0 W/m² 4,4 °C 5,0 °C 0,0 km/h (0 Bft)
02.10.2017 05:12 5,1 °C 5,1 °C 97 % 1020,4 hPa 0,0 mm 0,0 km/h (0 Bft) O-SO 115 ° 0 min 0,000 mm 0,0 UV-I 0 W/m² 4,7 °C 5,1 °C 0,0 km/h (0 Bft)
02.10.2017 05:13 5,1 °C 5,1 °C 97 % 1020,4 hPa 0,0 mm 0,0 km/h (0 Bft) O-SO 115 ° 0 min 0,000 mm 0,0 UV-I 0 W/m² 4,7 °C 5,1 °C 0,0 km/h (0 Bft)
02.10.2017 05:14 5,1 °C 5,1 °C 97 % 1020,4 hPa 0,0 mm 0,0 km/h (0 Bft) O-SO 115 ° 0 min 0,000 mm 0,0 UV-I 0 W/m² 4,7 °C 5,1 °C 0,0 km/h (0 Bft)
02.10.2017 05:15 5,1 °C 5,1 °C 97 % 1020,4 hPa 0,0 mm 0,0 km/h (0 Bft) O-SO 115 ° 0 min 0,000 mm 0,0 UV-I 0 W/m² 4,7 °C 5,1 °C 0,0 km/h (0 Bft)
02.10.2017 05:16 5,1 °C 5,1 °C 97 % 1020,4 hPa 0,0 mm 0,0 km/h (0 Bft) O-SO 115 ° 0 min 0,000 mm 0,0 UV-I 0 W/m² 4,7 °C 5,1 °C 0,0 km/h (0 Bft)
02.10.2017 05:17 5,0 °C 5,1 °C 96 % 1020,4 hPa 0,0 mm 0,0 km/h (0 Bft) O-SO 115 ° 0 min 0,000 mm 0,0 UV-I 0 W/m² 4,4 °C 5,0 °C 0,0 km/h (0 Bft)
02.10.2017 05:18 4,9 °C 5,0 °C 96 % 1020,4 hPa 0,0 mm 0,0 km/h (0 Bft) O-SO 115 ° 0 min 0,000 mm 0,0 UV-I 0 W/m² 4,3 °C 4,9 °C 0,0 km/h (0 Bft)
02.10.2017 05:19 4,9 °C 4,9 °C 96 % 1020,4 hPa 0,0 mm 0,0 km/h (0 Bft) O-SO 115 ° 0 min 0,000 mm 0,0 UV-I 0 W/m² 4,3 °C 4,9 °C 0,0 km/h (0 Bft)
02.10.2017 05:20 4,9 °C 4,9 °C 96 % 1020,3 hPa 0,0 mm 0,0 km/h (0 Bft) O-SO 115 ° 0 min 0,000 mm 0,0 UV-I 0 W/m² 4,3 °C 4,9 °C 0,0 km/h (0 Bft)
02.10.2017 05:21 5,0 °C 5,0 °C 96 % 1020,4 hPa 0,0 mm 0,0 km/h (0 Bft) O-SO 115 ° 0 min 0,000 mm 0,0 UV-I 0 W/m² 4,4 °C 5,0 °C 0,0 km/h (0 Bft)
02.10.2017 05:22 5,0 °C 5,0 °C 96 % 1020,4 hPa 0,0 mm 0,0 km/h (0 Bft) O-SO 115 ° 0 min 0,000 mm 0,0 UV-I 0 W/m² 4,4 °C 5,0 °C 0,0 km/h (0 Bft)
02.10.2017 05:23 5,1 °C 5,1 °C 97 % 1020,4 hPa 0,0 mm 0,0 km/h (0 Bft) O-SO 115 ° 0 min 0,000 mm 0,0 UV-I 0 W/m² 4,7 °C 5,1 °C 0,0 km/h (0 Bft)
02.10.2017 05:24 5,1 °C 5,1 °C 97 % 1020,4 hPa 0,0 mm 0,5 km/h (0 Bft) O 89 ° 0 min 0,000 mm 0,0 UV-I 0 W/m² 4,7 °C 5,1 °C 1,6 km/h (1 Bft)
02.10.2017 05:25 5,1 °C 5,1 °C 97 % 1020,3 hPa 0,0 mm 0,4 km/h (0 Bft) O 89 ° 0 min 0,000 mm 0,0 UV-I 0 W/m² 4,7 °C 5,1 °C 1,6 km/h (1 Bft)
02.10.2017 05:26 5,2 °C 5,2 °C 97 % 1020,3 hPa 0,0 mm 0,0 km/h (0 Bft) O 89 ° 0 min 0,000 mm 0,0 UV-I 0 W/m² 4,8 °C 5,2 °C 0,0 km/h (0 Bft)
02.10.2017 05:27 5,2 °C 5,2 °C 97 % 1020,3 hPa 0,0 mm 0,6 km/h (0 Bft) O-NO 59 ° 0 min 0,000 mm 0,0 UV-I 0 W/m² 4,8 °C 5,2 °C 3,2 km/h (1 Bft)
02.10.2017 05:28 5,2 °C 5,2 °C 96 % 1020,3 hPa 0,0 mm 0,0 km/h (0 Bft) O-NO 59 ° 0 min 0,000 mm 0,0 UV-I 0 W/m² 4,6 °C 5,2 °C 0,0 km/h (0 Bft)
02.10.2017 05:29 5,2 °C 5,2 °C 97 % 1020,3 hPa 0,0 mm 0,0 km/h (0 Bft) O-NO 59 ° 0 min 0,000 mm 0,0 UV-I 0 W/m² 4,8 °C 5,2 °C 0,0 km/h (0 Bft)
02.10.2017 05:30 5,1 °C 5,2 °C 97 % 1020,2 hPa 0,0 mm 0,0 km/h (0 Bft) O-NO 59 ° 0 min 0,000 mm 0,0 UV-I 0 W/m² 4,7 °C 5,1 °C 0,0 km/h (0 Bft)
02.10.2017 05:31 5,1 °C 5,2 °C 97 % 1020,2 hPa 0,0 mm 0,0 km/h (0 Bft) O-NO 59 ° 0 min 0,000 mm 0,0 UV-I 0 W/m² 4,7 °C 5,1 °C 0,0 km/h (0 Bft)
02.10.2017 05:32 5,2 °C 5,2 °C 97 % 1020,3 hPa 0,0 mm 0,0 km/h (0 Bft) O-NO 59 ° 0 min 0,000 mm 0,0 UV-I 0 W/m² 4,8 °C 5,2 °C 0,0 km/h (0 Bft)
02.10.2017 05:33 5,1 °C 5,2 °C 97 % 1020,3 hPa 0,0 mm 0,0 km/h (0 Bft) O-NO 59 ° 0 min 0,000 mm 0,0 UV-I 0 W/m² 4,7 °C 5,1 °C 0,0 km/h (0 Bft)
02.10.2017 05:34 5,1 °C 5,1 °C 97 % 1020,3 hPa 0,0 mm 0,0 km/h (0 Bft) O-NO 59 ° 0 min 0,000 mm 0,0 UV-I 0 W/m² 4,7 °C 5,1 °C 0,0 km/h (0 Bft)
02.10.2017 05:35 5,1 °C 5,1 °C 97 % 1020,3 hPa 0,0 mm 0,0 km/h (0 Bft) O-NO 59 ° 0 min 0,000 mm 0,0 UV-I 0 W/m² 4,7 °C 5,1 °C 0,0 km/h (0 Bft)
02.10.2017 05:36 5,1 °C 5,1 °C 97 % 1020,3 hPa 0,0 mm 0,1 km/h (0 Bft) O-NO 59 ° 0 min 0,000 mm 0,0 UV-I 0 W/m² 4,7 °C 5,1 °C 1,6 km/h (1 Bft)
02.10.2017 05:37 5,1 °C 5,1 °C 97 % 1020,3 hPa 0,0 mm 0,6 km/h (0 Bft) O-NO 59 ° 0 min 0,000 mm 0,0 UV-I 0 W/m² 4,7 °C 5,1 °C 1,6 km/h (1 Bft)
02.10.2017 05:38 5,2 °C 5,2 °C 97 % 1020,3 hPa 0,0 mm 0,3 km/h (0 Bft) O-NO 59 ° 0 min 0,000 mm 0,0 UV-I 0 W/m² 4,8 °C 5,2 °C 1,6 km/h (1 Bft)
02.10.2017 05:39 5,2 °C 5,2 °C 97 % 1020,3 hPa 0,0 mm 0,2 km/h (0 Bft) O-NO 59 ° 0 min 0,000 mm 0,0 UV-I 0 W/m² 4,8 °C 5,2 °C 1,6 km/h (1 Bft)
02.10.2017 05:40 5,2 °C 5,2 °C 96 % 1020,3 hPa 0,0 mm 0,0 km/h (0 Bft) O-NO 59 ° 0 min 0,000 mm 0,0 UV-I 0 W/m² 4,6 °C 5,2 °C 0,0 km/h (0 Bft)
02.10.2017 05:41 5,2 °C 5,2 °C 96 % 1020,3 hPa 0,0 mm 0,0 km/h (0 Bft) O-NO 59 ° 0 min 0,000 mm 0,0 UV-I 0 W/m² 4,6 °C 5,2 °C 0,0 km/h (0 Bft)
02.10.2017 05:42 5,2 °C 5,2 °C 96 % 1020,3 hPa 0,0 mm 0,0 km/h (0 Bft) O-NO 59 ° 0 min 0,000 mm 0,0 UV-I 0 W/m² 4,6 °C 5,2 °C 0,0 km/h (0 Bft)
02.10.2017 05:43 5,2 °C 5,2 °C 96 % 1020,3 hPa 0,0 mm 0,0 km/h (0 Bft) O-NO 59 ° 0 min 0,000 mm 0,0 UV-I 0 W/m² 4,6 °C 5,2 °C 0,0 km/h (0 Bft)
02.10.2017 05:44 5,2 °C 5,2 °C 96 % 1020,3 hPa 0,0 mm 0,0 km/h (0 Bft) O-NO 59 ° 0 min 0,000 mm 0,0 UV-I 0 W/m² 4,6 °C 5,2 °C 0,0 km/h (0 Bft)
02.10.2017 05:45 5,2 °C 5,2 °C 96 % 1020,3 hPa 0,0 mm 0,0 km/h (0 Bft) O-NO 59 ° 0 min 0,000 mm 0,0 UV-I 0 W/m² 4,6 °C 5,2 °C 0,0 km/h (0 Bft)
02.10.2017 05:46 5,2 °C 5,2 °C 96 % 1020,3 hPa 0,0 mm 0,0 km/h (0 Bft) O-NO 59 ° 0 min 0,000 mm 0,0 UV-I 0 W/m² 4,6 °C 5,2 °C 0,0 km/h (0 Bft)
02.10.2017 05:47 5,3 °C 5,3 °C 96 % 1020,3 hPa 0,0 mm 0,0 km/h (0 Bft) O-NO 59 ° 0 min 0,000 mm 0,0 UV-I 0 W/m² 4,7 °C 5,3 °C 0,0 km/h (0 Bft)
02.10.2017 05:48 5,3 °C 5,3 °C 96 % 1020,3 hPa 0,0 mm 0,0 km/h (0 Bft) O-NO 59 ° 0 min 0,000 mm 0,0 UV-I 0 W/m² 4,7 °C 5,3 °C 0,0 km/h (0 Bft)
02.10.2017 05:49 5,2 °C 5,3 °C 96 % 1020,3 hPa 0,0 mm 0,0 km/h (0 Bft) O-NO 59 ° 0 min 0,000 mm 0,0 UV-I 0 W/m² 4,6 °C 5,2 °C 0,0 km/h (0 Bft)
02.10.2017 05:50 5,2 °C 5,2 °C 96 % 1020,3 hPa 0,0 mm 0,0 km/h (0 Bft) O-NO 59 ° 0 min 0,000 mm 0,0 UV-I 0 W/m² 4,6 °C 5,2 °C 0,0 km/h (0 Bft)
02.10.2017 05:51 5,2 °C 5,2 °C 97 % 1020,3 hPa 0,0 mm 0,5 km/h (0 Bft) O-NO 59 ° 0 min 0,000 mm 0,0 UV-I 0 W/m² 4,8 °C 5,2 °C 3,2 km/h (1 Bft)
02.10.2017 05:52 5,2 °C 5,2 °C 97 % 1020,2 hPa 0,0 mm 0,0 km/h (0 Bft) O-NO 59 ° 0 min 0,000 mm 0,0 UV-I 0 W/m² 4,8 °C 5,2 °C 0,0 km/h (0 Bft)
02.10.2017 05:53 5,3 °C 5,3 °C 96 % 1020,3 hPa 0,0 mm 0,0 km/h (0 Bft) O-NO 59 ° 0 min 0,000 mm 0,0 UV-I 0 W/m² 4,7 °C 5,3 °C 0,0 km/h (0 Bft)
02.10.2017 05:54 5,3 °C 5,3 °C 96 % 1020,2 hPa 0,0 mm 0,0 km/h (0 Bft) O-NO 59 ° 0 min 0,000 mm 0,0 UV-I 0 W/m² 4,7 °C 5,3 °C 0,0 km/h (0 Bft)
02.10.2017 05:55 5,4 °C 5,4 °C 97 % 1020,2 hPa 0,0 mm 0,0 km/h (0 Bft) O-NO 59 ° 0 min 0,000 mm 0,0 UV-I 0 W/m² 5,0 °C 5,4 °C 0,0 km/h (0 Bft)
02.10.2017 05:56 5,5 °C 5,5 °C 97 % 1020,2 hPa 0,0 mm 0,3 km/h (0 Bft) O-NO 59 ° 0 min 0,000 mm 0,0 UV-I 0 W/m² 5,1 °C 5,5 °C 1,6 km/h (1 Bft)
02.10.2017 05:57 5,5 °C 5,5 °C 97 % 1020,3 hPa 0,0 mm 0,3 km/h (0 Bft) NO 54 ° 0 min 0,000 mm 0,0 UV-I 0 W/m² 5,1 °C 5,5 °C 1,6 km/h (1 Bft)
02.10.2017 05:58 5,6 °C 5,6 °C 97 % 1020,3 hPa 0,0 mm 0,6 km/h (0 Bft) NO 54 ° 0 min 0,000 mm 0,0 UV-I 0 W/m² 5,2 °C 5,6 °C 1,6 km/h (1 Bft)
02.10.2017 05:59 5,6 °C 5,6 °C 97 % 1020,3 hPa 0,0 mm 0,0 km/h (0 Bft) NO 54 ° 0 min 0,000 mm 0,0 UV-I 0 W/m² 5,2 °C 5,6 °C 0,0 km/h (0 Bft)
02.10.2017 06:00 5,4 °C 5,6 °C 97 % 1020,2 hPa 0,0 mm 0,3 km/h (0 Bft) NO 54 ° 0 min 0,000 mm 0,0 UV-I 0 W/m² 5,0 °C 5,4 °C 1,6 km/h (1 Bft)
02.10.2017 06:01 5,4 °C 5,4 °C 97 % 1020,3 hPa 0,0 mm 0,0 km/h (0 Bft) NO 54 ° 0 min 0,000 mm 0,0 UV-I 0 W/m² 5,0 °C 5,4 °C 0,0 km/h (0 Bft)
02.10.2017 06:02 5,4 °C 5,4 °C 97 % 1020,3 hPa 0,0 mm 0,0 km/h (0 Bft) NO 54 ° 0 min 0,000 mm 0,0 UV-I 0 W/m² 5,0 °C 5,4 °C 0,0 km/h (0 Bft)
02.10.2017 06:03 5,4 °C 5,4 °C 97 % 1020,3 hPa 0,0 mm 0,0 km/h (0 Bft) NO 54 ° 0 min 0,000 mm 0,0 UV-I 0 W/m² 5,0 °C 5,4 °C 0,0 km/h (0 Bft)
02.10.2017 06:04 5,4 °C 5,4 °C 97 % 1020,3 hPa 0,0 mm 0,0 km/h (0 Bft) NO 54 ° 0 min 0,000 mm 0,0 UV-I 0 W/m² 5,0 °C 5,4 °C 0,0 km/h (0 Bft)
02.10.2017 06:05 5,4 °C 5,4 °C 97 % 1020,2 hPa 0,0 mm 0,3 km/h (0 Bft) NO 54 ° 0 min 0,000 mm 0,0 UV-I 0 W/m² 5,0 °C 5,4 °C 1,6 km/h (1 Bft)
02.10.2017 06:06 5,4 °C 5,4 °C 97 % 1020,1 hPa 0,0 mm 0,0 km/h (0 Bft) NO 54 ° 0 min 0,000 mm 0,0 UV-I 0 W/m² 5,0 °C 5,4 °C 0,0 km/h (0 Bft)
02.10.2017 06:07 5,4 °C 5,4 °C 97 % 1020,1 hPa 0,0 mm 0,0 km/h (0 Bft) NO 54 ° 0 min 0,000 mm 0,0 UV-I 0 W/m² 5,0 °C 5,4 °C 0,0 km/h (0 Bft)
02.10.2017 06:08 5,4 °C 5,4 °C 97 % 1020,2 hPa 0,0 mm 0,0 km/h (0 Bft) NO 54 ° 0 min 0,000 mm 0,0 UV-I 0 W/m² 5,0 °C 5,4 °C 0,0 km/h (0 Bft)
02.10.2017 06:09 5,5 °C 5,5 °C 97 % 1020,1 hPa 0,0 mm 0,4 km/h (0 Bft) NO 54 ° 0 min 0,000 mm 0,0 UV-I 0 W/m² 5,1 °C 5,5 °C 1,6 km/h (1 Bft)
02.10.2017 06:10 5,6 °C 5,6 °C 97 % 1020,1 hPa 0,0 mm 0,1 km/h (0 Bft) NO 54 ° 0 min 0,000 mm 0,0 UV-I 0 W/m² 5,2 °C 5,6 °C 1,6 km/h (1 Bft)
02.10.2017 06:11 5,5 °C 5,6 °C 97 % 1020,1 hPa 0,0 mm 0,8 km/h (0 Bft) NO 54 ° 0 min 0,000 mm 0,0 UV-I 0 W/m² 5,1 °C 5,5 °C 1,6 km/h (1 Bft)
02.10.2017 06:12 5,5 °C 5,5 °C 97 % 1020,2 hPa 0,0 mm 0,8 km/h (0 Bft) NO 54 ° 0 min 0,000 mm 0,0 UV-I 0 W/m² 5,1 °C 5,5 °C 1,6 km/h (1 Bft)
02.10.2017 06:13 5,5 °C 5,5 °C 97 % 1020,2 hPa 0,0 mm 0,0 km/h (0 Bft) NO 54 ° 0 min 0,000 mm 0,0 UV-I 0 W/m² 5,1 °C 5,5 °C 0,0 km/h (0 Bft)
02.10.2017 06:14 5,4 °C 5,5 °C 97 % 1020,2 hPa 0,0 mm 0,0 km/h (0 Bft) NO 54 ° 0 min 0,000 mm 0,0 UV-I 0 W/m² 5,0 °C 5,4 °C 0,0 km/h (0 Bft)
02.10.2017 06:15 5,3 °C 5,4 °C 97 % 1020,1 hPa 0,0 mm 0,6 km/h (0 Bft) O 85 ° 0 min 0,000 mm 0,0 UV-I 0 W/m² 4,9 °C 5,3 °C 3,2 km/h (1 Bft)
02.10.2017 06:16 5,3 °C 5,3 °C 96 % 1020,2 hPa 0,0 mm 0,5 km/h (0 Bft) O 85 ° 0 min 0,000 mm 0,0 UV-I 0 W/m² 4,7 °C 5,3 °C 1,6 km/h (1 Bft)
02.10.2017 06:17 5,3 °C 5,3 °C 96 % 1020,2 hPa 0,0 mm 0,0 km/h (0 Bft) O 85 ° 0 min 0,000 mm 0,0 UV-I 0 W/m² 4,7 °C 5,3 °C 0,0 km/h (0 Bft)
02.10.2017 06:18 5,3 °C 5,3 °C 97 % 1020,2 hPa 0,0 mm 0,0 km/h (0 Bft) O 85 ° 0 min 0,000 mm 0,0 UV-I 0 W/m² 4,9 °C 5,3 °C 0,0 km/h (0 Bft)
02.10.2017 06:19 5,3 °C 5,4 °C 96 % 1020,2 hPa 0,0 mm 0,0 km/h (0 Bft) O 85 ° 0 min 0,000 mm 0,0 UV-I 0 W/m² 4,7 °C 5,3 °C 0,0 km/h (0 Bft)
02.10.2017 06:20 5,3 °C 5,3 °C 96 % 1020,2 hPa 0,0 mm 0,0 km/h (0 Bft) O 85 ° 0 min 0,000 mm 0,0 UV-I 0 W/m² 4,7 °C 5,3 °C 0,0 km/h (0 Bft)
02.10.2017 06:21 5,3 °C 5,3 °C 96 % 1020,1 hPa 0,0 mm 0,0 km/h (0 Bft) O 85 ° 0 min 0,000 mm 0,0 UV-I 0 W/m² 4,7 °C 5,3 °C 0,0 km/h (0 Bft)
02.10.2017 06:22 5,3 °C 5,4 °C 96 % 1020,1 hPa 0,0 mm 0,0 km/h (0 Bft) O 85 ° 0 min 0,000 mm 0,0 UV-I 0 W/m² 4,7 °C 5,3 °C 0,0 km/h (0 Bft)
02.10.2017 06:23 5,3 °C 5,3 °C 96 % 1020,1 hPa 0,0 mm 0,0 km/h (0 Bft) O 85 ° 0 min 0,000 mm 0,0 UV-I 0 W/m² 4,7 °C 5,3 °C 0,0 km/h (0 Bft)
02.10.2017 06:24 5,4 °C 5,4 °C 97 % 1020,1 hPa 0,0 mm 0,0 km/h (0 Bft) O 85 ° 0 min 0,000 mm 0,0 UV-I 0 W/m² 5,0 °C 5,4 °C 0,0 km/h (0 Bft)
02.10.2017 06:25 5,5 °C 5,5 °C 97 % 1020,1 hPa 0,0 mm 0,0 km/h (0 Bft) O 85 ° 0 min 0,000 mm 0,0 UV-I 0 W/m² 5,1 °C 5,5 °C 0,0 km/h (0 Bft)
02.10.2017 06:26 5,6 °C 5,6 °C 97 % 1020,1 hPa 0,0 mm 0,1 km/h (0 Bft) O 85 ° 0 min 0,000 mm 0,0 UV-I 0 W/m² 5,2 °C 5,6 °C 1,6 km/h (1 Bft)
02.10.2017 06:27 5,6 °C 5,6 °C 97 % 1020,2 hPa 0,0 mm 0,3 km/h (0 Bft) N 9 ° 0 min 0,000 mm 0,0 UV-I 0 W/m² 5,2 °C 5,6 °C 1,6 km/h (1 Bft)
02.10.2017 06:28 5,6 °C 5,6 °C 97 % 1020,2 hPa 0,0 mm 0,1 km/h (0 Bft) N 9 ° 0 min 0,000 mm 0,0 UV-I 0 W/m² 5,2 °C 5,6 °C 1,6 km/h (1 Bft)
02.10.2017 06:29 5,6 °C 5,6 °C 97 % 1020,2 hPa 0,0 mm 0,0 km/h (0 Bft) N 9 ° 0 min 0,000 mm 0,0 UV-I 0 W/m² 5,2 °C 5,6 °C 0,0 km/h (0 Bft)
02.10.2017 06:30 5,4 °C 5,6 °C 97 % 1020,1 hPa 0,0 mm 0,0 km/h (0 Bft) N 9 ° 0 min 0,000 mm 0,0 UV-I 0 W/m² 5,0 °C 5,4 °C 0,0 km/h (0 Bft)
02.10.2017 06:31 5,4 °C 5,4 °C 97 % 1020,1 hPa 0,0 mm 0,0 km/h (0 Bft) N 9 ° 0 min 0,000 mm 0,0 UV-I 0 W/m² 5,0 °C 5,4 °C 0,0 km/h (0 Bft)
02.10.2017 06:32 5,5 °C 5,5 °C 97 % 1020,1 hPa 0,0 mm 0,0 km/h (0 Bft) N 9 ° 0 min 0,000 mm 0,0 UV-I 0 W/m² 5,1 °C 5,5 °C 0,0 km/h (0 Bft)
02.10.2017 06:33 5,6 °C 5,6 °C 97 % 1020,1 hPa 0,0 mm 0,0 km/h (0 Bft) N 9 ° 0 min 0,000 mm 0,0 UV-I 0 W/m² 5,2 °C 5,6 °C 0,0 km/h (0 Bft)
02.10.2017 06:34 5,6 °C 5,6 °C 97 % 1020,1 hPa 0,0 mm 0,0 km/h (0 Bft) N 9 ° 0 min 0,000 mm 0,0 UV-I 0 W/m² 5,2 °C 5,6 °C 0,0 km/h (0 Bft)
02.10.2017 06:35 5,5 °C 5,6 °C 97 % 1020,2 hPa 0,0 mm 0,0 km/h (0 Bft) N 9 ° 0 min 0,000 mm 0,0 UV-I 0 W/m² 5,1 °C 5,5 °C 0,0 km/h (0 Bft)
02.10.2017 06:36 5,5 °C 5,5 °C 97 % 1020,1 hPa 0,0 mm 0,0 km/h (0 Bft) N 9 ° 0 min 0,000 mm 0,0 UV-I 0 W/m² 5,1 °C 5,5 °C 0,0 km/h (0 Bft)
02.10.2017 06:37 5,6 °C 5,6 °C 97 % 1020,2 hPa 0,0 mm 0,0 km/h (0 Bft) N 9 ° 0 min 0,000 mm 0,0 UV-I 0 W/m² 5,2 °C 5,6 °C 0,0 km/h (0 Bft)
02.10.2017 06:38 5,6 °C 5,6 °C 97 % 1020,2 hPa 0,0 mm 0,0 km/h (0 Bft) N 9 ° 0 min 0,000 mm 0,0 UV-I 0 W/m² 5,2 °C 5,6 °C 0,0 km/h (0 Bft)
02.10.2017 06:39 5,6 °C 5,6 °C 97 % 1020,2 hPa 0,0 mm 0,0 km/h (0 Bft) N 9 ° 0 min 0,000 mm 0,0 UV-I 0 W/m² 5,2 °C 5,6 °C 0,0 km/h (0 Bft)
02.10.2017 06:40 5,6 °C 5,6 °C 97 % 1020,2 hPa 0,0 mm 0,0 km/h (0 Bft) N 9 ° 0 min 0,000 mm 0,0 UV-I 0 W/m² 5,2 °C 5,6 °C 0,0 km/h (0 Bft)
02.10.2017 06:41 5,6 °C 5,6 °C 97 % 1020,2 hPa 0,0 mm 0,0 km/h (0 Bft) N 9 ° 0 min 0,000 mm 0,0 UV-I 0 W/m² 5,2 °C 5,6 °C 0,0 km/h (0 Bft)
02.10.2017 06:42 5,6 °C 5,6 °C 97 % 1020,2 hPa 0,0 mm 0,0 km/h (0 Bft) N 9 ° 0 min 0,000 mm 0,0 UV-I 0 W/m² 5,2 °C 5,6 °C 0,0 km/h (0 Bft)
02.10.2017 06:43 5,6 °C 5,6 °C 97 % 1020,3 hPa 0,0 mm 0,0 km/h (0 Bft) N 9 ° 0 min 0,000 mm 0,0 UV-I 0 W/m² 5,2 °C 5,6 °C 0,0 km/h (0 Bft)
02.10.2017 06:44 5,6 °C 5,6 °C 97 % 1020,3 hPa 0,0 mm 0,0 km/h (0 Bft) N 9 ° 0 min 0,000 mm 0,0 UV-I 0 W/m² 5,2 °C 5,6 °C 0,0 km/h (0 Bft)
02.10.2017 06:45 5,5 °C 5,6 °C 97 % 1020,3 hPa 0,0 mm 0,0 km/h (0 Bft) N 9 ° 0 min 0,000 mm 0,0 UV-I 0 W/m² 5,1 °C 5,5 °C 0,0 km/h (0 Bft)
02.10.2017 06:46 5,4 °C 5,5 °C 97 % 1020,3 hPa 0,0 mm 0,0 km/h (0 Bft) N 9 ° 0 min 0,000 mm 0,0 UV-I 0 W/m² 5,0 °C 5,4 °C 0,0 km/h (0 Bft)
02.10.2017 06:47 5,3 °C 5,4 °C 97 % 1020,2 hPa 0,0 mm 0,0 km/h (0 Bft) N 9 ° 0 min 0,000 mm 0,0 UV-I 0 W/m² 4,9 °C 5,3 °C 0,0 km/h (0 Bft)
02.10.2017 06:48 5,3 °C 5,3 °C 97 % 1020,3 hPa 0,0 mm 0,0 km/h (0 Bft) N 9 ° 0 min 0,000 mm 0,0 UV-I 0 W/m² 4,9 °C 5,3 °C 0,0 km/h (0 Bft)
02.10.2017 06:49 5,4 °C 5,4 °C 97 % 1020,3 hPa 0,0 mm 0,0 km/h (0 Bft) N 9 ° 0 min 0,000 mm 0,0 UV-I 0 W/m² 5,0 °C 5,4 °C 0,0 km/h (0 Bft)
02.10.2017 06:50 5,4 °C 5,4 °C 97 % 1020,3 hPa 0,0 mm 0,0 km/h (0 Bft) N 9 ° 0 min 0,000 mm 0,0 UV-I 0 W/m² 5,0 °C 5,4 °C 0,0 km/h (0 Bft)
02.10.2017 06:51 5,4 °C 5,4 °C 97 % 1020,3 hPa 0,2 mm 0,3 km/h (0 Bft) N 9 ° 0 min 0,000 mm 0,0 UV-I 0 W/m² 5,0 °C 5,4 °C 3,2 km/h (1 Bft)
02.10.2017 06:52 5,4 °C 5,4 °C 97 % 1020,3 hPa 0,0 mm 0,1 km/h (0 Bft) N 9 ° 0 min 0,000 mm 0,0 UV-I 0 W/m² 5,0 °C 5,4 °C 1,6 km/h (1 Bft)
02.10.2017 06:53 5,5 °C 5,5 °C 97 % 1020,3 hPa 0,0 mm 0,0 km/h (0 Bft) N 9 ° 0 min 0,000 mm 0,0 UV-I 0 W/m² 5,1 °C 5,5 °C 0,0 km/h (0 Bft)
02.10.2017 06:54 5,5 °C 5,5 °C 97 % 1020,3 hPa 0,0 mm 1,6 km/h (1 Bft) N 9 ° 0 min 0,000 mm 0,0 UV-I 0 W/m² 5,1 °C 5,5 °C 3,2 km/h (1 Bft)
02.10.2017 06:55 5,4 °C 5,5 °C 97 % 1020,4 hPa 0,0 mm 0,2 km/h (0 Bft) N 9 ° 0 min 0,000 mm 0,0 UV-I 0 W/m² 5,0 °C 5,4 °C 1,6 km/h (1 Bft)
02.10.2017 06:56 5,4 °C 5,4 °C 97 % 1020,3 hPa 0,0 mm 0,0 km/h (0 Bft) N 9 ° 0 min 0,000 mm 0,0 UV-I 0 W/m² 5,0 °C 5,4 °C 0,0 km/h (0 Bft)
02.10.2017 06:57 5,4 °C 5,4 °C 97 % 1020,4 hPa 0,0 mm 0,0 km/h (0 Bft) N 9 ° 0 min 0,000 mm 0,0 UV-I 0 W/m² 5,0 °C 5,4 °C 0,0 km/h (0 Bft)
02.10.2017 06:58 5,4 °C 5,4 °C 97 % 1020,4 hPa 0,0 mm 0,0 km/h (0 Bft) N 9 ° 0 min 0,000 mm 0,0 UV-I 0 W/m² 5,0 °C 5,4 °C 0,0 km/h (0 Bft)
02.10.2017 06:59 5,4 °C 5,4 °C 97 % 1020,4 hPa 0,0 mm 0,0 km/h (0 Bft) N 9 ° 0 min 0,000 mm 0,0 UV-I 0 W/m² 5,0 °C 5,4 °C 0,0 km/h (0 Bft)
02.10.2017 07:00 5,4 °C 5,4 °C 97 % 1020,4 hPa 0,0 mm 0,0 km/h (0 Bft) N 9 ° 0 min 0,000 mm 0,0 UV-I 0 W/m² 5,0 °C 5,4 °C 0,0 km/h (0 Bft)
02.10.2017 07:01 5,4 °C 5,4 °C 97 % 1020,4 hPa 0,0 mm 0,1 km/h (0 Bft) N 9 ° 0 min 0,000 mm 0,0 UV-I 0 W/m² 5,0 °C 5,4 °C 1,6 km/h (1 Bft)
02.10.2017 07:02 5,4 °C 5,4 °C 97 % 1020,4 hPa 0,0 mm 0,0 km/h (0 Bft) N 9 ° 0 min 0,000 mm 0,0 UV-I 0 W/m² 5,0 °C 5,4 °C 0,0 km/h (0 Bft)
02.10.2017 07:03 5,4 °C 5,4 °C 97 % 1020,4 hPa 0,0 mm 0,0 km/h (0 Bft) N 9 ° 0 min 0,000 mm 0,0 UV-I 0 W/m² 5,0 °C 5,4 °C 0,0 km/h (0 Bft)
02.10.2017 07:04 5,4 °C 5,4 °C 97 % 1020,4 hPa 0,0 mm 0,0 km/h (0 Bft) N 9 ° 0 min 0,000 mm 0,0 UV-I 0 W/m² 5,0 °C 5,4 °C 0,0 km/h (0 Bft)
02.10.2017 07:05 5,3 °C 5,4 °C 97 % 1020,4 hPa 0,0 mm 0,0 km/h (0 Bft) N 9 ° 0 min 0,000 mm 0,0 UV-I 0 W/m² 4,9 °C 5,3 °C 0,0 km/h (0 Bft)
02.10.2017 07:06 5,3 °C 5,3 °C 97 % 1020,4 hPa 0,0 mm 0,0 km/h (0 Bft) N 9 ° 0 min 0,000 mm 0,0 UV-I 0 W/m² 4,9 °C 5,3 °C 0,0 km/h (0 Bft)
02.10.2017 07:07 5,3 °C 5,3 °C 97 % 1020,5 hPa 0,0 mm 0,0 km/h (0 Bft) N 9 ° 0 min 0,000 mm 0,0 UV-I 0 W/m² 4,9 °C 5,3 °C 0,0 km/h (0 Bft)
02.10.2017 07:08 5,4 °C 5,4 °C 96 % 1020,4 hPa 0,0 mm 0,0 km/h (0 Bft) N 9 ° 0 min 0,000 mm 0,0 UV-I 0 W/m² 4,8 °C 5,4 °C 0,0 km/h (0 Bft)
02.10.2017 07:09 5,3 °C 5,4 °C 97 % 1020,5 hPa 0,0 mm 0,0 km/h (0 Bft) N 9 ° 0 min 0,000 mm 0,0 UV-I 0 W/m² 4,9 °C 5,3 °C 0,0 km/h (0 Bft)
02.10.2017 07:10 5,4 °C 5,4 °C 96 % 1020,5 hPa 0,0 mm 0,0 km/h (0 Bft) N 9 ° 0 min 0,000 mm 0,0 UV-I 0 W/m² 4,8 °C 5,4 °C 0,0 km/h (0 Bft)
02.10.2017 07:11 5,4 °C 5,4 °C 97 % 1020,5 hPa 0,0 mm 0,0 km/h (0 Bft) N 9 ° 0 min 0,000 mm 0,0 UV-I 0 W/m² 5,0 °C 5,4 °C 0,0 km/h (0 Bft)
02.10.2017 07:12 5,3 °C 5,4 °C 97 % 1020,5 hPa 0,0 mm 0,0 km/h (0 Bft) N 9 ° 0 min 0,000 mm 0,0 UV-I 0 W/m² 4,9 °C 5,3 °C 0,0 km/h (0 Bft)
02.10.2017 07:13 5,3 °C 5,3 °C 96 % 1020,5 hPa 0,0 mm 0,0 km/h (0 Bft) N 9 ° 0 min 0,000 mm 0,0 UV-I 0 W/m² 4,7 °C 5,3 °C 0,0 km/h (0 Bft)
02.10.2017 07:14 5,2 °C 5,3 °C 97 % 1020,5 hPa 0,0 mm 0,0 km/h (0 Bft) N 9 ° 0 min 0,000 mm 0,0 UV-I 0 W/m² 4,8 °C 5,2 °C 0,0 km/h (0 Bft)
02.10.2017 07:15 5,2 °C 5,2 °C 96 % 1020,5 hPa 0,0 mm 0,0 km/h (0 Bft) N 9 ° 0 min 0,000 mm 0,0 UV-I 0 W/m² 4,6 °C 5,2 °C 0,0 km/h (0 Bft)
02.10.2017 07:16 5,2 °C 5,2 °C 96 % 1020,5 hPa 0,0 mm 0,0 km/h (0 Bft) N 9 ° 0 min 0,000 mm 0,0 UV-I 0 W/m² 4,6 °C 5,2 °C 0,0 km/h (0 Bft)
02.10.2017 07:17 5,3 °C 5,3 °C 96 % 1020,5 hPa 0,0 mm 0,0 km/h (0 Bft) N 9 ° 0 min 0,000 mm 0,0 UV-I 0 W/m² 4,7 °C 5,3 °C 0,0 km/h (0 Bft)
02.10.2017 07:18 5,3 °C 5,3 °C 96 % 1020,4 hPa 0,0 mm 0,0 km/h (0 Bft) N 9 ° 0 min 0,000 mm 0,0 UV-I 0 W/m² 4,7 °C 5,3 °C 0,0 km/h (0 Bft)
02.10.2017 07:19 5,4 °C 5,4 °C 97 % 1020,5 hPa 0,0 mm 0,0 km/h (0 Bft) N 9 ° 0 min 0,000 mm 0,0 UV-I 0 W/m² 5,0 °C 5,4 °C 0,0 km/h (0 Bft)
02.10.2017 07:20 5,5 °C 5,5 °C 97 % 1020,5 hPa 0,0 mm 0,0 km/h (0 Bft) N 9 ° 0 min 0,000 mm 0,0 UV-I 5 W/m² 5,1 °C 5,5 °C 0,0 km/h (0 Bft)
02.10.2017 07:21 5,5 °C 5,6 °C 97 % 1020,5 hPa 0,0 mm 0,1 km/h (0 Bft) N 5 ° 0 min 0,000 mm 0,0 UV-I 5 W/m² 5,1 °C 5,5 °C 1,6 km/h (1 Bft)
02.10.2017 07:22 5,5 °C 5,5 °C 97 % 1020,5 hPa 0,0 mm 1,7 km/h (1 Bft) N 5 ° 0 min 0,000 mm 0,0 UV-I 5 W/m² 5,1 °C 5,5 °C 3,2 km/h (1 Bft)
02.10.2017 07:23 5,4 °C 5,5 °C 97 % 1020,5 hPa 0,0 mm 0,6 km/h (0 Bft) N 5 ° 0 min 0,000 mm 0,0 UV-I 5 W/m² 5,0 °C 5,4 °C 1,6 km/h (1 Bft)
02.10.2017 07:24 5,5 °C 5,5 °C 97 % 1020,5 hPa 0,0 mm 0,7 km/h (0 Bft) N 5 ° 0 min 0,000 mm 0,0 UV-I 5 W/m² 5,1 °C 5,5 °C 3,2 km/h (1 Bft)
02.10.2017 07:25 5,5 °C 5,5 °C 97 % 1020,5 hPa 0,0 mm 0,0 km/h (0 Bft) N 5 ° 0 min 0,000 mm 0,0 UV-I 5 W/m² 5,1 °C 5,5 °C 0,0 km/h (0 Bft)
02.10.2017 07:26 5,4 °C 5,5 °C 97 % 1020,6 hPa 0,0 mm 0,3 km/h (0 Bft) N 5 ° 0 min 0,000 mm 0,0 UV-I 5 W/m² 5,0 °C 5,4 °C 1,6 km/h (1 Bft)
02.10.2017 07:27 5,4 °C 5,5 °C 97 % 1020,6 hPa 0,0 mm 0,6 km/h (0 Bft) N 5 ° 0 min 0,000 mm 0,0 UV-I 7 W/m² 5,0 °C 5,4 °C 1,6 km/h (1 Bft)
02.10.2017 07:28 5,5 °C 5,5 °C 97 % 1020,6 hPa 0,0 mm 0,0 km/h (0 Bft) N 5 ° 0 min 0,000 mm 0,0 UV-I 7 W/m² 5,1 °C 5,5 °C 0,0 km/h (0 Bft)
02.10.2017 07:29 5,6 °C 5,6 °C 97 % 1020,7 hPa 0,0 mm 0,0 km/h (0 Bft) N 5 ° 0 min 0,000 mm 0,0 UV-I 7 W/m² 5,2 °C 5,6 °C 0,0 km/h (0 Bft)
02.10.2017 07:30 5,6 °C 5,6 °C 97 % 1020,7 hPa 0,0 mm 0,0 km/h (0 Bft) N 5 ° 0 min 0,000 mm 0,0 UV-I 7 W/m² 5,2 °C 5,6 °C 0,0 km/h (0 Bft)
02.10.2017 07:31 5,7 °C 5,7 °C 97 % 1020,6 hPa 0,0 mm 0,0 km/h (0 Bft) N 5 ° 0 min 0,000 mm 0,0 UV-I 7 W/m² 5,3 °C 5,7 °C 0,0 km/h (0 Bft)
02.10.2017 07:32 5,7 °C 5,7 °C 97 % 1020,7 hPa 0,0 mm 0,0 km/h (0 Bft) N 5 ° 0 min 0,000 mm 0,0 UV-I 7 W/m² 5,3 °C 5,7 °C 0,0 km/h (0 Bft)
02.10.2017 07:33 5,7 °C 5,7 °C 97 % 1020,7 hPa 0,0 mm 0,0 km/h (0 Bft) N 5 ° 0 min 0,000 mm 0,0 UV-I 7 W/m² 5,3 °C 5,7 °C 0,0 km/h (0 Bft)
02.10.2017 07:34 5,7 °C 5,8 °C 97 % 1020,7 hPa 0,0 mm 0,1 km/h (0 Bft) N 5 ° 0 min 0,000 mm 0,0 UV-I 9 W/m² 5,3 °C 5,7 °C 1,6 km/h (1 Bft)
02.10.2017 07:35 5,7 °C 5,7 °C 97 % 1020,6 hPa 0,0 mm 0,4 km/h (0 Bft) N 5 ° 0 min 0,000 mm 0,0 UV-I 9 W/m² 5,3 °C 5,7 °C 1,6 km/h (1 Bft)
02.10.2017 07:36 5,7 °C 5,7 °C 97 % 1020,7 hPa 0,0 mm 0,0 km/h (0 Bft) N 5 ° 0 min 0,000 mm 0,0 UV-I 9 W/m² 5,3 °C 5,7 °C 0,0 km/h (0 Bft)
02.10.2017 07:37 5,8 °C 5,8 °C 97 % 1020,8 hPa 0,0 mm 0,0 km/h (0 Bft) N 5 ° 0 min 0,000 mm 0,0 UV-I 9 W/m² 5,4 °C 5,8 °C 0,0 km/h (0 Bft)
02.10.2017 07:38 5,8 °C 5,8 °C 97 % 1020,7 hPa 0,0 mm 0,1 km/h (0 Bft) N 5 ° 0 min 0,000 mm 0,0 UV-I 9 W/m² 5,4 °C 5,8 °C 1,6 km/h (1 Bft)
02.10.2017 07:39 5,8 °C 5,8 °C 97 % 1020,7 hPa 0,0 mm 0,0 km/h (0 Bft) N 5 ° 0 min 0,000 mm 0,0 UV-I 9 W/m² 5,4 °C 5,8 °C 0,0 km/h (0 Bft)
02.10.2017 07:40 5,8 °C 5,8 °C 97 % 1020,7 hPa 0,0 mm 0,0 km/h (0 Bft) N 5 ° 0 min 0,000 mm 0,0 UV-I 9 W/m² 5,4 °C 5,8 °C 0,0 km/h (0 Bft)
02.10.2017 07:41 5,9 °C 5,9 °C 97 % 1020,7 hPa 0,0 mm 0,4 km/h (0 Bft) N 5 ° 0 min 0,000 mm 0,0 UV-I 11 W/m² 5,5 °C 5,9 °C 1,6 km/h (1 Bft)
02.10.2017 07:42 5,9 °C 5,9 °C 97 % 1020,8 hPa 0,0 mm 0,0 km/h (0 Bft) N 5 ° 0 min 0,000 mm 0,0 UV-I 11 W/m² 5,5 °C 5,9 °C 0,0 km/h (0 Bft)
02.10.2017 07:43 5,9 °C 5,9 °C 97 % 1020,7 hPa 0,0 mm 0,0 km/h (0 Bft) N 5 ° 0 min 0,000 mm 0,0 UV-I 11 W/m² 5,5 °C 5,9 °C 0,0 km/h (0 Bft)
02.10.2017 07:44 6,0 °C 6,0 °C 97 % 1020,7 hPa 0,0 mm 0,0 km/h (0 Bft) N 5 ° 0 min 0,000 mm 0,0 UV-I 11 W/m² 5,6 °C 6,0 °C 0,0 km/h (0 Bft)
02.10.2017 07:45 5,9 °C 6,0 °C 97 % 1020,7 hPa 0,0 mm 0,0 km/h (0 Bft) N 5 ° 0 min 0,000 mm 0,0 UV-I 11 W/m² 5,5 °C 5,9 °C 0,0 km/h (0 Bft)
02.10.2017 07:46 6,0 °C 6,0 °C 97 % 1020,7 hPa 0,0 mm 0,0 km/h (0 Bft) N 5 ° 0 min 0,000 mm 0,0 UV-I 11 W/m² 5,6 °C 6,0 °C 0,0 km/h (0 Bft)
02.10.2017 07:47 6,0 °C 6,0 °C 97 % 1020,7 hPa 0,0 mm 0,0 km/h (0 Bft) N 5 ° 0 min 0,000 mm 0,0 UV-I 11 W/m² 5,6 °C 6,0 °C 0,0 km/h (0 Bft)
02.10.2017 07:48 5,9 °C 6,0 °C 97 % 1020,7 hPa 0,0 mm 0,0 km/h (0 Bft) N 5 ° 0 min 0,000 mm 0,0 UV-I 11 W/m² 5,5 °C 5,9 °C 0,0 km/h (0 Bft)
02.10.2017 07:49 5,9 °C 5,9 °C 97 % 1020,8 hPa 0,0 mm 0,0 km/h (0 Bft) N 5 ° 0 min 0,000 mm 0,0 UV-I 11 W/m² 5,5 °C 5,9 °C 0,0 km/h (0 Bft)
02.10.2017 07:50 5,9 °C 5,9 °C 97 % 1020,7 hPa 0,0 mm 0,0 km/h (0 Bft) N 5 ° 0 min 0,000 mm 0,0 UV-I 11 W/m² 5,5 °C 5,9 °C 0,0 km/h (0 Bft)
02.10.2017 07:51 6,0 °C 6,0 °C 97 % 1020,7 hPa 0,0 mm 0,0 km/h (0 Bft) N 5 ° 0 min 0,000 mm 0,0 UV-I 11 W/m² 5,6 °C 6,0 °C 0,0 km/h (0 Bft)
02.10.2017 07:52 6,0 °C 6,1 °C 97 % 1020,8 hPa 0,0 mm 0,2 km/h (0 Bft) N 5 ° 0 min 0,000 mm 0,0 UV-I 12 W/m² 5,6 °C 6,0 °C 1,6 km/h (1 Bft)
02.10.2017 07:53 6,0 °C 6,0 °C 97 % 1020,8 hPa 0,0 mm 0,0 km/h (0 Bft) N 5 ° 0 min 0,000 mm 0,0 UV-I 12 W/m² 5,6 °C 6,0 °C 0,0 km/h (0 Bft)
02.10.2017 07:54 6,0 °C 6,0 °C 97 % 1020,8 hPa 0,0 mm 0,0 km/h (0 Bft) N 5 ° 0 min 0,000 mm 0,0 UV-I 12 W/m² 5,6 °C 6,0 °C 0,0 km/h (0 Bft)
02.10.2017 07:55 6,0 °C 6,0 °C 97 % 1020,8 hPa 0,0 mm 1,9 km/h (1 Bft) N 11 ° 0 min 0,000 mm 0,0 UV-I 12 W/m² 5,6 °C 6,0 °C 6,4 km/h (2 Bft)
02.10.2017 07:56 6,0 °C 6,0 °C 97 % 1020,8 hPa 0,0 mm 0,9 km/h (0 Bft) N 11 ° 0 min 0,000 mm 0,0 UV-I 12 W/m² 5,6 °C 6,0 °C 1,6 km/h (1 Bft)
02.10.2017 07:57 5,9 °C 6,0 °C 97 % 1020,8 hPa 0,0 mm 0,0 km/h (0 Bft) N 11 ° 0 min 0,000 mm 0,0 UV-I 12 W/m² 5,5 °C 5,9 °C 0,0 km/h (0 Bft)
02.10.2017 07:58 6,0 °C 6,0 °C 97 % 1020,8 hPa 0,0 mm 0,0 km/h (0 Bft) N 11 ° 0 min 0,000 mm 0,0 UV-I 12 W/m² 5,6 °C 6,0 °C 0,0 km/h (0 Bft)
02.10.2017 07:59 5,9 °C 6,0 °C 97 % 1020,8 hPa 0,0 mm 0,0 km/h (0 Bft) N 11 ° 0 min 0,000 mm 0,0 UV-I 12 W/m² 5,5 °C 5,9 °C 0,0 km/h (0 Bft)
02.10.2017 08:00 6,0 °C 6,0 °C 97 % 1020,8 hPa 0,0 mm 0,0 km/h (0 Bft) N 11 ° 0 min 0,000 mm 0,0 UV-I 12 W/m² 5,6 °C 6,0 °C 0,0 km/h (0 Bft)
02.10.2017 08:01 6,1 °C 6,1 °C 97 % 1020,8 hPa 0,0 mm 0,0 km/h (0 Bft) N 11 ° 0 min 0,000 mm 0,0 UV-I 12 W/m² 5,7 °C 6,1 °C 0,0 km/h (0 Bft)
02.10.2017 08:02 6,1 °C 6,1 °C 97 % 1020,8 hPa 0,0 mm 0,2 km/h (0 Bft) N 11 ° 0 min 0,000 mm 0,0 UV-I 12 W/m² 5,7 °C 6,1 °C 1,6 km/h (1 Bft)
02.10.2017 08:03 6,1 °C 6,1 °C 97 % 1020,8 hPa 0,0 mm 0,0 km/h (0 Bft) N 11 ° 0 min 0,000 mm 0,0 UV-I 14 W/m² 5,7 °C 6,1 °C 0,0 km/h (0 Bft)
02.10.2017 08:04 6,1 °C 6,2 °C 97 % 1020,8 hPa 0,0 mm 0,0 km/h (0 Bft) N 11 ° 0 min 0,000 mm 0,0 UV-I 14 W/m² 5,7 °C 6,1 °C 0,0 km/h (0 Bft)
02.10.2017 08:05 6,2 °C 6,2 °C 97 % 1020,8 hPa 0,0 mm 0,0 km/h (0 Bft) N 11 ° 0 min 0,000 mm 0,0 UV-I 14 W/m² 5,8 °C 6,2 °C 0,0 km/h (0 Bft)
02.10.2017 08:06 6,1 °C 6,2 °C 97 % 1020,8 hPa 0,0 mm 0,0 km/h (0 Bft) N 11 ° 0 min 0,000 mm 0,0 UV-I 14 W/m² 5,7 °C 6,1 °C 0,0 km/h (0 Bft)
02.10.2017 08:07 6,2 °C 6,2 °C 97 % 1020,8 hPa 0,0 mm 0,0 km/h (0 Bft) N 11 ° 0 min 0,000 mm 0,0 UV-I 14 W/m² 5,8 °C 6,2 °C 0,0 km/h (0 Bft)
02.10.2017 08:08 6,2 °C 6,2 °C 97 % 1020,7 hPa 0,0 mm 0,0 km/h (0 Bft) N 11 ° 0 min 0,000 mm 0,0 UV-I 14 W/m² 5,8 °C 6,2 °C 0,0 km/h (0 Bft)
02.10.2017 08:09 6,2 °C 6,2 °C 97 % 1020,7 hPa 0,0 mm 0,0 km/h (0 Bft) N 11 ° 0 min 0,000 mm 0,0 UV-I 14 W/m² 5,8 °C 6,2 °C 0,0 km/h (0 Bft)
02.10.2017 08:10 6,3 °C 6,3 °C 97 % 1020,7 hPa 0,0 mm 0,0 km/h (0 Bft) N 11 ° 0 min 0,000 mm 0,0 UV-I 14 W/m² 5,9 °C 6,3 °C 0,0 km/h (0 Bft)
02.10.2017 08:11 6,2 °C 6,3 °C 97 % 1020,7 hPa 0,0 mm 0,1 km/h (0 Bft) N 11 ° 0 min 0,000 mm 0,0 UV-I 14 W/m² 5,8 °C 6,2 °C 1,6 km/h (1 Bft)
02.10.2017 08:12 6,2 °C 6,2 °C 97 % 1020,7 hPa 0,0 mm 0,0 km/h (0 Bft) N 11 ° 0 min 0,000 mm 0,0 UV-I 14 W/m² 5,8 °C 6,2 °C 0,0 km/h (0 Bft)
02.10.2017 08:13 6,2 °C 6,2 °C 97 % 1020,7 hPa 0,0 mm 0,1 km/h (0 Bft) N 11 ° 0 min 0,000 mm 0,0 UV-I 14 W/m² 5,8 °C 6,2 °C 1,6 km/h (1 Bft)
02.10.2017 08:14 6,2 °C 6,2 °C 97 % 1020,7 hPa 0,0 mm 0,0 km/h (0 Bft) N 11 ° 0 min 0,000 mm 0,0 UV-I 14 W/m² 5,8 °C 6,2 °C 0,0 km/h (0 Bft)
02.10.2017 08:15 6,2 °C 6,2 °C 97 % 1020,7 hPa 0,0 mm 0,0 km/h (0 Bft) N 11 ° 0 min 0,000 mm 0,0 UV-I 16 W/m² 5,8 °C 6,2 °C 0,0 km/h (0 Bft)
02.10.2017 08:16 6,2 °C 6,2 °C 97 % 1020,7 hPa 0,0 mm 0,0 km/h (0 Bft) N 11 ° 0 min 0,000 mm 0,0 UV-I 16 W/m² 5,8 °C 6,2 °C 0,0 km/h (0 Bft)
02.10.2017 08:17 6,2 °C 6,2 °C 97 % 1020,7 hPa 0,0 mm 0,0 km/h (0 Bft) N 11 ° 0 min 0,000 mm 0,0 UV-I 16 W/m² 5,8 °C 6,2 °C 0,0 km/h (0 Bft)
02.10.2017 08:18 6,2 °C 6,2 °C 97 % 1020,8 hPa 0,0 mm 0,0 km/h (0 Bft) N 11 ° 0 min 0,000 mm 0,0 UV-I 16 W/m² 5,8 °C 6,2 °C 0,0 km/h (0 Bft)
02.10.2017 08:19 6,2 °C 6,2 °C 97 % 1020,7 hPa 0,0 mm 0,0 km/h (0 Bft) N 11 ° 0 min 0,000 mm 0,0 UV-I 16 W/m² 5,8 °C 6,2 °C 0,0 km/h (0 Bft)
02.10.2017 08:20 6,3 °C 6,3 °C 97 % 1020,8 hPa 0,0 mm 0,3 km/h (0 Bft) N-NO 12 ° 0 min 0,000 mm 0,0 UV-I 16 W/m² 5,9 °C 6,3 °C 1,6 km/h (1 Bft)
02.10.2017 08:21 6,3 °C 6,3 °C 97 % 1020,7 hPa 0,0 mm 0,0 km/h (0 Bft) N-NO 12 ° 0 min 0,000 mm 0,0 UV-I 16 W/m² 5,9 °C 6,3 °C 0,0 km/h (0 Bft)
02.10.2017 08:22 6,3 °C 6,3 °C 97 % 1020,7 hPa 0,0 mm 0,0 km/h (0 Bft) N-NO 12 ° 0 min 0,000 mm 0,0 UV-I 18 W/m² 5,9 °C 6,3 °C 0,0 km/h (0 Bft)
02.10.2017 08:23 6,3 °C 6,4 °C 97 % 1020,8 hPa 0,0 mm 0,0 km/h (0 Bft) N-NO 12 ° 0 min 0,000 mm 0,0 UV-I 18 W/m² 5,9 °C 6,3 °C 0,0 km/h (0 Bft)
02.10.2017 08:24 6,3 °C 6,3 °C 97 % 1020,7 hPa 0,0 mm 0,0 km/h (0 Bft) N-NO 12 ° 0 min 0,000 mm 0,0 UV-I 18 W/m² 5,9 °C 6,3 °C 0,0 km/h (0 Bft)
02.10.2017 08:25 6,4 °C 6,4 °C 97 % 1020,7 hPa 0,0 mm 0,0 km/h (0 Bft) N-NO 12 ° 0 min 0,000 mm 0,0 UV-I 18 W/m² 6,0 °C 6,4 °C 0,0 km/h (0 Bft)
02.10.2017 08:26 6,3 °C 6,4 °C 97 % 1020,8 hPa 0,0 mm 0,3 km/h (0 Bft) N-NO 12 ° 0 min 0,000 mm 0,0 UV-I 18 W/m² 5,9 °C 6,3 °C 1,6 km/h (1 Bft)
02.10.2017 08:27 6,4 °C 6,4 °C 97 % 1020,8 hPa 0,0 mm 0,0 km/h (0 Bft) N 11 ° 0 min 0,000 mm 0,0 UV-I 18 W/m² 6,0 °C 6,4 °C 0,0 km/h (0 Bft)
02.10.2017 08:28 6,4 °C 6,4 °C 97 % 1020,7 hPa 0,0 mm 0,0 km/h (0 Bft) N 11 ° 0 min 0,000 mm 0,0 UV-I 18 W/m² 6,0 °C 6,4 °C 0,0 km/h (0 Bft)
02.10.2017 08:29 6,5 °C 6,5 °C 97 % 1020,8 hPa 0,0 mm 0,2 km/h (0 Bft) N 11 ° 0 min 0,000 mm 0,0 UV-I 18 W/m² 6,1 °C 6,5 °C 1,6 km/h (1 Bft)
02.10.2017 08:30 6,6 °C 6,6 °C 97 % 1020,8 hPa 0,0 mm 0,0 km/h (0 Bft) N 11 ° 0 min 0,000 mm 0,0 UV-I 19 W/m² 6,2 °C 6,6 °C 0,0 km/h (0 Bft)
02.10.2017 08:31 6,6 °C 6,6 °C 97 % 1020,8 hPa 0,0 mm 1,5 km/h (1 Bft) N 5 ° 0 min 0,000 mm 0,0 UV-I 19 W/m² 6,2 °C 6,6 °C 3,2 km/h (1 Bft)
02.10.2017 08:32 6,5 °C 6,6 °C 97 % 1020,9 hPa 0,0 mm 0,1 km/h (0 Bft) N 5 ° 0 min 0,000 mm 0,0 UV-I 19 W/m² 6,1 °C 6,5 °C 1,6 km/h (1 Bft)
02.10.2017 08:33 6,4 °C 6,5 °C 97 % 1020,8 hPa 0,0 mm 0,0 km/h (0 Bft) N 5 ° 0 min 0,000 mm 0,0 UV-I 19 W/m² 6,0 °C 6,4 °C 0,0 km/h (0 Bft)
02.10.2017 08:34 6,4 °C 6,4 °C 97 % 1020,8 hPa 0,0 mm 0,0 km/h (0 Bft) N 5 ° 0 min 0,000 mm 0,0 UV-I 19 W/m² 6,0 °C 6,4 °C 0,0 km/h (0 Bft)
02.10.2017 08:35 6,5 °C 6,5 °C 97 % 1020,9 hPa 0,0 mm 1,4 km/h (1 Bft) N-NW 348 ° 0 min 0,000 mm 0,0 UV-I 19 W/m² 6,1 °C 6,5 °C 4,8 km/h (1 Bft)
02.10.2017 08:36 6,6 °C 6,6 °C 97 % 1020,8 hPa 0,0 mm 3,7 km/h (1 Bft) O-NO 63 ° 0 min 0,000 mm 0,0 UV-I 19 W/m² 6,2 °C 6,6 °C 6,4 km/h (2 Bft)
02.10.2017 08:37 6,7 °C 6,7 °C 97 % 1020,8 hPa 0,0 mm 0,5 km/h (0 Bft) O-NO 63 ° 0 min 0,000 mm 0,0 UV-I 19 W/m² 6,3 °C 6,7 °C 3,2 km/h (1 Bft)
02.10.2017 08:38 6,7 °C 6,7 °C 97 % 1020,9 hPa 0,0 mm 0,6 km/h (0 Bft) NO 53 ° 0 min 0,000 mm 0,0 UV-I 19 W/m² 6,3 °C 6,7 °C 3,2 km/h (1 Bft)
02.10.2017 08:39 6,7 °C 6,7 °C 97 % 1020,8 hPa 0,0 mm 0,1 km/h (0 Bft) NO 53 ° 0 min 0,000 mm 0,0 UV-I 21 W/m² 6,3 °C 6,7 °C 1,6 km/h (1 Bft)
02.10.2017 08:40 6,8 °C 6,8 °C 97 % 1020,8 hPa 0,0 mm 0,3 km/h (0 Bft) NO 53 ° 0 min 0,000 mm 0,0 UV-I 21 W/m² 6,4 °C 6,8 °C 1,6 km/h (1 Bft)
02.10.2017 08:41 6,9 °C 6,9 °C 97 % 1020,8 hPa 0,0 mm 0,0 km/h (0 Bft) NO 53 ° 0 min 0,000 mm 0,0 UV-I 21 W/m² 6,5 °C 6,9 °C 0,0 km/h (0 Bft)
02.10.2017 08:42 6,9 °C 6,9 °C 97 % 1020,8 hPa 0,0 mm 0,0 km/h (0 Bft) NO 53 ° 0 min 0,000 mm 0,0 UV-I 21 W/m² 6,5 °C 6,9 °C 0,0 km/h (0 Bft)
02.10.2017 08:43 6,9 °C 6,9 °C 97 % 1020,9 hPa 0,0 mm 0,7 km/h (0 Bft) NO 52 ° 0 min 0,000 mm 0,0 UV-I 21 W/m² 6,5 °C 6,9 °C 3,2 km/h (1 Bft)
02.10.2017 08:44 6,8 °C 6,9 °C 97 % 1020,8 hPa 0,0 mm 0,6 km/h (0 Bft) NO 52 ° 0 min 0,000 mm 0,0 UV-I 21 W/m² 6,4 °C 6,8 °C 3,2 km/h (1 Bft)
02.10.2017 08:45 6,8 °C 6,8 °C 97 % 1020,9 hPa 0,0 mm 0,1 km/h (0 Bft) NO 52 ° 0 min 0,000 mm 0,0 UV-I 21 W/m² 6,4 °C 6,8 °C 1,6 km/h (1 Bft)
02.10.2017 08:46 6,8 °C 6,8 °C 97 % 1020,9 hPa 0,0 mm 0,9 km/h (0 Bft) NO 49 ° 0 min 0,000 mm 0,0 UV-I 21 W/m² 6,4 °C 6,8 °C 3,2 km/h (1 Bft)
02.10.2017 08:47 6,8 °C 6,8 °C 97 % 1020,8 hPa 0,0 mm 0,6 km/h (0 Bft) NO 49 ° 0 min 0,000 mm 0,0 UV-I 21 W/m² 6,4 °C 6,8 °C 1,6 km/h (1 Bft)
02.10.2017 08:48 6,8 °C 6,8 °C 97 % 1020,8 hPa 0,0 mm 0,0 km/h (0 Bft) NO 49 ° 0 min 0,000 mm 0,0 UV-I 21 W/m² 6,4 °C 6,8 °C 0,0 km/h (0 Bft)
02.10.2017 08:49 6,9 °C 6,9 °C 97 % 1020,8 hPa 0,0 mm 0,0 km/h (0 Bft) NO 49 ° 0 min 0,000 mm 0,0 UV-I 23 W/m² 6,5 °C 6,9 °C 0,0 km/h (0 Bft)
02.10.2017 08:50 6,9 °C 6,9 °C 97 % 1020,9 hPa 0,0 mm 0,0 km/h (0 Bft) NO 49 ° 0 min 0,000 mm 0,0 UV-I 23 W/m² 6,5 °C 6,9 °C 0,0 km/h (0 Bft)
02.10.2017 08:51 7,0 °C 7,0 °C 97 % 1020,8 hPa 0,0 mm 0,0 km/h (0 Bft) NO 49 ° 0 min 0,000 mm 0,0 UV-I 23 W/m² 6,6 °C 7,0 °C 0,0 km/h (0 Bft)
02.10.2017 08:52 7,1 °C 7,1 °C 97 % 1020,8 hPa 0,0 mm 0,0 km/h (0 Bft) NO 49 ° 0 min 0,000 mm 0,0 UV-I 25 W/m² 6,7 °C 7,1 °C 0,0 km/h (0 Bft)
02.10.2017 08:53 7,1 °C 7,1 °C 97 % 1020,7 hPa 0,0 mm 0,0 km/h (0 Bft) NO 49 ° 0 min 0,000 mm 0,0 UV-I 25 W/m² 6,7 °C 7,1 °C 0,0 km/h (0 Bft)
02.10.2017 08:54 7,1 °C 7,1 °C 97 % 1020,8 hPa 0,0 mm 0,7 km/h (0 Bft) NO 49 ° 0 min 0,000 mm 0,0 UV-I 25 W/m² 6,7 °C 7,1 °C 1,6 km/h (1 Bft)
02.10.2017 08:55 7,1 °C 7,1 °C 97 % 1020,8 hPa 0,0 mm 0,7 km/h (0 Bft) NO 49 ° 0 min 0,000 mm 0,0 UV-I 26 W/m² 6,7 °C 7,1 °C 1,6 km/h (1 Bft)
02.10.2017 08:56 7,2 °C 7,2 °C 97 % 1020,8 hPa 0,0 mm 0,2 km/h (0 Bft) NO 49 ° 0 min 0,000 mm 0,0 UV-I 26 W/m² 6,8 °C 7,2 °C 1,6 km/h (1 Bft)
02.10.2017 08:57 7,2 °C 7,2 °C 97 % 1020,9 hPa 0,0 mm 1,0 km/h (0 Bft) N-NO 17 ° 0 min 0,000 mm 0,0 UV-I 28 W/m² 6,8 °C 7,2 °C 3,2 km/h (1 Bft)
02.10.2017 08:58 7,2 °C 7,2 °C 97 % 1020,8 hPa 0,0 mm 0,3 km/h (0 Bft) N-NO 17 ° 0 min 0,000 mm 0,0 UV-I 28 W/m² 6,8 °C 7,2 °C 1,6 km/h (1 Bft)
02.10.2017 08:59 7,3 °C 7,3 °C 97 % 1020,8 hPa 0,0 mm 0,1 km/h (0 Bft) N-NO 17 ° 0 min 0,000 mm 0,0 UV-I 30 W/m² 6,9 °C 7,3 °C 1,6 km/h (1 Bft)
02.10.2017 09:00 7,3 °C 7,3 °C 97 % 1020,8 hPa 0,0 mm 0,3 km/h (0 Bft) N-NO 17 ° 0 min 0,000 mm 0,0 UV-I 32 W/m² 6,9 °C 7,3 °C 1,6 km/h (1 Bft)
02.10.2017 09:01 7,4 °C 7,4 °C 97 % 1020,8 hPa 0,0 mm 0,2 km/h (0 Bft) N-NO 17 ° 0 min 0,000 mm 0,0 UV-I 32 W/m² 7,0 °C 7,4 °C 1,6 km/h (1 Bft)
02.10.2017 09:02 7,5 °C 7,5 °C 97 % 1020,8 hPa 0,0 mm 0,0 km/h (0 Bft) N-NO 17 ° 0 min 0,000 mm 0,0 UV-I 35 W/m² 7,1 °C 7,5 °C 0,0 km/h (0 Bft)
02.10.2017 09:03 7,4 °C 7,6 °C 97 % 1020,8 hPa 0,0 mm 0,2 km/h (0 Bft) N-NO 17 ° 0 min 0,000 mm 0,0 UV-I 37 W/m² 7,0 °C 7,4 °C 1,6 km/h (1 Bft)
02.10.2017 09:04 7,4 °C 7,4 °C 97 % 1020,8 hPa 0,0 mm 0,1 km/h (0 Bft) N-NO 17 ° 0 min 0,000 mm 0,0 UV-I 39 W/m² 7,0 °C 7,4 °C 1,6 km/h (1 Bft)
02.10.2017 09:05 7,4 °C 7,4 °C 97 % 1020,9 hPa 0,0 mm 0,0 km/h (0 Bft) N-NO 17 ° 0 min 0,000 mm 0,0 UV-I 40 W/m² 7,0 °C 7,4 °C 0,0 km/h (0 Bft)
02.10.2017 09:06 7,5 °C 7,6 °C 97 % 1020,8 hPa 0,0 mm 0,0 km/h (0 Bft) N-NO 17 ° 0 min 0,000 mm 0,0 UV-I 40 W/m² 7,1 °C 7,5 °C 0,0 km/h (0 Bft)
02.10.2017 09:07 7,6 °C 7,6 °C 97 % 1020,8 hPa 0,0 mm 0,0 km/h (0 Bft) N-NO 17 ° 0 min 0,000 mm 0,0 UV-I 42 W/m² 7,2 °C 7,6 °C 0,0 km/h (0 Bft)
02.10.2017 09:08 7,6 °C 7,6 °C 97 % 1020,9 hPa 0,0 mm 0,0 km/h (0 Bft) N-NO 17 ° 0 min 0,000 mm 0,0 UV-I 46 W/m² 7,2 °C 7,6 °C 0,0 km/h (0 Bft)
02.10.2017 09:09 7,6 °C 7,6 °C 97 % 1020,8 hPa 0,0 mm 0,0 km/h (0 Bft) N-NO 17 ° 0 min 0,000 mm 0,0 UV-I 47 W/m² 7,2 °C 7,6 °C 0,0 km/h (0 Bft)
02.10.2017 09:10 7,6 °C 7,6 °C 97 % 1020,8 hPa 0,0 mm 0,0 km/h (0 Bft) N-NO 17 ° 0 min 0,000 mm 0,0 UV-I 49 W/m² 7,2 °C 7,6 °C 0,0 km/h (0 Bft)
02.10.2017 09:11 7,7 °C 7,7 °C 97 % 1020,8 hPa 0,0 mm 0,0 km/h (0 Bft) N-NO 17 ° 0 min 0,000 mm 0,0 UV-I 51 W/m² 7,3 °C 7,7 °C 0,0 km/h (0 Bft)
02.10.2017 09:12 7,8 °C 7,8 °C 97 % 1020,8 hPa 0,0 mm 0,0 km/h (0 Bft) N-NO 17 ° 0 min 0,000 mm 0,0 UV-I 51 W/m² 7,4 °C 7,8 °C 0,0 km/h (0 Bft)
02.10.2017 09:13 8,0 °C 8,0 °C 97 % 1020,8 hPa 0,0 mm 0,0 km/h (0 Bft) N-NO 17 ° 0 min 0,000 mm 0,0 UV-I 53 W/m² 7,6 °C 8,0 °C 0,0 km/h (0 Bft)
02.10.2017 09:14 7,9 °C 8,0 °C 97 % 1020,8 hPa 0,0 mm 0,0 km/h (0 Bft) N-NO 17 ° 0 min 0,000 mm 0,0 UV-I 56 W/m² 7,5 °C 7,9 °C 0,0 km/h (0 Bft)
02.10.2017 09:15 7,9 °C 7,9 °C 97 % 1020,8 hPa 0,0 mm 0,0 km/h (0 Bft) N-NO 17 ° 0 min 0,000 mm 0,8 UV-I 56 W/m² 7,5 °C 7,9 °C 0,0 km/h (0 Bft)
02.10.2017 09:16 7,9 °C 7,9 °C 97 % 1020,8 hPa 0,0 mm 0,0 km/h (0 Bft) N-NO 17 ° 0 min 0,000 mm 0,8 UV-I 56 W/m² 7,5 °C 7,9 °C 0,0 km/h (0 Bft)
02.10.2017 09:17 8,0 °C 8,0 °C 97 % 1020,8 hPa 0,0 mm 0,0 km/h (0 Bft) N-NO 17 ° 0 min 0,000 mm 0,8 UV-I 58 W/m² 7,6 °C 8,0 °C 0,0 km/h (0 Bft)
02.10.2017 09:18 8,1 °C 8,1 °C 97 % 1020,8 hPa 0,0 mm 0,0 km/h (0 Bft) N-NO 17 ° 0 min 0,000 mm 0,8 UV-I 58 W/m² 7,7 °C 8,1 °C 0,0 km/h (0 Bft)
02.10.2017 09:19 8,2 °C 8,2 °C 97 % 1020,8 hPa 0,0 mm 0,0 km/h (0 Bft) N-NO 17 ° 0 min 0,000 mm 0,8 UV-I 60 W/m² 7,8 °C 8,2 °C 0,0 km/h (0 Bft)
02.10.2017 09:20 8,3 °C 8,3 °C 97 % 1020,8 hPa 0,0 mm 0,0 km/h (0 Bft) N-NO 17 ° 0 min 0,000 mm 0,8 UV-I 60 W/m² 7,9 °C 8,3 °C 0,0 km/h (0 Bft)
02.10.2017 09:21 8,2 °C 8,3 °C 97 % 1020,8 hPa 0,0 mm 0,0 km/h (0 Bft) N-NO 17 ° 0 min 0,000 mm 0,8 UV-I 60 W/m² 7,8 °C 8,2 °C 0,0 km/h (0 Bft)
02.10.2017 09:22 8,3 °C 8,3 °C 97 % 1020,8 hPa 0,0 mm 0,0 km/h (0 Bft) N-NO 17 ° 0 min 0,000 mm 0,9 UV-I 60 W/m² 7,9 °C 8,3 °C 0,0 km/h (0 Bft)
02.10.2017 09:23 8,4 °C 8,4 °C 97 % 1020,8 hPa 0,0 mm 0,0 km/h (0 Bft) N-NO 17 ° 0 min 0,000 mm 0,9 UV-I 60 W/m² 8,0 °C 8,4 °C 0,0 km/h (0 Bft)
02.10.2017 09:24 8,3 °C 8,4 °C 97 % 1020,8 hPa 0,0 mm 0,0 km/h (0 Bft) O-NO 57 ° 0 min 0,000 mm 0,9 UV-I 60 W/m² 7,9 °C 8,3 °C 0,0 km/h (0 Bft)
02.10.2017 09:25 8,4 °C 8,4 °C 97 % 1020,7 hPa 0,0 mm 0,0 km/h (0 Bft) O-NO 57 ° 0 min 0,000 mm 0,9 UV-I 58 W/m² 8,0 °C 8,4 °C 0,0 km/h (0 Bft)
02.10.2017 09:26 8,4 °C 8,4 °C 97 % 1020,8 hPa 0,0 mm 0,0 km/h (0 Bft) O-NO 57 ° 0 min 0,000 mm 0,9 UV-I 56 W/m² 8,0 °C 8,4 °C 0,0 km/h (0 Bft)
02.10.2017 09:27 8,4 °C 8,4 °C 97 % 1020,8 hPa 0,0 mm 0,0 km/h (0 Bft) O-NO 57 ° 0 min 0,000 mm 0,0 UV-I 54 W/m² 8,0 °C 8,4 °C 0,0 km/h (0 Bft)
02.10.2017 09:28 8,5 °C 8,5 °C 97 % 1020,8 hPa 0,0 mm 0,0 km/h (0 Bft) O-NO 57 ° 0 min 0,000 mm 0,0 UV-I 54 W/m² 8,1 °C 8,5 °C 0,0 km/h (0 Bft)
02.10.2017 09:29 8,7 °C 8,7 °C 97 % 1020,7 hPa 0,0 mm 0,0 km/h (0 Bft) O-NO 57 ° 0 min 0,000 mm 0,0 UV-I 54 W/m² 8,3 °C 8,7 °C 0,0 km/h (0 Bft)
02.10.2017 09:30 8,8 °C 8,8 °C 97 % 1020,7 hPa 0,0 mm 0,0 km/h (0 Bft) O-NO 57 ° 0 min 0,000 mm 0,0 UV-I 53 W/m² 8,4 °C 8,8 °C 0,0 km/h (0 Bft)
02.10.2017 09:31 8,8 °C 8,8 °C 97 % 1020,8 hPa 0,0 mm 0,0 km/h (0 Bft) O-NO 57 ° 0 min 0,000 mm 0,0 UV-I 53 W/m² 8,4 °C 8,8 °C 0,0 km/h (0 Bft)
02.10.2017 09:32 8,9 °C 8,9 °C 97 % 1020,8 hPa 0,0 mm 0,0 km/h (0 Bft) O-NO 57 ° 0 min 0,000 mm 0,9 UV-I 56 W/m² 8,4 °C 8,9 °C 0,0 km/h (0 Bft)
02.10.2017 09:33 8,9 °C 8,9 °C 97 % 1020,8 hPa 0,0 mm 0,0 km/h (0 Bft) O-NO 57 ° 0 min 0,000 mm 0,9 UV-I 62 W/m² 8,4 °C 8,9 °C 0,0 km/h (0 Bft)
02.10.2017 09:34 9,0 °C 9,0 °C 97 % 1020,8 hPa 0,0 mm 0,0 km/h (0 Bft) O-NO 57 ° 0 min 0,000 mm 0,9 UV-I 60 W/m² 8,5 °C 9,0 °C 0,0 km/h (0 Bft)
02.10.2017 09:35 9,0 °C 9,0 °C 97 % 1020,8 hPa 0,0 mm 0,0 km/h (0 Bft) O-NO 57 ° 0 min 0,000 mm 0,9 UV-I 58 W/m² 8,5 °C 9,0 °C 0,0 km/h (0 Bft)
02.10.2017 09:36 9,1 °C 9,1 °C 97 % 1020,8 hPa 0,0 mm 0,0 km/h (0 Bft) O-NO 57 ° 0 min 0,000 mm 0,9 UV-I 60 W/m² 8,6 °C 9,1 °C 0,0 km/h (0 Bft)
02.10.2017 09:37 9,1 °C 9,1 °C 97 % 1020,8 hPa 0,0 mm 0,0 km/h (0 Bft) O-NO 57 ° 0 min 0,000 mm 0,9 UV-I 65 W/m² 8,6 °C 9,1 °C 0,0 km/h (0 Bft)
02.10.2017 09:38 9,1 °C 9,2 °C 97 % 1020,8 hPa 0,0 mm 0,1 km/h (0 Bft) O-NO 57 ° 0 min 0,000 mm 1,0 UV-I 67 W/m² 8,6 °C 9,1 °C 1,6 km/h (1 Bft)
02.10.2017 09:39 9,2 °C 9,2 °C 97 % 1020,9 hPa 0,0 mm 0,0 km/h (0 Bft) O-NO 57 ° 0 min 0,000 mm 1,0 UV-I 84 W/m² 8,7 °C 9,2 °C 0,0 km/h (0 Bft)
02.10.2017 09:40 9,3 °C 9,3 °C 97 % 1020,9 hPa 0,0 mm 0,0 km/h (0 Bft) O-NO 57 ° 0 min 0,000 mm 1,0 UV-I 95 W/m² 8,8 °C 9,3 °C 0,0 km/h (0 Bft)
02.10.2017 09:41 9,2 °C 9,3 °C 97 % 1020,8 hPa 0,0 mm 0,0 km/h (0 Bft) O-NO 57 ° 0 min 0,000 mm 1,1 UV-I 107 W/m² 8,7 °C 9,2 °C 0,0 km/h (0 Bft)
02.10.2017 09:42 9,2 °C 9,2 °C 96 % 1020,9 hPa 0,0 mm 0,0 km/h (0 Bft) O-NO 57 ° 0 min 0,000 mm 1,1 UV-I 139 W/m² 8,6 °C 9,2 °C 0,0 km/h (0 Bft)
02.10.2017 09:43 9,2 °C 9,2 °C 96 % 1020,9 hPa 0,0 mm 0,0 km/h (0 Bft) O-NO 57 ° 0 min 0,000 mm 1,2 UV-I 114 W/m² 8,6 °C 9,2 °C 0,0 km/h (0 Bft)
02.10.2017 09:44 9,2 °C 9,2 °C 96 % 1020,9 hPa 0,0 mm 0,0 km/h (0 Bft) O-NO 57 ° 0 min 0,000 mm 1,1 UV-I 97 W/m² 8,6 °C 9,2 °C 0,0 km/h (0 Bft)
02.10.2017 09:45 9,3 °C 9,3 °C 96 % 1020,9 hPa 0,0 mm 0,0 km/h (0 Bft) O-NO 57 ° 0 min 0,000 mm 1,1 UV-I 95 W/m² 8,7 °C 9,3 °C 0,0 km/h (0 Bft)
02.10.2017 09:46 9,3 °C 9,3 °C 96 % 1020,9 hPa 0,0 mm 0,0 km/h (0 Bft) O-NO 57 ° 0 min 0,000 mm 1,1 UV-I 84 W/m² 8,7 °C 9,3 °C 0,0 km/h (0 Bft)
02.10.2017 09:47 9,4 °C 9,4 °C 96 % 1020,9 hPa 0,0 mm 0,0 km/h (0 Bft) O-NO 57 ° 0 min 0,000 mm 1,1 UV-I 83 W/m² 8,8 °C 9,4 °C 0,0 km/h (0 Bft)
02.10.2017 09:48 9,4 °C 9,4 °C 96 % 1020,9 hPa 0,0 mm 0,0 km/h (0 Bft) O-NO 57 ° 0 min 0,000 mm 1,1 UV-I 90 W/m² 8,8 °C 9,4 °C 0,0 km/h (0 Bft)
02.10.2017 09:49 9,5 °C 9,5 °C 96 % 1020,9 hPa 0,0 mm 0,0 km/h (0 Bft) O-NO 57 ° 0 min 0,000 mm 1,2 UV-I 149 W/m² 8,9 °C 9,5 °C 0,0 km/h (0 Bft)
02.10.2017 09:50 9,6 °C 9,6 °C 96 % 1020,9 hPa 0,0 mm 0,0 km/h (0 Bft) O-NO 57 ° 0 min 0,000 mm 1,3 UV-I 137 W/m² 9,0 °C 9,6 °C 0,0 km/h (0 Bft)
02.10.2017 09:51 9,6 °C 9,6 °C 96 % 1020,8 hPa 0,0 mm 0,0 km/h (0 Bft) O-NO 57 ° 0 min 0,000 mm 1,2 UV-I 137 W/m² 9,0 °C 9,6 °C 0,0 km/h (0 Bft)
02.10.2017 09:52 9,6 °C 9,6 °C 96 % 1020,8 hPa 0,0 mm 0,0 km/h (0 Bft) O-NO 57 ° 0 min 0,000 mm 1,2 UV-I 116 W/m² 9,0 °C 9,6 °C 0,0 km/h (0 Bft)
02.10.2017 09:53 9,6 °C 9,6 °C 96 % 1020,8 hPa 0,0 mm 0,0 km/h (0 Bft) O-NO 57 ° 0 min 0,000 mm 1,2 UV-I 100 W/m² 9,0 °C 9,6 °C 0,0 km/h (0 Bft)
02.10.2017 09:54 9,7 °C 9,7 °C 95 % 1020,8 hPa 0,0 mm 0,0 km/h (0 Bft) O-NO 57 ° 0 min 0,000 mm 1,2 UV-I 127 W/m² 8,9 °C 9,7 °C 0,0 km/h (0 Bft)
02.10.2017 09:55 9,7 °C 9,7 °C 95 % 1020,8 hPa 0,0 mm 0,0 km/h (0 Bft) O-NO 57 ° 0 min 0,000 mm 1,3 UV-I 135 W/m² 8,9 °C 9,7 °C 0,0 km/h (0 Bft)
02.10.2017 09:56 9,7 °C 9,7 °C 95 % 1020,8 hPa 0,0 mm 0,0 km/h (0 Bft) O-NO 57 ° 0 min 0,000 mm 1,3 UV-I 120 W/m² 8,9 °C 9,7 °C 0,0 km/h (0 Bft)
02.10.2017 09:57 9,8 °C 9,8 °C 95 % 1020,8 hPa 0,0 mm 0,0 km/h (0 Bft) O-NO 57 ° 0 min 0,000 mm 1,2 UV-I 114 W/m² 9,0 °C 9,8 °C 0,0 km/h (0 Bft)
02.10.2017 09:58 9,9 °C 9,9 °C 95 % 1020,8 hPa 0,0 mm 0,0 km/h (0 Bft) O-NO 57 ° 0 min 0,000 mm 1,2 UV-I 90 W/m² 9,1 °C 9,9 °C 0,0 km/h (0 Bft)
02.10.2017 09:59 9,9 °C 9,9 °C 94 % 1020,8 hPa 0,0 mm 0,0 km/h (0 Bft) O-NO 57 ° 0 min 0,000 mm 1,2 UV-I 77 W/m² 9,0 °C 9,9 °C 0,0 km/h (0 Bft)
02.10.2017 10:00 10,0 °C 10,0 °C 94 % 1020,7 hPa 0,0 mm 0,0 km/h (0 Bft) O-NO 57 ° 0 min 0,000 mm 1,2 UV-I 86 W/m² 9,1 °C 10,0 °C 0,0 km/h (0 Bft)
02.10.2017 10:01 10,1 °C 10,1 °C 94 % 1020,7 hPa 0,0 mm 0,0 km/h (0 Bft) O-NO 57 ° 0 min 0,025 mm 1,2 UV-I 169 W/m² 9,2 °C 10,1 °C 0,0 km/h (0 Bft)
02.10.2017 10:02 10,1 °C 10,1 °C 94 % 1020,7 hPa 0,0 mm 0,0 km/h (0 Bft) O-NO 57 ° 0 min 0,000 mm 1,4 UV-I 158 W/m² 9,2 °C 10,1 °C 0,0 km/h (0 Bft)
02.10.2017 10:04 9,9 °C 10,1 °C 94 % 1020,8 hPa 0,0 mm 0,0 km/h (0 Bft) O-NO 57 ° 0 min 0,000 mm 1,4 UV-I 158 W/m² 9,0 °C 9,9 °C 0,0 km/h (0 Bft)
02.10.2017 10:05 9,9 °C 9,9 °C 94 % 1020,8 hPa 0,0 mm 0,0 km/h (0 Bft) O-NO 57 ° 0 min 0,000 mm 1,4 UV-I 134 W/m² 9,0 °C 9,9 °C 0,0 km/h (0 Bft)
02.10.2017 10:06 9,9 °C 9,9 °C 94 % 1020,7 hPa 0,0 mm 0,0 km/h (0 Bft) O-NO 57 ° 0 min 0,000 mm 1,3 UV-I 104 W/m² 9,0 °C 9,9 °C 0,0 km/h (0 Bft)
02.10.2017 10:07 9,9 °C 9,9 °C 94 % 1020,8 hPa 0,0 mm 0,0 km/h (0 Bft) O-NO 57 ° 0 min 0,000 mm 1,2 UV-I 79 W/m² 9,0 °C 9,9 °C 0,0 km/h (0 Bft)
02.10.2017 10:08 10,1 °C 10,1 °C 94 % 1020,8 hPa 0,0 mm 0,0 km/h (0 Bft) O-NO 57 ° 0 min 0,000 mm 1,2 UV-I 95 W/m² 9,2 °C 10,1 °C 0,0 km/h (0 Bft)
02.10.2017 10:09 10,2 °C 10,2 °C 94 % 1020,7 hPa 0,0 mm 0,0 km/h (0 Bft) O-NO 57 ° 0 min 0,000 mm 1,2 UV-I 86 W/m² 9,3 °C 10,2 °C 0,0 km/h (0 Bft)
02.10.2017 10:10 10,2 °C 10,2 °C 94 % 1020,7 hPa 0,0 mm 0,0 km/h (0 Bft) O-NO 57 ° 0 min 0,000 mm 1,2 UV-I 83 W/m² 9,3 °C 10,2 °C 0,0 km/h (0 Bft)
02.10.2017 10:11 10,3 °C 10,3 °C 93 % 1020,8 hPa 0,0 mm 0,1 km/h (0 Bft) O-NO 57 ° 0 min 0,000 mm 1,2 UV-I 95 W/m² 9,2 °C 10,3 °C 1,6 km/h (1 Bft)
02.10.2017 10:12 10,3 °C 10,3 °C 93 % 1020,8 hPa 0,0 mm 0,0 km/h (0 Bft) O-NO 57 ° 0 min 0,000 mm 1,3 UV-I 100 W/m² 9,2 °C 10,3 °C 0,0 km/h (0 Bft)
02.10.2017 10:13 10,3 °C 10,3 °C 93 % 1020,7 hPa 0,0 mm 0,0 km/h (0 Bft) O-NO 57 ° 0 min 0,000 mm 1,3 UV-I 60 W/m² 9,2 °C 10,3 °C 0,0 km/h (0 Bft)
02.10.2017 10:14 10,3 °C 10,3 °C 93 % 1020,7 hPa 0,0 mm 0,0 km/h (0 Bft) O-NO 57 ° 0 min 0,000 mm 0,0 UV-I 49 W/m² 9,2 °C 10,3 °C 0,0 km/h (0 Bft)
02.10.2017 10:15 10,3 °C 10,3 °C 93 % 1020,7 hPa 0,0 mm 0,1 km/h (0 Bft) O-NO 57 ° 0 min 0,000 mm 0,0 UV-I 46 W/m² 9,2 °C 10,3 °C 1,6 km/h (1 Bft)
02.10.2017 10:16 10,3 °C 10,3 °C 93 % 1020,7 hPa 0,0 mm 0,0 km/h (0 Bft) O-NO 57 ° 0 min 0,000 mm 0,0 UV-I 46 W/m² 9,2 °C 10,3 °C 0,0 km/h (0 Bft)
02.10.2017 10:17 10,4 °C 10,4 °C 93 % 1020,7 hPa 0,0 mm 0,0 km/h (0 Bft) O-NO 57 ° 0 min 0,000 mm 1,2 UV-I 56 W/m² 9,3 °C 10,4 °C 0,0 km/h (0 Bft)
02.10.2017 10:18 10,4 °C 10,4 °C 93 % 1020,7 hPa 0,0 mm 0,3 km/h (0 Bft) NO 56 ° 0 min 0,000 mm 1,3 UV-I 105 W/m² 9,3 °C 10,4 °C 1,6 km/h (1 Bft)
02.10.2017 10:19 10,3 °C 10,4 °C 93 % 1020,7 hPa 0,0 mm 0,0 km/h (0 Bft) O-NO 57 ° 0 min 0,000 mm 1,3 UV-I 77 W/m² 9,2 °C 10,3 °C 0,0 km/h (0 Bft)
02.10.2017 10:20 10,3 °C 10,3 °C 93 % 1020,7 hPa 0,0 mm 0,1 km/h (0 Bft) O-NO 59 ° 0 min 0,000 mm 1,3 UV-I 84 W/m² 9,2 °C 10,3 °C 1,6 km/h (1 Bft)
02.10.2017 10:21 10,3 °C 10,3 °C 93 % 1020,7 hPa 0,0 mm 0,0 km/h (0 Bft) O-NO 59 ° 0 min 0,000 mm 1,3 UV-I 116 W/m² 9,2 °C 10,3 °C 0,0 km/h (0 Bft)
02.10.2017 10:22 10,4 °C 10,4 °C 93 % 1020,7 hPa 0,0 mm 0,0 km/h (0 Bft) O-NO 59 ° 0 min 0,000 mm 1,4 UV-I 118 W/m² 9,3 °C 10,4 °C 0,0 km/h (0 Bft)
02.10.2017 10:23 10,5 °C 10,5 °C 93 % 1020,7 hPa 0,0 mm 0,0 km/h (0 Bft) O-NO 59 ° 0 min 0,000 mm 1,4 UV-I 100 W/m² 9,4 °C 10,5 °C 0,0 km/h (0 Bft)
02.10.2017 10:24 10,6 °C 10,6 °C 93 % 1020,7 hPa 0,0 mm 0,1 km/h (0 Bft) O-NO 59 ° 0 min 0,000 mm 1,3 UV-I 109 W/m² 9,5 °C 10,6 °C 1,6 km/h (1 Bft)
02.10.2017 10:25 10,5 °C 10,6 °C 92 % 1020,7 hPa 0,0 mm 0,0 km/h (0 Bft) O-NO 59 ° 0 min 0,000 mm 1,4 UV-I 111 W/m² 9,3 °C 10,5 °C 0,0 km/h (0 Bft)
02.10.2017 10:26 10,4 °C 10,5 °C 92 % 1020,7 hPa 0,0 mm 0,0 km/h (0 Bft) O-NO 59 ° 0 min 0,000 mm 1,4 UV-I 79 W/m² 9,2 °C 10,4 °C 0,0 km/h (0 Bft)
02.10.2017 10:27 10,3 °C 10,4 °C 92 % 1020,7 hPa 0,0 mm 0,0 km/h (0 Bft) O-NO 59 ° 0 min 0,000 mm 0,0 UV-I 51 W/m² 9,1 °C 10,3 °C 0,0 km/h (0 Bft)
02.10.2017 10:28 10,4 °C 10,4 °C 93 % 1020,7 hPa 0,0 mm 0,0 km/h (0 Bft) O-NO 59 ° 0 min 0,000 mm 0,0 UV-I 42 W/m² 9,3 °C 10,4 °C 0,0 km/h (0 Bft)
02.10.2017 10:29 10,5 °C 10,5 °C 93 % 1020,7 hPa 0,0 mm 0,0 km/h (0 Bft) O-NO 59 ° 0 min 0,000 mm 0,0 UV-I 39 W/m² 9,4 °C 10,5 °C 0,0 km/h (0 Bft)
02.10.2017 10:30 10,7 °C 10,7 °C 93 % 1020,7 hPa 0,0 mm 0,0 km/h (0 Bft) O-NO 59 ° 0 min 0,000 mm 0,0 UV-I 33 W/m² 9,6 °C 10,7 °C 0,0 km/h (0 Bft)
02.10.2017 10:31 10,8 °C 10,8 °C 92 % 1020,7 hPa 0,0 mm 0,0 km/h (0 Bft) O-NO 59 ° 0 min 0,000 mm 0,0 UV-I 39 W/m² 9,6 °C 10,8 °C 0,0 km/h (0 Bft)
02.10.2017 10:32 10,9 °C 10,9 °C 92 % 1020,7 hPa 0,0 mm 0,0 km/h (0 Bft) O-NO 59 ° 0 min 0,000 mm 0,0 UV-I 51 W/m² 9,7 °C 10,9 °C 0,0 km/h (0 Bft)
02.10.2017 10:33 11,1 °C 11,1 °C 91 % 1020,7 hPa 0,0 mm 0,0 km/h (0 Bft) O-NO 59 ° 0 min 0,000 mm 1,3 UV-I 105 W/m² 9,7 °C 11,1 °C 0,0 km/h (0 Bft)
02.10.2017 10:34 11,2 °C 11,2 °C 90 % 1020,7 hPa 0,0 mm 0,0 km/h (0 Bft) O-NO 59 ° 0 min 0,000 mm 1,6 UV-I 105 W/m² 9,6 °C 11,2 °C 0,0 km/h (0 Bft)
02.10.2017 10:35 11,0 °C 11,2 °C 90 % 1020,7 hPa 0,0 mm 0,0 km/h (0 Bft) O-NO 59 ° 1 min 0,000 mm 1,9 UV-I 323 W/m² 9,4 °C 11,0 °C 0,0 km/h (0 Bft)
02.10.2017 10:36 11,1 °C 11,1 °C 91 % 1020,7 hPa 0,0 mm 0,0 km/h (0 Bft) O-NO 66 ° 1 min 0,000 mm 2,1 UV-I 387 W/m² 9,7 °C 11,1 °C 0,0 km/h (0 Bft)
02.10.2017 10:37 11,2 °C 11,2 °C 91 % 1020,7 hPa 0,0 mm 0,0 km/h (0 Bft) O-NO 66 ° 1 min 0,000 mm 2,3 UV-I 387 W/m² 9,8 °C 11,2 °C 0,0 km/h (0 Bft)
02.10.2017 10:38 11,3 °C 11,3 °C 90 % 1020,7 hPa 0,0 mm 0,0 km/h (0 Bft) O-NO 66 ° 1 min 0,000 mm 2,3 UV-I 436 W/m² 9,7 °C 11,3 °C 0,0 km/h (0 Bft)
02.10.2017 10:39 11,3 °C 11,3 °C 90 % 1020,7 hPa 0,0 mm 0,0 km/h (0 Bft) O-NO 66 ° 1 min 0,000 mm 2,4 UV-I 438 W/m² 9,7 °C 11,3 °C 0,0 km/h (0 Bft)
02.10.2017 10:40 11,3 °C 11,3 °C 90 % 1020,7 hPa 0,0 mm 0,0 km/h (0 Bft) O-NO 66 ° 1 min 0,000 mm 2,4 UV-I 439 W/m² 9,7 °C 11,3 °C 0,0 km/h (0 Bft)
02.10.2017 10:41 11,4 °C 11,4 °C 90 % 1020,7 hPa 0,0 mm 0,0 km/h (0 Bft) O-NO 66 ° 1 min 0,000 mm 2,4 UV-I 443 W/m² 9,8 °C 11,4 °C 0,0 km/h (0 Bft)
02.10.2017 10:42 11,5 °C 11,5 °C 89 % 1020,7 hPa 0,0 mm 0,0 km/h (0 Bft) O-NO 66 ° 1 min 0,000 mm 2,4 UV-I 443 W/m² 9,8 °C 11,5 °C 0,0 km/h (0 Bft)
02.10.2017 10:43 11,6 °C 11,6 °C 90 % 1020,7 hPa 0,0 mm 0,0 km/h (0 Bft) O-NO 66 ° 1 min 0,000 mm 2,4 UV-I 443 W/m² 10,0 °C 11,6 °C 0,0 km/h (0 Bft)
02.10.2017 10:44 11,7 °C 11,7 °C 89 % 1020,8 hPa 0,0 mm 0,0 km/h (0 Bft) O-NO 66 ° 1 min 0,000 mm 2,4 UV-I 434 W/m² 9,9 °C 11,7 °C 0,0 km/h (0 Bft)
02.10.2017 10:45 11,7 °C 11,7 °C 88 % 1020,8 hPa 0,0 mm 0,0 km/h (0 Bft) O-NO 66 ° 1 min 0,000 mm 2,4 UV-I 425 W/m² 9,8 °C 11,7 °C 0,0 km/h (0 Bft)
02.10.2017 10:46 11,7 °C 11,7 °C 88 % 1020,8 hPa 0,0 mm 0,0 km/h (0 Bft) O-NO 66 ° 1 min 0,000 mm 2,4 UV-I 431 W/m² 9,8 °C 11,7 °C 0,0 km/h (0 Bft)
02.10.2017 10:47 11,8 °C 11,8 °C 87 % 1020,8 hPa 0,0 mm 0,0 km/h (0 Bft) O-NO 66 ° 1 min 0,000 mm 2,4 UV-I 408 W/m² 9,7 °C 11,8 °C 0,0 km/h (0 Bft)
02.10.2017 10:48 11,9 °C 11,9 °C 87 % 1020,8 hPa 0,0 mm 0,0 km/h (0 Bft) O-NO 66 ° 1 min 0,000 mm 2,5 UV-I 418 W/m² 9,8 °C 11,9 °C 0,0 km/h (0 Bft)
02.10.2017 10:49 11,9 °C 11,9 °C 87 % 1020,8 hPa 0,0 mm 0,0 km/h (0 Bft) O-NO 66 ° 1 min 0,000 mm 2,5 UV-I 443 W/m² 9,8 °C 11,9 °C 0,0 km/h (0 Bft)
02.10.2017 10:50 12,0 °C 12,0 °C 86 % 1020,8 hPa 0,0 mm 0,0 km/h (0 Bft) O-NO 66 ° 1 min 0,000 mm 2,5 UV-I 457 W/m² 9,7 °C 12,0 °C 0,0 km/h (0 Bft)
02.10.2017 10:51 12,0 °C 12,0 °C 87 % 1020,8 hPa 0,0 mm 0,0 km/h (0 Bft) O-NO 66 ° 1 min 0,000 mm 2,5 UV-I 461 W/m² 9,9 °C 12,0 °C 0,0 km/h (0 Bft)
02.10.2017 10:52 12,1 °C 12,1 °C 86 % 1020,7 hPa 0,0 mm 0,0 km/h (0 Bft) O-NO 66 ° 1 min 0,000 mm 2,5 UV-I 448 W/m² 9,8 °C 12,1 °C 0,0 km/h (0 Bft)
02.10.2017 10:53 12,1 °C 12,1 °C 86 % 1020,8 hPa 0,0 mm 0,0 km/h (0 Bft) O-NO 66 ° 1 min 0,000 mm 2,6 UV-I 469 W/m² 9,8 °C 12,1 °C 0,0 km/h (0 Bft)
02.10.2017 10:54 12,1 °C 12,1 °C 86 % 1020,8 hPa 0,0 mm 0,0 km/h (0 Bft) O-NO 66 ° 1 min 0,000 mm 2,6 UV-I 469 W/m² 9,8 °C 12,1 °C 0,0 km/h (0 Bft)
02.10.2017 10:55 12,1 °C 12,1 °C 86 % 1020,8 hPa 0,0 mm 0,0 km/h (0 Bft) O-NO 66 ° 1 min 0,000 mm 2,6 UV-I 471 W/m² 9,8 °C 12,1 °C 0,0 km/h (0 Bft)
02.10.2017 10:56 12,2 °C 12,2 °C 85 % 1020,8 hPa 0,0 mm 0,0 km/h (0 Bft) O-NO 66 ° 1 min 0,000 mm 2,6 UV-I 473 W/m² 9,8 °C 12,2 °C 0,0 km/h (0 Bft)
02.10.2017 10:57 12,1 °C 12,2 °C 87 % 1020,8 hPa 0,0 mm 0,0 km/h (0 Bft) O-NO 66 ° 1 min 0,000 mm 2,7 UV-I 475 W/m² 10,0 °C 12,1 °C 0,0 km/h (0 Bft)
02.10.2017 10:58 12,1 °C 12,1 °C 85 % 1020,8 hPa 0,0 mm 0,0 km/h (0 Bft) O-NO 66 ° 1 min 0,000 mm 2,7 UV-I 476 W/m² 9,7 °C 12,1 °C 0,0 km/h (0 Bft)
02.10.2017 10:59 12,4 °C 12,4 °C 85 % 1020,8 hPa 0,0 mm 0,0 km/h (0 Bft) O-NO 66 ° 1 min 0,000 mm 2,7 UV-I 480 W/m² 9,9 °C 12,4 °C 0,0 km/h (0 Bft)
02.10.2017 11:00 12,5 °C 12,5 °C 85 % 1020,8 hPa 0,0 mm 0,0 km/h (0 Bft) O-NO 66 ° 1 min 0,127 mm 2,7 UV-I 482 W/m² 10,0 °C 12,5 °C 0,0 km/h (0 Bft)
02.10.2017 11:01 12,5 °C 12,5 °C 86 % 1020,8 hPa 0,0 mm 0,0 km/h (0 Bft) O-NO 66 ° 1 min 0,000 mm 2,7 UV-I 485 W/m² 10,2 °C 12,5 °C 0,0 km/h (0 Bft)
02.10.2017 11:02 12,5 °C 12,5 °C 85 % 1020,8 hPa 0,0 mm 0,0 km/h (0 Bft) O-NO 66 ° 1 min 0,000 mm 2,8 UV-I 483 W/m² 10,0 °C 12,5 °C 0,0 km/h (0 Bft)
02.10.2017 11:03 12,4 °C 12,5 °C 85 % 1020,8 hPa 0,0 mm 0,1 km/h (0 Bft) O-NO 66 ° 1 min 0,000 mm 2,8 UV-I 485 W/m² 9,9 °C 12,4 °C 1,6 km/h (1 Bft)
02.10.2017 11:04 12,5 °C 12,5 °C 83 % 1020,8 hPa 0,0 mm 3,3 km/h (1 Bft) S 178 ° 1 min 0,000 mm 2,8 UV-I 487 W/m² 9,7 °C 12,5 °C 4,8 km/h (1 Bft)
02.10.2017 11:05 12,7 °C 12,7 °C 81 % 1020,8 hPa 0,0 mm 1,7 km/h (1 Bft) S 178 ° 1 min 0,000 mm 2,8 UV-I 494 W/m² 9,5 °C 12,7 °C 4,8 km/h (1 Bft)
02.10.2017 11:06 12,7 °C 12,7 °C 83 % 1020,8 hPa 0,0 mm 0,0 km/h (0 Bft) S 178 ° 1 min 0,000 mm 2,8 UV-I 497 W/m² 9,9 °C 12,7 °C 0,0 km/h (0 Bft)
02.10.2017 11:07 12,7 °C 12,7 °C 82 % 1020,8 hPa 0,0 mm 0,9 km/h (0 Bft) S 178 ° 1 min 0,000 mm 2,9 UV-I 501 W/m² 9,7 °C 12,7 °C 1,6 km/h (1 Bft)
02.10.2017 11:08 12,8 °C 12,8 °C 78 % 1020,7 hPa 0,0 mm 2,8 km/h (1 Bft) S 178 ° 1 min 0,000 mm 2,9 UV-I 504 W/m² 9,1 °C 12,8 °C 4,8 km/h (1 Bft)
02.10.2017 11:09 12,9 °C 12,9 °C 81 % 1020,7 hPa 0,0 mm 0,4 km/h (0 Bft) S 178 ° 1 min 0,000 mm 2,9 UV-I 506 W/m² 9,7 °C 12,9 °C 1,6 km/h (1 Bft)
02.10.2017 11:10 12,9 °C 12,9 °C 80 % 1020,8 hPa 0,0 mm 0,3 km/h (0 Bft) S 178 ° 1 min 0,000 mm 2,9 UV-I 508 W/m² 9,5 °C 12,9 °C 1,6 km/h (1 Bft)
02.10.2017 11:11 12,9 °C 12,9 °C 81 % 1020,8 hPa 0,0 mm 1,9 km/h (1 Bft) S 178 ° 1 min 0,000 mm 2,9 UV-I 510 W/m² 9,7 °C 12,9 °C 3,2 km/h (1 Bft)
02.10.2017 11:12 12,8 °C 12,9 °C 81 % 1020,8 hPa 0,0 mm 1,7 km/h (1 Bft) S 178 ° 1 min 0,000 mm 2,9 UV-I 508 W/m² 9,6 °C 12,8 °C 3,2 km/h (1 Bft)
02.10.2017 11:13 12,9 °C 12,9 °C 81 % 1020,8 hPa 0,0 mm 1,0 km/h (0 Bft) S 178 ° 1 min 0,000 mm 2,9 UV-I 513 W/m² 9,7 °C 12,9 °C 3,2 km/h (1 Bft)
02.10.2017 11:14 12,9 °C 12,9 °C 81 % 1020,7 hPa 0,0 mm 0,1 km/h (0 Bft) S 178 ° 1 min 0,000 mm 3,0 UV-I 515 W/m² 9,7 °C 12,9 °C 1,6 km/h (1 Bft)
02.10.2017 11:15 12,8 °C 12,9 °C 81 % 1020,7 hPa 0,0 mm 0,0 km/h (0 Bft) S 178 ° 1 min 0,000 mm 3,0 UV-I 517 W/m² 9,6 °C 12,8 °C 0,0 km/h (0 Bft)
02.10.2017 11:16 12,7 °C 12,8 °C 83 % 1020,7 hPa 0,0 mm 0,3 km/h (0 Bft) S 178 ° 1 min 0,000 mm 3,0 UV-I 522 W/m² 9,9 °C 12,7 °C 1,6 km/h (1 Bft)
02.10.2017 11:17 12,6 °C 12,7 °C 84 % 1020,7 hPa 0,0 mm 0,8 km/h (0 Bft) S 178 ° 1 min 0,000 mm 3,0 UV-I 527 W/m² 10,0 °C 12,6 °C 1,6 km/h (1 Bft)
02.10.2017 11:18 12,5 °C 12,6 °C 84 % 1020,7 hPa 0,0 mm 0,0 km/h (0 Bft) S 178 ° 1 min 0,000 mm 3,0 UV-I 526 W/m² 9,9 °C 12,5 °C 0,0 km/h (0 Bft)
02.10.2017 11:19 12,5 °C 12,5 °C 83 % 1020,7 hPa 0,0 mm 0,0 km/h (0 Bft) S 178 ° 1 min 0,000 mm 3,1 UV-I 536 W/m² 9,7 °C 12,5 °C 0,0 km/h (0 Bft)
02.10.2017 11:20 12,6 °C 12,6 °C 82 % 1020,7 hPa 0,0 mm 0,0 km/h (0 Bft) S 178 ° 1 min 0,000 mm 3,1 UV-I 534 W/m² 9,6 °C 12,6 °C 0,0 km/h (0 Bft)
02.10.2017 11:21 12,7 °C 12,7 °C 80 % 1020,7 hPa 0,0 mm 0,0 km/h (0 Bft) S 178 ° 1 min 0,000 mm 3,1 UV-I 529 W/m² 9,3 °C 12,7 °C 0,0 km/h (0 Bft)
02.10.2017 11:22 12,9 °C 12,9 °C 79 % 1020,7 hPa 0,0 mm 0,0 km/h (0 Bft) S 178 ° 1 min 0,000 mm 3,1 UV-I 533 W/m² 9,3 °C 12,9 °C 0,0 km/h (0 Bft)
02.10.2017 11:23 13,1 °C 13,1 °C 78 % 1020,7 hPa 0,0 mm 0,0 km/h (0 Bft) S 178 ° 1 min 0,000 mm 3,1 UV-I 545 W/m² 9,4 °C 13,1 °C 0,0 km/h (0 Bft)
02.10.2017 11:24 13,2 °C 13,2 °C 77 % 1020,8 hPa 0,0 mm 0,0 km/h (0 Bft) S 178 ° 1 min 0,000 mm 3,1 UV-I 547 W/m² 9,3 °C 13,2 °C 0,0 km/h (0 Bft)
02.10.2017 11:25 13,3 °C 13,3 °C 76 % 1020,7 hPa 0,0 mm 0,0 km/h (0 Bft) S 178 ° 1 min 0,000 mm 3,1 UV-I 536 W/m² 9,2 °C 13,3 °C 0,0 km/h (0 Bft)
02.10.2017 11:26 13,4 °C 13,4 °C 76 % 1020,8 hPa 0,0 mm 0,0 km/h (0 Bft) S 178 ° 1 min 0,000 mm 3,1 UV-I 531 W/m² 9,3 °C 13,4 °C 0,0 km/h (0 Bft)
02.10.2017 11:27 13,4 °C 13,4 °C 75 % 1020,7 hPa 0,0 mm 0,0 km/h (0 Bft) S 178 ° 1 min 0,000 mm 3,2 UV-I 529 W/m² 9,1 °C 13,4 °C 0,0 km/h (0 Bft)
02.10.2017 11:28 13,6 °C 13,6 °C 74 % 1020,7 hPa 0,0 mm 0,0 km/h (0 Bft) S 178 ° 1 min 0,000 mm 3,2 UV-I 545 W/m² 9,1 °C 13,6 °C 0,0 km/h (0 Bft)
02.10.2017 11:29 13,6 °C 13,6 °C 75 % 1020,8 hPa 0,0 mm 0,1 km/h (0 Bft) S 178 ° 1 min 0,000 mm 3,2 UV-I 555 W/m² 9,3 °C 13,6 °C 1,6 km/h (1 Bft)
02.10.2017 11:30 13,4 °C 13,6 °C 77 % 1020,8 hPa 0,0 mm 0,3 km/h (0 Bft) S-SW 196 ° 1 min 0,000 mm 3,2 UV-I 554 W/m² 9,5 °C 13,4 °C 1,6 km/h (1 Bft)
02.10.2017 11:31 13,3 °C 13,4 °C 82 % 1020,7 hPa 0,0 mm 1,4 km/h (1 Bft) S-SW 204 ° 1 min 0,000 mm 3,2 UV-I 554 W/m² 10,3 °C 13,3 °C 3,2 km/h (1 Bft)
02.10.2017 11:32 13,4 °C 13,4 °C 81 % 1020,7 hPa 0,0 mm 0,4 km/h (0 Bft) S-SW 204 ° 1 min 0,000 mm 3,3 UV-I 561 W/m² 10,2 °C 13,4 °C 1,6 km/h (1 Bft)
02.10.2017 11:33 13,4 °C 13,5 °C 77 % 1020,7 hPa 0,0 mm 0,0 km/h (0 Bft) S-SW 204 ° 1 min 0,000 mm 3,3 UV-I 559 W/m² 9,5 °C 13,4 °C 0,0 km/h (0 Bft)
02.10.2017 11:34 13,4 °C 13,4 °C 76 % 1020,7 hPa 0,0 mm 0,0 km/h (0 Bft) S-SW 204 ° 1 min 0,000 mm 3,4 UV-I 563 W/m² 9,3 °C 13,4 °C 0,0 km/h (0 Bft)
02.10.2017 11:35 13,4 °C 13,4 °C 75 % 1020,7 hPa 0,0 mm 0,0 km/h (0 Bft) S-SW 204 ° 1 min 0,000 mm 3,4 UV-I 568 W/m² 9,1 °C 13,4 °C 0,0 km/h (0 Bft)
02.10.2017 11:36 13,4 °C 13,4 °C 77 % 1020,7 hPa 0,0 mm 0,2 km/h (0 Bft) S-SW 204 ° 1 min 0,000 mm 3,4 UV-I 566 W/m² 9,5 °C 13,4 °C 1,6 km/h (1 Bft)
02.10.2017 11:37 13,4 °C 13,5 °C 77 % 1020,7 hPa 0,0 mm 0,6 km/h (0 Bft) S-SW 204 ° 1 min 0,000 mm 3,4 UV-I 571 W/m² 9,5 °C 13,4 °C 3,2 km/h (1 Bft)
02.10.2017 11:38 13,4 °C 13,4 °C 78 % 1020,7 hPa 0,0 mm 0,3 km/h (0 Bft) S-SW 204 ° 1 min 0,000 mm 3,5 UV-I 571 W/m² 9,6 °C 13,4 °C 1,6 km/h (1 Bft)
02.10.2017 11:39 13,4 °C 13,4 °C 79 % 1020,7 hPa 0,0 mm 0,0 km/h (0 Bft) S-SW 204 ° 1 min 0,000 mm 3,5 UV-I 573 W/m² 9,8 °C 13,4 °C 0,0 km/h (0 Bft)
02.10.2017 11:40 13,4 °C 13,4 °C 79 % 1020,7 hPa 0,0 mm 0,2 km/h (0 Bft) S-SW 204 ° 1 min 0,000 mm 3,5 UV-I 577 W/m² 9,8 °C 13,4 °C 1,6 km/h (1 Bft)
02.10.2017 11:41 13,6 °C 13,6 °C 77 % 1020,7 hPa 0,0 mm 0,6 km/h (0 Bft) S-SW 204 ° 1 min 0,000 mm 3,5 UV-I 563 W/m² 9,6 °C 13,6 °C 1,6 km/h (1 Bft)
02.10.2017 11:42 13,7 °C 13,7 °C 77 % 1020,7 hPa 0,0 mm 0,0 km/h (0 Bft) S-SW 204 ° 1 min 0,000 mm 3,5 UV-I 580 W/m² 9,7 °C 13,7 °C 0,0 km/h (0 Bft)
02.10.2017 11:43 13,9 °C 13,9 °C 81 % 1020,7 hPa 0,0 mm 0,0 km/h (0 Bft) S-SW 204 ° 1 min 0,000 mm 3,5 UV-I 577 W/m² 10,7 °C 13,9 °C 0,0 km/h (0 Bft)
02.10.2017 11:44 14,1 °C 14,1 °C 81 % 1020,7 hPa 0,0 mm 1,7 km/h (1 Bft) S-SW 205 ° 1 min 0,000 mm 3,5 UV-I 571 W/m² 10,9 °C 14,1 °C 3,2 km/h (1 Bft)
02.10.2017 11:45 14,3 °C 14,3 °C 79 % 1020,7 hPa 0,0 mm 1,4 km/h (1 Bft) SW 218 ° 1 min 0,000 mm 3,6 UV-I 578 W/m² 10,7 °C 14,3 °C 3,2 km/h (1 Bft)
02.10.2017 11:46 14,3 °C 14,3 °C 80 % 1020,6 hPa 0,0 mm 0,5 km/h (0 Bft) SW 219 ° 1 min 0,000 mm 3,6 UV-I 582 W/m² 10,9 °C 14,3 °C 3,2 km/h (1 Bft)
02.10.2017 11:47 14,3 °C 14,3 °C 81 % 1020,6 hPa 0,0 mm 3,1 km/h (1 Bft) W-SW 245 ° 1 min 0,000 mm 3,7 UV-I 571 W/m² 11,1 °C 14,3 °C 4,8 km/h (1 Bft)
02.10.2017 11:48 14,6 °C 14,6 °C 81 % 1020,6 hPa 0,0 mm 4,4 km/h (1 Bft) W-SW 255 ° 1 min 0,000 mm 3,7 UV-I 578 W/m² 11,4 °C 14,6 °C 6,4 km/h (2 Bft)
02.10.2017 11:49 14,8 °C 14,8 °C 83 % 1020,6 hPa 0,0 mm 2,4 km/h (1 Bft) W-SW 255 ° 1 min 0,000 mm 3,7 UV-I 575 W/m² 11,9 °C 14,8 °C 4,8 km/h (1 Bft)
02.10.2017 11:50 14,6 °C 14,8 °C 79 % 1020,6 hPa 0,0 mm 2,0 km/h (1 Bft) W-SW 255 ° 1 min 0,000 mm 3,8 UV-I 582 W/m² 11,0 °C 14,6 °C 4,8 km/h (1 Bft)
02.10.2017 11:51 14,7 °C 14,7 °C 78 % 1020,6 hPa 0,0 mm 2,1 km/h (1 Bft) W 281 ° 1 min 0,000 mm 3,8 UV-I 585 W/m² 10,9 °C 14,7 °C 3,2 km/h (1 Bft)
02.10.2017 11:52 14,8 °C 14,8 °C 78 % 1020,6 hPa 0,0 mm 2,4 km/h (1 Bft) W 281 ° 1 min 0,000 mm 3,8 UV-I 584 W/m² 11,0 °C 14,8 °C 4,8 km/h (1 Bft)
02.10.2017 11:53 14,8 °C 14,8 °C 80 % 1020,6 hPa 0,0 mm 0,0 km/h (0 Bft) W 281 ° 1 min 0,000 mm 3,8 UV-I 577 W/m² 11,4 °C 14,8 °C 0,0 km/h (0 Bft)
02.10.2017 11:54 14,7 °C 14,8 °C 77 % 1020,6 hPa 0,0 mm 2,7 km/h (1 Bft) W-NW 303 ° 1 min 0,000 mm 3,8 UV-I 578 W/m² 10,7 °C 14,7 °C 6,4 km/h (2 Bft)
02.10.2017 11:55 14,9 °C 14,9 °C 76 % 1020,5 hPa 0,0 mm 4,4 km/h (1 Bft) W-SW 244 ° 1 min 0,000 mm 3,8 UV-I 580 W/m² 10,7 °C 14,9 °C 6,4 km/h (2 Bft)
02.10.2017 11:56 15,0 °C 15,0 °C 77 % 1020,5 hPa 0,0 mm 4,2 km/h (1 Bft) W-SW 252 ° 1 min 0,000 mm 3,8 UV-I 580 W/m² 11,0 °C 15,0 °C 6,4 km/h (2 Bft)
02.10.2017 11:57 14,9 °C 15,0 °C 78 % 1020,5 hPa 0,0 mm 0,7 km/h (0 Bft) W-SW 252 ° 1 min 0,000 mm 3,8 UV-I 561 W/m² 11,1 °C 14,9 °C 3,2 km/h (1 Bft)
02.10.2017 11:58 14,6 °C 14,9 °C 79 % 1020,5 hPa 0,0 mm 0,0 km/h (0 Bft) W-SW 252 ° 1 min 0,000 mm 3,7 UV-I 545 W/m² 11,0 °C 14,6 °C 0,0 km/h (0 Bft)
02.10.2017 11:59 14,4 °C 14,6 °C 81 % 1020,5 hPa 0,0 mm 0,0 km/h (0 Bft) W-SW 252 ° 1 min 0,000 mm 3,8 UV-I 575 W/m² 11,2 °C 14,4 °C 0,0 km/h (0 Bft)
02.10.2017 12:00 14,4 °C 14,4 °C 82 % 1020,5 hPa 0,0 mm 0,0 km/h (0 Bft) W-SW 252 ° 1 min 0,000 mm 3,8 UV-I 575 W/m² 11,4 °C 14,4 °C 0,0 km/h (0 Bft)
02.10.2017 12:01 14,4 °C 14,4 °C 80 % 1020,4 hPa 0,0 mm 1,4 km/h (1 Bft) W-SW 250 ° 1 min 0,280 mm 3,9 UV-I 596 W/m² 11,0 °C 14,4 °C 3,2 km/h (1 Bft)
02.10.2017 12:02 14,6 °C 14,6 °C 77 % 1020,4 hPa 0,0 mm 0,6 km/h (0 Bft) W-SW 250 ° 1 min 0,000 mm 4,0 UV-I 605 W/m² 10,6 °C 14,6 °C 3,2 km/h (1 Bft)
02.10.2017 12:03 14,7 °C 14,7 °C 80 % 1020,4 hPa 0,0 mm 0,2 km/h (0 Bft) W-SW 250 ° 1 min 0,000 mm 4,0 UV-I 613 W/m² 11,3 °C 14,7 °C 1,6 km/h (1 Bft)
02.10.2017 12:04 14,8 °C 14,8 °C 75 % 1020,4 hPa 0,0 mm 0,0 km/h (0 Bft) W-SW 250 ° 1 min 0,000 mm 4,0 UV-I 617 W/m² 10,4 °C 14,8 °C 0,0 km/h (0 Bft)
02.10.2017 12:05 15,1 °C 15,1 °C 80 % 1020,4 hPa 0,0 mm 3,2 km/h (1 Bft) W 265 ° 1 min 0,000 mm 4,1 UV-I 619 W/m² 11,7 °C 15,1 °C 4,8 km/h (1 Bft)
02.10.2017 12:06 15,3 °C 15,3 °C 81 % 1020,4 hPa 0,0 mm 4,2 km/h (1 Bft) S-SW 204 ° 1 min 0,000 mm 4,1 UV-I 621 W/m² 12,1 °C 15,3 °C 6,4 km/h (2 Bft)
02.10.2017 12:07 15,4 °C 15,4 °C 66 % 1020,4 hPa 0,0 mm 3,3 km/h (1 Bft) S-SW 197 ° 1 min 0,000 mm 4,1 UV-I 628 W/m² 9,1 °C 15,4 °C 4,8 km/h (1 Bft)
02.10.2017 12:08 15,4 °C 15,4 °C 61 % 1020,3 hPa 0,0 mm 0,0 km/h (0 Bft) S-SW 197 ° 1 min 0,000 mm 4,1 UV-I 631 W/m² 7,9 °C 15,4 °C 0,0 km/h (0 Bft)
02.10.2017 12:09 15,4 °C 15,4 °C 68 % 1020,3 hPa 0,0 mm 0,0 km/h (0 Bft) S-SW 197 ° 1 min 0,000 mm 4,2 UV-I 636 W/m² 9,5 °C 15,4 °C 0,0 km/h (0 Bft)
02.10.2017 12:10 15,2 °C 15,4 °C 70 % 1020,3 hPa 0,0 mm 0,3 km/h (0 Bft) S-SW 197 ° 1 min 0,000 mm 4,2 UV-I 654 W/m² 9,8 °C 15,2 °C 1,6 km/h (1 Bft)
02.10.2017 12:11 15,1 °C 15,2 °C 68 % 1020,2 hPa 0,0 mm 0,0 km/h (0 Bft) S-SW 197 ° 1 min 0,000 mm 4,3 UV-I 661 W/m² 9,2 °C 15,1 °C 0,0 km/h (0 Bft)
02.10.2017 12:12 15,2 °C 15,2 °C 74 % 1020,2 hPa 0,0 mm 2,4 km/h (1 Bft) S 191 ° 1 min 0,000 mm 4,2 UV-I 654 W/m² 10,6 °C 15,2 °C 6,4 km/h (2 Bft)
02.10.2017 12:13 15,4 °C 15,4 °C 59 % 1020,2 hPa 0,0 mm 4,6 km/h (1 Bft) S-SW 196 ° 1 min 0,000 mm 4,1 UV-I 650 W/m² 7,4 °C 15,4 °C 6,4 km/h (2 Bft)
02.10.2017 12:14 15,6 °C 15,6 °C 60 % 1020,1 hPa 0,0 mm 4,0 km/h (1 Bft) S-SW 202 ° 1 min 0,000 mm 4,2 UV-I 666 W/m² 7,9 °C 15,6 °C 4,8 km/h (1 Bft)
02.10.2017 12:15 15,7 °C 15,7 °C 63 % 1020,1 hPa 0,0 mm 1,1 km/h (1 Bft) S-SW 202 ° 1 min 0,000 mm 4,2 UV-I 684 W/m² 8,7 °C 15,7 °C 3,2 km/h (1 Bft)
02.10.2017 12:16 15,7 °C 15,7 °C 56 % 1020,1 hPa 0,0 mm 1,0 km/h (0 Bft) S-SW 202 ° 1 min 0,000 mm 4,1 UV-I 617 W/m² 6,9 °C 15,7 °C 3,2 km/h (1 Bft)
02.10.2017 12:17 15,8 °C 15,9 °C 65 % 1020,1 hPa 0,0 mm 1,3 km/h (1 Bft) W-SW 255 ° 1 min 0,000 mm 4,1 UV-I 640 W/m² 9,2 °C 15,8 °C 4,8 km/h (1 Bft)
02.10.2017 12:18 15,8 °C 15,8 °C 71 % 1020,1 hPa 0,0 mm 1,7 km/h (1 Bft) W-SW 253 ° 1 min 0,000 mm 4,2 UV-I 705 W/m² 10,6 °C 15,8 °C 4,8 km/h (1 Bft)
02.10.2017 12:19 15,9 °C 15,9 °C 59 % 1020,1 hPa 0,0 mm 2,2 km/h (1 Bft) W-SW 253 ° 1 min 0,000 mm 4,2 UV-I 643 W/m² 7,9 °C 15,9 °C 4,8 km/h (1 Bft)
02.10.2017 12:20 16,0 °C 16,0 °C 62 % 1020,1 hPa 0,0 mm 1,4 km/h (1 Bft) W-SW 253 ° 1 min 0,000 mm 4,5 UV-I 671 W/m² 8,7 °C 16,0 °C 3,2 km/h (1 Bft)
02.10.2017 12:21 16,0 °C 16,0 °C 62 % 1020,0 hPa 0,0 mm 0,6 km/h (0 Bft) W-SW 253 ° 1 min 0,000 mm 4,7 UV-I 789 W/m² 8,7 °C 16,0 °C 3,2 km/h (1 Bft)
02.10.2017 12:22 15,9 °C 16,0 °C 69 % 1020,0 hPa 0,0 mm 0,2 km/h (0 Bft) W-SW 253 ° 1 min 0,000 mm 4,9 UV-I 751 W/m² 10,2 °C 15,9 °C 1,6 km/h (1 Bft)
02.10.2017 12:23 16,0 °C 16,0 °C 62 % 1020,0 hPa 0,0 mm 2,8 km/h (1 Bft) W-SW 253 ° 1 min 0,000 mm 5,0 UV-I 826 W/m² 8,7 °C 16,0 °C 3,2 km/h (1 Bft)
02.10.2017 12:24 16,1 °C 16,1 °C 62 % 1020,0 hPa 0,0 mm 2,9 km/h (1 Bft) W-SW 253 ° 1 min 0,000 mm 4,5 UV-I 775 W/m² 8,8 °C 16,1 °C 4,8 km/h (1 Bft)
02.10.2017 12:25 16,3 °C 16,3 °C 59 % 1020,0 hPa 0,0 mm 1,9 km/h (1 Bft) W-SW 253 ° 1 min 0,000 mm 4,9 UV-I 775 W/m² 8,3 °C 16,3 °C 3,2 km/h (1 Bft)
02.10.2017 12:26 16,4 °C 16,4 °C 61 % 1020,0 hPa 0,0 mm 0,4 km/h (0 Bft) W-SW 253 ° 1 min 0,000 mm 4,7 UV-I 756 W/m² 8,9 °C 16,4 °C 1,6 km/h (1 Bft)
02.10.2017 12:27 16,4 °C 16,4 °C 65 % 1020,0 hPa 0,0 mm 0,0 km/h (0 Bft) W-SW 253 ° 1 min 0,000 mm 4,4 UV-I 557 W/m² 9,8 °C 16,4 °C 0,0 km/h (0 Bft)
02.10.2017 12:28 16,2 °C 16,4 °C 66 % 1020,0 hPa 0,0 mm 0,5 km/h (0 Bft) W-SW 253 ° 1 min 0,000 mm 3,6 UV-I 510 W/m² 9,8 °C 16,2 °C 1,6 km/h (1 Bft)
02.10.2017 12:29 16,1 °C 16,2 °C 60 % 1020,0 hPa 0,0 mm 0,2 km/h (0 Bft) W-SW 253 ° 1 min 0,000 mm 3,5 UV-I 510 W/m² 8,3 °C 16,1 °C 1,6 km/h (1 Bft)
02.10.2017 12:30 16,1 °C 16,2 °C 63 % 1019,9 hPa 0,0 mm 0,3 km/h (0 Bft) W-SW 252 ° 1 min 0,000 mm 3,3 UV-I 378 W/m² 9,1 °C 16,1 °C 3,2 km/h (1 Bft)
02.10.2017 12:31 16,1 °C 16,1 °C 61 % 1019,9 hPa 0,0 mm 2,5 km/h (1 Bft) W-SW 238 ° 1 min 0,000 mm 3,4 UV-I 441 W/m² 8,6 °C 16,1 °C 4,8 km/h (1 Bft)
02.10.2017 12:32 16,1 °C 16,1 °C 57 % 1020,0 hPa 0,0 mm 0,4 km/h (0 Bft) W-SW 238 ° 1 min 0,000 mm 4,7 UV-I 534 W/m² 7,6 °C 16,1 °C 1,6 km/h (1 Bft)
02.10.2017 12:33 16,1 °C 16,1 °C 68 % 1020,0 hPa 0,0 mm 0,4 km/h (0 Bft) SW 236 ° 1 min 0,000 mm 4,0 UV-I 538 W/m² 10,2 °C 16,1 °C 1,6 km/h (1 Bft)
02.10.2017 12:34 16,1 °C 16,1 °C 64 % 1020,0 hPa 0,0 mm 1,5 km/h (1 Bft) SW 236 ° 1 min 0,000 mm 3,8 UV-I 534 W/m² 9,3 °C 16,1 °C 3,2 km/h (1 Bft)
02.10.2017 12:35 16,1 °C 16,1 °C 68 % 1019,9 hPa 0,0 mm 2,9 km/h (1 Bft) S-SW 212 ° 1 min 0,000 mm 4,2 UV-I 633 W/m² 10,2 °C 16,1 °C 4,8 km/h (1 Bft)
02.10.2017 12:36 16,2 °C 16,2 °C 59 % 1019,9 hPa 0,0 mm 2,9 km/h (1 Bft) S-SW 192 ° 1 min 0,000 mm 3,7 UV-I 633 W/m² 8,2 °C 16,2 °C 4,8 km/h (1 Bft)
02.10.2017 12:37 16,3 °C 16,3 °C 57 % 1020,0 hPa 0,0 mm 0,0 km/h (0 Bft) S-SW 192 ° 1 min 0,000 mm 3,6 UV-I 466 W/m² 7,8 °C 16,3 °C 0,0 km/h (0 Bft)
02.10.2017 12:38 16,3 °C 16,3 °C 56 % 1020,0 hPa 0,0 mm 2,3 km/h (1 Bft) S-SW 192 ° 1 min 0,000 mm 3,6 UV-I 385 W/m² 7,5 °C 16,3 °C 3,2 km/h (1 Bft)
02.10.2017 12:39 16,4 °C 16,4 °C 60 % 1019,9 hPa 0,0 mm 2,1 km/h (1 Bft) S 191 ° 1 min 0,000 mm 3,3 UV-I 380 W/m² 8,6 °C 16,4 °C 3,2 km/h (1 Bft)
02.10.2017 12:40 16,4 °C 16,5 °C 67 % 1019,9 hPa 0,0 mm 0,3 km/h (0 Bft) S 191 ° 1 min 0,000 mm 3,5 UV-I 388 W/m² 10,3 °C 16,4 °C 1,6 km/h (1 Bft)
02.10.2017 12:41 16,3 °C 16,4 °C 65 % 1019,9 hPa 0,0 mm 0,0 km/h (0 Bft) S 191 ° 1 min 0,000 mm 3,5 UV-I 441 W/m² 9,7 °C 16,3 °C 0,0 km/h (0 Bft)
02.10.2017 12:42 16,2 °C 16,3 °C 64 % 1019,9 hPa 0,0 mm 0,0 km/h (0 Bft) S 191 ° 1 min 0,000 mm 4,3 UV-I 441 W/m² 9,4 °C 16,2 °C 0,0 km/h (0 Bft)
02.10.2017 12:43 16,3 °C 16,3 °C 69 % 1019,9 hPa 0,0 mm 0,0 km/h (0 Bft) S 191 ° 1 min 0,000 mm 3,4 UV-I 441 W/m² 10,6 °C 16,3 °C 0,0 km/h (0 Bft)
02.10.2017 12:44 16,3 °C 16,3 °C 69 % 1019,9 hPa 0,0 mm 0,1 km/h (0 Bft) S 191 ° 1 min 0,000 mm 3,9 UV-I 425 W/m² 10,6 °C 16,3 °C 1,6 km/h (1 Bft)
02.10.2017 12:45 16,3 °C 16,3 °C 65 % 1019,8 hPa 0,0 mm 0,0 km/h (0 Bft) S 191 ° 1 min 0,000 mm 5,1 UV-I 721 W/m² 9,7 °C 16,3 °C 0,0 km/h (0 Bft)
02.10.2017 12:46 16,4 °C 16,4 °C 62 % 1019,8 hPa 0,0 mm 0,0 km/h (0 Bft) S 191 ° 1 min 0,000 mm 3,2 UV-I 721 W/m² 9,1 °C 16,4 °C 0,0 km/h (0 Bft)
02.10.2017 12:47 16,7 °C 16,7 °C 61 % 1019,8 hPa 0,0 mm 0,2 km/h (0 Bft) S 191 ° 1 min 0,000 mm 3,0 UV-I 343 W/m² 9,1 °C 16,7 °C 1,6 km/h (1 Bft)
02.10.2017 12:48 16,6 °C 16,7 °C 71 % 1019,8 hPa 0,0 mm 0,0 km/h (0 Bft) S 191 ° 1 min 0,000 mm 2,9 UV-I 327 W/m² 11,3 °C 16,6 °C 0,0 km/h (0 Bft)
02.10.2017 12:49 16,6 °C 16,6 °C 67 % 1019,8 hPa 0,0 mm 0,0 km/h (0 Bft) S 191 ° 1 min 0,000 mm 2,9 UV-I 323 W/m² 10,4 °C 16,6 °C 0,0 km/h (0 Bft)
02.10.2017 12:50 16,4 °C 16,6 °C 64 % 1019,8 hPa 0,0 mm 0,1 km/h (0 Bft) S-SW 192 ° 1 min 0,000 mm 2,9 UV-I 315 W/m² 9,6 °C 16,4 °C 1,6 km/h (1 Bft)
02.10.2017 12:51 16,4 °C 16,4 °C 71 % 1019,8 hPa 0,0 mm 1,0 km/h (0 Bft) S-SW 192 ° 1 min 0,000 mm 2,8 UV-I 309 W/m² 11,1 °C 16,4 °C 3,2 km/h (1 Bft)
02.10.2017 12:52 16,4 °C 16,4 °C 69 % 1019,8 hPa 0,0 mm 1,9 km/h (1 Bft) SW 227 ° 1 min 0,000 mm 2,8 UV-I 309 W/m² 10,7 °C 16,4 °C 3,2 km/h (1 Bft)
02.10.2017 12:53 16,4 °C 16,4 °C 62 % 1019,8 hPa 0,0 mm 1,2 km/h (1 Bft) W-NW 293 ° 1 min 0,000 mm 2,8 UV-I 311 W/m² 9,1 °C 16,4 °C 4,8 km/h (1 Bft)
02.10.2017 12:54 16,6 °C 16,6 °C 57 % 1019,8 hPa 0,0 mm 4,6 km/h (1 Bft) NW 317 ° 1 min 0,000 mm 2,8 UV-I 311 W/m² 8,0 °C 16,6 °C 6,4 km/h (2 Bft)
02.10.2017 12:55 16,7 °C 16,7 °C 55 % 1019,8 hPa 0,0 mm 5,5 km/h (1 Bft) NW 317 ° 1 min 0,000 mm 2,8 UV-I 311 W/m² 7,6 °C 16,7 °C 8,0 km/h (2 Bft)
02.10.2017 12:56 16,7 °C 16,7 °C 56 % 1019,8 hPa 0,0 mm 4,2 km/h (1 Bft) NW 320 ° 1 min 0,000 mm 2,8 UV-I 311 W/m² 7,9 °C 16,7 °C 6,4 km/h (2 Bft)
02.10.2017 12:57 16,8 °C 16,8 °C 55 % 1019,8 hPa 0,0 mm 1,9 km/h (1 Bft) NW 320 ° 1 min 0,000 mm 2,8 UV-I 308 W/m² 7,7 °C 16,8 °C 4,8 km/h (1 Bft)
02.10.2017 12:58 16,8 °C 16,8 °C 59 % 1019,7 hPa 0,0 mm 3,1 km/h (1 Bft) NW 324 ° 1 min 0,000 mm 2,7 UV-I 304 W/m² 8,7 °C 16,8 °C 4,8 km/h (1 Bft)
02.10.2017 12:59 16,8 °C 16,8 °C 55 % 1019,8 hPa 0,0 mm 2,4 km/h (1 Bft) NW 324 ° 1 min 0,000 mm 2,7 UV-I 302 W/m² 7,7 °C 16,8 °C 3,2 km/h (1 Bft)
02.10.2017 13:00 16,9 °C 16,9 °C 58 % 1019,8 hPa 0,0 mm 1,5 km/h (1 Bft) NW 324 ° 1 min 0,000 mm 2,7 UV-I 304 W/m² 8,6 °C 16,9 °C 3,2 km/h (1 Bft)
02.10.2017 13:01 16,9 °C 16,9 °C 56 % 1019,8 hPa 0,0 mm 2,4 km/h (1 Bft) NW 324 ° 1 min 0,279 mm 2,8 UV-I 309 W/m² 8,1 °C 16,9 °C 3,2 km/h (1 Bft)
02.10.2017 13:02 16,8 °C 16,9 °C 55 % 1019,8 hPa 0,0 mm 1,9 km/h (1 Bft) NW 324 ° 1 min 0,000 mm 2,8 UV-I 316 W/m² 7,7 °C 16,8 °C 3,2 km/h (1 Bft)
02.10.2017 13:03 16,9 °C 16,9 °C 54 % 1019,8 hPa 0,0 mm 0,7 km/h (0 Bft) NW 324 ° 1 min 0,000 mm 2,8 UV-I 320 W/m² 7,5 °C 16,9 °C 3,2 km/h (1 Bft)
02.10.2017 13:04 16,9 °C 16,9 °C 55 % 1019,8 hPa 0,0 mm 0,0 km/h (0 Bft) NW 324 ° 1 min 0,000 mm 2,8 UV-I 320 W/m² 7,8 °C 16,9 °C 0,0 km/h (0 Bft)
02.10.2017 13:05 16,7 °C 16,9 °C 64 % 1019,8 hPa 0,0 mm 0,2 km/h (0 Bft) NW 324 ° 1 min 0,000 mm 2,8 UV-I 322 W/m² 9,9 °C 16,7 °C 1,6 km/h (1 Bft)
02.10.2017 13:06 16,6 °C 16,7 °C 64 % 1019,7 hPa 0,0 mm 1,3 km/h (1 Bft) NW 323 ° 1 min 0,000 mm 2,8 UV-I 327 W/m² 9,8 °C 16,6 °C 4,8 km/h (1 Bft)
02.10.2017 13:07 16,5 °C 16,6 °C 56 % 1019,7 hPa 0,0 mm 1,3 km/h (1 Bft) NW 323 ° 1 min 0,000 mm 2,8 UV-I 322 W/m² 7,7 °C 16,5 °C 3,2 km/h (1 Bft)
02.10.2017 13:08 16,6 °C 16,6 °C 62 % 1019,7 hPa 0,0 mm 0,0 km/h (0 Bft) NW 323 ° 1 min 0,000 mm 2,8 UV-I 295 W/m² 9,3 °C 16,6 °C 0,0 km/h (0 Bft)
02.10.2017 13:09 16,6 °C 16,6 °C 56 % 1019,7 hPa 0,0 mm 0,0 km/h (0 Bft) NW 323 ° 0 min 0,000 mm 2,5 UV-I 285 W/m² 7,8 °C 16,6 °C 0,0 km/h (0 Bft)
02.10.2017 13:10 16,6 °C 16,6 °C 55 % 1019,7 hPa 0,0 mm 0,0 km/h (0 Bft) NW 323 ° 0 min 0,000 mm 2,5 UV-I 276 W/m² 7,5 °C 16,6 °C 0,0 km/h (0 Bft)
02.10.2017 13:11 16,6 °C 16,6 °C 58 % 1019,7 hPa 0,0 mm 0,1 km/h (0 Bft) NW 323 ° 0 min 0,000 mm 2,4 UV-I 269 W/m² 8,3 °C 16,6 °C 1,6 km/h (1 Bft)
02.10.2017 13:12 16,6 °C 16,6 °C 61 % 1019,6 hPa 0,0 mm 0,1 km/h (0 Bft) NW 323 ° 0 min 0,000 mm 2,4 UV-I 262 W/m² 9,0 °C 16,6 °C 1,6 km/h (1 Bft)
02.10.2017 13:13 16,5 °C 16,6 °C 60 % 1019,6 hPa 0,0 mm 0,0 km/h (0 Bft) NW 323 ° 0 min 0,000 mm 2,3 UV-I 255 W/m² 8,7 °C 16,5 °C 0,0 km/h (0 Bft)
02.10.2017 13:14 16,5 °C 16,6 °C 67 % 1019,6 hPa 0,0 mm 0,1 km/h (0 Bft) NW 323 ° 0 min 0,000 mm 2,3 UV-I 241 W/m² 10,4 °C 16,5 °C 1,6 km/h (1 Bft)
02.10.2017 13:15 16,6 °C 16,6 °C 62 % 1019,6 hPa 0,0 mm 4,2 km/h (1 Bft) N-NW 344 ° 0 min 0,000 mm 2,2 UV-I 234 W/m² 9,3 °C 16,6 °C 4,8 km/h (1 Bft)
02.10.2017 13:16 16,6 °C 16,6 °C 62 % 1019,6 hPa 0,0 mm 2,9 km/h (1 Bft) N-NW 335 ° 0 min 0,000 mm 2,1 UV-I 229 W/m² 9,3 °C 16,6 °C 4,8 km/h (1 Bft)
02.10.2017 13:17 16,5 °C 16,6 °C 67 % 1019,6 hPa 0,0 mm 1,6 km/h (1 Bft) N-NW 335 ° 0 min 0,000 mm 2,1 UV-I 223 W/m² 10,4 °C 16,5 °C 3,2 km/h (1 Bft)
02.10.2017 13:18 16,5 °C 16,6 °C 64 % 1019,6 hPa 0,0 mm 2,3 km/h (1 Bft) NW 324 ° 0 min 0,000 mm 2,0 UV-I 218 W/m² 9,7 °C 16,5 °C 4,8 km/h (1 Bft)
02.10.2017 13:19 16,5 °C 16,6 °C 65 % 1019,6 hPa 0,0 mm 3,3 km/h (1 Bft) NW 322 ° 0 min 0,000 mm 2,0 UV-I 216 W/m² 9,9 °C 16,5 °C 4,8 km/h (1 Bft)
02.10.2017 13:20 16,5 °C 16,5 °C 67 % 1019,6 hPa 0,0 mm 1,0 km/h (0 Bft) NW 322 ° 0 min 0,000 mm 2,0 UV-I 214 W/m² 10,4 °C 16,5 °C 3,2 km/h (1 Bft)
02.10.2017 13:21 16,4 °C 16,5 °C 67 % 1019,6 hPa 0,0 mm 3,3 km/h (1 Bft) W-NW 284 ° 0 min 0,000 mm 2,0 UV-I 216 W/m² 10,3 °C 16,4 °C 4,8 km/h (1 Bft)
02.10.2017 13:22 16,4 °C 16,5 °C 66 % 1019,5 hPa 0,0 mm 2,4 km/h (1 Bft) W-NW 284 ° 0 min 0,000 mm 2,1 UV-I 218 W/m² 10,0 °C 16,4 °C 3,2 km/h (1 Bft)
02.10.2017 13:23 16,4 °C 16,5 °C 61 % 1019,5 hPa 0,0 mm 2,2 km/h (1 Bft) W-NW 289 ° 0 min 0,000 mm 2,1 UV-I 220 W/m² 8,9 °C 16,4 °C 3,2 km/h (1 Bft)
02.10.2017 13:24 16,4 °C 16,4 °C 62 % 1019,4 hPa 0,0 mm 2,1 km/h (1 Bft) W-NW 289 ° 0 min 0,000 mm 2,0 UV-I 218 W/m² 9,1 °C 16,4 °C 3,2 km/h (1 Bft)
02.10.2017 13:25 16,4 °C 16,4 °C 61 % 1019,4 hPa 0,0 mm 2,8 km/h (1 Bft) NW 313 ° 0 min 0,000 mm 2,0 UV-I 216 W/m² 8,9 °C 16,4 °C 4,8 km/h (1 Bft)
02.10.2017 13:26 16,3 °C 16,4 °C 63 % 1019,4 hPa 0,0 mm 2,3 km/h (1 Bft) NW 313 ° 0 min 0,000 mm 2,0 UV-I 206 W/m² 9,2 °C 16,3 °C 3,2 km/h (1 Bft)
02.10.2017 13:27 16,3 °C 16,3 °C 62 % 1019,4 hPa 0,0 mm 3,2 km/h (1 Bft) NW 313 ° 0 min 0,000 mm 1,9 UV-I 200 W/m² 9,0 °C 16,3 °C 4,8 km/h (1 Bft)
02.10.2017 13:28 16,3 °C 16,3 °C 62 % 1019,5 hPa 0,0 mm 3,2 km/h (1 Bft) NW 312 ° 0 min 0,000 mm 1,9 UV-I 195 W/m² 9,0 °C 16,3 °C 4,8 km/h (1 Bft)
02.10.2017 13:29 16,3 °C 16,3 °C 65 % 1019,4 hPa 0,0 mm 0,8 km/h (0 Bft) NW 312 ° 0 min 0,000 mm 1,8 UV-I 192 W/m² 9,7 °C 16,3 °C 1,6 km/h (1 Bft)
02.10.2017 13:30 16,3 °C 16,3 °C 64 % 1019,4 hPa 0,0 mm 2,3 km/h (1 Bft) NW 313 ° 0 min 0,000 mm 1,8 UV-I 190 W/m² 9,5 °C 16,3 °C 3,2 km/h (1 Bft)
02.10.2017 13:31 16,3 °C 16,3 °C 62 % 1019,4 hPa 0,0 mm 0,1 km/h (0 Bft) NW 313 ° 0 min 0,000 mm 1,8 UV-I 188 W/m² 9,0 °C 16,3 °C 1,6 km/h (1 Bft)
02.10.2017 13:32 16,3 °C 16,3 °C 64 % 1019,4 hPa 0,0 mm 4,2 km/h (1 Bft) NW 320 ° 0 min 0,000 mm 1,8 UV-I 192 W/m² 9,5 °C 16,3 °C 4,8 km/h (1 Bft)
02.10.2017 13:33 16,3 °C 16,3 °C 64 % 1019,4 hPa 0,0 mm 2,7 km/h (1 Bft) NW 320 ° 0 min 0,000 mm 1,9 UV-I 195 W/m² 9,5 °C 16,3 °C 4,8 km/h (1 Bft)
02.10.2017 13:34 16,3 °C 16,3 °C 64 % 1019,4 hPa 0,0 mm 2,4 km/h (1 Bft) NW 320 ° 0 min 0,000 mm 1,9 UV-I 199 W/m² 9,5 °C 16,3 °C 3,2 km/h (1 Bft)
02.10.2017 13:35 16,3 °C 16,3 °C 64 % 1019,4 hPa 0,0 mm 3,4 km/h (1 Bft) W-NW 296 ° 0 min 0,000 mm 2,0 UV-I 204 W/m² 9,5 °C 16,3 °C 4,8 km/h (1 Bft)
02.10.2017 13:36 16,2 °C 16,3 °C 65 % 1019,4 hPa 0,0 mm 5,0 km/h (1 Bft) NW 307 ° 0 min 0,000 mm 2,0 UV-I 209 W/m² 9,6 °C 16,2 °C 6,4 km/h (2 Bft)
02.10.2017 13:37 16,2 °C 16,3 °C 63 % 1019,4 hPa 0,0 mm 5,1 km/h (1 Bft) W-NW 284 ° 0 min 0,000 mm 2,1 UV-I 218 W/m² 9,1 °C 16,2 °C 9,7 km/h (2 Bft)
02.10.2017 13:38 16,2 °C 16,2 °C 64 % 1019,4 hPa 0,0 mm 4,5 km/h (1 Bft) W-NW 288 ° 0 min 0,000 mm 2,1 UV-I 223 W/m² 9,4 °C 16,2 °C 8,0 km/h (2 Bft)
02.10.2017 13:39 16,2 °C 16,2 °C 64 % 1019,5 hPa 0,0 mm 1,7 km/h (1 Bft) W-NW 288 ° 0 min 0,000 mm 2,2 UV-I 230 W/m² 9,4 °C 16,2 °C 4,8 km/h (1 Bft)
02.10.2017 13:40 16,2 °C 16,2 °C 64 % 1019,3 hPa 0,0 mm 3,3 km/h (1 Bft) W-NW 293 ° 0 min 0,000 mm 2,2 UV-I 236 W/m² 9,4 °C 16,2 °C 4,8 km/h (1 Bft)
02.10.2017 13:41 16,2 °C 16,2 °C 65 % 1019,4 hPa 0,0 mm 3,4 km/h (1 Bft) W-NW 284 ° 0 min 0,000 mm 2,3 UV-I 244 W/m² 9,6 °C 16,2 °C 4,8 km/h (1 Bft)
02.10.2017 13:42 16,2 °C 16,2 °C 66 % 1019,4 hPa 0,0 mm 1,9 km/h (1 Bft) W-NW 284 ° 0 min 0,000 mm 2,4 UV-I 255 W/m² 9,8 °C 16,2 °C 4,8 km/h (1 Bft)
02.10.2017 13:43 16,2 °C 16,2 °C 67 % 1019,4 hPa 0,0 mm 3,8 km/h (1 Bft) W 279 ° 0 min 0,000 mm 2,4 UV-I 272 W/m² 10,1 °C 16,2 °C 4,8 km/h (1 Bft)
02.10.2017 13:44 16,2 °C 16,2 °C 66 % 1019,4 hPa 0,0 mm 0,9 km/h (0 Bft) W 281 ° 0 min 0,000 mm 2,5 UV-I 281 W/m² 9,8 °C 16,2 °C 1,6 km/h (1 Bft)
02.10.2017 13:45 16,2 °C 16,2 °C 66 % 1019,3 hPa 0,0 mm 1,1 km/h (1 Bft) W 281 ° 0 min 0,000 mm 2,6 UV-I 288 W/m² 9,8 °C 16,2 °C 3,2 km/h (1 Bft)
02.10.2017 13:46 16,2 °C 16,2 °C 63 % 1019,4 hPa 0,0 mm 3,2 km/h (1 Bft) W 281 ° 1 min 0,000 mm 2,7 UV-I 299 W/m² 9,1 °C 16,2 °C 4,8 km/h (1 Bft)
02.10.2017 13:47 16,3 °C 16,3 °C 64 % 1019,4 hPa 0,0 mm 2,7 km/h (1 Bft) W-NW 290 ° 1 min 0,000 mm 2,7 UV-I 299 W/m² 9,5 °C 16,3 °C 3,2 km/h (1 Bft)
02.10.2017 13:48 16,3 °C 16,3 °C 65 % 1019,3 hPa 0,0 mm 0,8 km/h (0 Bft) W-NW 290 ° 1 min 0,000 mm 2,8 UV-I 325 W/m² 9,7 °C 16,3 °C 3,2 km/h (1 Bft)
02.10.2017 13:49 16,4 °C 16,4 °C 64 % 1019,4 hPa 0,0 mm 4,2 km/h (1 Bft) W-NW 290 ° 1 min 0,000 mm 2,8 UV-I 329 W/m² 9,6 °C 16,4 °C 4,8 km/h (1 Bft)
02.10.2017 13:50 16,4 °C 16,4 °C 61 % 1019,3 hPa 0,0 mm 3,2 km/h (1 Bft) W-NW 290 ° 1 min 0,000 mm 2,9 UV-I 345 W/m² 8,9 °C 16,4 °C 4,8 km/h (1 Bft)
02.10.2017 13:51 16,4 °C 16,4 °C 60 % 1019,4 hPa 0,0 mm 3,2 km/h (1 Bft) W-NW 290 ° 1 min 0,000 mm 3,2 UV-I 369 W/m² 8,6 °C 16,4 °C 4,8 km/h (1 Bft)
02.10.2017 13:52 16,6 °C 16,6 °C 63 % 1019,4 hPa 0,0 mm 3,8 km/h (1 Bft) W 271 ° 1 min 0,000 mm 2,8 UV-I 350 W/m² 9,5 °C 16,6 °C 4,8 km/h (1 Bft)
02.10.2017 13:53 16,6 °C 16,6 °C 63 % 1019,4 hPa 0,0 mm 3,0 km/h (1 Bft) W 275 ° 1 min 0,000 mm 2,8 UV-I 336 W/m² 9,5 °C 16,6 °C 4,8 km/h (1 Bft)
02.10.2017 13:54 16,6 °C 16,6 °C 62 % 1019,3 hPa 0,0 mm 4,0 km/h (1 Bft) W 272 ° 1 min 0,000 mm 2,7 UV-I 330 W/m² 9,3 °C 16,6 °C 6,4 km/h (2 Bft)
02.10.2017 13:55 16,6 °C 16,6 °C 64 % 1019,3 hPa 0,0 mm 5,3 km/h (1 Bft) W 267 ° 1 min 0,000 mm 2,7 UV-I 301 W/m² 9,8 °C 16,6 °C 6,4 km/h (2 Bft)
02.10.2017 13:56 16,6 °C 16,6 °C 64 % 1019,3 hPa 0,0 mm 3,1 km/h (1 Bft) W 267 ° 0 min 0,000 mm 2,5 UV-I 287 W/m² 9,8 °C 16,6 °C 6,4 km/h (2 Bft)
02.10.2017 13:57 16,6 °C 16,6 °C 63 % 1019,3 hPa 0,0 mm 1,1 km/h (1 Bft) W 268 ° 0 min 0,000 mm 2,4 UV-I 279 W/m² 9,5 °C 16,6 °C 1,6 km/h (1 Bft)
02.10.2017 13:58 16,6 °C 16,6 °C 61 % 1019,3 hPa 0,0 mm 2,6 km/h (1 Bft) W 272 ° 0 min 0,000 mm 2,3 UV-I 264 W/m² 9,0 °C 16,6 °C 4,8 km/h (1 Bft)
02.10.2017 13:59 16,6 °C 16,6 °C 63 % 1019,3 hPa 0,0 mm 3,4 km/h (1 Bft) NW 307 ° 0 min 0,000 mm 2,3 UV-I 255 W/m² 9,5 °C 16,6 °C 4,8 km/h (1 Bft)
02.10.2017 14:00 16,6 °C 16,6 °C 62 % 1019,3 hPa 0,0 mm 2,7 km/h (1 Bft) NW 311 ° 0 min 0,000 mm 2,2 UV-I 246 W/m² 9,3 °C 16,6 °C 4,8 km/h (1 Bft)
02.10.2017 14:01 16,6 °C 16,6 °C 63 % 1019,3 hPa 0,0 mm 2,6 km/h (1 Bft) NW 309 ° 0 min 0,153 mm 2,2 UV-I 236 W/m² 9,5 °C 16,6 °C 4,8 km/h (1 Bft)
02.10.2017 14:02 16,6 °C 16,6 °C 62 % 1019,3 hPa 0,0 mm 2,3 km/h (1 Bft) NW 309 ° 0 min 0,000 mm 2,1 UV-I 232 W/m² 9,3 °C 16,6 °C 3,2 km/h (1 Bft)
02.10.2017 14:03 16,6 °C 16,6 °C 65 % 1019,3 hPa 0,0 mm 1,2 km/h (1 Bft) NW 309 ° 0 min 0,000 mm 2,1 UV-I 229 W/m² 10,0 °C 16,6 °C 3,2 km/h (1 Bft)
02.10.2017 14:04 16,6 °C 16,6 °C 65 % 1019,3 hPa 0,0 mm 2,7 km/h (1 Bft) NW 311 ° 0 min 0,000 mm 2,1 UV-I 225 W/m² 10,0 °C 16,6 °C 4,8 km/h (1 Bft)
02.10.2017 14:05 16,4 °C 16,6 °C 69 % 1019,3 hPa 0,0 mm 1,2 km/h (1 Bft) NW 311 ° 0 min 0,000 mm 2,0 UV-I 223 W/m² 10,7 °C 16,4 °C 3,2 km/h (1 Bft)
02.10.2017 14:06 16,4 °C 16,4 °C 65 % 1019,3 hPa 0,0 mm 1,0 km/h (0 Bft) NW 311 ° 0 min 0,000 mm 2,0 UV-I 221 W/m² 9,8 °C 16,4 °C 1,6 km/h (1 Bft)
02.10.2017 14:07 16,4 °C 16,4 °C 63 % 1019,2 hPa 0,0 mm 2,0 km/h (1 Bft) NW 311 ° 0 min 0,000 mm 2,0 UV-I 218 W/m² 9,3 °C 16,4 °C 3,2 km/h (1 Bft)
02.10.2017 14:08 16,4 °C 16,4 °C 64 % 1019,2 hPa 0,0 mm 2,3 km/h (1 Bft) NW 311 ° 0 min 0,000 mm 2,0 UV-I 214 W/m² 9,6 °C 16,4 °C 3,2 km/h (1 Bft)
02.10.2017 14:09 16,4 °C 16,4 °C 64 % 1019,3 hPa 0,0 mm 0,6 km/h (0 Bft) NW 311 ° 0 min 0,000 mm 1,9 UV-I 213 W/m² 9,6 °C 16,4 °C 1,6 km/h (1 Bft)
02.10.2017 14:10 16,4 °C 16,4 °C 64 % 1019,3 hPa 0,0 mm 0,1 km/h (0 Bft) NW 311 ° 0 min 0,000 mm 1,9 UV-I 209 W/m² 9,6 °C 16,4 °C 1,6 km/h (1 Bft)
02.10.2017 14:11 16,4 °C 16,4 °C 63 % 1019,3 hPa 0,0 mm 0,8 km/h (0 Bft) NW 311 ° 0 min 0,000 mm 1,9 UV-I 207 W/m² 9,3 °C 16,4 °C 3,2 km/h (1 Bft)
02.10.2017 14:12 16,4 °C 16,4 °C 68 % 1019,3 hPa 0,0 mm 1,9 km/h (1 Bft) W-NW 283 ° 0 min 0,000 mm 1,9 UV-I 204 W/m² 10,5 °C 16,4 °C 3,2 km/h (1 Bft)
02.10.2017 14:13 16,4 °C 16,4 °C 66 % 1019,3 hPa 0,0 mm 4,4 km/h (1 Bft) W-NW 282 ° 0 min 0,000 mm 1,9 UV-I 202 W/m² 10,0 °C 16,4 °C 8,0 km/h (2 Bft)
02.10.2017 14:14 16,4 °C 16,4 °C 65 % 1019,3 hPa 0,0 mm 4,7 km/h (1 Bft) W-NW 288 ° 0 min 0,000 mm 1,8 UV-I 200 W/m² 9,8 °C 16,4 °C 6,4 km/h (2 Bft)
02.10.2017 14:15 16,4 °C 16,4 °C 64 % 1019,3 hPa 0,0 mm 3,6 km/h (1 Bft) W-NW 286 ° 0 min 0,000 mm 1,8 UV-I 200 W/m² 9,6 °C 16,4 °C 4,8 km/h (1 Bft)
02.10.2017 14:16 16,4 °C 16,4 °C 65 % 1019,3 hPa 0,0 mm 3,4 km/h (1 Bft) NW 309 ° 0 min 0,000 mm 1,8 UV-I 202 W/m² 9,8 °C 16,4 °C 4,8 km/h (1 Bft)
02.10.2017 14:17 16,4 °C 16,4 °C 64 % 1019,2 hPa 0,0 mm 3,0 km/h (1 Bft) W-NW 298 ° 0 min 0,000 mm 1,9 UV-I 202 W/m² 9,6 °C 16,4 °C 4,8 km/h (1 Bft)
02.10.2017 14:18 16,3 °C 16,4 °C 66 % 1019,2 hPa 0,0 mm 3,2 km/h (1 Bft) W-NW 293 ° 0 min 0,000 mm 1,9 UV-I 206 W/m² 9,9 °C 16,3 °C 6,4 km/h (2 Bft)
02.10.2017 14:19 16,3 °C 16,4 °C 65 % 1019,2 hPa 0,0 mm 4,8 km/h (1 Bft) W 277 ° 0 min 0,000 mm 1,9 UV-I 207 W/m² 9,7 °C 16,3 °C 8,0 km/h (2 Bft)
02.10.2017 14:20 16,3 °C 16,3 °C 65 % 1019,2 hPa 0,0 mm 4,4 km/h (1 Bft) NW 311 ° 0 min 0,000 mm 1,9 UV-I 209 W/m² 9,7 °C 16,3 °C 6,4 km/h (2 Bft)
02.10.2017 14:21 16,3 °C 16,3 °C 64 % 1019,2 hPa 0,0 mm 2,7 km/h (1 Bft) NW 309 ° 0 min 0,000 mm 1,9 UV-I 213 W/m² 9,5 °C 16,3 °C 4,8 km/h (1 Bft)
02.10.2017 14:22 16,3 °C 16,3 °C 66 % 1019,2 hPa 0,0 mm 2,5 km/h (1 Bft) NW 309 ° 0 min 0,000 mm 2,0 UV-I 214 W/m² 9,9 °C 16,3 °C 4,8 km/h (1 Bft)
02.10.2017 14:23 16,3 °C 16,3 °C 68 % 1019,2 hPa 0,0 mm 2,8 km/h (1 Bft) NW 316 ° 0 min 0,000 mm 2,0 UV-I 216 W/m² 10,4 °C 16,3 °C 4,8 km/h (1 Bft)
02.10.2017 14:24 16,3 °C 16,3 °C 66 % 1019,2 hPa 0,0 mm 2,7 km/h (1 Bft) N-NW 327 ° 0 min 0,000 mm 2,0 UV-I 218 W/m² 9,9 °C 16,3 °C 4,8 km/h (1 Bft)
02.10.2017 14:25 16,3 °C 16,3 °C 67 % 1019,2 hPa 0,0 mm 3,8 km/h (1 Bft) NW 319 ° 0 min 0,000 mm 2,0 UV-I 218 W/m² 10,2 °C 16,3 °C 6,4 km/h (2 Bft)
02.10.2017 14:26 16,3 °C 16,3 °C 67 % 1019,2 hPa 0,0 mm 1,1 km/h (1 Bft) NW 321 ° 0 min 0,000 mm 2,0 UV-I 220 W/m² 10,2 °C 16,3 °C 4,8 km/h (1 Bft)
02.10.2017 14:27 16,3 °C 16,3 °C 69 % 1019,1 hPa 0,0 mm 0,3 km/h (0 Bft) NW 321 ° 0 min 0,000 mm 2,0 UV-I 221 W/m² 10,6 °C 16,3 °C 1,6 km/h (1 Bft)
02.10.2017 14:28 16,3 °C 16,3 °C 67 % 1019,2 hPa 0,0 mm 5,0 km/h (1 Bft) NW 319 ° 0 min 0,000 mm 2,0 UV-I 221 W/m² 10,2 °C 16,3 °C 8,0 km/h (2 Bft)
02.10.2017 14:29 16,3 °C 16,3 °C 67 % 1019,2 hPa 0,0 mm 2,7 km/h (1 Bft) NW 319 ° 0 min 0,000 mm 2,0 UV-I 221 W/m² 10,2 °C 16,3 °C 6,4 km/h (2 Bft)
02.10.2017 14:30 16,3 °C 16,3 °C 67 % 1019,2 hPa 0,0 mm 0,7 km/h (0 Bft) NW 319 ° 0 min 0,000 mm 2,0 UV-I 220 W/m² 10,2 °C 16,3 °C 1,6 km/h (1 Bft)
02.10.2017 14:31 16,3 °C 16,3 °C 67 % 1019,2 hPa 0,0 mm 3,6 km/h (1 Bft) NW 305 ° 0 min 0,000 mm 2,0 UV-I 218 W/m² 10,2 °C 16,3 °C 6,4 km/h (2 Bft)
02.10.2017 14:32 16,3 °C 16,3 °C 67 % 1019,2 hPa 0,0 mm 4,4 km/h (1 Bft) W-NW 300 ° 0 min 0,000 mm 2,0 UV-I 218 W/m² 10,2 °C 16,3 °C 6,4 km/h (2 Bft)
02.10.2017 14:33 16,3 °C 16,3 °C 68 % 1019,2 hPa 0,0 mm 3,5 km/h (1 Bft) W 274 ° 0 min 0,000 mm 2,0 UV-I 216 W/m² 10,4 °C 16,3 °C 6,4 km/h (2 Bft)
02.10.2017 14:34 16,3 °C 16,3 °C 66 % 1019,2 hPa 0,0 mm 5,0 km/h (1 Bft) W-NW 282 ° 0 min 0,000 mm 2,0 UV-I 216 W/m² 9,9 °C 16,3 °C 9,7 km/h (2 Bft)
02.10.2017 14:35 16,3 °C 16,3 °C 66 % 1019,2 hPa 0,0 mm 4,0 km/h (1 Bft) W 268 ° 0 min 0,000 mm 2,0 UV-I 214 W/m² 9,9 °C 16,3 °C 6,4 km/h (2 Bft)
02.10.2017 14:36 16,2 °C 16,3 °C 67 % 1019,1 hPa 0,0 mm 3,3 km/h (1 Bft) W-NW 301 ° 0 min 0,000 mm 2,0 UV-I 216 W/m² 10,1 °C 16,2 °C 6,4 km/h (2 Bft)
02.10.2017 14:37 16,2 °C 16,2 °C 68 % 1019,1 hPa 0,0 mm 2,5 km/h (1 Bft) W-NW 284 ° 0 min 0,000 mm 2,1 UV-I 214 W/m² 10,3 °C 16,2 °C 4,8 km/h (1 Bft)
02.10.2017 14:38 16,2 °C 16,2 °C 69 % 1019,0 hPa 0,0 mm 2,5 km/h (1 Bft) W-NW 284 ° 0 min 0,000 mm 2,0 UV-I 211 W/m² 10,5 °C 16,2 °C 4,8 km/h (1 Bft)
02.10.2017 14:39 16,2 °C 16,2 °C 67 % 1019,0 hPa 0,0 mm 1,4 km/h (1 Bft) W-NW 284 ° 0 min 0,000 mm 2,0 UV-I 207 W/m² 10,1 °C 16,2 °C 3,2 km/h (1 Bft)
02.10.2017 14:40 16,2 °C 16,2 °C 69 % 1019,0 hPa 0,0 mm 5,8 km/h (2 Bft) W-NW 296 ° 0 min 0,000 mm 2,0 UV-I 204 W/m² 10,5 °C 16,2 °C 11,3 km/h (2 Bft)
02.10.2017 14:41 16,2 °C 16,2 °C 68 % 1019,0 hPa 0,0 mm 4,8 km/h (1 Bft) NW 313 ° 0 min 0,000 mm 2,0 UV-I 199 W/m² 10,3 °C 16,2 °C 8,0 km/h (2 Bft)
02.10.2017 14:42 16,2 °C 16,2 °C 67 % 1019,1 hPa 0,0 mm 5,5 km/h (1 Bft) W-NW 292 ° 0 min 0,000 mm 2,0 UV-I 193 W/m² 10,1 °C 16,2 °C 6,4 km/h (2 Bft)
02.10.2017 14:43 16,2 °C 16,2 °C 67 % 1019,0 hPa 0,0 mm 2,5 km/h (1 Bft) W-NW 296 ° 0 min 0,000 mm 1,9 UV-I 192 W/m² 10,1 °C 16,2 °C 6,4 km/h (2 Bft)
02.10.2017 14:44 16,2 °C 16,2 °C 67 % 1019,1 hPa 0,0 mm 3,8 km/h (1 Bft) W-NW 298 ° 0 min 0,000 mm 1,9 UV-I 190 W/m² 10,1 °C 16,2 °C 6,4 km/h (2 Bft)
02.10.2017 14:45 16,2 °C 16,2 °C 68 % 1019,1 hPa 0,0 mm 4,5 km/h (1 Bft) W-NW 297 ° 0 min 0,000 mm 1,9 UV-I 188 W/m² 10,3 °C 16,2 °C 6,4 km/h (2 Bft)
02.10.2017 14:46 16,2 °C 16,2 °C 68 % 1019,1 hPa 0,0 mm 4,0 km/h (1 Bft) W-NW 295 ° 0 min 0,000 mm 1,9 UV-I 192 W/m² 10,3 °C 16,2 °C 6,4 km/h (2 Bft)
02.10.2017 14:47 16,2 °C 16,2 °C 67 % 1019,1 hPa 0,0 mm 4,1 km/h (1 Bft) W-NW 288 ° 0 min 0,000 mm 1,9 UV-I 197 W/m² 10,1 °C 16,2 °C 6,4 km/h (2 Bft)
02.10.2017 14:48 16,2 °C 16,2 °C 67 % 1019,0 hPa 0,0 mm 4,6 km/h (1 Bft) NW 305 ° 0 min 0,000 mm 1,9 UV-I 209 W/m² 10,1 °C 16,2 °C 6,4 km/h (2 Bft)
02.10.2017 14:49 16,2 °C 16,2 °C 68 % 1019,1 hPa 0,0 mm 3,6 km/h (1 Bft) NW 306 ° 0 min 0,000 mm 2,0 UV-I 213 W/m² 10,3 °C 16,2 °C 6,4 km/h (2 Bft)
02.10.2017 14:50 16,2 °C 16,2 °C 68 % 1019,0 hPa 0,0 mm 1,0 km/h (0 Bft) W-NW 292 ° 0 min 0,000 mm 2,0 UV-I 220 W/m² 10,3 °C 16,2 °C 3,2 km/h (1 Bft)
02.10.2017 14:51 16,2 °C 16,2 °C 68 % 1019,0 hPa 0,0 mm 3,4 km/h (1 Bft) W-NW 290 ° 0 min 0,000 mm 2,0 UV-I 225 W/m² 10,3 °C 16,2 °C 4,8 km/h (1 Bft)
02.10.2017 14:52 16,2 °C 16,2 °C 68 % 1019,0 hPa 0,0 mm 4,0 km/h (1 Bft) W-NW 290 ° 0 min 0,000 mm 2,1 UV-I 232 W/m² 10,3 °C 16,2 °C 6,4 km/h (2 Bft)
02.10.2017 14:53 16,2 °C 16,2 °C 69 % 1018,9 hPa 0,0 mm 4,2 km/h (1 Bft) W 275 ° 0 min 0,000 mm 2,1 UV-I 234 W/m² 10,5 °C 16,2 °C 9,7 km/h (2 Bft)
02.10.2017 14:54 16,2 °C 16,2 °C 67 % 1018,9 hPa 0,0 mm 4,5 km/h (1 Bft) W-NW 295 ° 0 min 0,000 mm 2,1 UV-I 248 W/m² 10,1 °C 16,2 °C 4,8 km/h (1 Bft)
02.10.2017 14:55 16,2 °C 16,2 °C 67 % 1018,9 hPa 0,0 mm 3,9 km/h (1 Bft) W 266 ° 0 min 0,000 mm 2,1 UV-I 255 W/m² 10,1 °C 16,2 °C 6,4 km/h (2 Bft)
02.10.2017 14:56 16,2 °C 16,2 °C 70 % 1018,9 hPa 0,0 mm 2,5 km/h (1 Bft) W 265 ° 0 min 0,000 mm 2,1 UV-I 251 W/m² 10,7 °C 16,2 °C 4,8 km/h (1 Bft)
02.10.2017 14:57 16,3 °C 16,3 °C 70 % 1018,9 hPa 0,0 mm 1,6 km/h (1 Bft) W 261 ° 0 min 0,000 mm 2,1 UV-I 250 W/m² 10,8 °C 16,3 °C 6,4 km/h (2 Bft)
02.10.2017 14:58 16,3 °C 16,3 °C 70 % 1018,8 hPa 0,0 mm 1,9 km/h (1 Bft) W 261 ° 0 min 0,000 mm 2,1 UV-I 257 W/m² 10,8 °C 16,3 °C 4,8 km/h (1 Bft)
02.10.2017 14:59 16,3 °C 16,3 °C 71 % 1018,8 hPa 0,0 mm 2,5 km/h (1 Bft) W-SW 256 ° 0 min 0,000 mm 2,2 UV-I 255 W/m² 11,0 °C 16,3 °C 4,8 km/h (1 Bft)
02.10.2017 15:00 16,3 °C 16,3 °C 69 % 1018,8 hPa 0,0 mm 3,0 km/h (1 Bft) W-SW 253 ° 0 min 0,000 mm 2,1 UV-I 243 W/m² 10,6 °C 16,3 °C 4,8 km/h (1 Bft)
02.10.2017 15:01 16,3 °C 16,3 °C 69 % 1018,8 hPa 0,0 mm 5,0 km/h (1 Bft) W 260 ° 0 min 0,127 mm 2,1 UV-I 239 W/m² 10,6 °C 16,3 °C 9,7 km/h (2 Bft)
02.10.2017 15:02 16,3 °C 16,3 °C 68 % 1018,8 hPa 0,0 mm 4,0 km/h (1 Bft) W-NW 283 ° 0 min 0,000 mm 2,1 UV-I 239 W/m² 10,4 °C 16,3 °C 6,4 km/h (2 Bft)
02.10.2017 15:03 16,3 °C 16,3 °C 70 % 1018,7 hPa 0,0 mm 3,4 km/h (1 Bft) W-NW 285 ° 0 min 0,000 mm 2,1 UV-I 246 W/m² 10,8 °C 16,3 °C 4,8 km/h (1 Bft)
02.10.2017 15:04 16,3 °C 16,4 °C 68 % 1018,8 hPa 0,0 mm 4,6 km/h (1 Bft) W-NW 286 ° 0 min 0,000 mm 2,2 UV-I 260 W/m² 10,4 °C 16,3 °C 6,4 km/h (2 Bft)
02.10.2017 15:05 16,3 °C 16,3 °C 69 % 1018,7 hPa 0,0 mm 4,6 km/h (1 Bft) NW 316 ° 0 min 0,000 mm 2,2 UV-I 276 W/m² 10,6 °C 16,3 °C 6,4 km/h (2 Bft)
02.10.2017 15:06 16,4 °C 16,4 °C 68 % 1018,7 hPa 0,0 mm 2,5 km/h (1 Bft) NW 316 ° 1 min 0,000 mm 2,2 UV-I 341 W/m² 10,5 °C 16,4 °C 4,8 km/h (1 Bft)
02.10.2017 15:07 16,4 °C 16,4 °C 66 % 1018,7 hPa 0,0 mm 4,0 km/h (1 Bft) W-SW 245 ° 1 min 0,000 mm 2,3 UV-I 315 W/m² 10,0 °C 16,4 °C 6,4 km/h (2 Bft)
02.10.2017 15:08 16,4 °C 16,4 °C 69 % 1018,7 hPa 0,0 mm 4,4 km/h (1 Bft) W-NW 289 ° 1 min 0,000 mm 2,3 UV-I 316 W/m² 10,7 °C 16,4 °C 6,4 km/h (2 Bft)
02.10.2017 15:09 16,4 °C 16,4 °C 69 % 1018,7 hPa 0,0 mm 3,7 km/h (1 Bft) W-NW 285 ° 0 min 0,000 mm 2,2 UV-I 288 W/m² 10,7 °C 16,4 °C 6,4 km/h (2 Bft)
02.10.2017 15:10 16,5 °C 16,5 °C 67 % 1018,7 hPa 0,0 mm 3,2 km/h (1 Bft) N-NW 331 ° 0 min 0,000 mm 2,1 UV-I 269 W/m² 10,4 °C 16,5 °C 6,4 km/h (2 Bft)
02.10.2017 15:11 16,6 °C 16,6 °C 68 % 1018,6 hPa 0,0 mm 3,0 km/h (1 Bft) W-NW 293 ° 0 min 0,000 mm 2,0 UV-I 234 W/m² 10,7 °C 16,6 °C 4,8 km/h (1 Bft)
02.10.2017 15:12 16,6 °C 16,6 °C 67 % 1018,6 hPa 0,0 mm 4,0 km/h (1 Bft) W-SW 248 ° 0 min 0,000 mm 1,9 UV-I 223 W/m² 10,4 °C 16,6 °C 6,4 km/h (2 Bft)
02.10.2017 15:13 16,5 °C 16,6 °C 67 % 1018,6 hPa 0,0 mm 7,7 km/h (2 Bft) W-SW 253 ° 0 min 0,000 mm 1,9 UV-I 216 W/m² 10,4 °C 16,5 °C 11,3 km/h (2 Bft)
02.10.2017 15:14 16,5 °C 16,6 °C 64 % 1018,6 hPa 0,0 mm 4,9 km/h (1 Bft) W-SW 246 ° 0 min 0,000 mm 1,8 UV-I 213 W/m² 9,7 °C 16,5 °C 11,3 km/h (2 Bft)
02.10.2017 15:15 16,5 °C 16,6 °C 68 % 1018,6 hPa 0,0 mm 5,0 km/h (1 Bft) W 281 ° 0 min 0,000 mm 1,8 UV-I 213 W/m² 10,6 °C 16,5 °C 8,0 km/h (2 Bft)
02.10.2017 15:16 16,4 °C 16,5 °C 66 % 1018,6 hPa 0,0 mm 2,3 km/h (1 Bft) S-SW 213 ° 0 min 0,000 mm 1,8 UV-I 211 W/m² 10,0 °C 16,4 °C 4,8 km/h (1 Bft)
02.10.2017 15:17 16,4 °C 16,4 °C 66 % 1018,6 hPa 0,0 mm 4,1 km/h (1 Bft) NW 314 ° 0 min 0,000 mm 1,7 UV-I 197 W/m² 10,0 °C 16,4 °C 4,8 km/h (1 Bft)
02.10.2017 15:18 16,4 °C 16,4 °C 67 % 1018,6 hPa 0,0 mm 5,0 km/h (1 Bft) W 277 ° 0 min 0,000 mm 1,6 UV-I 183 W/m² 10,3 °C 16,4 °C 6,4 km/h (2 Bft)
02.10.2017 15:19 16,3 °C 16,4 °C 66 % 1018,6 hPa 0,0 mm 6,5 km/h (2 Bft) W 263 ° 0 min 0,000 mm 1,5 UV-I 174 W/m² 9,9 °C 16,3 °C 8,0 km/h (2 Bft)
02.10.2017 15:20 16,3 °C 16,3 °C 67 % 1018,6 hPa 0,0 mm 4,3 km/h (1 Bft) W 270 ° 0 min 0,000 mm 1,5 UV-I 169 W/m² 10,2 °C 16,3 °C 6,4 km/h (2 Bft)
02.10.2017 15:21 16,3 °C 16,3 °C 68 % 1018,6 hPa 0,0 mm 3,6 km/h (1 Bft) W-NW 286 ° 0 min 0,000 mm 1,4 UV-I 165 W/m² 10,4 °C 16,3 °C 4,8 km/h (1 Bft)
02.10.2017 15:22 16,3 °C 16,3 °C 67 % 1018,6 hPa 0,0 mm 3,7 km/h (1 Bft) W-NW 286 ° 0 min 0,000 mm 1,4 UV-I 162 W/m² 10,2 °C 16,3 °C 4,8 km/h (1 Bft)
02.10.2017 15:23 16,2 °C 16,3 °C 69 % 1018,6 hPa 0,0 mm 2,5 km/h (1 Bft) W-NW 286 ° 0 min 0,000 mm 1,4 UV-I 160 W/m² 10,5 °C 16,2 °C 4,8 km/h (1 Bft)
02.10.2017 15:24 16,2 °C 16,2 °C 67 % 1018,6 hPa 0,0 mm 2,4 km/h (1 Bft) W-SW 242 ° 0 min 0,000 mm 1,3 UV-I 158 W/m² 10,1 °C 16,2 °C 3,2 km/h (1 Bft)
02.10.2017 15:25 16,2 °C 16,2 °C 67 % 1018,6 hPa 0,0 mm 1,1 km/h (1 Bft) W-SW 246 ° 0 min 0,000 mm 1,3 UV-I 156 W/m² 10,1 °C 16,2 °C 3,2 km/h (1 Bft)
02.10.2017 15:26 16,1 °C 16,2 °C 71 % 1018,6 hPa 0,0 mm 1,3 km/h (1 Bft) W-SW 246 ° 0 min 0,000 mm 1,3 UV-I 155 W/m² 10,8 °C 16,1 °C 3,2 km/h (1 Bft)
02.10.2017 15:27 16,1 °C 16,1 °C 68 % 1018,6 hPa 0,0 mm 0,0 km/h (0 Bft) W-SW 246 ° 0 min 0,000 mm 1,3 UV-I 151 W/m² 10,2 °C 16,1 °C 0,0 km/h (0 Bft)
02.10.2017 15:28 16,0 °C 16,1 °C 71 % 1018,6 hPa 0,0 mm 0,9 km/h (0 Bft) W-SW 246 ° 0 min 0,000 mm 1,3 UV-I 149 W/m² 10,7 °C 16,0 °C 3,2 km/h (1 Bft)
02.10.2017 15:29 16,0 °C 16,0 °C 70 % 1018,5 hPa 0,0 mm 0,0 km/h (0 Bft) W-SW 246 ° 0 min 0,000 mm 1,2 UV-I 141 W/m² 10,5 °C 16,0 °C 0,0 km/h (0 Bft)
02.10.2017 15:30 16,0 °C 16,0 °C 71 % 1018,6 hPa 0,0 mm 2,3 km/h (1 Bft) W-SW 246 ° 0 min 0,000 mm 1,2 UV-I 137 W/m² 10,7 °C 16,0 °C 4,8 km/h (1 Bft)
02.10.2017 15:31 16,0 °C 16,0 °C 70 % 1018,5 hPa 0,0 mm 0,2 km/h (0 Bft) W-SW 246 ° 0 min 0,000 mm 1,1 UV-I 134 W/m² 10,5 °C 16,0 °C 1,6 km/h (1 Bft)
02.10.2017 15:32 16,0 °C 16,1 °C 72 % 1018,5 hPa 0,0 mm 0,0 km/h (0 Bft) W-SW 246 ° 0 min 0,000 mm 1,1 UV-I 128 W/m² 11,0 °C 16,0 °C 0,0 km/h (0 Bft)
02.10.2017 15:33 15,9 °C 16,0 °C 69 % 1018,5 hPa 0,0 mm 0,0 km/h (0 Bft) W-SW 246 ° 0 min 0,000 mm 1,1 UV-I 125 W/m² 10,2 °C 15,9 °C 0,0 km/h (0 Bft)
02.10.2017 15:34 15,9 °C 15,9 °C 70 % 1018,6 hPa 0,0 mm 0,0 km/h (0 Bft) W-SW 246 ° 0 min 0,000 mm 1,0 UV-I 121 W/m² 10,4 °C 15,9 °C 0,0 km/h (0 Bft)
02.10.2017 15:35 15,9 °C 15,9 °C 71 % 1018,6 hPa 0,0 mm 1,8 km/h (1 Bft) W-SW 246 ° 0 min 0,000 mm 1,0 UV-I 116 W/m² 10,6 °C 15,9 °C 3,2 km/h (1 Bft)
02.10.2017 15:36 15,9 °C 15,9 °C 74 % 1018,6 hPa 0,0 mm 0,9 km/h (0 Bft) W-SW 246 ° 0 min 0,000 mm 1,0 UV-I 114 W/m² 11,3 °C 15,9 °C 3,2 km/h (1 Bft)
02.10.2017 15:37 15,8 °C 15,9 °C 69 % 1018,6 hPa 0,0 mm 0,4 km/h (0 Bft) W-SW 246 ° 0 min 0,000 mm 1,0 UV-I 114 W/m² 10,1 °C 15,8 °C 1,6 km/h (1 Bft)
02.10.2017 15:38 15,9 °C 15,9 °C 71 % 1018,6 hPa 0,0 mm 1,5 km/h (1 Bft) W-SW 246 ° 0 min 0,000 mm 1,0 UV-I 114 W/m² 10,6 °C 15,9 °C 3,2 km/h (1 Bft)
02.10.2017 15:39 15,9 °C 15,9 °C 72 % 1018,6 hPa 0,0 mm 3,9 km/h (1 Bft) W-SW 257 ° 0 min 0,000 mm 1,0 UV-I 114 W/m² 10,9 °C 15,9 °C 6,4 km/h (2 Bft)
02.10.2017 15:40 15,9 °C 15,9 °C 71 % 1018,6 hPa 0,0 mm 4,5 km/h (1 Bft) W-SW 247 ° 0 min 0,000 mm 1,0 UV-I 114 W/m² 10,6 °C 15,9 °C 6,4 km/h (2 Bft)
02.10.2017 15:41 15,9 °C 15,9 °C 69 % 1018,6 hPa 0,0 mm 3,6 km/h (1 Bft) SW 229 ° 0 min 0,000 mm 1,0 UV-I 114 W/m² 10,2 °C 15,9 °C 6,4 km/h (2 Bft)
02.10.2017 15:42 15,9 °C 15,9 °C 70 % 1018,6 hPa 0,0 mm 4,2 km/h (1 Bft) W-SW 253 ° 0 min 0,000 mm 1,0 UV-I 114 W/m² 10,4 °C 15,9 °C 6,4 km/h (2 Bft)
02.10.2017 15:43 15,8 °C 15,9 °C 70 % 1018,7 hPa 0,0 mm 4,1 km/h (1 Bft) W-SW 255 ° 0 min 0,000 mm 1,0 UV-I 114 W/m² 10,3 °C 15,8 °C 6,4 km/h (2 Bft)
02.10.2017 15:44 15,8 °C 15,8 °C 72 % 1018,6 hPa 0,0 mm 8,8 km/h (2 Bft) W-SW 258 ° 0 min 0,000 mm 1,0 UV-I 116 W/m² 10,8 °C 15,8 °C 12,9 km/h (3 Bft)
02.10.2017 15:45 15,8 °C 15,8 °C 71 % 1018,6 hPa 0,0 mm 3,8 km/h (1 Bft) W 278 ° 0 min 0,000 mm 1,0 UV-I 118 W/m² 10,6 °C 15,8 °C 4,8 km/h (1 Bft)
02.10.2017 15:46 15,7 °C 15,8 °C 71 % 1018,6 hPa 0,0 mm 0,1 km/h (0 Bft) W 278 ° 0 min 0,000 mm 1,0 UV-I 121 W/m² 10,5 °C 15,7 °C 1,6 km/h (1 Bft)
02.10.2017 15:48 15,7 °C 15,7 °C 72 % 1018,7 hPa 0,0 mm 2,0 km/h (1 Bft) W 274 ° 0 min 0,000 mm 1,0 UV-I 120 W/m² 10,7 °C 15,7 °C 4,8 km/h (1 Bft)
02.10.2017 15:49 15,7 °C 15,7 °C 72 % 1018,7 hPa 0,0 mm 3,3 km/h (1 Bft) W 272 ° 0 min 0,000 mm 1,0 UV-I 118 W/m² 10,7 °C 15,7 °C 4,8 km/h (1 Bft)
02.10.2017 15:50 15,7 °C 15,7 °C 72 % 1018,7 hPa 0,0 mm 2,7 km/h (1 Bft) W 272 ° 0 min 0,000 mm 1,0 UV-I 114 W/m² 10,7 °C 15,7 °C 4,8 km/h (1 Bft)
02.10.2017 15:51 15,7 °C 15,7 °C 72 % 1018,7 hPa 0,0 mm 6,5 km/h (2 Bft) W-NW 290 ° 0 min 0,000 mm 0,9 UV-I 113 W/m² 10,7 °C 15,7 °C 11,3 km/h (2 Bft)
02.10.2017 15:52 15,7 °C 15,7 °C 71 % 1018,8 hPa 0,0 mm 4,3 km/h (1 Bft) W-NW 289 ° 0 min 0,000 mm 0,9 UV-I 105 W/m² 10,5 °C 15,7 °C 6,4 km/h (2 Bft)
02.10.2017 15:53 15,7 °C 15,7 °C 71 % 1018,8 hPa 0,0 mm 4,2 km/h (1 Bft) W-SW 255 ° 0 min 0,000 mm 0,9 UV-I 104 W/m² 10,5 °C 15,7 °C 9,7 km/h (2 Bft)
02.10.2017 15:54 15,6 °C 15,7 °C 72 % 1018,7 hPa 0,0 mm 4,1 km/h (1 Bft) W 266 ° 0 min 0,000 mm 0,9 UV-I 102 W/m² 10,6 °C 15,6 °C 6,4 km/h (2 Bft)
02.10.2017 15:55 15,6 °C 15,7 °C 71 % 1018,7 hPa 0,0 mm 4,1 km/h (1 Bft) W 259 ° 0 min 0,000 mm 0,9 UV-I 100 W/m² 10,4 °C 15,6 °C 6,4 km/h (2 Bft)
02.10.2017 15:56 15,6 °C 15,6 °C 73 % 1018,8 hPa 0,0 mm 5,4 km/h (1 Bft) W-SW 249 ° 0 min 0,000 mm 0,8 UV-I 97 W/m² 10,8 °C 15,6 °C 8,0 km/h (2 Bft)
02.10.2017 15:57 15,6 °C 15,6 °C 70 % 1018,8 hPa 0,0 mm 3,2 km/h (1 Bft) W-NW 299 ° 0 min 0,000 mm 0,8 UV-I 97 W/m² 10,1 °C 15,6 °C 4,8 km/h (1 Bft)
02.10.2017 15:58 15,5 °C 15,6 °C 72 % 1018,8 hPa 0,0 mm 4,8 km/h (1 Bft) W 271 ° 0 min 0,000 mm 0,8 UV-I 91 W/m² 10,5 °C 15,5 °C 6,4 km/h (2 Bft)
02.10.2017 15:59 15,5 °C 15,5 °C 72 % 1018,8 hPa 0,0 mm 4,1 km/h (1 Bft) W 270 ° 0 min 0,000 mm 0,8 UV-I 91 W/m² 10,5 °C 15,5 °C 9,7 km/h (2 Bft)
02.10.2017 16:00 15,4 °C 15,5 °C 72 % 1018,8 hPa 0,0 mm 12,2 km/h (2 Bft) W-SW 248 ° 0 min 0,000 mm 0,7 UV-I 88 W/m² 10,4 °C 15,4 °C 14,5 km/h (3 Bft)
02.10.2017 16:01 15,4 °C 15,4 °C 72 % 1018,8 hPa 0,0 mm 7,9 km/h (2 Bft) W 262 ° 0 min 0,101 mm 0,7 UV-I 86 W/m² 10,4 °C 15,4 °C 11,3 km/h (2 Bft)
02.10.2017 16:02 15,3 °C 15,4 °C 74 % 1018,8 hPa 0,0 mm 7,6 km/h (2 Bft) W-SW 254 ° 0 min 0,000 mm 0,7 UV-I 86 W/m² 10,7 °C 15,3 °C 9,7 km/h (2 Bft)
02.10.2017 16:03 15,2 °C 15,3 °C 73 % 1018,8 hPa 0,0 mm 7,1 km/h (2 Bft) W-SW 252 ° 0 min 0,000 mm 0,7 UV-I 84 W/m² 10,4 °C 15,2 °C 11,3 km/h (2 Bft)
02.10.2017 16:04 15,1 °C 15,2 °C 73 % 1018,7 hPa 0,0 mm 4,7 km/h (1 Bft) W 267 ° 0 min 0,000 mm 0,7 UV-I 79 W/m² 10,3 °C 15,1 °C 9,7 km/h (2 Bft)
02.10.2017 16:05 15,1 °C 15,1 °C 74 % 1018,7 hPa 0,0 mm 3,4 km/h (1 Bft) W 274 ° 0 min 0,000 mm 0,6 UV-I 76 W/m² 10,5 °C 15,1 °C 6,4 km/h (2 Bft)
02.10.2017 16:06 15,0 °C 15,1 °C 73 % 1018,7 hPa 0,0 mm 1,9 km/h (1 Bft) W 280 ° 0 min 0,000 mm 0,6 UV-I 72 W/m² 10,2 °C 15,0 °C 6,4 km/h (2 Bft)
02.10.2017 16:07 14,9 °C 15,0 °C 75 % 1018,7 hPa 0,0 mm 0,0 km/h (0 Bft) W 279 ° 0 min 0,000 mm 0,5 UV-I 70 W/m² 10,5 °C 14,9 °C 0,0 km/h (0 Bft)
02.10.2017 16:08 14,8 °C 14,9 °C 75 % 1018,6 hPa 0,0 mm 0,6 km/h (0 Bft) W 279 ° 0 min 0,000 mm 0,5 UV-I 69 W/m² 10,4 °C 14,8 °C 1,6 km/h (1 Bft)
02.10.2017 16:09 14,7 °C 14,8 °C 75 % 1018,6 hPa 0,0 mm 0,1 km/h (0 Bft) W 279 ° 0 min 0,000 mm 0,5 UV-I 69 W/m² 10,3 °C 14,7 °C 1,6 km/h (1 Bft)
02.10.2017 16:10 14,7 °C 14,7 °C 75 % 1018,6 hPa 0,0 mm 1,1 km/h (1 Bft) W-SW 239 ° 0 min 0,000 mm 0,5 UV-I 70 W/m² 10,3 °C 14,7 °C 3,2 km/h (1 Bft)
02.10.2017 16:11 14,7 °C 14,7 °C 77 % 1018,6 hPa 0,0 mm 0,4 km/h (0 Bft) W-SW 239 ° 0 min 0,000 mm 0,6 UV-I 74 W/m² 10,7 °C 14,7 °C 1,6 km/h (1 Bft)
02.10.2017 16:12 14,6 °C 14,7 °C 74 % 1018,6 hPa 0,0 mm 0,3 km/h (0 Bft) W-SW 239 ° 0 min 0,000 mm 0,6 UV-I 77 W/m² 10,0 °C 14,6 °C 1,6 km/h (1 Bft)
02.10.2017 16:14 14,6 °C 14,7 °C 75 % 1018,6 hPa 0,0 mm 0,3 km/h (0 Bft) W-SW 239 ° 0 min 0,000 mm 0,6 UV-I 83 W/m² 10,2 °C 14,6 °C 3,2 km/h (1 Bft)
02.10.2017 16:15 14,6 °C 14,7 °C 78 % 1018,6 hPa 0,0 mm 0,0 km/h (0 Bft) W-SW 239 ° 0 min 0,000 mm 0,6 UV-I 84 W/m² 10,8 °C 14,6 °C 0,0 km/h (0 Bft)
02.10.2017 16:16 14,5 °C 14,6 °C 76 % 1018,5 hPa 0,0 mm 0,0 km/h (0 Bft) W-SW 239 ° 0 min 0,000 mm 0,6 UV-I 83 W/m² 10,3 °C 14,5 °C 0,0 km/h (0 Bft)
02.10.2017 16:17 14,4 °C 14,5 °C 75 % 1018,5 hPa 0,0 mm 1,0 km/h (0 Bft) SW 218 ° 0 min 0,000 mm 0,6 UV-I 79 W/m² 10,0 °C 14,4 °C 1,6 km/h (1 Bft)
02.10.2017 16:18 14,4 °C 14,4 °C 77 % 1018,5 hPa 0,0 mm 0,1 km/h (0 Bft) SW 218 ° 0 min 0,000 mm 0,6 UV-I 77 W/m² 10,4 °C 14,4 °C 1,6 km/h (1 Bft)
02.10.2017 16:19 14,4 °C 14,4 °C 80 % 1018,5 hPa 0,0 mm 0,0 km/h (0 Bft) SW 218 ° 0 min 0,000 mm 0,6 UV-I 74 W/m² 11,0 °C 14,4 °C 0,0 km/h (0 Bft)
02.10.2017 16:20 14,3 °C 14,4 °C 79 % 1018,6 hPa 0,0 mm 0,4 km/h (0 Bft) SW 218 ° 0 min 0,000 mm 0,6 UV-I 72 W/m² 10,7 °C 14,3 °C 1,6 km/h (1 Bft)
02.10.2017 16:21 14,2 °C 14,3 °C 81 % 1018,5 hPa 0,0 mm 0,0 km/h (0 Bft) SW 218 ° 0 min 0,000 mm 0,5 UV-I 70 W/m² 11,0 °C 14,2 °C 0,0 km/h (0 Bft)
02.10.2017 16:22 14,2 °C 14,2 °C 81 % 1018,5 hPa 0,0 mm 0,0 km/h (0 Bft) SW 218 ° 0 min 0,000 mm 0,5 UV-I 69 W/m² 11,0 °C 14,2 °C 0,0 km/h (0 Bft)
02.10.2017 16:23 14,2 °C 14,2 °C 79 % 1018,5 hPa 0,0 mm 0,0 km/h (0 Bft) SW 218 ° 0 min 0,000 mm 0,5 UV-I 69 W/m² 10,6 °C 14,2 °C 0,0 km/h (0 Bft)
02.10.2017 16:24 14,2 °C 14,2 °C 79 % 1018,5 hPa 0,0 mm 0,0 km/h (0 Bft) SW 218 ° 0 min 0,000 mm 0,5 UV-I 67 W/m² 10,6 °C 14,2 °C 0,0 km/h (0 Bft)
02.10.2017 16:25 14,2 °C 14,2 °C 81 % 1018,5 hPa 0,0 mm 0,0 km/h (0 Bft) SW 218 ° 0 min 0,000 mm 0,5 UV-I 65 W/m² 11,0 °C 14,2 °C 0,0 km/h (0 Bft)
02.10.2017 16:26 14,1 °C 14,2 °C 82 % 1018,5 hPa 0,0 mm 0,0 km/h (0 Bft) SW 218 ° 0 min 0,000 mm 0,5 UV-I 62 W/m² 11,1 °C 14,1 °C 0,0 km/h (0 Bft)
02.10.2017 16:27 14,1 °C 14,1 °C 80 % 1018,5 hPa 0,0 mm 0,0 km/h (0 Bft) SW 218 ° 0 min 0,000 mm 0,0 UV-I 56 W/m² 10,7 °C 14,1 °C 0,0 km/h (0 Bft)
02.10.2017 16:29 14,2 °C 14,2 °C 82 % 1018,5 hPa 0,0 mm 0,0 km/h (0 Bft) SW 219 ° 0 min 0,000 mm 0,0 UV-I 53 W/m² 11,2 °C 14,2 °C 1,6 km/h (1 Bft)
02.10.2017 16:30 14,2 °C 14,2 °C 80 % 1018,5 hPa 0,0 mm 0,0 km/h (0 Bft) SW 219 ° 0 min 0,000 mm 0,0 UV-I 51 W/m² 10,8 °C 14,2 °C 0,0 km/h (0 Bft)
02.10.2017 16:31 14,3 °C 14,3 °C 80 % 1018,5 hPa 0,0 mm 0,0 km/h (0 Bft) SW 219 ° 0 min 0,000 mm 0,0 UV-I 51 W/m² 10,9 °C 14,3 °C 0,0 km/h (0 Bft)
02.10.2017 16:32 14,3 °C 14,3 °C 79 % 1018,5 hPa 0,0 mm 0,5 km/h (0 Bft) SW 219 ° 0 min 0,000 mm 0,0 UV-I 47 W/m² 10,7 °C 14,3 °C 1,6 km/h (1 Bft)
02.10.2017 16:33 14,3 °C 14,3 °C 78 % 1018,5 hPa 0,0 mm 0,1 km/h (0 Bft) SW 219 ° 0 min 0,000 mm 0,0 UV-I 44 W/m² 10,5 °C 14,3 °C 1,6 km/h (1 Bft)
02.10.2017 16:34 14,3 °C 14,4 °C 79 % 1018,5 hPa 0,0 mm 0,0 km/h (0 Bft) SW 219 ° 0 min 0,000 mm 0,0 UV-I 40 W/m² 10,7 °C 14,3 °C 0,0 km/h (0 Bft)
02.10.2017 16:35 14,3 °C 14,4 °C 82 % 1018,5 hPa 0,0 mm 0,1 km/h (0 Bft) SW 219 ° 0 min 0,000 mm 0,0 UV-I 39 W/m² 11,3 °C 14,3 °C 1,6 km/h (1 Bft)
02.10.2017 16:36 14,3 °C 14,3 °C 82 % 1018,4 hPa 0,0 mm 0,0 km/h (0 Bft) SW 219 ° 0 min 0,000 mm 0,0 UV-I 37 W/m² 11,3 °C 14,3 °C 0,0 km/h (0 Bft)
02.10.2017 16:37 14,2 °C 14,3 °C 81 % 1018,4 hPa 0,0 mm 0,0 km/h (0 Bft) SW 219 ° 0 min 0,000 mm 0,0 UV-I 37 W/m² 11,0 °C 14,2 °C 0,0 km/h (0 Bft)
02.10.2017 16:38 14,1 °C 14,2 °C 80 % 1018,4 hPa 0,0 mm 0,4 km/h (0 Bft) SW 218 ° 0 min 0,000 mm 0,0 UV-I 35 W/m² 10,7 °C 14,1 °C 1,6 km/h (1 Bft)
02.10.2017 16:39 13,9 °C 14,1 °C 80 % 1018,4 hPa 0,0 mm 0,2 km/h (0 Bft) SW 218 ° 0 min 0,000 mm 0,0 UV-I 35 W/m² 10,5 °C 13,9 °C 1,6 km/h (1 Bft)
02.10.2017 16:40 13,8 °C 13,9 °C 81 % 1018,4 hPa 0,0 mm 0,0 km/h (0 Bft) SW 219 ° 0 min 0,000 mm 0,0 UV-I 35 W/m² 10,6 °C 13,8 °C 0,0 km/h (0 Bft)
02.10.2017 16:41 13,8 °C 13,8 °C 81 % 1018,4 hPa 0,0 mm 0,0 km/h (0 Bft) SW 218 ° 0 min 0,000 mm 0,0 UV-I 37 W/m² 10,6 °C 13,8 °C 0,0 km/h (0 Bft)
02.10.2017 16:42 13,7 °C 13,8 °C 81 % 1018,4 hPa 0,0 mm 0,0 km/h (0 Bft) SW 218 ° 0 min 0,000 mm 0,0 UV-I 37 W/m² 10,5 °C 13,7 °C 0,0 km/h (0 Bft)
02.10.2017 16:43 13,7 °C 13,7 °C 82 % 1018,4 hPa 0,0 mm 0,0 km/h (0 Bft) SW 218 ° 0 min 0,000 mm 0,0 UV-I 37 W/m² 10,7 °C 13,7 °C 0,0 km/h (0 Bft)
02.10.2017 16:44 13,6 °C 13,7 °C 83 % 1018,4 hPa 0,0 mm 0,0 km/h (0 Bft) SW 218 ° 0 min 0,000 mm 0,0 UV-I 39 W/m² 10,8 °C 13,6 °C 0,0 km/h (0 Bft)
02.10.2017 16:45 13,6 °C 13,6 °C 82 % 1018,4 hPa 0,0 mm 0,0 km/h (0 Bft) SW 218 ° 0 min 0,000 mm 0,0 UV-I 39 W/m² 10,6 °C 13,6 °C 0,0 km/h (0 Bft)
02.10.2017 16:46 13,6 °C 13,6 °C 84 % 1018,3 hPa 0,0 mm 0,0 km/h (0 Bft) SW 218 ° 0 min 0,000 mm 0,0 UV-I 39 W/m² 10,9 °C 13,6 °C 0,0 km/h (0 Bft)
02.10.2017 16:47 13,5 °C 13,6 °C 83 % 1018,4 hPa 0,0 mm 0,0 km/h (0 Bft) SW 218 ° 0 min 0,000 mm 0,0 UV-I 39 W/m² 10,7 °C 13,5 °C 0,0 km/h (0 Bft)
02.10.2017 16:48 13,6 °C 13,6 °C 85 % 1018,4 hPa 0,0 mm 0,0 km/h (0 Bft) SW 218 ° 0 min 0,000 mm 0,0 UV-I 39 W/m² 11,1 °C 13,6 °C 0,0 km/h (0 Bft)
02.10.2017 16:49 13,5 °C 13,6 °C 83 % 1018,4 hPa 0,0 mm 0,0 km/h (0 Bft) SW 218 ° 0 min 0,000 mm 0,0 UV-I 37 W/m² 10,7 °C 13,5 °C 0,0 km/h (0 Bft)
02.10.2017 16:50 13,6 °C 13,6 °C 83 % 1018,4 hPa 0,0 mm 0,0 km/h (0 Bft) SW 218 ° 0 min 0,000 mm 0,0 UV-I 35 W/m² 10,8 °C 13,6 °C 0,0 km/h (0 Bft)
02.10.2017 16:51 13,5 °C 13,6 °C 84 % 1018,5 hPa 0,0 mm 0,0 km/h (0 Bft) SW 218 ° 0 min 0,000 mm 0,0 UV-I 32 W/m² 10,8 °C 13,5 °C 0,0 km/h (0 Bft)
02.10.2017 16:52 13,4 °C 13,5 °C 85 % 1018,4 hPa 0,0 mm 0,0 km/h (0 Bft) SW 218 ° 0 min 0,000 mm 0,0 UV-I 30 W/m² 10,9 °C 13,4 °C 0,0 km/h (0 Bft)
02.10.2017 16:53 13,4 °C 13,4 °C 84 % 1018,4 hPa 0,0 mm 0,0 km/h (0 Bft) SW 218 ° 0 min 0,000 mm 0,0 UV-I 28 W/m² 10,8 °C 13,4 °C 0,0 km/h (0 Bft)
02.10.2017 16:54 13,3 °C 13,4 °C 85 % 1018,4 hPa 0,0 mm 0,0 km/h (0 Bft) SW 218 ° 0 min 0,000 mm 0,0 UV-I 28 W/m² 10,8 °C 13,3 °C 0,0 km/h (0 Bft)
02.10.2017 16:55 13,3 °C 13,3 °C 85 % 1018,4 hPa 0,0 mm 0,0 km/h (0 Bft) SW 218 ° 0 min 0,000 mm 0,0 UV-I 28 W/m² 10,8 °C 13,3 °C 0,0 km/h (0 Bft)
02.10.2017 16:56 13,2 °C 13,3 °C 85 % 1018,4 hPa 0,0 mm 0,0 km/h (0 Bft) SW 218 ° 0 min 0,000 mm 0,0 UV-I 30 W/m² 10,7 °C 13,2 °C 0,0 km/h (0 Bft)
02.10.2017 16:57 13,2 °C 13,2 °C 85 % 1018,4 hPa 0,0 mm 0,0 km/h (0 Bft) SW 218 ° 0 min 0,000 mm 0,0 UV-I 30 W/m² 10,7 °C 13,2 °C 0,0 km/h (0 Bft)
02.10.2017 16:58 13,2 °C 13,2 °C 86 % 1018,5 hPa 0,0 mm 0,0 km/h (0 Bft) SW 218 ° 0 min 0,000 mm 0,0 UV-I 30 W/m² 10,9 °C 13,2 °C 0,0 km/h (0 Bft)
02.10.2017 16:59 13,2 °C 13,2 °C 86 % 1018,5 hPa 0,0 mm 0,0 km/h (0 Bft) SW 218 ° 0 min 0,000 mm 0,0 UV-I 28 W/m² 10,9 °C 13,2 °C 0,0 km/h (0 Bft)
02.10.2017 17:00 13,2 °C 13,2 °C 85 % 1018,4 hPa 0,0 mm 0,0 km/h (0 Bft) SW 218 ° 0 min 0,000 mm 0,0 UV-I 30 W/m² 10,7 °C 13,2 °C 0,0 km/h (0 Bft)
02.10.2017 17:01 13,2 °C 13,2 °C 85 % 1018,4 hPa 0,0 mm 0,0 km/h (0 Bft) SW 218 ° 0 min 0,026 mm 0,0 UV-I 30 W/m² 10,7 °C 13,2 °C 0,0 km/h (0 Bft)
02.10.2017 17:02 13,2 °C 13,2 °C 85 % 1018,4 hPa 0,0 mm 0,0 km/h (0 Bft) SW 218 ° 0 min 0,000 mm 0,0 UV-I 30 W/m² 10,7 °C 13,2 °C 0,0 km/h (0 Bft)
02.10.2017 17:03 13,2 °C 13,2 °C 85 % 1018,5 hPa 0,0 mm 0,0 km/h (0 Bft) SW 218 ° 0 min 0,000 mm 0,0 UV-I 30 W/m² 10,7 °C 13,2 °C 0,0 km/h (0 Bft)
02.10.2017 17:04 13,2 °C 13,2 °C 86 % 1018,5 hPa 0,0 mm 0,0 km/h (0 Bft) SW 218 ° 0 min 0,000 mm 0,0 UV-I 30 W/m² 10,9 °C 13,2 °C 0,0 km/h (0 Bft)
02.10.2017 17:05 13,2 °C 13,2 °C 86 % 1018,5 hPa 0,0 mm 0,0 km/h (0 Bft) SW 219 ° 0 min 0,000 mm 0,0 UV-I 30 W/m² 10,9 °C 13,2 °C 0,0 km/h (0 Bft)
02.10.2017 17:06 13,2 °C 13,3 °C 86 % 1018,5 hPa 0,0 mm 0,9 km/h (0 Bft) SW 218 ° 0 min 0,000 mm 0,0 UV-I 30 W/m² 10,9 °C 13,2 °C 1,6 km/h (1 Bft)
02.10.2017 17:07 13,2 °C 13,3 °C 86 % 1018,5 hPa 0,0 mm 0,1 km/h (0 Bft) SW 218 ° 0 min 0,000 mm 0,0 UV-I 30 W/m² 10,9 °C 13,2 °C 1,6 km/h (1 Bft)
02.10.2017 17:08 13,3 °C 13,3 °C 86 % 1018,5 hPa 0,0 mm 0,0 km/h (0 Bft) SW 218 ° 0 min 0,000 mm 0,0 UV-I 30 W/m² 11,0 °C 13,3 °C 0,0 km/h (0 Bft)
02.10.2017 17:09 13,3 °C 13,3 °C 86 % 1018,4 hPa 0,0 mm 0,0 km/h (0 Bft) SW 218 ° 0 min 0,000 mm 0,0 UV-I 28 W/m² 11,0 °C 13,3 °C 0,0 km/h (0 Bft)
02.10.2017 17:10 13,3 °C 13,3 °C 86 % 1018,4 hPa 0,0 mm 0,0 km/h (0 Bft) SW 218 ° 0 min 0,000 mm 0,0 UV-I 26 W/m² 11,0 °C 13,3 °C 0,0 km/h (0 Bft)
02.10.2017 17:11 13,3 °C 13,3 °C 85 % 1018,4 hPa 0,0 mm 0,0 km/h (0 Bft) SW 218 ° 0 min 0,000 mm 0,0 UV-I 26 W/m² 10,8 °C 13,3 °C 0,0 km/h (0 Bft)
02.10.2017 17:12 13,3 °C 13,3 °C 85 % 1018,4 hPa 0,0 mm 0,0 km/h (0 Bft) SW 218 ° 0 min 0,000 mm 0,0 UV-I 25 W/m² 10,8 °C 13,3 °C 0,0 km/h (0 Bft)
02.10.2017 17:13 13,3 °C 13,3 °C 87 % 1018,4 hPa 0,0 mm 0,0 km/h (0 Bft) SW 218 ° 0 min 0,000 mm 0,0 UV-I 25 W/m² 11,2 °C 13,3 °C 0,0 km/h (0 Bft)
02.10.2017 17:14 13,2 °C 13,3 °C 87 % 1018,4 hPa 0,0 mm 0,0 km/h (0 Bft) SW 218 ° 0 min 0,000 mm 0,0 UV-I 26 W/m² 11,1 °C 13,2 °C 0,0 km/h (0 Bft)
02.10.2017 17:15 13,3 °C 13,3 °C 86 % 1018,4 hPa 0,0 mm 0,0 km/h (0 Bft) SW 218 ° 0 min 0,000 mm 0,0 UV-I 28 W/m² 11,0 °C 13,3 °C 0,0 km/h (0 Bft)
02.10.2017 17:16 13,3 °C 13,3 °C 86 % 1018,4 hPa 0,0 mm 1,0 km/h (0 Bft) SW 218 ° 0 min 0,000 mm 0,0 UV-I 30 W/m² 11,0 °C 13,3 °C 3,2 km/h (1 Bft)
02.10.2017 17:17 13,4 °C 13,4 °C 85 % 1018,3 hPa 0,0 mm 1,9 km/h (1 Bft) SW 218 ° 0 min 0,000 mm 0,0 UV-I 33 W/m² 10,9 °C 13,4 °C 3,2 km/h (1 Bft)
02.10.2017 17:18 13,4 °C 13,4 °C 86 % 1018,3 hPa 0,0 mm 0,1 km/h (0 Bft) SW 218 ° 0 min 0,000 mm 0,0 UV-I 35 W/m² 11,1 °C 13,4 °C 1,6 km/h (1 Bft)
02.10.2017 17:19 13,3 °C 13,4 °C 85 % 1018,3 hPa 0,0 mm 1,8 km/h (1 Bft) SW 218 ° 0 min 0,000 mm 0,0 UV-I 39 W/m² 10,8 °C 13,3 °C 3,2 km/h (1 Bft)
02.10.2017 17:20 13,3 °C 13,3 °C 86 % 1018,3 hPa 0,0 mm 1,1 km/h (1 Bft) S-SW 194 ° 0 min 0,000 mm 0,0 UV-I 44 W/m² 11,0 °C 13,3 °C 4,8 km/h (1 Bft)
02.10.2017 17:21 13,3 °C 13,3 °C 86 % 1018,3 hPa 0,0 mm 2,0 km/h (1 Bft) S-SW 194 ° 0 min 0,000 mm 0,0 UV-I 47 W/m² 11,0 °C 13,3 °C 4,8 km/h (1 Bft)
02.10.2017 17:22 13,3 °C 13,3 °C 86 % 1018,3 hPa 0,0 mm 0,8 km/h (0 Bft) S-SW 194 ° 0 min 0,000 mm 0,0 UV-I 49 W/m² 11,0 °C 13,3 °C 3,2 km/h (1 Bft)
02.10.2017 17:23 13,3 °C 13,3 °C 86 % 1018,2 hPa 0,0 mm 0,4 km/h (0 Bft) S-SW 194 ° 0 min 0,000 mm 0,0 UV-I 49 W/m² 11,0 °C 13,3 °C 1,6 km/h (1 Bft)
02.10.2017 17:24 13,3 °C 13,3 °C 87 % 1018,2 hPa 0,0 mm 0,0 km/h (0 Bft) S-SW 194 ° 0 min 0,000 mm 0,0 UV-I 49 W/m² 11,2 °C 13,3 °C 0,0 km/h (0 Bft)
02.10.2017 17:25 13,2 °C 13,3 °C 87 % 1018,2 hPa 0,0 mm 0,0 km/h (0 Bft) S-SW 194 ° 0 min 0,000 mm 0,0 UV-I 47 W/m² 11,1 °C 13,2 °C 0,0 km/h (0 Bft)
02.10.2017 17:26 13,2 °C 13,2 °C 87 % 1018,2 hPa 0,0 mm 0,0 km/h (0 Bft) S-SW 194 ° 0 min 0,000 mm 0,0 UV-I 46 W/m² 11,1 °C 13,2 °C 0,0 km/h (0 Bft)
02.10.2017 17:27 13,2 °C 13,2 °C 87 % 1018,2 hPa 0,0 mm 0,0 km/h (0 Bft) S-SW 194 ° 0 min 0,000 mm 0,0 UV-I 39 W/m² 11,1 °C 13,2 °C 0,0 km/h (0 Bft)
02.10.2017 17:28 13,2 °C 13,2 °C 87 % 1018,1 hPa 0,0 mm 0,0 km/h (0 Bft) S-SW 194 ° 0 min 0,000 mm 0,0 UV-I 35 W/m² 11,1 °C 13,2 °C 0,0 km/h (0 Bft)
02.10.2017 17:29 13,2 °C 13,2 °C 87 % 1018,1 hPa 0,0 mm 0,0 km/h (0 Bft) S-SW 194 ° 0 min 0,000 mm 0,0 UV-I 32 W/m² 11,1 °C 13,2 °C 0,0 km/h (0 Bft)
02.10.2017 17:30 13,2 °C 13,2 °C 87 % 1018,1 hPa 0,0 mm 0,0 km/h (0 Bft) S-SW 194 ° 0 min 0,000 mm 0,0 UV-I 30 W/m² 11,1 °C 13,2 °C 0,0 km/h (0 Bft)
02.10.2017 17:31 13,2 °C 13,3 °C 87 % 1018,0 hPa 0,0 mm 0,0 km/h (0 Bft) S-SW 194 ° 0 min 0,000 mm 0,0 UV-I 28 W/m² 11,1 °C 13,2 °C 0,0 km/h (0 Bft)
02.10.2017 17:32 13,2 °C 13,2 °C 86 % 1018,1 hPa 0,0 mm 0,0 km/h (0 Bft) S-SW 194 ° 0 min 0,000 mm 0,0 UV-I 26 W/m² 10,9 °C 13,2 °C 0,0 km/h (0 Bft)
02.10.2017 17:33 13,2 °C 13,3 °C 87 % 1018,1 hPa 0,0 mm 0,0 km/h (0 Bft) S-SW 194 ° 0 min 0,000 mm 0,0 UV-I 26 W/m² 11,1 °C 13,2 °C 0,0 km/h (0 Bft)
02.10.2017 17:34 13,2 °C 13,2 °C 86 % 1018,1 hPa 0,0 mm 0,0 km/h (0 Bft) S-SW 194 ° 0 min 0,000 mm 0,0 UV-I 26 W/m² 10,9 °C 13,2 °C 0,0 km/h (0 Bft)
02.10.2017 17:35 13,2 °C 13,2 °C 86 % 1018,1 hPa 0,0 mm 0,0 km/h (0 Bft) S-SW 194 ° 0 min 0,000 mm 0,0 UV-I 26 W/m² 10,9 °C 13,2 °C 0,0 km/h (0 Bft)
02.10.2017 17:36 13,3 °C 13,3 °C 86 % 1018,1 hPa 0,0 mm 0,0 km/h (0 Bft) S-SW 194 ° 0 min 0,000 mm 0,0 UV-I 26 W/m² 11,0 °C 13,3 °C 0,0 km/h (0 Bft)
02.10.2017 17:37 13,3 °C 13,3 °C 86 % 1018,0 hPa 0,0 mm 0,0 km/h (0 Bft) S-SW 194 ° 0 min 0,000 mm 0,0 UV-I 25 W/m² 11,0 °C 13,3 °C 0,0 km/h (0 Bft)
02.10.2017 17:38 13,2 °C 13,3 °C 86 % 1018,1 hPa 0,0 mm 0,0 km/h (0 Bft) S-SW 194 ° 0 min 0,000 mm 0,0 UV-I 23 W/m² 10,9 °C 13,2 °C 0,0 km/h (0 Bft)
02.10.2017 17:39 13,2 °C 13,3 °C 86 % 1018,1 hPa 0,0 mm 0,0 km/h (0 Bft) S-SW 194 ° 0 min 0,000 mm 0,0 UV-I 23 W/m² 10,9 °C 13,2 °C 0,0 km/h (0 Bft)
02.10.2017 17:40 13,3 °C 13,3 °C 86 % 1018,0 hPa 0,0 mm 0,0 km/h (0 Bft) S-SW 194 ° 0 min 0,000 mm 0,0 UV-I 25 W/m² 11,0 °C 13,3 °C 0,0 km/h (0 Bft)
02.10.2017 17:41 13,3 °C 13,3 °C 86 % 1018,1 hPa 0,0 mm 0,3 km/h (0 Bft) S-SW 194 ° 0 min 0,000 mm 0,0 UV-I 25 W/m² 11,0 °C 13,3 °C 3,2 km/h (1 Bft)
02.10.2017 17:42 13,2 °C 13,3 °C 86 % 1018,0 hPa 0,0 mm 2,3 km/h (1 Bft) S-SW 194 ° 0 min 0,000 mm 0,0 UV-I 26 W/m² 10,9 °C 13,2 °C 3,2 km/h (1 Bft)
02.10.2017 17:44 13,2 °C 13,3 °C 86 % 1018,0 hPa 0,0 mm 0,1 km/h (0 Bft) S-SW 194 ° 0 min 0,000 mm 0,0 UV-I 30 W/m² 10,9 °C 13,2 °C 1,6 km/h (1 Bft)
02.10.2017 17:45 13,2 °C 13,3 °C 87 % 1018,0 hPa 0,0 mm 0,0 km/h (0 Bft) S-SW 194 ° 0 min 0,000 mm 0,0 UV-I 28 W/m² 11,1 °C 13,2 °C 0,0 km/h (0 Bft)
02.10.2017 17:46 13,2 °C 13,2 °C 88 % 1017,9 hPa 0,0 mm 0,0 km/h (0 Bft) S-SW 194 ° 0 min 0,000 mm 0,0 UV-I 28 W/m² 11,3 °C 13,2 °C 0,0 km/h (0 Bft)
02.10.2017 17:47 13,2 °C 13,2 °C 87 % 1017,9 hPa 0,0 mm 0,0 km/h (0 Bft) S-SW 194 ° 0 min 0,000 mm 0,0 UV-I 28 W/m² 11,1 °C 13,2 °C 0,0 km/h (0 Bft)
02.10.2017 17:48 13,3 °C 13,3 °C 86 % 1017,9 hPa 0,0 mm 0,0 km/h (0 Bft) S-SW 194 ° 0 min 0,000 mm 0,0 UV-I 28 W/m² 11,0 °C 13,3 °C 0,0 km/h (0 Bft)
02.10.2017 17:49 13,3 °C 13,3 °C 87 % 1018,0 hPa 0,0 mm 0,0 km/h (0 Bft) S-SW 194 ° 0 min 0,000 mm 0,0 UV-I 26 W/m² 11,2 °C 13,3 °C 0,0 km/h (0 Bft)
02.10.2017 17:50 13,4 °C 13,4 °C 87 % 1017,9 hPa 0,0 mm 0,0 km/h (0 Bft) S-SW 194 ° 0 min 0,000 mm 0,0 UV-I 25 W/m² 11,3 °C 13,4 °C 0,0 km/h (0 Bft)
02.10.2017 17:51 13,3 °C 13,4 °C 87 % 1017,9 hPa 0,0 mm 0,0 km/h (0 Bft) S 188 ° 0 min 0,000 mm 0,0 UV-I 23 W/m² 11,2 °C 13,3 °C 0,0 km/h (0 Bft)
02.10.2017 17:52 13,3 °C 13,3 °C 87 % 1017,9 hPa 0,0 mm 0,1 km/h (0 Bft) O-NO 75 ° 0 min 0,000 mm 0,0 UV-I 21 W/m² 11,2 °C 13,3 °C 1,6 km/h (1 Bft)
02.10.2017 17:53 13,3 °C 13,3 °C 88 % 1018,0 hPa 0,0 mm 1,0 km/h (0 Bft) O-NO 75 ° 0 min 0,000 mm 0,0 UV-I 21 W/m² 11,4 °C 13,3 °C 3,2 km/h (1 Bft)
02.10.2017 17:54 13,3 °C 13,3 °C 87 % 1018,0 hPa 0,0 mm 3,2 km/h (1 Bft) W-NW 288 ° 0 min 0,000 mm 0,0 UV-I 21 W/m² 11,2 °C 13,3 °C 4,8 km/h (1 Bft)
02.10.2017 17:55 13,3 °C 13,3 °C 88 % 1018,1 hPa 0,0 mm 3,0 km/h (1 Bft) W 266 ° 0 min 0,000 mm 0,0 UV-I 21 W/m² 11,4 °C 13,3 °C 4,8 km/h (1 Bft)
02.10.2017 17:56 13,4 °C 13,4 °C 88 % 1018,1 hPa 0,0 mm 1,3 km/h (1 Bft) W 266 ° 0 min 0,000 mm 0,0 UV-I 19 W/m² 11,5 °C 13,4 °C 3,2 km/h (1 Bft)
02.10.2017 17:57 13,4 °C 13,4 °C 86 % 1018,0 hPa 0,0 mm 2,3 km/h (1 Bft) W 265 ° 0 min 0,000 mm 0,0 UV-I 19 W/m² 11,1 °C 13,4 °C 4,8 km/h (1 Bft)
02.10.2017 17:58 13,5 °C 13,5 °C 87 % 1018,1 hPa 0,0 mm 1,4 km/h (1 Bft) W 265 ° 0 min 0,000 mm 0,0 UV-I 18 W/m² 11,4 °C 13,5 °C 1,6 km/h (1 Bft)
02.10.2017 17:59 13,5 °C 13,5 °C 87 % 1018,0 hPa 0,0 mm 1,7 km/h (1 Bft) W 265 ° 0 min 0,000 mm 0,0 UV-I 18 W/m² 11,4 °C 13,5 °C 3,2 km/h (1 Bft)
02.10.2017 18:00 13,4 °C 13,5 °C 87 % 1018,0 hPa 0,0 mm 1,1 km/h (1 Bft) W 265 ° 0 min 0,000 mm 0,0 UV-I 18 W/m² 11,3 °C 13,4 °C 3,2 km/h (1 Bft)
02.10.2017 18:01 13,4 °C 13,4 °C 87 % 1018,1 hPa 0,0 mm 0,9 km/h (0 Bft) W 265 ° 0 min 0,025 mm 0,0 UV-I 16 W/m² 11,3 °C 13,4 °C 1,6 km/h (1 Bft)
02.10.2017 18:02 13,4 °C 13,4 °C 87 % 1018,0 hPa 0,0 mm 0,0 km/h (0 Bft) W 265 ° 0 min 0,000 mm 0,0 UV-I 16 W/m² 11,3 °C 13,4 °C 0,0 km/h (0 Bft)
02.10.2017 18:03 13,4 °C 13,4 °C 88 % 1018,0 hPa 0,0 mm 0,0 km/h (0 Bft) W 265 ° 0 min 0,000 mm 0,0 UV-I 16 W/m² 11,5 °C 13,4 °C 0,0 km/h (0 Bft)
02.10.2017 18:04 13,3 °C 13,4 °C 88 % 1018,0 hPa 0,0 mm 1,9 km/h (1 Bft) W 267 ° 0 min 0,000 mm 0,0 UV-I 16 W/m² 11,4 °C 13,3 °C 3,2 km/h (1 Bft)
02.10.2017 18:05 13,4 °C 13,4 °C 88 % 1018,1 hPa 0,0 mm 1,4 km/h (1 Bft) W 267 ° 0 min 0,000 mm 0,0 UV-I 16 W/m² 11,5 °C 13,4 °C 3,2 km/h (1 Bft)
02.10.2017 18:06 13,3 °C 13,4 °C 88 % 1018,0 hPa 0,0 mm 0,0 km/h (0 Bft) W 267 ° 0 min 0,000 mm 0,0 UV-I 16 W/m² 11,4 °C 13,3 °C 0,0 km/h (0 Bft)
02.10.2017 18:07 13,4 °C 13,4 °C 88 % 1018,1 hPa 0,0 mm 1,0 km/h (0 Bft) W 267 ° 0 min 0,000 mm 0,0 UV-I 16 W/m² 11,5 °C 13,4 °C 3,2 km/h (1 Bft)
02.10.2017 18:08 13,4 °C 13,4 °C 88 % 1018,1 hPa 0,0 mm 0,7 km/h (0 Bft) W 267 ° 0 min 0,000 mm 0,0 UV-I 16 W/m² 11,5 °C 13,4 °C 3,2 km/h (1 Bft)
02.10.2017 18:09 13,4 °C 13,4 °C 88 % 1018,2 hPa 0,0 mm 0,0 km/h (0 Bft) W 267 ° 0 min 0,000 mm 0,0 UV-I 16 W/m² 11,5 °C 13,4 °C 0,0 km/h (0 Bft)
02.10.2017 18:10 13,4 °C 13,4 °C 87 % 1018,1 hPa 0,0 mm 1,3 km/h (1 Bft) W 267 ° 0 min 0,000 mm 0,0 UV-I 16 W/m² 11,3 °C 13,4 °C 3,2 km/h (1 Bft)
02.10.2017 18:11 13,4 °C 13,4 °C 87 % 1018,1 hPa 0,0 mm 0,0 km/h (0 Bft) W 267 ° 0 min 0,000 mm 0,0 UV-I 16 W/m² 11,3 °C 13,4 °C 0,0 km/h (0 Bft)
02.10.2017 18:12 13,4 °C 13,4 °C 87 % 1018,1 hPa 0,0 mm 0,0 km/h (0 Bft) W 267 ° 0 min 0,000 mm 0,0 UV-I 16 W/m² 11,3 °C 13,4 °C 0,0 km/h (0 Bft)
02.10.2017 18:13 13,4 °C 13,4 °C 88 % 1018,1 hPa 0,0 mm 0,1 km/h (0 Bft) W 267 ° 0 min 0,000 mm 0,0 UV-I 16 W/m² 11,5 °C 13,4 °C 1,6 km/h (1 Bft)
02.10.2017 18:14 13,3 °C 13,4 °C 88 % 1018,1 hPa 0,0 mm 0,1 km/h (0 Bft) W 267 ° 0 min 0,000 mm 0,0 UV-I 16 W/m² 11,4 °C 13,3 °C 1,6 km/h (1 Bft)
02.10.2017 18:15 13,3 °C 13,3 °C 88 % 1018,1 hPa 0,0 mm 0,5 km/h (0 Bft) W 267 ° 0 min 0,000 mm 0,0 UV-I 16 W/m² 11,4 °C 13,3 °C 1,6 km/h (1 Bft)
02.10.2017 18:16 13,3 °C 13,3 °C 88 % 1018,1 hPa 0,0 mm 1,3 km/h (1 Bft) SW 217 ° 0 min 0,000 mm 0,0 UV-I 14 W/m² 11,4 °C 13,3 °C 3,2 km/h (1 Bft)
02.10.2017 18:17 13,3 °C 13,3 °C 88 % 1018,0 hPa 0,0 mm 2,6 km/h (1 Bft) S 186 ° 0 min 0,000 mm 0,0 UV-I 14 W/m² 11,4 °C 13,3 °C 4,8 km/h (1 Bft)
02.10.2017 18:19 13,3 °C 13,3 °C 88 % 1018,1 hPa 0,0 mm 0,2 km/h (0 Bft) S 186 ° 0 min 0,000 mm 0,0 UV-I 12 W/m² 11,4 °C 13,3 °C 3,2 km/h (1 Bft)
02.10.2017 18:20 13,3 °C 13,3 °C 88 % 1018,1 hPa 0,0 mm 0,0 km/h (0 Bft) S 186 ° 0 min 0,000 mm 0,0 UV-I 12 W/m² 11,4 °C 13,3 °C 0,0 km/h (0 Bft)
02.10.2017 18:21 13,3 °C 13,3 °C 88 % 1018,0 hPa 0,0 mm 0,0 km/h (0 Bft) S 186 ° 0 min 0,000 mm 0,0 UV-I 12 W/m² 11,4 °C 13,3 °C 0,0 km/h (0 Bft)
02.10.2017 18:22 13,3 °C 13,3 °C 89 % 1018,1 hPa 0,0 mm 0,0 km/h (0 Bft) S 186 ° 0 min 0,000 mm 0,0 UV-I 12 W/m² 11,5 °C 13,3 °C 0,0 km/h (0 Bft)
02.10.2017 18:23 13,3 °C 13,3 °C 89 % 1018,1 hPa 0,0 mm 0,0 km/h (0 Bft) S 186 ° 0 min 0,000 mm 0,0 UV-I 11 W/m² 11,5 °C 13,3 °C 0,0 km/h (0 Bft)
02.10.2017 18:24 13,3 °C 13,3 °C 89 % 1018,0 hPa 0,0 mm 0,2 km/h (0 Bft) S 186 ° 0 min 0,000 mm 0,0 UV-I 11 W/m² 11,5 °C 13,3 °C 1,6 km/h (1 Bft)
02.10.2017 18:25 13,3 °C 13,3 °C 88 % 1018,0 hPa 0,0 mm 1,5 km/h (1 Bft) S 186 ° 0 min 0,000 mm 0,0 UV-I 11 W/m² 11,4 °C 13,3 °C 3,2 km/h (1 Bft)
02.10.2017 18:26 13,3 °C 13,3 °C 88 % 1018,1 hPa 0,0 mm 0,1 km/h (0 Bft) S 186 ° 0 min 0,000 mm 0,0 UV-I 9 W/m² 11,4 °C 13,3 °C 1,6 km/h (1 Bft)
02.10.2017 18:27 13,3 °C 13,3 °C 88 % 1018,0 hPa 0,0 mm 0,1 km/h (0 Bft) S 186 ° 0 min 0,000 mm 0,0 UV-I 9 W/m² 11,4 °C 13,3 °C 1,6 km/h (1 Bft)
02.10.2017 18:28 13,2 °C 13,3 °C 88 % 1018,1 hPa 0,0 mm 0,0 km/h (0 Bft) S 186 ° 0 min 0,000 mm 0,0 UV-I 9 W/m² 11,3 °C 13,2 °C 0,0 km/h (0 Bft)
02.10.2017 18:29 13,2 °C 13,2 °C 88 % 1018,1 hPa 0,0 mm 0,0 km/h (0 Bft) S 186 ° 0 min 0,000 mm 0,0 UV-I 9 W/m² 11,3 °C 13,2 °C 0,0 km/h (0 Bft)
02.10.2017 18:30 13,2 °C 13,2 °C 89 % 1018,2 hPa 0,0 mm 0,0 km/h (0 Bft) S 186 ° 0 min 0,000 mm 0,0 UV-I 7 W/m² 11,4 °C 13,2 °C 0,0 km/h (0 Bft)
02.10.2017 18:31 13,2 °C 13,2 °C 89 % 1018,2 hPa 0,0 mm 0,0 km/h (0 Bft) S 186 ° 0 min 0,000 mm 0,0 UV-I 7 W/m² 11,4 °C 13,2 °C 0,0 km/h (0 Bft)
02.10.2017 18:32 13,2 °C 13,2 °C 89 % 1018,3 hPa 0,0 mm 0,0 km/h (0 Bft) S 186 ° 0 min 0,000 mm 0,0 UV-I 7 W/m² 11,4 °C 13,2 °C 0,0 km/h (0 Bft)
02.10.2017 18:33 13,2 °C 13,2 °C 89 % 1018,2 hPa 0,0 mm 0,0 km/h (0 Bft) S 186 ° 0 min 0,000 mm 0,0 UV-I 7 W/m² 11,4 °C 13,2 °C 0,0 km/h (0 Bft)
02.10.2017 18:34 13,2 °C 13,2 °C 89 % 1018,2 hPa 0,0 mm 0,0 km/h (0 Bft) S 186 ° 0 min 0,000 mm 0,0 UV-I 7 W/m² 11,4 °C 13,2 °C 0,0 km/h (0 Bft)
02.10.2017 18:35 13,2 °C 13,2 °C 89 % 1018,2 hPa 0,0 mm 0,0 km/h (0 Bft) S 186 ° 0 min 0,000 mm 0,0 UV-I 5 W/m² 11,4 °C 13,2 °C 0,0 km/h (0 Bft)
02.10.2017 18:36 13,2 °C 13,2 °C 89 % 1018,2 hPa 0,0 mm 0,0 km/h (0 Bft) S 186 ° 0 min 0,000 mm 0,0 UV-I 5 W/m² 11,4 °C 13,2 °C 0,0 km/h (0 Bft)
02.10.2017 18:37 13,1 °C 13,2 °C 88 % 1018,2 hPa 0,0 mm 0,0 km/h (0 Bft) S 186 ° 0 min 0,000 mm 0,0 UV-I 5 W/m² 11,2 °C 13,1 °C 0,0 km/h (0 Bft)
02.10.2017 18:38 13,1 °C 13,1 °C 88 % 1018,2 hPa 0,0 mm 0,0 km/h (0 Bft) S 186 ° 0 min 0,000 mm 0,0 UV-I 5 W/m² 11,2 °C 13,1 °C 0,0 km/h (0 Bft)
02.10.2017 18:39 13,1 °C 13,1 °C 89 % 1018,2 hPa 0,0 mm 0,0 km/h (0 Bft) S 186 ° 0 min 0,000 mm 0,0 UV-I 5 W/m² 11,3 °C 13,1 °C 0,0 km/h (0 Bft)
02.10.2017 18:40 13,0 °C 13,1 °C 89 % 1018,3 hPa 0,0 mm 0,0 km/h (0 Bft) S 186 ° 0 min 0,000 mm 0,0 UV-I 5 W/m² 11,2 °C 13,0 °C 0,0 km/h (0 Bft)
02.10.2017 18:41 13,0 °C 13,1 °C 89 % 1018,3 hPa 0,0 mm 0,0 km/h (0 Bft) S 186 ° 0 min 0,000 mm 0,0 UV-I 0 W/m² 11,2 °C 13,0 °C 0,0 km/h (0 Bft)
02.10.2017 18:42 13,0 °C 13,0 °C 89 % 1018,3 hPa 0,0 mm 0,0 km/h (0 Bft) S 186 ° 0 min 0,000 mm 0,0 UV-I 0 W/m² 11,2 °C 13,0 °C 0,0 km/h (0 Bft)
02.10.2017 18:43 13,0 °C 13,0 °C 89 % 1018,3 hPa 0,0 mm 0,0 km/h (0 Bft) S 186 ° 0 min 0,000 mm 0,0 UV-I 0 W/m² 11,2 °C 13,0 °C 0,0 km/h (0 Bft)
02.10.2017 18:44 13,0 °C 13,0 °C 89 % 1018,3 hPa 0,0 mm 0,0 km/h (0 Bft) S 186 ° 0 min 0,000 mm 0,0 UV-I 0 W/m² 11,2 °C 13,0 °C 0,0 km/h (0 Bft)
02.10.2017 18:45 13,0 °C 13,0 °C 89 % 1018,3 hPa 0,0 mm 0,0 km/h (0 Bft) S 186 ° 0 min 0,000 mm 0,0 UV-I 0 W/m² 11,2 °C 13,0 °C 0,0 km/h (0 Bft)
02.10.2017 18:46 13,0 °C 13,0 °C 89 % 1018,3 hPa 0,0 mm 0,0 km/h (0 Bft) S 186 ° 0 min 0,000 mm 0,0 UV-I 0 W/m² 11,2 °C 13,0 °C 0,0 km/h (0 Bft)
02.10.2017 18:47 13,0 °C 13,0 °C 88 % 1018,3 hPa 0,0 mm 0,0 km/h (0 Bft) S 186 ° 0 min 0,000 mm 0,0 UV-I 0 W/m² 11,1 °C 13,0 °C 0,0 km/h (0 Bft)
02.10.2017 18:48 12,9 °C 13,0 °C 88 % 1018,3 hPa 0,0 mm 0,0 km/h (0 Bft) S 186 ° 0 min 0,000 mm 0,0 UV-I 0 W/m² 11,0 °C 12,9 °C 0,0 km/h (0 Bft)
02.10.2017 18:49 12,9 °C 12,9 °C 88 % 1018,3 hPa 0,0 mm 0,0 km/h (0 Bft) S 186 ° 0 min 0,000 mm 0,0 UV-I 0 W/m² 11,0 °C 12,9 °C 0,0 km/h (0 Bft)
02.10.2017 18:50 12,9 °C 12,9 °C 89 % 1018,3 hPa 0,0 mm 0,0 km/h (0 Bft) N 0 ° 0 min 0,000 mm 0,0 UV-I 0 W/m² 11,1 °C 12,9 °C 0,0 km/h (0 Bft)
02.10.2017 18:52 12,9 °C 12,9 °C 89 % 1018,4 hPa 0,0 mm 0,0 km/h (0 Bft) S 186 ° 0 min 0,000 mm 0,0 UV-I 0 W/m² 11,1 °C 12,9 °C 0,0 km/h (0 Bft)
02.10.2017 18:53 12,9 °C 12,9 °C 89 % 1018,4 hPa 0,0 mm 0,0 km/h (0 Bft) S 186 ° 0 min 0,000 mm 0,0 UV-I 0 W/m² 11,1 °C 12,9 °C 0,0 km/h (0 Bft)
02.10.2017 18:54 12,9 °C 12,9 °C 89 % 1018,4 hPa 0,0 mm 0,0 km/h (0 Bft) S 186 ° 0 min 0,000 mm 0,0 UV-I 0 W/m² 11,1 °C 12,9 °C 0,0 km/h (0 Bft)
02.10.2017 18:55 12,9 °C 12,9 °C 89 % 1018,4 hPa 0,0 mm 2,5 km/h (1 Bft) S 186 ° 0 min 0,000 mm 0,0 UV-I 0 W/m² 11,1 °C 12,9 °C 6,4 km/h (2 Bft)
02.10.2017 18:56 13,1 °C 13,1 °C 89 % 1018,4 hPa 0,0 mm 0,0 km/h (0 Bft) S 186 ° 0 min 0,000 mm 0,0 UV-I 0 W/m² 11,3 °C 13,1 °C 0,0 km/h (0 Bft)
02.10.2017 18:57 13,1 °C 13,1 °C 88 % 1018,4 hPa 0,0 mm 1,8 km/h (1 Bft) S 186 ° 0 min 0,000 mm 0,0 UV-I 0 W/m² 11,2 °C 13,1 °C 3,2 km/h (1 Bft)
02.10.2017 18:58 13,1 °C 13,1 °C 88 % 1018,4 hPa 0,0 mm 0,0 km/h (0 Bft) S 186 ° 0 min 0,000 mm 0,0 UV-I 0 W/m² 11,2 °C 13,1 °C 0,0 km/h (0 Bft)
02.10.2017 18:59 13,1 °C 13,1 °C 88 % 1018,4 hPa 0,0 mm 2,3 km/h (1 Bft) S-SW 192 ° 0 min 0,000 mm 0,0 UV-I 0 W/m² 11,2 °C 13,1 °C 6,4 km/h (2 Bft)
02.10.2017 19:00 13,1 °C 13,1 °C 88 % 1018,4 hPa 0,0 mm 2,5 km/h (1 Bft) S-SW 192 ° 0 min 0,000 mm 0,0 UV-I 0 W/m² 11,2 °C 13,1 °C 4,8 km/h (1 Bft)
02.10.2017 19:01 13,1 °C 13,1 °C 88 % 1018,4 hPa 0,0 mm 1,3 km/h (1 Bft) S-SW 192 ° 0 min 0,000 mm 0,0 UV-I 0 W/m² 11,2 °C 13,1 °C 3,2 km/h (1 Bft)
02.10.2017 19:02 13,1 °C 13,2 °C 88 % 1018,4 hPa 0,0 mm 0,2 km/h (0 Bft) S-SW 192 ° 0 min 0,000 mm 0,0 UV-I 0 W/m² 11,2 °C 13,1 °C 1,6 km/h (1 Bft)
02.10.2017 19:03 13,1 °C 13,1 °C 88 % 1018,4 hPa 0,0 mm 0,6 km/h (0 Bft) S-SW 192 ° 0 min 0,000 mm 0,0 UV-I 0 W/m² 11,2 °C 13,1 °C 1,6 km/h (1 Bft)
02.10.2017 19:04 13,1 °C 13,1 °C 88 % 1018,4 hPa 0,0 mm 1,5 km/h (1 Bft) S-SW 192 ° 0 min 0,000 mm 0,0 UV-I 0 W/m² 11,2 °C 13,1 °C 4,8 km/h (1 Bft)
02.10.2017 19:05 13,1 °C 13,1 °C 88 % 1018,3 hPa 0,0 mm 2,1 km/h (1 Bft) S-SW 192 ° 0 min 0,000 mm 0,0 UV-I 0 W/m² 11,2 °C 13,1 °C 4,8 km/h (1 Bft)
02.10.2017 19:06 13,1 °C 13,1 °C 88 % 1018,3 hPa 0,0 mm 2,7 km/h (1 Bft) S 184 ° 0 min 0,000 mm 0,0 UV-I 0 W/m² 11,2 °C 13,1 °C 4,8 km/h (1 Bft)
02.10.2017 19:07 13,1 °C 13,1 °C 88 % 1018,3 hPa 0,0 mm 3,1 km/h (1 Bft) S 191 ° 0 min 0,000 mm 0,0 UV-I 0 W/m² 11,2 °C 13,1 °C 6,4 km/h (2 Bft)
02.10.2017 19:08 13,1 °C 13,1 °C 88 % 1018,3 hPa 0,0 mm 1,8 km/h (1 Bft) S 191 ° 0 min 0,000 mm 0,0 UV-I 0 W/m² 11,2 °C 13,1 °C 4,8 km/h (1 Bft)
02.10.2017 19:09 13,1 °C 13,1 °C 88 % 1018,3 hPa 0,0 mm 0,3 km/h (0 Bft) S 191 ° 0 min 0,000 mm 0,0 UV-I 0 W/m² 11,2 °C 13,1 °C 1,6 km/h (1 Bft)
02.10.2017 19:10 13,1 °C 13,1 °C 88 % 1018,3 hPa 0,0 mm 0,0 km/h (0 Bft) S 191 ° 0 min 0,000 mm 0,0 UV-I 0 W/m² 11,2 °C 13,1 °C 0,0 km/h (0 Bft)
02.10.2017 19:11 13,1 °C 13,1 °C 88 % 1018,3 hPa 0,0 mm 0,0 km/h (0 Bft) S 191 ° 0 min 0,000 mm 0,0 UV-I 0 W/m² 11,2 °C 13,1 °C 0,0 km/h (0 Bft)
02.10.2017 19:12 13,1 °C 13,1 °C 88 % 1018,3 hPa 0,0 mm 0,0 km/h (0 Bft) S 191 ° 0 min 0,000 mm 0,0 UV-I 0 W/m² 11,2 °C 13,1 °C 0,0 km/h (0 Bft)
02.10.2017 19:13 13,1 °C 13,1 °C 88 % 1018,3 hPa 0,0 mm 0,0 km/h (0 Bft) S 191 ° 0 min 0,000 mm 0,0 UV-I 0 W/m² 11,2 °C 13,1 °C 0,0 km/h (0 Bft)
02.10.2017 19:14 13,1 °C 13,1 °C 89 % 1018,3 hPa 0,0 mm 0,0 km/h (0 Bft) S 191 ° 0 min 0,000 mm 0,0 UV-I 0 W/m² 11,3 °C 13,1 °C 0,0 km/h (0 Bft)
02.10.2017 19:15 13,0 °C 13,1 °C 89 % 1018,3 hPa 0,0 mm 0,5 km/h (0 Bft) S 191 ° 0 min 0,000 mm 0,0 UV-I 0 W/m² 11,2 °C 13,0 °C 3,2 km/h (1 Bft)
02.10.2017 19:16 13,0 °C 13,0 °C 89 % 1018,3 hPa 0,0 mm 2,5 km/h (1 Bft) S 177 ° 0 min 0,000 mm 0,0 UV-I 0 W/m² 11,2 °C 13,0 °C 4,8 km/h (1 Bft)
02.10.2017 19:17 12,9 °C 13,0 °C 89 % 1018,3 hPa 0,0 mm 0,5 km/h (0 Bft) S 177 ° 0 min 0,000 mm 0,0 UV-I 0 W/m² 11,1 °C 12,9 °C 1,6 km/h (1 Bft)
02.10.2017 19:18 12,9 °C 12,9 °C 89 % 1018,3 hPa 0,2 mm 0,1 km/h (0 Bft) S 177 ° 0 min 0,000 mm 0,0 UV-I 0 W/m² 11,1 °C 12,9 °C 1,6 km/h (1 Bft)
02.10.2017 19:19 12,9 °C 12,9 °C 89 % 1018,3 hPa 0,0 mm 0,1 km/h (0 Bft) S 178 ° 0 min 0,000 mm 0,0 UV-I 0 W/m² 11,1 °C 12,9 °C 1,6 km/h (1 Bft)
02.10.2017 19:20 12,8 °C 12,9 °C 89 % 1018,3 hPa 0,0 mm 0,0 km/h (0 Bft) S 178 ° 0 min 0,000 mm 0,0 UV-I 0 W/m² 11,0 °C 12,8 °C 0,0 km/h (0 Bft)
02.10.2017 19:21 12,8 °C 12,8 °C 90 % 1018,3 hPa 0,0 mm 0,1 km/h (0 Bft) S 178 ° 0 min 0,000 mm 0,0 UV-I 0 W/m² 11,2 °C 12,8 °C 1,6 km/h (1 Bft)
02.10.2017 19:22 12,7 °C 12,8 °C 90 % 1018,3 hPa 0,0 mm 2,1 km/h (1 Bft) W-SW 246 ° 0 min 0,000 mm 0,0 UV-I 0 W/m² 11,1 °C 12,7 °C 4,8 km/h (1 Bft)
02.10.2017 19:23 12,7 °C 12,7 °C 90 % 1018,3 hPa 0,0 mm 0,3 km/h (0 Bft) W-SW 246 ° 0 min 0,000 mm 0,0 UV-I 0 W/m² 11,1 °C 12,7 °C 1,6 km/h (1 Bft)
02.10.2017 19:24 12,6 °C 12,7 °C 90 % 1018,3 hPa 0,0 mm 0,1 km/h (0 Bft) W-SW 246 ° 0 min 0,000 mm 0,0 UV-I 0 W/m² 11,0 °C 12,6 °C 1,6 km/h (1 Bft)
02.10.2017 19:25 12,5 °C 12,6 °C 91 % 1018,3 hPa 0,0 mm 0,0 km/h (0 Bft) W-SW 246 ° 0 min 0,000 mm 0,0 UV-I 0 W/m² 11,1 °C 12,5 °C 0,0 km/h (0 Bft)
02.10.2017 19:26 12,4 °C 12,5 °C 91 % 1018,4 hPa 0,0 mm 0,0 km/h (0 Bft) W-SW 246 ° 0 min 0,000 mm 0,0 UV-I 0 W/m² 11,0 °C 12,4 °C 0,0 km/h (0 Bft)
02.10.2017 19:27 12,4 °C 12,4 °C 91 % 1018,4 hPa 0,0 mm 0,0 km/h (0 Bft) W-SW 246 ° 0 min 0,000 mm 0,0 UV-I 0 W/m² 11,0 °C 12,4 °C 0,0 km/h (0 Bft)
02.10.2017 19:29 12,3 °C 12,4 °C 91 % 1018,4 hPa 0,0 mm 0,2 km/h (0 Bft) W-SW 246 ° 0 min 0,000 mm 0,0 UV-I 0 W/m² 10,9 °C 12,3 °C 1,6 km/h (1 Bft)
02.10.2017 19:30 12,2 °C 12,3 °C 91 % 1018,4 hPa 0,0 mm 0,0 km/h (0 Bft) W-SW 246 ° 0 min 0,000 mm 0,0 UV-I 0 W/m² 10,8 °C 12,2 °C 0,0 km/h (0 Bft)
02.10.2017 19:31 12,2 °C 12,2 °C 92 % 1018,4 hPa 0,0 mm 0,9 km/h (0 Bft) SW 233 ° 0 min 0,000 mm 0,0 UV-I 0 W/m² 10,9 °C 12,2 °C 3,2 km/h (1 Bft)
02.10.2017 19:32 12,2 °C 12,2 °C 91 % 1018,4 hPa 0,0 mm 0,3 km/h (0 Bft) SW 233 ° 0 min 0,000 mm 0,0 UV-I 0 W/m² 10,8 °C 12,2 °C 1,6 km/h (1 Bft)
02.10.2017 19:33 12,2 °C 12,2 °C 92 % 1018,4 hPa 0,0 mm 0,0 km/h (0 Bft) SW 233 ° 0 min 0,000 mm 0,0 UV-I 0 W/m² 10,9 °C 12,2 °C 0,0 km/h (0 Bft)
02.10.2017 19:34 12,2 °C 12,2 °C 92 % 1018,3 hPa 0,0 mm 0,0 km/h (0 Bft) SW 233 ° 0 min 0,000 mm 0,0 UV-I 0 W/m² 10,9 °C 12,2 °C 0,0 km/h (0 Bft)
02.10.2017 19:35 12,1 °C 12,2 °C 92 % 1018,4 hPa 0,0 mm 0,0 km/h (0 Bft) SW 233 ° 0 min 0,000 mm 0,0 UV-I 0 W/m² 10,8 °C 12,1 °C 0,0 km/h (0 Bft)
02.10.2017 19:36 12,1 °C 12,1 °C 92 % 1018,3 hPa 0,0 mm 0,0 km/h (0 Bft) SW 233 ° 0 min 0,000 mm 0,0 UV-I 0 W/m² 10,8 °C 12,1 °C 0,0 km/h (0 Bft)
02.10.2017 19:37 12,1 °C 12,1 °C 92 % 1018,4 hPa 0,0 mm 0,0 km/h (0 Bft) SW 233 ° 0 min 0,000 mm 0,0 UV-I 0 W/m² 10,8 °C 12,1 °C 0,0 km/h (0 Bft)
02.10.2017 19:38 12,1 °C 12,1 °C 92 % 1018,3 hPa 0,0 mm 1,0 km/h (0 Bft) SW 233 ° 0 min 0,000 mm 0,0 UV-I 0 W/m² 10,8 °C 12,1 °C 3,2 km/h (1 Bft)
02.10.2017 19:39 12,1 °C 12,1 °C 92 % 1018,3 hPa 0,0 mm 0,2 km/h (0 Bft) SW 233 ° 0 min 0,000 mm 0,0 UV-I 0 W/m² 10,8 °C 12,1 °C 1,6 km/h (1 Bft)
02.10.2017 19:40 12,0 °C 12,1 °C 92 % 1018,3 hPa 0,0 mm 0,0 km/h (0 Bft) SW 233 ° 0 min 0,000 mm 0,0 UV-I 0 W/m² 10,7 °C 12,0 °C 0,0 km/h (0 Bft)
02.10.2017 19:41 12,0 °C 12,0 °C 92 % 1018,2 hPa 0,0 mm 0,2 km/h (0 Bft) SW 232 ° 0 min 0,000 mm 0,0 UV-I 0 W/m² 10,7 °C 12,0 °C 3,2 km/h (1 Bft)
02.10.2017 19:42 12,0 °C 12,0 °C 92 % 1018,2 hPa 0,0 mm 4,7 km/h (1 Bft) SO 142 ° 0 min 0,000 mm 0,0 UV-I 0 W/m² 10,7 °C 12,0 °C 6,4 km/h (2 Bft)
02.10.2017 19:43 11,9 °C 12,0 °C 92 % 1018,2 hPa 0,0 mm 0,5 km/h (0 Bft) SO 142 ° 0 min 0,000 mm 0,0 UV-I 0 W/m² 10,6 °C 11,9 °C 3,2 km/h (1 Bft)
02.10.2017 19:44 12,0 °C 12,0 °C 93 % 1018,1 hPa 0,0 mm 0,3 km/h (0 Bft) SO 142 ° 0 min 0,000 mm 0,0 UV-I 0 W/m² 10,9 °C 12,0 °C 1,6 km/h (1 Bft)
02.10.2017 19:45 12,0 °C 12,0 °C 93 % 1018,0 hPa 0,0 mm 1,5 km/h (1 Bft) SO 144 ° 0 min 0,000 mm 0,0 UV-I 0 W/m² 10,9 °C 12,0 °C 3,2 km/h (1 Bft)
02.10.2017 19:46 11,9 °C 12,0 °C 93 % 1018,0 hPa 0,0 mm 0,4 km/h (0 Bft) SO 144 ° 0 min 0,000 mm 0,0 UV-I 0 W/m² 10,8 °C 11,9 °C 1,6 km/h (1 Bft)
02.10.2017 19:47 11,9 °C 12,0 °C 93 % 1018,0 hPa 0,0 mm 0,0 km/h (0 Bft) SO 144 ° 0 min 0,000 mm 0,0 UV-I 0 W/m² 10,8 °C 11,9 °C 0,0 km/h (0 Bft)
02.10.2017 19:48 11,9 °C 11,9 °C 93 % 1018,0 hPa 0,0 mm 0,0 km/h (0 Bft) SO 144 ° 0 min 0,000 mm 0,0 UV-I 0 W/m² 10,8 °C 11,9 °C 0,0 km/h (0 Bft)
02.10.2017 19:49 11,9 °C 12,0 °C 93 % 1018,0 hPa 0,0 mm 1,0 km/h (0 Bft) SO 144 ° 0 min 0,000 mm 0,0 UV-I 0 W/m² 10,8 °C 11,9 °C 3,2 km/h (1 Bft)
02.10.2017 19:50 11,9 °C 11,9 °C 93 % 1018,0 hPa 0,0 mm 1,4 km/h (1 Bft) SO 144 ° 0 min 0,000 mm 0,0 UV-I 0 W/m² 10,8 °C 11,9 °C 3,2 km/h (1 Bft)
02.10.2017 19:51 11,9 °C 11,9 °C 93 % 1017,9 hPa 0,0 mm 0,2 km/h (0 Bft) SO 144 ° 0 min 0,000 mm 0,0 UV-I 0 W/m² 10,8 °C 11,9 °C 1,6 km/h (1 Bft)
02.10.2017 19:52 11,9 °C 11,9 °C 93 % 1017,9 hPa 0,0 mm 0,8 km/h (0 Bft) SO 144 ° 0 min 0,000 mm 0,0 UV-I 0 W/m² 10,8 °C 11,9 °C 1,6 km/h (1 Bft)
02.10.2017 19:53 12,0 °C 12,0 °C 93 % 1018,0 hPa 0,0 mm 1,1 km/h (1 Bft) SO 144 ° 0 min 0,000 mm 0,0 UV-I 0 W/m² 10,9 °C 12,0 °C 3,2 km/h (1 Bft)
02.10.2017 19:54 12,0 °C 12,0 °C 93 % 1017,9 hPa 0,0 mm 0,2 km/h (0 Bft) SO 144 ° 0 min 0,000 mm 0,0 UV-I 0 W/m² 10,9 °C 12,0 °C 1,6 km/h (1 Bft)
02.10.2017 19:55 12,1 °C 12,1 °C 93 % 1017,9 hPa 0,0 mm 0,1 km/h (0 Bft) SO 144 ° 0 min 0,000 mm 0,0 UV-I 0 W/m² 11,0 °C 12,1 °C 1,6 km/h (1 Bft)
02.10.2017 19:56 12,1 °C 12,1 °C 92 % 1018,0 hPa 0,0 mm 0,0 km/h (0 Bft) SO 144 ° 0 min 0,000 mm 0,0 UV-I 0 W/m² 10,8 °C 12,1 °C 0,0 km/h (0 Bft)
02.10.2017 19:57 12,1 °C 12,1 °C 92 % 1018,0 hPa 0,0 mm 0,0 km/h (0 Bft) SO 144 ° 0 min 0,000 mm 0,0 UV-I 0 W/m² 10,8 °C 12,1 °C 0,0 km/h (0 Bft)
02.10.2017 19:58 12,1 °C 12,1 °C 92 % 1017,9 hPa 0,0 mm 0,0 km/h (0 Bft) SO 144 ° 0 min 0,000 mm 0,0 UV-I 0 W/m² 10,8 °C 12,1 °C 0,0 km/h (0 Bft)
02.10.2017 19:59 12,1 °C 12,1 °C 92 % 1018,0 hPa 0,0 mm 0,0 km/h (0 Bft) SO 144 ° 0 min 0,000 mm 0,0 UV-I 0 W/m² 10,8 °C 12,1 °C 0,0 km/h (0 Bft)
02.10.2017 20:00 12,1 °C 12,1 °C 92 % 1018,0 hPa 0,0 mm 0,0 km/h (0 Bft) SO 144 ° 0 min 0,000 mm 0,0 UV-I 0 W/m² 10,8 °C 12,1 °C 0,0 km/h (0 Bft)
02.10.2017 20:01 12,1 °C 12,1 °C 92 % 1018,0 hPa 0,0 mm 0,0 km/h (0 Bft) SO 144 ° 0 min 0,000 mm 0,0 UV-I 0 W/m² 10,8 °C 12,1 °C 0,0 km/h (0 Bft)
02.10.2017 20:02 12,1 °C 12,1 °C 92 % 1018,2 hPa 0,0 mm 0,0 km/h (0 Bft) SO 144 ° 0 min 0,000 mm 0,0 UV-I 0 W/m² 10,8 °C 12,1 °C 0,0 km/h (0 Bft)
02.10.2017 20:03 12,1 °C 12,1 °C 92 % 1018,2 hPa 0,0 mm 0,0 km/h (0 Bft) SO 144 ° 0 min 0,000 mm 0,0 UV-I 0 W/m² 10,8 °C 12,1 °C 0,0 km/h (0 Bft)
02.10.2017 20:04 12,1 °C 12,1 °C 92 % 1018,1 hPa 0,0 mm 0,9 km/h (0 Bft) SO 144 ° 0 min 0,000 mm 0,0 UV-I 0 W/m² 10,8 °C 12,1 °C 1,6 km/h (1 Bft)
02.10.2017 20:05 12,1 °C 12,1 °C 92 % 1018,2 hPa 0,0 mm 0,5 km/h (0 Bft) SO 144 ° 0 min 0,000 mm 0,0 UV-I 0 W/m² 10,8 °C 12,1 °C 1,6 km/h (1 Bft)
02.10.2017 20:06 12,2 °C 12,2 °C 92 % 1018,2 hPa 0,0 mm 0,0 km/h (0 Bft) SO 144 ° 0 min 0,000 mm 0,0 UV-I 0 W/m² 10,9 °C 12,2 °C 0,0 km/h (0 Bft)
02.10.2017 20:07 12,2 °C 12,2 °C 92 % 1018,2 hPa 0,0 mm 0,0 km/h (0 Bft) SO 144 ° 0 min 0,000 mm 0,0 UV-I 0 W/m² 10,9 °C 12,2 °C 0,0 km/h (0 Bft)
02.10.2017 20:09 12,2 °C 12,2 °C 92 % 1018,0 hPa 0,0 mm 2,5 km/h (1 Bft) O-SO 123 ° 0 min 0,000 mm 0,0 UV-I 0 W/m² 10,9 °C 12,2 °C 6,4 km/h (2 Bft)
02.10.2017 20:10 12,2 °C 12,2 °C 92 % 1018,0 hPa 0,0 mm 4,9 km/h (1 Bft) O-SO 114 ° 0 min 0,000 mm 0,0 UV-I 0 W/m² 10,9 °C 12,2 °C 6,4 km/h (2 Bft)
02.10.2017 20:11 12,2 °C 12,2 °C 91 % 1018,1 hPa 0,0 mm 3,3 km/h (1 Bft) O-SO 114 ° 0 min 0,000 mm 0,0 UV-I 0 W/m² 10,8 °C 12,2 °C 4,8 km/h (1 Bft)
02.10.2017 20:12 12,2 °C 12,2 °C 91 % 1018,2 hPa 0,0 mm 0,0 km/h (0 Bft) O-SO 114 ° 0 min 0,000 mm 0,0 UV-I 0 W/m² 10,8 °C 12,2 °C 0,0 km/h (0 Bft)
02.10.2017 20:13 12,2 °C 12,3 °C 91 % 1018,2 hPa 0,0 mm 0,0 km/h (0 Bft) O-SO 114 ° 0 min 0,000 mm 0,0 UV-I 0 W/m² 10,8 °C 12,2 °C 0,0 km/h (0 Bft)
02.10.2017 20:14 12,3 °C 12,3 °C 91 % 1018,1 hPa 0,0 mm 2,4 km/h (1 Bft) N-NW 340 ° 0 min 0,000 mm 0,0 UV-I 0 W/m² 10,9 °C 12,3 °C 4,8 km/h (1 Bft)
02.10.2017 20:15 12,3 °C 12,3 °C 92 % 1018,1 hPa 0,0 mm 1,7 km/h (1 Bft) N-NW 340 ° 0 min 0,000 mm 0,0 UV-I 0 W/m² 11,0 °C 12,3 °C 3,2 km/h (1 Bft)
02.10.2017 20:16 12,3 °C 12,3 °C 92 % 1018,1 hPa 0,0 mm 0,0 km/h (0 Bft) N-NW 340 ° 0 min 0,000 mm 0,0 UV-I 0 W/m² 11,0 °C 12,3 °C 0,0 km/h (0 Bft)
02.10.2017 20:17 12,3 °C 12,3 °C 92 % 1018,1 hPa 0,0 mm 0,0 km/h (0 Bft) N-NW 340 ° 0 min 0,000 mm 0,0 UV-I 0 W/m² 11,0 °C 12,3 °C 0,0 km/h (0 Bft)
02.10.2017 20:18 12,3 °C 12,3 °C 92 % 1018,1 hPa 0,0 mm 0,0 km/h (0 Bft) N-NW 340 ° 0 min 0,000 mm 0,0 UV-I 0 W/m² 11,0 °C 12,3 °C 0,0 km/h (0 Bft)
02.10.2017 20:19 12,3 °C 12,3 °C 92 % 1018,1 hPa 0,0 mm 0,0 km/h (0 Bft) N-NW 340 ° 0 min 0,000 mm 0,0 UV-I 0 W/m² 11,0 °C 12,3 °C 0,0 km/h (0 Bft)
02.10.2017 20:20 12,3 °C 12,3 °C 92 % 1018,1 hPa 0,0 mm 0,0 km/h (0 Bft) N-NW 340 ° 0 min 0,000 mm 0,0 UV-I 0 W/m² 11,0 °C 12,3 °C 0,0 km/h (0 Bft)
02.10.2017 20:21 12,3 °C 12,3 °C 92 % 1018,1 hPa 0,0 mm 0,0 km/h (0 Bft) N-NW 340 ° 0 min 0,000 mm 0,0 UV-I 0 W/m² 11,0 °C 12,3 °C 0,0 km/h (0 Bft)
02.10.2017 20:22 12,3 °C 12,3 °C 92 % 1018,1 hPa 0,0 mm 0,0 km/h (0 Bft) N-NW 340 ° 0 min 0,000 mm 0,0 UV-I 0 W/m² 11,0 °C 12,3 °C 0,0 km/h (0 Bft)
02.10.2017 20:23 12,2 °C 12,3 °C 92 % 1018,1 hPa 0,0 mm 0,0 km/h (0 Bft) N-NW 340 ° 0 min 0,000 mm 0,0 UV-I 0 W/m² 10,9 °C 12,2 °C 0,0 km/h (0 Bft)
02.10.2017 20:24 12,2 °C 12,2 °C 92 % 1018,1 hPa 0,0 mm 0,0 km/h (0 Bft) N-NW 340 ° 0 min 0,000 mm 0,0 UV-I 0 W/m² 10,9 °C 12,2 °C 0,0 km/h (0 Bft)
02.10.2017 20:25 12,2 °C 12,2 °C 92 % 1018,1 hPa 0,0 mm 0,0 km/h (0 Bft) N-NW 341 ° 0 min 0,000 mm 0,0 UV-I 0 W/m² 10,9 °C 12,2 °C 0,0 km/h (0 Bft)
02.10.2017 20:26 12,2 °C 12,2 °C 92 % 1018,1 hPa 0,0 mm 0,0 km/h (0 Bft) N-NW 341 ° 0 min 0,000 mm 0,0 UV-I 0 W/m² 10,9 °C 12,2 °C 0,0 km/h (0 Bft)
02.10.2017 20:27 12,1 °C 12,2 °C 92 % 1018,1 hPa 0,0 mm 0,0 km/h (0 Bft) N-NW 341 ° 0 min 0,000 mm 0,0 UV-I 0 W/m² 10,8 °C 12,1 °C 0,0 km/h (0 Bft)
02.10.2017 20:28 12,1 °C 12,1 °C 92 % 1018,0 hPa 0,0 mm 0,0 km/h (0 Bft) N-NW 341 ° 0 min 0,000 mm 0,0 UV-I 0 W/m² 10,8 °C 12,1 °C 0,0 km/h (0 Bft)
02.10.2017 20:29 12,1 °C 12,1 °C 92 % 1018,0 hPa 0,0 mm 0,0 km/h (0 Bft) N-NW 341 ° 0 min 0,000 mm 0,0 UV-I 0 W/m² 10,8 °C 12,1 °C 0,0 km/h (0 Bft)
02.10.2017 20:30 12,1 °C 12,1 °C 92 % 1018,0 hPa 0,0 mm 0,0 km/h (0 Bft) N-NW 341 ° 0 min 0,000 mm 0,0 UV-I 0 W/m² 10,8 °C 12,1 °C 0,0 km/h (0 Bft)
02.10.2017 20:31 12,1 °C 12,1 °C 92 % 1018,0 hPa 0,0 mm 0,0 km/h (0 Bft) N-NW 341 ° 0 min 0,000 mm 0,0 UV-I 0 W/m² 10,8 °C 12,1 °C 0,0 km/h (0 Bft)
02.10.2017 20:32 12,1 °C 12,1 °C 92 % 1018,0 hPa 0,0 mm 0,0 km/h (0 Bft) N-NW 341 ° 0 min 0,000 mm 0,0 UV-I 0 W/m² 10,8 °C 12,1 °C 0,0 km/h (0 Bft)
02.10.2017 20:33 12,1 °C 12,1 °C 92 % 1018,0 hPa 0,0 mm 0,0 km/h (0 Bft) N-NW 341 ° 0 min 0,000 mm 0,0 UV-I 0 W/m² 10,8 °C 12,1 °C 0,0 km/h (0 Bft)
02.10.2017 20:34 12,1 °C 12,1 °C 92 % 1018,1 hPa 0,0 mm 1,9 km/h (1 Bft) N-NW 341 ° 0 min 0,000 mm 0,0 UV-I 0 W/m² 10,8 °C 12,1 °C 3,2 km/h (1 Bft)
02.10.2017 20:35 12,1 °C 12,1 °C 92 % 1018,0 hPa 0,0 mm 0,3 km/h (0 Bft) N-NW 341 ° 0 min 0,000 mm 0,0 UV-I 0 W/m² 10,8 °C 12,1 °C 1,6 km/h (1 Bft)
02.10.2017 20:36 12,1 °C 12,1 °C 92 % 1018,0 hPa 0,0 mm 0,0 km/h (0 Bft) N-NW 341 ° 0 min 0,000 mm 0,0 UV-I 0 W/m² 10,8 °C 12,1 °C 0,0 km/h (0 Bft)
02.10.2017 20:37 12,1 °C 12,1 °C 92 % 1018,1 hPa 0,0 mm 0,0 km/h (0 Bft) N-NW 341 ° 0 min 0,000 mm 0,0 UV-I 0 W/m² 10,8 °C 12,1 °C 0,0 km/h (0 Bft)
02.10.2017 20:38 12,1 °C 12,1 °C 92 % 1018,0 hPa 0,0 mm 1,1 km/h (1 Bft) N-NW 341 ° 0 min 0,000 mm 0,0 UV-I 0 W/m² 10,8 °C 12,1 °C 3,2 km/h (1 Bft)
02.10.2017 20:39 12,1 °C 12,1 °C 92 % 1018,1 hPa 0,0 mm 1,3 km/h (1 Bft) N-NW 340 ° 0 min 0,000 mm 0,0 UV-I 0 W/m² 10,8 °C 12,1 °C 3,2 km/h (1 Bft)
02.10.2017 20:40 12,1 °C 12,1 °C 92 % 1018,0 hPa 0,0 mm 0,0 km/h (0 Bft) N-NW 340 ° 0 min 0,000 mm 0,0 UV-I 0 W/m² 10,8 °C 12,1 °C 0,0 km/h (0 Bft)
02.10.2017 20:41 12,1 °C 12,1 °C 92 % 1018,1 hPa 0,0 mm 0,0 km/h (0 Bft) N-NW 340 ° 0 min 0,000 mm 0,0 UV-I 0 W/m² 10,8 °C 12,1 °C 0,0 km/h (0 Bft)
02.10.2017 20:42 12,1 °C 12,1 °C 92 % 1018,1 hPa 0,0 mm 0,0 km/h (0 Bft) N-NW 340 ° 0 min 0,000 mm 0,0 UV-I 0 W/m² 10,8 °C 12,1 °C 0,0 km/h (0 Bft)
02.10.2017 20:43 12,1 °C 12,1 °C 92 % 1018,1 hPa 0,0 mm 0,8 km/h (0 Bft) N-NW 341 ° 0 min 0,000 mm 0,0 UV-I 0 W/m² 10,8 °C 12,1 °C 3,2 km/h (1 Bft)
02.10.2017 20:44 12,1 °C 12,1 °C 92 % 1018,0 hPa 0,0 mm 4,5 km/h (1 Bft) S-SO 148 ° 0 min 0,000 mm 0,0 UV-I 0 W/m² 10,8 °C 12,1 °C 4,8 km/h (1 Bft)
02.10.2017 20:45 12,1 °C 12,1 °C 92 % 1018,0 hPa 0,0 mm 3,9 km/h (1 Bft) SO 146 ° 0 min 0,000 mm 0,0 UV-I 0 W/m² 10,8 °C 12,1 °C 6,4 km/h (2 Bft)
02.10.2017 20:46 12,1 °C 12,1 °C 92 % 1018,0 hPa 0,0 mm 2,0 km/h (1 Bft) SO 146 ° 0 min 0,000 mm 0,0 UV-I 0 W/m² 10,8 °C 12,1 °C 3,2 km/h (1 Bft)
02.10.2017 20:47 12,1 °C 12,1 °C 92 % 1018,0 hPa 0,0 mm 0,6 km/h (0 Bft) SO 146 ° 0 min 0,000 mm 0,0 UV-I 0 W/m² 10,8 °C 12,1 °C 3,2 km/h (1 Bft)
02.10.2017 20:48 12,1 °C 12,1 °C 92 % 1018,1 hPa 0,0 mm 0,0 km/h (0 Bft) SO 146 ° 0 min 0,000 mm 0,0 UV-I 0 W/m² 10,8 °C 12,1 °C 0,0 km/h (0 Bft)
02.10.2017 20:49 12,2 °C 12,2 °C 92 % 1018,1 hPa 0,0 mm 2,7 km/h (1 Bft) S-SO 147 ° 0 min 0,000 mm 0,0 UV-I 0 W/m² 10,9 °C 12,2 °C 4,8 km/h (1 Bft)
02.10.2017 20:50 12,2 °C 12,2 °C 92 % 1018,1 hPa 0,0 mm 0,1 km/h (0 Bft) S-SO 147 ° 0 min 0,000 mm 0,0 UV-I 0 W/m² 10,9 °C 12,2 °C 1,6 km/h (1 Bft)
02.10.2017 20:51 12,1 °C 12,2 °C 92 % 1018,1 hPa 0,0 mm 1,3 km/h (1 Bft) S-SO 147 ° 0 min 0,000 mm 0,0 UV-I 0 W/m² 10,8 °C 12,1 °C 3,2 km/h (1 Bft)
02.10.2017 20:52 12,1 °C 12,2 °C 92 % 1018,1 hPa 0,0 mm 0,0 km/h (0 Bft) S-SO 147 ° 0 min 0,000 mm 0,0 UV-I 0 W/m² 10,8 °C 12,1 °C 0,0 km/h (0 Bft)
02.10.2017 20:53 12,1 °C 12,1 °C 92 % 1018,1 hPa 0,0 mm 0,0 km/h (0 Bft) S-SO 147 ° 0 min 0,000 mm 0,0 UV-I 0 W/m² 10,8 °C 12,1 °C 0,0 km/h (0 Bft)
02.10.2017 20:54 12,1 °C 12,1 °C 92 % 1018,2 hPa 0,0 mm 0,6 km/h (0 Bft) SW 225 ° 0 min 0,000 mm 0,0 UV-I 0 W/m² 10,8 °C 12,1 °C 3,2 km/h (1 Bft)
02.10.2017 20:55 12,1 °C 12,1 °C 92 % 1018,3 hPa 0,0 mm 1,3 km/h (1 Bft) SW 227 ° 0 min 0,000 mm 0,0 UV-I 0 W/m² 10,8 °C 12,1 °C 4,8 km/h (1 Bft)
02.10.2017 20:56 12,1 °C 12,1 °C 92 % 1018,2 hPa 0,0 mm 1,5 km/h (1 Bft) SW 217 ° 0 min 0,000 mm 0,0 UV-I 0 W/m² 10,8 °C 12,1 °C 3,2 km/h (1 Bft)
02.10.2017 20:57 12,1 °C 12,1 °C 92 % 1018,2 hPa 0,0 mm 1,2 km/h (1 Bft) SW 216 ° 0 min 0,000 mm 0,0 UV-I 0 W/m² 10,8 °C 12,1 °C 3,2 km/h (1 Bft)
02.10.2017 20:58 12,2 °C 12,2 °C 92 % 1018,2 hPa 0,0 mm 5,3 km/h (1 Bft) S-SW 196 ° 0 min 0,000 mm 0,0 UV-I 0 W/m² 10,9 °C 12,2 °C 9,7 km/h (2 Bft)
02.10.2017 20:59 12,2 °C 12,2 °C 92 % 1018,2 hPa 0,0 mm 4,8 km/h (1 Bft) S-SW 198 ° 0 min 0,000 mm 0,0 UV-I 0 W/m² 10,9 °C 12,2 °C 6,4 km/h (2 Bft)
02.10.2017 21:00 12,2 °C 12,2 °C 92 % 1018,2 hPa 0,0 mm 1,6 km/h (1 Bft) S-SW 198 ° 0 min 0,000 mm 0,0 UV-I 0 W/m² 10,9 °C 12,2 °C 3,2 km/h (1 Bft)
02.10.2017 21:01 12,3 °C 12,3 °C 91 % 1018,2 hPa 0,0 mm 0,8 km/h (0 Bft) S-SW 198 ° 0 min 0,000 mm 0,0 UV-I 0 W/m² 10,9 °C 12,3 °C 1,6 km/h (1 Bft)
02.10.2017 21:02 12,4 °C 12,4 °C 91 % 1018,2 hPa 0,0 mm 1,5 km/h (1 Bft) S-SW 193 ° 0 min 0,000 mm 0,0 UV-I 0 W/m² 11,0 °C 12,4 °C 8,0 km/h (2 Bft)
02.10.2017 21:03 12,5 °C 12,5 °C 90 % 1018,3 hPa 0,0 mm 6,8 km/h (2 Bft) S-SW 192 ° 0 min 0,000 mm 0,0 UV-I 0 W/m² 10,9 °C 12,5 °C 9,7 km/h (2 Bft)
02.10.2017 21:04 12,6 °C 12,6 °C 90 % 1018,3 hPa 0,0 mm 8,2 km/h (2 Bft) S-SW 211 ° 0 min 0,000 mm 0,0 UV-I 0 W/m² 11,0 °C 12,6 °C 12,9 km/h (3 Bft)
02.10.2017 21:05 12,7 °C 12,7 °C 90 % 1018,2 hPa 0,0 mm 6,0 km/h (2 Bft) S-SO 159 ° 0 min 0,000 mm 0,0 UV-I 0 W/m² 11,1 °C 12,7 °C 11,3 km/h (2 Bft)
02.10.2017 21:06 12,6 °C 12,7 °C 90 % 1018,2 hPa 0,0 mm 2,1 km/h (1 Bft) S-SO 159 ° 0 min 0,000 mm 0,0 UV-I 0 W/m² 11,0 °C 12,6 °C 3,2 km/h (1 Bft)
02.10.2017 21:07 12,6 °C 12,6 °C 90 % 1018,2 hPa 0,0 mm 1,7 km/h (1 Bft) S-SO 159 ° 0 min 0,000 mm 0,0 UV-I 0 W/m² 11,0 °C 12,6 °C 3,2 km/h (1 Bft)
02.10.2017 21:08 12,6 °C 12,6 °C 90 % 1018,2 hPa 0,0 mm 2,4 km/h (1 Bft) S-SO 159 ° 0 min 0,000 mm 0,0 UV-I 0 W/m² 11,0 °C 12,6 °C 6,4 km/h (2 Bft)
02.10.2017 21:09 12,5 °C 12,6 °C 90 % 1018,2 hPa 0,0 mm 1,6 km/h (1 Bft) S-SO 161 ° 0 min 0,000 mm 0,0 UV-I 0 W/m² 10,9 °C 12,5 °C 3,2 km/h (1 Bft)
02.10.2017 21:10 12,4 °C 12,5 °C 91 % 1018,1 hPa 0,0 mm 0,1 km/h (0 Bft) S-SO 161 ° 0 min 0,000 mm 0,0 UV-I 0 W/m² 11,0 °C 12,4 °C 1,6 km/h (1 Bft)
02.10.2017 21:11 12,4 °C 12,5 °C 91 % 1018,1 hPa 0,0 mm 1,5 km/h (1 Bft) S-SO 161 ° 0 min 0,000 mm 0,0 UV-I 0 W/m² 11,0 °C 12,4 °C 3,2 km/h (1 Bft)
02.10.2017 21:12 12,4 °C 12,4 °C 91 % 1018,1 hPa 0,0 mm 2,2 km/h (1 Bft) S 180 ° 0 min 0,000 mm 0,0 UV-I 0 W/m² 11,0 °C 12,4 °C 3,2 km/h (1 Bft)
02.10.2017 21:13 12,3 °C 12,4 °C 91 % 1018,2 hPa 0,0 mm 1,9 km/h (1 Bft) S 181 ° 0 min 0,000 mm 0,0 UV-I 0 W/m² 10,9 °C 12,3 °C 3,2 km/h (1 Bft)
02.10.2017 21:14 12,3 °C 12,4 °C 91 % 1018,3 hPa 0,0 mm 4,0 km/h (1 Bft) S 181 ° 0 min 0,000 mm 0,0 UV-I 0 W/m² 10,9 °C 12,3 °C 6,4 km/h (2 Bft)
02.10.2017 21:15 12,4 °C 12,4 °C 91 % 1018,1 hPa 0,0 mm 4,4 km/h (1 Bft) S-SW 198 ° 0 min 0,000 mm 0,0 UV-I 0 W/m² 11,0 °C 12,4 °C 8,0 km/h (2 Bft)
02.10.2017 21:16 12,4 °C 12,4 °C 90 % 1018,1 hPa 0,0 mm 3,6 km/h (1 Bft) S 178 ° 0 min 0,000 mm 0,0 UV-I 0 W/m² 10,8 °C 12,4 °C 4,8 km/h (1 Bft)
02.10.2017 21:17 12,5 °C 12,5 °C 90 % 1018,1 hPa 0,0 mm 5,8 km/h (2 Bft) S-SO 166 ° 0 min 0,000 mm 0,0 UV-I 0 W/m² 10,9 °C 12,5 °C 11,3 km/h (2 Bft)
02.10.2017 21:18 12,5 °C 12,5 °C 90 % 1018,1 hPa 0,2 mm 5,9 km/h (2 Bft) S-SW 202 ° 0 min 0,000 mm 0,0 UV-I 0 W/m² 10,9 °C 12,5 °C 8,0 km/h (2 Bft)
02.10.2017 21:19 12,5 °C 12,5 °C 90 % 1018,1 hPa 0,0 mm 4,2 km/h (1 Bft) S-SW 211 ° 0 min 0,000 mm 0,0 UV-I 0 W/m² 10,9 °C 12,5 °C 6,4 km/h (2 Bft)
02.10.2017 21:20 12,5 °C 12,5 °C 90 % 1018,0 hPa 0,0 mm 3,4 km/h (1 Bft) S 186 ° 0 min 0,000 mm 0,0 UV-I 0 W/m² 10,9 °C 12,5 °C 6,4 km/h (2 Bft)
02.10.2017 21:21 12,5 °C 12,5 °C 90 % 1018,1 hPa 0,0 mm 3,4 km/h (1 Bft) SW 221 ° 0 min 0,000 mm 0,0 UV-I 0 W/m² 10,9 °C 12,5 °C 4,8 km/h (1 Bft)
02.10.2017 21:22 12,5 °C 12,6 °C 90 % 1018,0 hPa 0,0 mm 3,3 km/h (1 Bft) S 182 ° 0 min 0,000 mm 0,0 UV-I 0 W/m² 10,9 °C 12,5 °C 6,4 km/h (2 Bft)
02.10.2017 21:23 12,5 °C 12,5 °C 90 % 1018,0 hPa 0,0 mm 0,5 km/h (0 Bft) S 182 ° 0 min 0,000 mm 0,0 UV-I 0 W/m² 10,9 °C 12,5 °C 3,2 km/h (1 Bft)
02.10.2017 21:24 12,4 °C 12,5 °C 91 % 1018,0 hPa 0,0 mm 0,5 km/h (0 Bft) S 182 ° 0 min 0,000 mm 0,0 UV-I 0 W/m² 11,0 °C 12,4 °C 3,2 km/h (1 Bft)
02.10.2017 21:25 12,4 °C 12,4 °C 91 % 1018,0 hPa 0,0 mm 3,4 km/h (1 Bft) S-SW 203 ° 0 min 0,000 mm 0,0 UV-I 0 W/m² 11,0 °C 12,4 °C 6,4 km/h (2 Bft)
02.10.2017 21:26 12,4 °C 12,4 °C 91 % 1018,0 hPa 0,0 mm 2,5 km/h (1 Bft) S-SW 208 ° 0 min 0,000 mm 0,0 UV-I 0 W/m² 11,0 °C 12,4 °C 4,8 km/h (1 Bft)
02.10.2017 21:27 12,4 °C 12,4 °C 91 % 1018,0 hPa 0,0 mm 0,3 km/h (0 Bft) S-SW 208 ° 0 min 0,000 mm 0,0 UV-I 0 W/m² 11,0 °C 12,4 °C 1,6 km/h (1 Bft)
02.10.2017 21:28 12,4 °C 12,4 °C 91 % 1018,0 hPa 0,0 mm 1,1 km/h (1 Bft) S-SW 208 ° 0 min 0,000 mm 0,0 UV-I 0 W/m² 11,0 °C 12,4 °C 3,2 km/h (1 Bft)
02.10.2017 21:29 12,5 °C 12,5 °C 91 % 1018,1 hPa 0,0 mm 1,6 km/h (1 Bft) S-SW 209 ° 0 min 0,000 mm 0,0 UV-I 0 W/m² 11,1 °C 12,5 °C 3,2 km/h (1 Bft)
02.10.2017 21:30 12,6 °C 12,6 °C 90 % 1018,0 hPa 0,0 mm 2,0 km/h (1 Bft) SW 227 ° 0 min 0,000 mm 0,0 UV-I 0 W/m² 11,0 °C 12,6 °C 3,2 km/h (1 Bft)
02.10.2017 21:31 12,6 °C 12,6 °C 90 % 1018,0 hPa 0,0 mm 2,5 km/h (1 Bft) SW 233 ° 0 min 0,000 mm 0,0 UV-I 0 W/m² 11,0 °C 12,6 °C 4,8 km/h (1 Bft)
02.10.2017 21:32 12,6 °C 12,6 °C 90 % 1018,0 hPa 0,0 mm 0,7 km/h (0 Bft) SW 233 ° 0 min 0,000 mm 0,0 UV-I 0 W/m² 11,0 °C 12,6 °C 3,2 km/h (1 Bft)
02.10.2017 21:33 12,6 °C 12,6 °C 90 % 1018,0 hPa 0,0 mm 2,4 km/h (1 Bft) W-SW 252 ° 0 min 0,000 mm 0,0 UV-I 0 W/m² 11,0 °C 12,6 °C 3,2 km/h (1 Bft)
02.10.2017 21:34 12,6 °C 12,6 °C 91 % 1018,0 hPa 0,0 mm 3,3 km/h (1 Bft) W-SW 255 ° 0 min 0,000 mm 0,0 UV-I 0 W/m² 11,2 °C 12,6 °C 4,8 km/h (1 Bft)
02.10.2017 21:35 12,5 °C 12,6 °C 91 % 1018,0 hPa 0,0 mm 2,4 km/h (1 Bft) SW 236 ° 0 min 0,000 mm 0,0 UV-I 0 W/m² 11,1 °C 12,5 °C 3,2 km/h (1 Bft)
02.10.2017 21:36 12,5 °C 12,5 °C 91 % 1018,1 hPa 0,0 mm 2,0 km/h (1 Bft) SW 236 ° 0 min 0,000 mm 0,0 UV-I 0 W/m² 11,1 °C 12,5 °C 3,2 km/h (1 Bft)
02.10.2017 21:37 12,5 °C 12,6 °C 91 % 1018,1 hPa 0,0 mm 3,4 km/h (1 Bft) W-SW 247 ° 0 min 0,000 mm 0,0 UV-I 0 W/m² 11,1 °C 12,5 °C 4,8 km/h (1 Bft)
02.10.2017 21:38 12,5 °C 12,5 °C 90 % 1018,1 hPa 0,0 mm 1,4 km/h (1 Bft) S-SW 205 ° 0 min 0,000 mm 0,0 UV-I 0 W/m² 10,9 °C 12,5 °C 3,2 km/h (1 Bft)
02.10.2017 21:39 12,5 °C 12,5 °C 90 % 1018,2 hPa 0,0 mm 4,4 km/h (1 Bft) S-SW 193 ° 0 min 0,000 mm 0,0 UV-I 0 W/m² 10,9 °C 12,5 °C 8,0 km/h (2 Bft)
02.10.2017 21:40 12,5 °C 12,5 °C 90 % 1018,2 hPa 0,0 mm 4,9 km/h (1 Bft) S 186 ° 0 min 0,000 mm 0,0 UV-I 0 W/m² 10,9 °C 12,5 °C 8,0 km/h (2 Bft)
02.10.2017 21:41 12,6 °C 12,6 °C 90 % 1018,1 hPa 0,0 mm 1,4 km/h (1 Bft) S 186 ° 0 min 0,000 mm 0,0 UV-I 0 W/m² 11,0 °C 12,6 °C 3,2 km/h (1 Bft)
02.10.2017 21:42 12,6 °C 12,6 °C 91 % 1018,1 hPa 0,0 mm 3,3 km/h (1 Bft) SW 236 ° 0 min 0,000 mm 0,0 UV-I 0 W/m² 11,2 °C 12,6 °C 9,7 km/h (2 Bft)
02.10.2017 21:43 12,6 °C 12,6 °C 91 % 1018,0 hPa 0,0 mm 2,4 km/h (1 Bft) SW 229 ° 0 min 0,000 mm 0,0 UV-I 0 W/m² 11,2 °C 12,6 °C 4,8 km/h (1 Bft)
02.10.2017 21:44 12,7 °C 12,7 °C 90 % 1018,1 hPa 0,0 mm 2,1 km/h (1 Bft) S-SW 195 ° 0 min 0,000 mm 0,0 UV-I 0 W/m² 11,1 °C 12,7 °C 3,2 km/h (1 Bft)
02.10.2017 21:45 12,7 °C 12,7 °C 91 % 1018,0 hPa 0,0 mm 3,2 km/h (1 Bft) W-SW 238 ° 0 min 0,000 mm 0,0 UV-I 0 W/m² 11,3 °C 12,7 °C 6,4 km/h (2 Bft)
02.10.2017 21:46 12,7 °C 12,7 °C 91 % 1018,0 hPa 0,0 mm 3,6 km/h (1 Bft) W 259 ° 0 min 0,000 mm 0,0 UV-I 0 W/m² 11,3 °C 12,7 °C 6,4 km/h (2 Bft)
02.10.2017 21:47 12,7 °C 12,7 °C 91 % 1018,1 hPa 0,0 mm 3,1 km/h (1 Bft) SW 236 ° 0 min 0,000 mm 0,0 UV-I 0 W/m² 11,3 °C 12,7 °C 4,8 km/h (1 Bft)
02.10.2017 21:48 12,8 °C 12,8 °C 91 % 1018,1 hPa 0,0 mm 3,0 km/h (1 Bft) W-SW 239 ° 0 min 0,000 mm 0,0 UV-I 0 W/m² 11,4 °C 12,8 °C 6,4 km/h (2 Bft)
02.10.2017 21:49 12,8 °C 12,8 °C 91 % 1018,0 hPa 0,0 mm 1,4 km/h (1 Bft) W-SW 240 ° 0 min 0,000 mm 0,0 UV-I 0 W/m² 11,4 °C 12,8 °C 3,2 km/h (1 Bft)
02.10.2017 21:50 12,8 °C 12,8 °C 91 % 1018,0 hPa 0,0 mm 1,5 km/h (1 Bft) SW 236 ° 0 min 0,000 mm 0,0 UV-I 0 W/m² 11,4 °C 12,8 °C 3,2 km/h (1 Bft)
02.10.2017 21:51 12,8 °C 12,9 °C 91 % 1018,0 hPa 0,0 mm 1,7 km/h (1 Bft) SW 234 ° 0 min 0,000 mm 0,0 UV-I 0 W/m² 11,4 °C 12,8 °C 4,8 km/h (1 Bft)
02.10.2017 21:52 12,8 °C 12,9 °C 91 % 1018,1 hPa 0,0 mm 4,1 km/h (1 Bft) S-SW 205 ° 0 min 0,000 mm 0,0 UV-I 0 W/m² 11,4 °C 12,8 °C 6,4 km/h (2 Bft)
02.10.2017 21:53 12,9 °C 12,9 °C 91 % 1018,1 hPa 0,0 mm 2,4 km/h (1 Bft) S-SW 200 ° 0 min 0,000 mm 0,0 UV-I 0 W/m² 11,5 °C 12,9 °C 4,8 km/h (1 Bft)
02.10.2017 21:54 12,9 °C 12,9 °C 91 % 1018,1 hPa 0,2 mm 2,7 km/h (1 Bft) S-SW 209 ° 0 min 0,000 mm 0,0 UV-I 0 W/m² 11,5 °C 12,9 °C 6,4 km/h (2 Bft)
02.10.2017 21:55 12,9 °C 12,9 °C 91 % 1018,1 hPa 0,0 mm 4,7 km/h (1 Bft) S-SW 192 ° 0 min 0,000 mm 0,0 UV-I 0 W/m² 11,5 °C 12,9 °C 6,4 km/h (2 Bft)
02.10.2017 21:56 12,9 °C 12,9 °C 91 % 1018,1 hPa 0,0 mm 3,0 km/h (1 Bft) S-SW 198 ° 0 min 0,000 mm 0,0 UV-I 0 W/m² 11,5 °C 12,9 °C 4,8 km/h (1 Bft)
02.10.2017 21:57 12,9 °C 12,9 °C 91 % 1018,1 hPa 0,0 mm 2,5 km/h (1 Bft) S-SW 196 ° 0 min 0,000 mm 0,0 UV-I 0 W/m² 11,5 °C 12,9 °C 4,8 km/h (1 Bft)
02.10.2017 21:58 12,9 °C 12,9 °C 91 % 1018,2 hPa 0,0 mm 2,0 km/h (1 Bft) S-SW 196 ° 0 min 0,000 mm 0,0 UV-I 0 W/m² 11,5 °C 12,9 °C 6,4 km/h (2 Bft)
02.10.2017 21:59 12,8 °C 12,9 °C 90 % 1018,1 hPa 0,0 mm 4,8 km/h (1 Bft) S 179 ° 0 min 0,000 mm 0,0 UV-I 0 W/m² 11,2 °C 12,8 °C 9,7 km/h (2 Bft)
02.10.2017 22:00 12,8 °C 12,8 °C 90 % 1018,1 hPa 0,0 mm 3,9 km/h (1 Bft) S 183 ° 0 min 0,000 mm 0,0 UV-I 0 W/m² 11,2 °C 12,8 °C 8,0 km/h (2 Bft)
02.10.2017 22:01 12,8 °C 12,8 °C 90 % 1018,1 hPa 0,0 mm 3,1 km/h (1 Bft) S 183 ° 0 min 0,000 mm 0,0 UV-I 0 W/m² 11,2 °C 12,8 °C 6,4 km/h (2 Bft)
02.10.2017 22:02 12,8 °C 12,8 °C 90 % 1018,1 hPa 0,0 mm 3,1 km/h (1 Bft) S 183 ° 0 min 0,000 mm 0,0 UV-I 0 W/m² 11,2 °C 12,8 °C 4,8 km/h (1 Bft)
02.10.2017 22:03 12,8 °C 12,8 °C 90 % 1018,0 hPa 0,0 mm 4,7 km/h (1 Bft) S-SW 195 ° 0 min 0,000 mm 0,0 UV-I 0 W/m² 11,2 °C 12,8 °C 6,4 km/h (2 Bft)
02.10.2017 22:04 12,7 °C 12,8 °C 90 % 1018,0 hPa 0,0 mm 5,4 km/h (1 Bft) S-SW 193 ° 0 min 0,000 mm 0,0 UV-I 0 W/m² 11,1 °C 12,7 °C 8,0 km/h (2 Bft)
02.10.2017 22:05 12,7 °C 12,7 °C 90 % 1018,0 hPa 0,0 mm 4,5 km/h (1 Bft) S 187 ° 0 min 0,000 mm 0,0 UV-I 0 W/m² 11,1 °C 12,7 °C 6,4 km/h (2 Bft)
02.10.2017 22:06 12,7 °C 12,7 °C 91 % 1018,0 hPa 0,0 mm 1,6 km/h (1 Bft) S 182 ° 0 min 0,000 mm 0,0 UV-I 0 W/m² 11,3 °C 12,7 °C 3,2 km/h (1 Bft)
02.10.2017 22:07 12,6 °C 12,7 °C 91 % 1018,0 hPa 0,0 mm 2,2 km/h (1 Bft) S 185 ° 0 min 0,000 mm 0,0 UV-I 0 W/m² 11,2 °C 12,6 °C 4,8 km/h (1 Bft)
02.10.2017 22:09 12,6 °C 12,6 °C 91 % 1018,0 hPa 0,0 mm 4,1 km/h (1 Bft) S 185 ° 0 min 0,000 mm 0,0 UV-I 0 W/m² 11,2 °C 12,6 °C 6,4 km/h (2 Bft)
02.10.2017 22:10 12,6 °C 12,6 °C 91 % 1018,0 hPa 0,0 mm 4,7 km/h (1 Bft) S-SW 205 ° 0 min 0,000 mm 0,0 UV-I 0 W/m² 11,2 °C 12,6 °C 8,0 km/h (2 Bft)
02.10.2017 22:11 12,6 °C 12,6 °C 91 % 1018,0 hPa 0,0 mm 7,2 km/h (2 Bft) S 191 ° 0 min 0,000 mm 0,0 UV-I 0 W/m² 11,2 °C 12,6 °C 12,9 km/h (3 Bft)
02.10.2017 22:12 12,5 °C 12,6 °C 91 % 1018,0 hPa 0,2 mm 3,7 km/h (1 Bft) S-SW 199 ° 0 min 0,000 mm 0,0 UV-I 0 W/m² 11,1 °C 12,5 °C 4,8 km/h (1 Bft)
02.10.2017 22:13 12,5 °C 12,5 °C 91 % 1018,0 hPa 0,0 mm 5,7 km/h (1 Bft) S 178 ° 0 min 0,000 mm 0,0 UV-I 0 W/m² 11,1 °C 12,5 °C 8,0 km/h (2 Bft)
02.10.2017 22:14 12,5 °C 12,5 °C 91 % 1018,0 hPa 0,2 mm 5,7 km/h (1 Bft) S 169 ° 0 min 0,000 mm 0,0 UV-I 0 W/m² 11,1 °C 12,5 °C 8,0 km/h (2 Bft)
02.10.2017 22:15 12,4 °C 12,5 °C 91 % 1017,9 hPa 0,0 mm 4,3 km/h (1 Bft) S-SW 194 ° 0 min 0,000 mm 0,0 UV-I 0 W/m² 11,0 °C 12,4 °C 6,4 km/h (2 Bft)
02.10.2017 22:16 12,4 °C 12,4 °C 91 % 1017,9 hPa 0,0 mm 2,8 km/h (1 Bft) S 178 ° 0 min 0,000 mm 0,0 UV-I 0 W/m² 11,0 °C 12,4 °C 4,8 km/h (1 Bft)
02.10.2017 22:17 12,3 °C 12,4 °C 92 % 1017,9 hPa 0,0 mm 2,5 km/h (1 Bft) S 178 ° 0 min 0,000 mm 0,0 UV-I 0 W/m² 11,0 °C 12,3 °C 3,2 km/h (1 Bft)
02.10.2017 22:18 12,3 °C 12,4 °C 92 % 1017,9 hPa 0,0 mm 1,1 km/h (1 Bft) S 178 ° 0 min 0,000 mm 0,0 UV-I 0 W/m² 11,0 °C 12,3 °C 3,2 km/h (1 Bft)
02.10.2017 22:19 12,3 °C 12,3 °C 92 % 1017,9 hPa 0,0 mm 0,4 km/h (0 Bft) S 178 ° 0 min 0,000 mm 0,0 UV-I 0 W/m² 11,0 °C 12,3 °C 1,6 km/h (1 Bft)
02.10.2017 22:20 12,3 °C 12,3 °C 92 % 1017,9 hPa 0,0 mm 0,0 km/h (0 Bft) S 178 ° 0 min 0,000 mm 0,0 UV-I 0 W/m² 11,0 °C 12,3 °C 0,0 km/h (0 Bft)
02.10.2017 22:21 12,2 °C 12,3 °C 92 % 1017,9 hPa 0,0 mm 0,2 km/h (0 Bft) S 178 ° 0 min 0,000 mm 0,0 UV-I 0 W/m² 10,9 °C 12,2 °C 1,6 km/h (1 Bft)
02.10.2017 22:22 12,2 °C 12,2 °C 93 % 1017,8 hPa 0,0 mm 0,0 km/h (0 Bft) S 178 ° 0 min 0,000 mm 0,0 UV-I 0 W/m² 11,1 °C 12,2 °C 0,0 km/h (0 Bft)
02.10.2017 22:23 12,2 °C 12,2 °C 93 % 1017,8 hPa 0,0 mm 0,0 km/h (0 Bft) S 178 ° 0 min 0,000 mm 0,0 UV-I 0 W/m² 11,1 °C 12,2 °C 0,0 km/h (0 Bft)
02.10.2017 22:24 12,1 °C 12,2 °C 93 % 1017,9 hPa 0,2 mm 0,7 km/h (0 Bft) S 178 ° 0 min 0,000 mm 0,0 UV-I 0 W/m² 11,0 °C 12,1 °C 1,6 km/h (1 Bft)
02.10.2017 22:25 12,1 °C 12,1 °C 93 % 1017,8 hPa 0,0 mm 0,0 km/h (0 Bft) S 178 ° 0 min 0,000 mm 0,0 UV-I 0 W/m² 11,0 °C 12,1 °C 0,0 km/h (0 Bft)
02.10.2017 22:26 12,1 °C 12,1 °C 93 % 1017,8 hPa 0,0 mm 1,1 km/h (1 Bft) S 178 ° 0 min 0,000 mm 0,0 UV-I 0 W/m² 11,0 °C 12,1 °C 3,2 km/h (1 Bft)
02.10.2017 22:27 12,1 °C 12,1 °C 93 % 1017,8 hPa 0,0 mm 0,7 km/h (0 Bft) S 178 ° 0 min 0,000 mm 0,0 UV-I 0 W/m² 11,0 °C 12,1 °C 1,6 km/h (1 Bft)
02.10.2017 22:28 12,1 °C 12,1 °C 93 % 1017,7 hPa 0,0 mm 0,1 km/h (0 Bft) S 178 ° 0 min 0,000 mm 0,0 UV-I 0 W/m² 11,0 °C 12,1 °C 1,6 km/h (1 Bft)
02.10.2017 22:29 12,1 °C 12,1 °C 93 % 1017,7 hPa 0,0 mm 0,0 km/h (0 Bft) S 178 ° 0 min 0,000 mm 0,0 UV-I 0 W/m² 11,0 °C 12,1 °C 0,0 km/h (0 Bft)
02.10.2017 22:30 12,1 °C 12,1 °C 93 % 1017,8 hPa 0,0 mm 0,0 km/h (0 Bft) S 178 ° 0 min 0,000 mm 0,0 UV-I 0 W/m² 11,0 °C 12,1 °C 0,0 km/h (0 Bft)
02.10.2017 22:31 12,1 °C 12,1 °C 93 % 1017,7 hPa 0,0 mm 0,3 km/h (0 Bft) S 178 ° 0 min 0,000 mm 0,0 UV-I 0 W/m² 11,0 °C 12,1 °C 1,6 km/h (1 Bft)
02.10.2017 22:32 12,1 °C 12,1 °C 93 % 1017,8 hPa 0,0 mm 0,0 km/h (0 Bft) S 178 ° 0 min 0,000 mm 0,0 UV-I 0 W/m² 11,0 °C 12,1 °C 0,0 km/h (0 Bft)
02.10.2017 22:33 12,0 °C 12,1 °C 93 % 1017,8 hPa 0,0 mm 0,0 km/h (0 Bft) S 178 ° 0 min 0,000 mm 0,0 UV-I 0 W/m² 10,9 °C 12,0 °C 0,0 km/h (0 Bft)
02.10.2017 22:34 12,0 °C 12,1 °C 94 % 1017,7 hPa 0,0 mm 0,0 km/h (0 Bft) S 178 ° 0 min 0,000 mm 0,0 UV-I 0 W/m² 11,1 °C 12,0 °C 0,0 km/h (0 Bft)
02.10.2017 22:35 12,0 °C 12,0 °C 94 % 1017,7 hPa 0,0 mm 0,0 km/h (0 Bft) S 178 ° 0 min 0,000 mm 0,0 UV-I 0 W/m² 11,1 °C 12,0 °C 0,0 km/h (0 Bft)
02.10.2017 22:36 11,9 °C 12,0 °C 94 % 1017,7 hPa 0,0 mm 0,0 km/h (0 Bft) S 178 ° 0 min 0,000 mm 0,0 UV-I 0 W/m² 11,0 °C 11,9 °C 0,0 km/h (0 Bft)
02.10.2017 22:37 11,9 °C 12,0 °C 94 % 1017,7 hPa 0,0 mm 1,9 km/h (1 Bft) S 178 ° 0 min 0,000 mm 0,0 UV-I 0 W/m² 11,0 °C 11,9 °C 3,2 km/h (1 Bft)
02.10.2017 22:38 11,9 °C 12,0 °C 94 % 1017,7 hPa 0,0 mm 2,4 km/h (1 Bft) S 169 ° 0 min 0,000 mm 0,0 UV-I 0 W/m² 11,0 °C 11,9 °C 6,4 km/h (2 Bft)
02.10.2017 22:39 11,9 °C 11,9 °C 94 % 1017,7 hPa 0,0 mm 1,4 km/h (1 Bft) S 169 ° 0 min 0,000 mm 0,0 UV-I 0 W/m² 11,0 °C 11,9 °C 3,2 km/h (1 Bft)
02.10.2017 22:40 11,9 °C 11,9 °C 94 % 1017,7 hPa 0,0 mm 0,1 km/h (0 Bft) S 169 ° 0 min 0,000 mm 0,0 UV-I 0 W/m² 11,0 °C 11,9 °C 1,6 km/h (1 Bft)
02.10.2017 22:41 11,9 °C 11,9 °C 94 % 1017,6 hPa 0,0 mm 0,0 km/h (0 Bft) S 169 ° 0 min 0,000 mm 0,0 UV-I 0 W/m² 11,0 °C 11,9 °C 0,0 km/h (0 Bft)
02.10.2017 22:42 11,9 °C 11,9 °C 94 % 1017,7 hPa 0,0 mm 0,3 km/h (0 Bft) S 169 ° 0 min 0,000 mm 0,0 UV-I 0 W/m² 11,0 °C 11,9 °C 1,6 km/h (1 Bft)
02.10.2017 22:43 11,9 °C 11,9 °C 94 % 1017,6 hPa 0,0 mm 0,8 km/h (0 Bft) S 169 ° 0 min 0,000 mm 0,0 UV-I 0 W/m² 11,0 °C 11,9 °C 1,6 km/h (1 Bft)
02.10.2017 22:44 11,9 °C 11,9 °C 94 % 1017,7 hPa 0,0 mm 0,1 km/h (0 Bft) S 169 ° 0 min 0,000 mm 0,0 UV-I 0 W/m² 11,0 °C 11,9 °C 1,6 km/h (1 Bft)
02.10.2017 22:45 11,9 °C 11,9 °C 94 % 1017,6 hPa 0,0 mm 1,1 km/h (1 Bft) S 169 ° 0 min 0,000 mm 0,0 UV-I 0 W/m² 11,0 °C 11,9 °C 3,2 km/h (1 Bft)
02.10.2017 22:46 11,9 °C 11,9 °C 94 % 1017,6 hPa 0,0 mm 0,0 km/h (0 Bft) S 169 ° 0 min 0,000 mm 0,0 UV-I 0 W/m² 11,0 °C 11,9 °C 0,0 km/h (0 Bft)
02.10.2017 22:47 11,9 °C 11,9 °C 94 % 1017,7 hPa 0,0 mm 0,0 km/h (0 Bft) S 169 ° 0 min 0,000 mm 0,0 UV-I 0 W/m² 11,0 °C 11,9 °C 0,0 km/h (0 Bft)
02.10.2017 22:48 11,9 °C 11,9 °C 94 % 1017,7 hPa 0,0 mm 0,0 km/h (0 Bft) S 169 ° 0 min 0,000 mm 0,0 UV-I 0 W/m² 11,0 °C 11,9 °C 0,0 km/h (0 Bft)
02.10.2017 22:49 11,9 °C 11,9 °C 94 % 1017,6 hPa 0,0 mm 0,0 km/h (0 Bft) S 169 ° 0 min 0,000 mm 0,0 UV-I 0 W/m² 11,0 °C 11,9 °C 0,0 km/h (0 Bft)
02.10.2017 22:50 11,9 °C 11,9 °C 94 % 1017,7 hPa 0,0 mm 0,6 km/h (0 Bft) S 190 ° 0 min 0,000 mm 0,0 UV-I 0 W/m² 11,0 °C 11,9 °C 3,2 km/h (1 Bft)
02.10.2017 22:51 11,9 °C 11,9 °C 94 % 1017,7 hPa 0,0 mm 2,0 km/h (1 Bft) S-SW 202 ° 0 min 0,000 mm 0,0 UV-I 0 W/m² 11,0 °C 11,9 °C 3,2 km/h (1 Bft)
02.10.2017 22:52 12,0 °C 12,0 °C 94 % 1017,7 hPa 0,2 mm 0,9 km/h (0 Bft) S-SW 202 ° 0 min 0,000 mm 0,0 UV-I 0 W/m² 11,1 °C 12,0 °C 3,2 km/h (1 Bft)
02.10.2017 22:53 12,0 °C 12,0 °C 94 % 1017,8 hPa 0,0 mm 2,5 km/h (1 Bft) SW 236 ° 0 min 0,000 mm 0,0 UV-I 0 W/m² 11,1 °C 12,0 °C 3,2 km/h (1 Bft)
02.10.2017 22:54 12,1 °C 12,1 °C 95 % 1017,8 hPa 0,0 mm 2,0 km/h (1 Bft) SW 236 ° 0 min 0,000 mm 0,0 UV-I 0 W/m² 11,3 °C 12,1 °C 3,2 km/h (1 Bft)
02.10.2017 22:55 12,1 °C 12,1 °C 95 % 1017,8 hPa 0,0 mm 0,0 km/h (0 Bft) SW 236 ° 0 min 0,000 mm 0,0 UV-I 0 W/m² 11,3 °C 12,1 °C 0,0 km/h (0 Bft)
02.10.2017 22:56 12,1 °C 12,1 °C 94 % 1017,8 hPa 0,0 mm 0,9 km/h (0 Bft) S-SW 205 ° 0 min 0,000 mm 0,0 UV-I 0 W/m² 11,2 °C 12,1 °C 3,2 km/h (1 Bft)
02.10.2017 22:57 12,1 °C 12,1 °C 94 % 1017,7 hPa 0,0 mm 4,4 km/h (1 Bft) S 189 ° 0 min 0,000 mm 0,0 UV-I 0 W/m² 11,2 °C 12,1 °C 4,8 km/h (1 Bft)
02.10.2017 22:58 12,1 °C 12,1 °C 94 % 1017,7 hPa 0,0 mm 4,1 km/h (1 Bft) S 174 ° 0 min 0,000 mm 0,0 UV-I 0 W/m² 11,2 °C 12,1 °C 6,4 km/h (2 Bft)
02.10.2017 22:59 12,1 °C 12,1 °C 94 % 1017,7 hPa 0,0 mm 1,3 km/h (1 Bft) S 174 ° 0 min 0,000 mm 0,0 UV-I 0 W/m² 11,2 °C 12,1 °C 1,6 km/h (1 Bft)
02.10.2017 23:00 12,1 °C 12,1 °C 94 % 1017,7 hPa 0,2 mm 0,8 km/h (0 Bft) S 174 ° 0 min 0,000 mm 0,0 UV-I 0 W/m² 11,2 °C 12,1 °C 1,6 km/h (1 Bft)
02.10.2017 23:01 12,1 °C 12,1 °C 94 % 1017,7 hPa 0,0 mm 1,2 km/h (1 Bft) S 184 ° 0 min 0,000 mm 0,0 UV-I 0 W/m² 11,2 °C 12,1 °C 3,2 km/h (1 Bft)
02.10.2017 23:02 12,1 °C 12,1 °C 94 % 1017,7 hPa 0,0 mm 0,3 km/h (0 Bft) S 183 ° 0 min 0,000 mm 0,0 UV-I 0 W/m² 11,2 °C 12,1 °C 1,6 km/h (1 Bft)
02.10.2017 23:03 12,1 °C 12,1 °C 94 % 1017,8 hPa 0,0 mm 4,1 km/h (1 Bft) S 169 ° 0 min 0,000 mm 0,0 UV-I 0 W/m² 11,2 °C 12,1 °C 4,8 km/h (1 Bft)
02.10.2017 23:04 12,1 °C 12,1 °C 94 % 1017,7 hPa 0,0 mm 2,6 km/h (1 Bft) S 170 ° 0 min 0,000 mm 0,0 UV-I 0 W/m² 11,2 °C 12,1 °C 3,2 km/h (1 Bft)
02.10.2017 23:05 12,1 °C 12,1 °C 94 % 1017,7 hPa 0,0 mm 1,3 km/h (1 Bft) S 170 ° 0 min 0,000 mm 0,0 UV-I 0 W/m² 11,2 °C 12,1 °C 1,6 km/h (1 Bft)
02.10.2017 23:06 12,1 °C 12,2 °C 94 % 1017,7 hPa 0,0 mm 0,7 km/h (0 Bft) S 170 ° 0 min 0,000 mm 0,0 UV-I 0 W/m² 11,2 °C 12,1 °C 3,2 km/h (1 Bft)
02.10.2017 23:07 12,1 °C 12,1 °C 94 % 1017,7 hPa 0,0 mm 0,7 km/h (0 Bft) S 170 ° 0 min 0,000 mm 0,0 UV-I 0 W/m² 11,2 °C 12,1 °C 3,2 km/h (1 Bft)
02.10.2017 23:08 12,1 °C 12,1 °C 94 % 1017,7 hPa 0,0 mm 2,7 km/h (1 Bft) S 182 ° 0 min 0,000 mm 0,0 UV-I 0 W/m² 11,2 °C 12,1 °C 4,8 km/h (1 Bft)
02.10.2017 23:09 12,1 °C 12,2 °C 94 % 1017,6 hPa 0,0 mm 2,4 km/h (1 Bft) S 182 ° 0 min 0,000 mm 0,0 UV-I 0 W/m² 11,2 °C 12,1 °C 4,8 km/h (1 Bft)
02.10.2017 23:10 12,1 °C 12,1 °C 94 % 1017,6 hPa 0,0 mm 0,3 km/h (0 Bft) S 182 ° 0 min 0,000 mm 0,0 UV-I 0 W/m² 11,2 °C 12,1 °C 1,6 km/h (1 Bft)
02.10.2017 23:11 12,1 °C 12,1 °C 94 % 1017,5 hPa 0,0 mm 1,7 km/h (1 Bft) S-SW 207 ° 0 min 0,000 mm 0,0 UV-I 0 W/m² 11,2 °C 12,1 °C 3,2 km/h (1 Bft)
02.10.2017 23:12 12,1 °C 12,2 °C 94 % 1017,6 hPa 0,0 mm 1,3 km/h (1 Bft) SW 222 ° 0 min 0,000 mm 0,0 UV-I 0 W/m² 11,2 °C 12,1 °C 3,2 km/h (1 Bft)
02.10.2017 23:13 12,1 °C 12,1 °C 94 % 1017,5 hPa 0,0 mm 0,8 km/h (0 Bft) SW 222 ° 0 min 0,000 mm 0,0 UV-I 0 W/m² 11,2 °C 12,1 °C 1,6 km/h (1 Bft)
02.10.2017 23:14 12,1 °C 12,1 °C 94 % 1017,5 hPa 0,0 mm 0,0 km/h (0 Bft) SW 222 ° 0 min 0,000 mm 0,0 UV-I 0 W/m² 11,2 °C 12,1 °C 0,0 km/h (0 Bft)
02.10.2017 23:15 12,1 °C 12,1 °C 94 % 1017,5 hPa 0,0 mm 0,7 km/h (0 Bft) SW 222 ° 0 min 0,000 mm 0,0 UV-I 0 W/m² 11,2 °C 12,1 °C 3,2 km/h (1 Bft)
02.10.2017 23:16 12,1 °C 12,1 °C 94 % 1017,5 hPa 0,0 mm 2,5 km/h (1 Bft) S-SW 207 ° 0 min 0,000 mm 0,0 UV-I 0 W/m² 11,2 °C 12,1 °C 4,8 km/h (1 Bft)
02.10.2017 23:17 12,1 °C 12,1 °C 94 % 1017,4 hPa 0,0 mm 3,6 km/h (1 Bft) S-SW 192 ° 0 min 0,000 mm 0,0 UV-I 0 W/m² 11,2 °C 12,1 °C 4,8 km/h (1 Bft)
02.10.2017 23:18 12,1 °C 12,2 °C 94 % 1017,5 hPa 0,0 mm 1,5 km/h (1 Bft) S 183 ° 0 min 0,000 mm 0,0 UV-I 0 W/m² 11,2 °C 12,1 °C 3,2 km/h (1 Bft)
02.10.2017 23:19 12,2 °C 12,2 °C 94 % 1017,4 hPa 0,0 mm 2,3 km/h (1 Bft) S 184 ° 0 min 0,000 mm 0,0 UV-I 0 W/m² 11,3 °C 12,2 °C 4,8 km/h (1 Bft)
02.10.2017 23:20 12,2 °C 12,2 °C 94 % 1017,4 hPa 0,0 mm 0,1 km/h (0 Bft) S 184 ° 0 min 0,000 mm 0,0 UV-I 0 W/m² 11,3 °C 12,2 °C 1,6 km/h (1 Bft)
02.10.2017 23:21 12,2 °C 12,2 °C 94 % 1017,4 hPa 0,0 mm 1,6 km/h (1 Bft) S 184 ° 0 min 0,000 mm 0,0 UV-I 0 W/m² 11,3 °C 12,2 °C 3,2 km/h (1 Bft)
02.10.2017 23:22 12,3 °C 12,3 °C 94 % 1017,4 hPa 0,2 mm 0,4 km/h (0 Bft) S 184 ° 0 min 0,000 mm 0,0 UV-I 0 W/m² 11,4 °C 12,3 °C 1,6 km/h (1 Bft)
02.10.2017 23:23 12,3 °C 12,3 °C 94 % 1017,5 hPa 0,0 mm 0,5 km/h (0 Bft) S 184 ° 0 min 0,000 mm 0,0 UV-I 0 W/m² 11,4 °C 12,3 °C 1,6 km/h (1 Bft)
02.10.2017 23:24 12,3 °C 12,3 °C 94 % 1017,5 hPa 0,0 mm 0,0 km/h (0 Bft) S 184 ° 0 min 0,000 mm 0,0 UV-I 0 W/m² 11,4 °C 12,3 °C 0,0 km/h (0 Bft)
02.10.2017 23:25 12,3 °C 12,3 °C 94 % 1017,4 hPa 0,0 mm 0,0 km/h (0 Bft) S 184 ° 0 min 0,000 mm 0,0 UV-I 0 W/m² 11,4 °C 12,3 °C 0,0 km/h (0 Bft)
02.10.2017 23:26 12,3 °C 12,3 °C 94 % 1017,4 hPa 0,0 mm 0,8 km/h (0 Bft) S 184 ° 0 min 0,000 mm 0,0 UV-I 0 W/m² 11,4 °C 12,3 °C 3,2 km/h (1 Bft)
02.10.2017 23:27 12,3 °C 12,3 °C 94 % 1017,4 hPa 0,0 mm 0,4 km/h (0 Bft) S 184 ° 0 min 0,000 mm 0,0 UV-I 0 W/m² 11,4 °C 12,3 °C 1,6 km/h (1 Bft)
02.10.2017 23:28 12,3 °C 12,3 °C 94 % 1017,4 hPa 0,0 mm 0,0 km/h (0 Bft) S 184 ° 0 min 0,000 mm 0,0 UV-I 0 W/m² 11,4 °C 12,3 °C 0,0 km/h (0 Bft)
02.10.2017 23:29 12,3 °C 12,3 °C 94 % 1017,4 hPa 0,0 mm 1,7 km/h (1 Bft) S 184 ° 0 min 0,000 mm 0,0 UV-I 0 W/m² 11,4 °C 12,3 °C 3,2 km/h (1 Bft)
02.10.2017 23:30 12,3 °C 12,3 °C 94 % 1017,4 hPa 0,0 mm 0,6 km/h (0 Bft) S 184 ° 0 min 0,000 mm 0,0 UV-I 0 W/m² 11,4 °C 12,3 °C 3,2 km/h (1 Bft)
02.10.2017 23:31 12,3 °C 12,3 °C 94 % 1017,3 hPa 0,0 mm 0,3 km/h (0 Bft) S 184 ° 0 min 0,000 mm 0,0 UV-I 0 W/m² 11,4 °C 12,3 °C 1,6 km/h (1 Bft)
02.10.2017 23:32 12,3 °C 12,3 °C 94 % 1017,3 hPa 0,0 mm 0,0 km/h (0 Bft) S 184 ° 0 min 0,000 mm 0,0 UV-I 0 W/m² 11,4 °C 12,3 °C 0,0 km/h (0 Bft)
02.10.2017 23:33 12,3 °C 12,3 °C 94 % 1017,3 hPa 0,0 mm 0,0 km/h (0 Bft) S 184 ° 0 min 0,000 mm 0,0 UV-I 0 W/m² 11,4 °C 12,3 °C 0,0 km/h (0 Bft)
02.10.2017 23:34 12,3 °C 12,3 °C 94 % 1017,3 hPa 0,0 mm 0,7 km/h (0 Bft) S 184 ° 0 min 0,000 mm 0,0 UV-I 0 W/m² 11,4 °C 12,3 °C 1,6 km/h (1 Bft)
02.10.2017 23:35 12,2 °C 12,3 °C 94 % 1017,3 hPa 0,0 mm 0,3 km/h (0 Bft) S 184 ° 0 min 0,000 mm 0,0 UV-I 0 W/m² 11,3 °C 12,2 °C 1,6 km/h (1 Bft)
02.10.2017 23:36 12,2 °C 12,2 °C 94 % 1017,3 hPa 0,0 mm 0,3 km/h (0 Bft) SW 222 ° 0 min 0,000 mm 0,0 UV-I 0 W/m² 11,3 °C 12,2 °C 1,6 km/h (1 Bft)
02.10.2017 23:37 12,2 °C 12,2 °C 94 % 1017,3 hPa 0,0 mm 0,9 km/h (0 Bft) SW 232 ° 0 min 0,000 mm 0,0 UV-I 0 W/m² 11,3 °C 12,2 °C 3,2 km/h (1 Bft)
02.10.2017 23:38 12,2 °C 12,2 °C 94 % 1017,3 hPa 0,0 mm 0,3 km/h (0 Bft) SW 232 ° 0 min 0,000 mm 0,0 UV-I 0 W/m² 11,3 °C 12,2 °C 1,6 km/h (1 Bft)
02.10.2017 23:39 12,2 °C 12,2 °C 94 % 1017,3 hPa 0,0 mm 0,0 km/h (0 Bft) SW 232 ° 0 min 0,000 mm 0,0 UV-I 0 W/m² 11,3 °C 12,2 °C 0,0 km/h (0 Bft)
02.10.2017 23:40 12,2 °C 12,2 °C 94 % 1017,3 hPa 0,0 mm 0,0 km/h (0 Bft) SW 232 ° 0 min 0,000 mm 0,0 UV-I 0 W/m² 11,3 °C 12,2 °C 0,0 km/h (0 Bft)
02.10.2017 23:41 12,2 °C 12,2 °C 94 % 1017,3 hPa 0,0 mm 0,0 km/h (0 Bft) SW 232 ° 0 min 0,000 mm 0,0 UV-I 0 W/m² 11,3 °C 12,2 °C 0,0 km/h (0 Bft)
02.10.2017 23:42 12,2 °C 12,2 °C 94 % 1017,2 hPa 0,0 mm 0,0 km/h (0 Bft) SW 232 ° 0 min 0,000 mm 0,0 UV-I 0 W/m² 11,3 °C 12,2 °C 0,0 km/h (0 Bft)
02.10.2017 23:43 12,2 °C 12,2 °C 94 % 1017,2 hPa 0,0 mm 0,0 km/h (0 Bft) SW 232 ° 0 min 0,000 mm 0,0 UV-I 0 W/m² 11,3 °C 12,2 °C 0,0 km/h (0 Bft)
02.10.2017 23:44 12,2 °C 12,2 °C 94 % 1017,2 hPa 0,0 mm 0,0 km/h (0 Bft) SW 232 ° 0 min 0,000 mm 0,0 UV-I 0 W/m² 11,3 °C 12,2 °C 0,0 km/h (0 Bft)
02.10.2017 23:45 12,2 °C 12,2 °C 94 % 1017,2 hPa 0,0 mm 0,0 km/h (0 Bft) SW 232 ° 0 min 0,000 mm 0,0 UV-I 0 W/m² 11,3 °C 12,2 °C 0,0 km/h (0 Bft)
02.10.2017 23:46 12,2 °C 12,2 °C 94 % 1017,2 hPa 0,0 mm 0,0 km/h (0 Bft) SW 232 ° 0 min 0,000 mm 0,0 UV-I 0 W/m² 11,3 °C 12,2 °C 0,0 km/h (0 Bft)
02.10.2017 23:47 12,2 °C 12,2 °C 94 % 1017,2 hPa 0,0 mm 0,0 km/h (0 Bft) SW 232 ° 0 min 0,000 mm 0,0 UV-I 0 W/m² 11,3 °C 12,2 °C 0,0 km/h (0 Bft)
02.10.2017 23:48 12,1 °C 12,2 °C 94 % 1017,2 hPa 0,0 mm 0,0 km/h (0 Bft) SW 232 ° 0 min 0,000 mm 0,0 UV-I 0 W/m² 11,2 °C 12,1 °C 0,0 km/h (0 Bft)
02.10.2017 23:49 12,1 °C 12,2 °C 94 % 1017,1 hPa 0,0 mm 0,0 km/h (0 Bft) SW 232 ° 0 min 0,000 mm 0,0 UV-I 0 W/m² 11,2 °C 12,1 °C 0,0 km/h (0 Bft)
02.10.2017 23:50 12,1 °C 12,2 °C 94 % 1017,1 hPa 0,0 mm 0,0 km/h (0 Bft) SW 232 ° 0 min 0,000 mm 0,0 UV-I 0 W/m² 11,2 °C 12,1 °C 0,0 km/h (0 Bft)
02.10.2017 23:51 12,1 °C 12,1 °C 94 % 1017,1 hPa 0,0 mm 0,0 km/h (0 Bft) SW 230 ° 0 min 0,000 mm 0,0 UV-I 0 W/m² 11,2 °C 12,1 °C 0,0 km/h (0 Bft)
02.10.2017 23:52 12,2 °C 12,2 °C 94 % 1017,1 hPa 0,0 mm 0,0 km/h (0 Bft) SW 230 ° 0 min 0,000 mm 0,0 UV-I 0 W/m² 11,3 °C 12,2 °C 0,0 km/h (0 Bft)
02.10.2017 23:53 12,1 °C 12,2 °C 95 % 1017,1 hPa 0,0 mm 0,0 km/h (0 Bft) SW 230 ° 0 min 0,000 mm 0,0 UV-I 0 W/m² 11,3 °C 12,1 °C 0,0 km/h (0 Bft)
02.10.2017 23:54 12,1 °C 12,2 °C 95 % 1017,1 hPa 0,0 mm 0,0 km/h (0 Bft) SW 230 ° 0 min 0,000 mm 0,0 UV-I 0 W/m² 11,3 °C 12,1 °C 0,0 km/h (0 Bft)
02.10.2017 23:55 12,1 °C 12,2 °C 95 % 1017,1 hPa 0,0 mm 0,0 km/h (0 Bft) SW 230 ° 0 min 0,000 mm 0,0 UV-I 0 W/m² 11,3 °C 12,1 °C 0,0 km/h (0 Bft)
02.10.2017 23:56 12,2 °C 12,2 °C 95 % 1017,1 hPa 0,0 mm 0,0 km/h (0 Bft) SW 230 ° 0 min 0,000 mm 0,0 UV-I 0 W/m² 11,4 °C 12,2 °C 0,0 km/h (0 Bft)
02.10.2017 23:57 12,2 °C 12,2 °C 95 % 1017,1 hPa 0,0 mm 0,0 km/h (0 Bft) SW 230 ° 0 min 0,000 mm 0,0 UV-I 0 W/m² 11,4 °C 12,2 °C 0,0 km/h (0 Bft)
02.10.2017 23:58 12,2 °C 12,2 °C 95 % 1017,1 hPa 0,0 mm 0,0 km/h (0 Bft) SW 230 ° 0 min 0,000 mm 0,0 UV-I 0 W/m² 11,4 °C 12,2 °C 0,0 km/h (0 Bft)
02.10.2017 23:59 12,2 °C 12,2 °C 95 % 1017,1 hPa 0,0 mm 0,0 km/h (0 Bft) SW 230 ° 0 min 0,000 mm 0,0 UV-I 0 W/m² 11,4 °C 12,2 °C 0,0 km/h (0 Bft)
_ Min-Zeit 04:49 04:49 13:03 23:59 - 23:59 - - - - - - 04:49 04:49 23:59
Minimum _ 4,4 °C 4,4 °C 54 % 1017,1 hPa - 0,0 km/h (0 Bft) - - - - - - 3,8 °C 4,4 °C 0,0 km/h (0 Bft)
_ Max-Zeit 13:04 13:05 09:41 00:20 23:22 16:00 - - 15:08 12:01 12:45 12:23 12:06 13:04 16:00
Maximum _ 16,9 °C 16,9 °C 97 % 1021,2 hPa 0,2 mm 12,2 km/h
W-SW (2 Bft)
- - 1 min 0,280 mm 5,1 UV-I 826 W/m² 12,1 °C 16,9 °C 14,5 km/h
W (3 Bft)
Durchschnitt _ 10,5 °C 10,5 °C 88 % 1019,6 hPa #2,0 mm 0,8 km/h (0 Bft) S - #2:47 h #1,143 mm 2,2 UV-I 89 W/m² 8,4 °C 10,5 °C 1,6 km/h (1 Bft)